<?xml version="1.0" encoding="UTF-8" standalone="no" ?>
<gpx xmlns="http://www.topografix.com/GPX/1/1" xmlns:xsi="http://www.w3.org/2001/XMLSchema-instance" xsi:schemaLocation="http://www.topografix.com/GPX/1/1 http://www.topografix.com/GPX/1/1/gpx.xsd" version="1.1" creator="VisuGPX - https://www.visugpx.com">
  <metadata>
    <name>Malijai VTT électrique</name>
    <desc><![CDATA[vincent,bruno,gerard,christian]]></desc>
  </metadata>
  <trk>
    <name><![CDATA[Malijai VTT électrique]]></name>
    <trkseg>
      <trkpt lat="44.04386" lon="6.02915">
        <ele>430.20001220703</ele>
        <time>2022-01-02T07:48:57.000Z</time>
      </trkpt>
      <trkpt lat="44.04386" lon="6.02915">
        <ele>430.20001220703</ele>
        <time>2022-01-02T07:48:57.000Z</time>
      </trkpt>
      <trkpt lat="44.04378" lon="6.02922">
        <ele>430.60000610352</ele>
        <time>2022-01-02T07:48:57.003Z</time>
      </trkpt>
      <trkpt lat="44.04375" lon="6.02925">
        <ele>430.39999389648</ele>
        <time>2022-01-02T07:48:57.008Z</time>
      </trkpt>
      <trkpt lat="44.04369" lon="6.0294">
        <ele>430.79998779297</ele>
        <time>2022-01-02T07:48:57.017Z</time>
      </trkpt>
      <trkpt lat="44.04364" lon="6.02953">
        <ele>430.79998779297</ele>
        <time>2022-01-02T07:48:57.030Z</time>
      </trkpt>
      <trkpt lat="44.04364" lon="6.02958">
        <ele>431</ele>
        <time>2022-01-02T07:48:57.044Z</time>
      </trkpt>
      <trkpt lat="44.0436" lon="6.02984">
        <ele>430.20001220703</ele>
        <time>2022-01-02T07:48:57.065Z</time>
      </trkpt>
      <trkpt lat="44.04356" lon="6.03009">
        <ele>431</ele>
        <time>2022-01-02T07:48:57.092Z</time>
      </trkpt>
      <trkpt lat="44.04356" lon="6.03034">
        <ele>431.20001220703</ele>
        <time>2022-01-02T07:48:57.125Z</time>
      </trkpt>
      <trkpt lat="44.04356" lon="6.03041">
        <ele>431.20001220703</ele>
        <time>2022-01-02T07:48:57.160Z</time>
      </trkpt>
      <trkpt lat="44.04357" lon="6.03043">
        <ele>431.39999389648</ele>
        <time>2022-01-02T07:48:57.196Z</time>
      </trkpt>
      <trkpt lat="44.04361" lon="6.03048">
        <ele>431.79998779297</ele>
        <time>2022-01-02T07:48:57.234Z</time>
      </trkpt>
      <trkpt lat="44.04371" lon="6.03057">
        <ele>432.20001220703</ele>
        <time>2022-01-02T07:48:57.276Z</time>
      </trkpt>
      <trkpt lat="44.04377" lon="6.0306">
        <ele>432.39999389648</ele>
        <time>2022-01-02T07:48:57.320Z</time>
      </trkpt>
      <trkpt lat="44.04405" lon="6.0307">
        <ele>432.20001220703</ele>
        <time>2022-01-02T07:48:57.374Z</time>
      </trkpt>
      <trkpt lat="44.04424" lon="6.03075">
        <ele>432</ele>
        <time>2022-01-02T07:48:57.435Z</time>
      </trkpt>
      <trkpt lat="44.04429" lon="6.03075">
        <ele>431.79998779297</ele>
        <time>2022-01-02T07:48:57.497Z</time>
      </trkpt>
      <trkpt lat="44.04439" lon="6.03071">
        <ele>431.20001220703</ele>
        <time>2022-01-02T07:48:57.563Z</time>
      </trkpt>
      <trkpt lat="44.04444" lon="6.03068">
        <ele>430.79998779297</ele>
        <time>2022-01-02T07:48:57.631Z</time>
      </trkpt>
      <trkpt lat="44.04448" lon="6.03066">
        <ele>430.39999389648</ele>
        <time>2022-01-02T07:48:57.701Z</time>
      </trkpt>
      <trkpt lat="44.04452" lon="6.03067">
        <ele>430</ele>
        <time>2022-01-02T07:48:57.772Z</time>
      </trkpt>
      <trkpt lat="44.04459" lon="6.03072">
        <ele>429</ele>
        <time>2022-01-02T07:48:57.846Z</time>
      </trkpt>
      <trkpt lat="44.04463" lon="6.03079">
        <ele>429</ele>
        <time>2022-01-02T07:48:57.922Z</time>
      </trkpt>
      <trkpt lat="44.04466" lon="6.03088">
        <ele>429</ele>
        <time>2022-01-02T07:48:58.001Z</time>
      </trkpt>
      <trkpt lat="44.04466" lon="6.03104">
        <ele>429</ele>
        <time>2022-01-02T07:48:58.083Z</time>
      </trkpt>
      <trkpt lat="44.04467" lon="6.03108">
        <ele>429.39999389648</ele>
        <time>2022-01-02T07:48:58.167Z</time>
      </trkpt>
      <trkpt lat="44.0448" lon="6.0312">
        <ele>429.39999389648</ele>
        <time>2022-01-02T07:48:58.256Z</time>
      </trkpt>
      <trkpt lat="44.04483" lon="6.03123">
        <ele>429.39999389648</ele>
        <time>2022-01-02T07:48:58.346Z</time>
      </trkpt>
      <trkpt lat="44.04492" lon="6.03132">
        <ele>429.60000610352</ele>
        <time>2022-01-02T07:48:58.440Z</time>
      </trkpt>
      <trkpt lat="44.04494" lon="6.03135">
        <ele>429.60000610352</ele>
        <time>2022-01-02T07:48:58.535Z</time>
      </trkpt>
      <trkpt lat="44.04502" lon="6.03153">
        <ele>429.79998779297</ele>
        <time>2022-01-02T07:48:58.636Z</time>
      </trkpt>
      <trkpt lat="44.04518" lon="6.03175">
        <ele>430</ele>
        <time>2022-01-02T07:48:58.744Z</time>
      </trkpt>
      <trkpt lat="44.0453" lon="6.03187">
        <ele>429.79998779297</ele>
        <time>2022-01-02T07:48:58.858Z</time>
      </trkpt>
      <trkpt lat="44.04533" lon="6.03192">
        <ele>429.79998779297</ele>
        <time>2022-01-02T07:48:58.973Z</time>
      </trkpt>
      <trkpt lat="44.04546" lon="6.0321">
        <ele>430</ele>
        <time>2022-01-02T07:48:59.095Z</time>
      </trkpt>
      <trkpt lat="44.04555" lon="6.0321">
        <ele>430.20001220703</ele>
        <time>2022-01-02T07:48:59.220Z</time>
      </trkpt>
      <trkpt lat="44.04557" lon="6.03209">
        <ele>430.20001220703</ele>
        <time>2022-01-02T07:48:59.346Z</time>
      </trkpt>
      <trkpt lat="44.04573" lon="6.0321">
        <ele>430.20001220703</ele>
        <time>2022-01-02T07:48:59.477Z</time>
      </trkpt>
      <trkpt lat="44.04583" lon="6.03223">
        <ele>430.20001220703</ele>
        <time>2022-01-02T07:48:59.613Z</time>
      </trkpt>
      <trkpt lat="44.04589" lon="6.03229">
        <ele>430.20001220703</ele>
        <time>2022-01-02T07:48:59.751Z</time>
      </trkpt>
      <trkpt lat="44.04608" lon="6.03242">
        <ele>430</ele>
        <time>2022-01-02T07:48:59.897Z</time>
      </trkpt>
      <trkpt lat="44.04625" lon="6.03253">
        <ele>429.79998779297</ele>
        <time>2022-01-02T07:49:00.050Z</time>
      </trkpt>
      <trkpt lat="44.0463" lon="6.03258">
        <ele>429.60000610352</ele>
        <time>2022-01-02T07:49:00.205Z</time>
      </trkpt>
      <trkpt lat="44.04631" lon="6.03266">
        <ele>429.60000610352</ele>
        <time>2022-01-02T07:49:00.362Z</time>
      </trkpt>
      <trkpt lat="44.04632" lon="6.033">
        <ele>429.60000610352</ele>
        <time>2022-01-02T07:49:00.527Z</time>
      </trkpt>
      <trkpt lat="44.04633" lon="6.03306">
        <ele>429.60000610352</ele>
        <time>2022-01-02T07:49:00.694Z</time>
      </trkpt>
      <trkpt lat="44.0464" lon="6.03325">
        <ele>430</ele>
        <time>2022-01-02T07:49:00.866Z</time>
      </trkpt>
      <trkpt lat="44.04646" lon="6.03334">
        <ele>430</ele>
        <time>2022-01-02T07:49:01.041Z</time>
      </trkpt>
      <trkpt lat="44.04649" lon="6.03334">
        <ele>430.20001220703</ele>
        <time>2022-01-02T07:49:01.217Z</time>
      </trkpt>
      <trkpt lat="44.04656" lon="6.03334">
        <ele>431</ele>
        <time>2022-01-02T07:49:01.396Z</time>
      </trkpt>
      <trkpt lat="44.04659" lon="6.03336">
        <ele>431.20001220703</ele>
        <time>2022-01-02T07:49:01.576Z</time>
      </trkpt>
      <trkpt lat="44.0466" lon="6.03346">
        <ele>430.60000610352</ele>
        <time>2022-01-02T07:49:01.758Z</time>
      </trkpt>
      <trkpt lat="44.0466" lon="6.03349">
        <ele>430.39999389648</ele>
        <time>2022-01-02T07:49:01.941Z</time>
      </trkpt>
      <trkpt lat="44.04659" lon="6.03367">
        <ele>430.60000610352</ele>
        <time>2022-01-02T07:49:02.129Z</time>
      </trkpt>
      <trkpt lat="44.04659" lon="6.03388">
        <ele>431</ele>
        <time>2022-01-02T07:49:02.322Z</time>
      </trkpt>
      <trkpt lat="44.04659" lon="6.03404">
        <ele>431.39999389648</ele>
        <time>2022-01-02T07:49:02.519Z</time>
      </trkpt>
      <trkpt lat="44.04659" lon="6.0342">
        <ele>432</ele>
        <time>2022-01-02T07:49:02.720Z</time>
      </trkpt>
      <trkpt lat="44.04659" lon="6.03436">
        <ele>432.79998779297</ele>
        <time>2022-01-02T07:49:02.925Z</time>
      </trkpt>
      <trkpt lat="44.04659" lon="6.03463">
        <ele>432.60000610352</ele>
        <time>2022-01-02T07:49:03.137Z</time>
      </trkpt>
      <trkpt lat="44.0466" lon="6.03494">
        <ele>432.20001220703</ele>
        <time>2022-01-02T07:49:03.357Z</time>
      </trkpt>
      <trkpt lat="44.0466" lon="6.03537">
        <ele>432.39999389648</ele>
        <time>2022-01-02T07:49:03.588Z</time>
      </trkpt>
      <trkpt lat="44.04661" lon="6.03557">
        <ele>432.79998779297</ele>
        <time>2022-01-02T07:49:03.824Z</time>
      </trkpt>
      <trkpt lat="44.04661" lon="6.03564">
        <ele>433</ele>
        <time>2022-01-02T07:49:04.062Z</time>
      </trkpt>
      <trkpt lat="44.04661" lon="6.03568">
        <ele>433.20001220703</ele>
        <time>2022-01-02T07:49:04.301Z</time>
      </trkpt>
      <trkpt lat="44.04663" lon="6.0359">
        <ele>433.20001220703</ele>
        <time>2022-01-02T07:49:04.545Z</time>
      </trkpt>
      <trkpt lat="44.04669" lon="6.03591">
        <ele>433.39999389648</ele>
        <time>2022-01-02T07:49:04.791Z</time>
      </trkpt>
      <trkpt lat="44.04678" lon="6.03588">
        <ele>434.20001220703</ele>
        <time>2022-01-02T07:49:05.040Z</time>
      </trkpt>
      <trkpt lat="44.04682" lon="6.03589">
        <ele>434.60000610352</ele>
        <time>2022-01-02T07:49:05.291Z</time>
      </trkpt>
      <trkpt lat="44.04691" lon="6.03594">
        <ele>435.20001220703</ele>
        <time>2022-01-02T07:49:05.545Z</time>
      </trkpt>
      <trkpt lat="44.04693" lon="6.03595">
        <ele>435.20001220703</ele>
        <time>2022-01-02T07:49:05.800Z</time>
      </trkpt>
      <trkpt lat="44.04706" lon="6.036">
        <ele>436.39999389648</ele>
        <time>2022-01-02T07:49:06.060Z</time>
      </trkpt>
      <trkpt lat="44.04708" lon="6.036">
        <ele>436.39999389648</ele>
        <time>2022-01-02T07:49:06.320Z</time>
      </trkpt>
      <trkpt lat="44.04721" lon="6.03608">
        <ele>437.39999389648</ele>
        <time>2022-01-02T07:49:06.585Z</time>
      </trkpt>
      <trkpt lat="44.04723" lon="6.03608">
        <ele>437.79998779297</ele>
        <time>2022-01-02T07:49:06.851Z</time>
      </trkpt>
      <trkpt lat="44.04734" lon="6.03616">
        <ele>438.39999389648</ele>
        <time>2022-01-02T07:49:07.121Z</time>
      </trkpt>
      <trkpt lat="44.04747" lon="6.03624">
        <ele>439.60000610352</ele>
        <time>2022-01-02T07:49:07.396Z</time>
      </trkpt>
      <trkpt lat="44.04752" lon="6.03627">
        <ele>439.79998779297</ele>
        <time>2022-01-02T07:49:07.673Z</time>
      </trkpt>
      <trkpt lat="44.04764" lon="6.03633">
        <ele>440.39999389648</ele>
        <time>2022-01-02T07:49:07.955Z</time>
      </trkpt>
      <trkpt lat="44.04766" lon="6.03634">
        <ele>440.60000610352</ele>
        <time>2022-01-02T07:49:08.237Z</time>
      </trkpt>
      <trkpt lat="44.04777" lon="6.03641">
        <ele>441.39999389648</ele>
        <time>2022-01-02T07:49:08.523Z</time>
      </trkpt>
      <trkpt lat="44.04781" lon="6.03644">
        <ele>441.79998779297</ele>
        <time>2022-01-02T07:49:08.811Z</time>
      </trkpt>
      <trkpt lat="44.04792" lon="6.03653">
        <ele>442.79998779297</ele>
        <time>2022-01-02T07:49:09.104Z</time>
      </trkpt>
      <trkpt lat="44.04794" lon="6.03655">
        <ele>443</ele>
        <time>2022-01-02T07:49:09.397Z</time>
      </trkpt>
      <trkpt lat="44.04805" lon="6.03664">
        <ele>443.79998779297</ele>
        <time>2022-01-02T07:49:09.695Z</time>
      </trkpt>
      <trkpt lat="44.04808" lon="6.03665">
        <ele>444</ele>
        <time>2022-01-02T07:49:09.994Z</time>
      </trkpt>
      <trkpt lat="44.04816" lon="6.03673">
        <ele>444.79998779297</ele>
        <time>2022-01-02T07:49:10.296Z</time>
      </trkpt>
      <trkpt lat="44.04822" lon="6.0368">
        <ele>445.60000610352</ele>
        <time>2022-01-02T07:49:10.601Z</time>
      </trkpt>
      <trkpt lat="44.04826" lon="6.03685">
        <ele>446</ele>
        <time>2022-01-02T07:49:10.908Z</time>
      </trkpt>
      <trkpt lat="44.04835" lon="6.03698">
        <ele>447.20001220703</ele>
        <time>2022-01-02T07:49:11.219Z</time>
      </trkpt>
      <trkpt lat="44.04839" lon="6.03702">
        <ele>447.79998779297</ele>
        <time>2022-01-02T07:49:11.532Z</time>
      </trkpt>
      <trkpt lat="44.04847" lon="6.03712">
        <ele>448.60000610352</ele>
        <time>2022-01-02T07:49:11.849Z</time>
      </trkpt>
      <trkpt lat="44.04855" lon="6.0372">
        <ele>449.79998779297</ele>
        <time>2022-01-02T07:49:12.169Z</time>
      </trkpt>
      <trkpt lat="44.04857" lon="6.03722">
        <ele>449.79998779297</ele>
        <time>2022-01-02T07:49:12.490Z</time>
      </trkpt>
      <trkpt lat="44.04866" lon="6.03731">
        <ele>450.79998779297</ele>
        <time>2022-01-02T07:49:12.815Z</time>
      </trkpt>
      <trkpt lat="44.04873" lon="6.03739">
        <ele>451.60000610352</ele>
        <time>2022-01-02T07:49:13.143Z</time>
      </trkpt>
      <trkpt lat="44.04876" lon="6.03744">
        <ele>452</ele>
        <time>2022-01-02T07:49:13.473Z</time>
      </trkpt>
      <trkpt lat="44.04885" lon="6.03757">
        <ele>453</ele>
        <time>2022-01-02T07:49:13.807Z</time>
      </trkpt>
      <trkpt lat="44.04891" lon="6.03767">
        <ele>453.79998779297</ele>
        <time>2022-01-02T07:49:14.145Z</time>
      </trkpt>
      <trkpt lat="44.04894" lon="6.03772">
        <ele>454.20001220703</ele>
        <time>2022-01-02T07:49:14.484Z</time>
      </trkpt>
      <trkpt lat="44.049" lon="6.03787">
        <ele>455.60000610352</ele>
        <time>2022-01-02T07:49:14.828Z</time>
      </trkpt>
      <trkpt lat="44.049" lon="6.0379">
        <ele>455.79998779297</ele>
        <time>2022-01-02T07:49:15.172Z</time>
      </trkpt>
      <trkpt lat="44.04907" lon="6.03801">
        <ele>456.60000610352</ele>
        <time>2022-01-02T07:49:15.520Z</time>
      </trkpt>
      <trkpt lat="44.04908" lon="6.03803">
        <ele>456.79998779297</ele>
        <time>2022-01-02T07:49:15.869Z</time>
      </trkpt>
      <trkpt lat="44.04914" lon="6.03812">
        <ele>457.79998779297</ele>
        <time>2022-01-02T07:49:16.221Z</time>
      </trkpt>
      <trkpt lat="44.04915" lon="6.03815">
        <ele>457.79998779297</ele>
        <time>2022-01-02T07:49:16.574Z</time>
      </trkpt>
      <trkpt lat="44.04921" lon="6.0383">
        <ele>458.60000610352</ele>
        <time>2022-01-02T07:49:16.931Z</time>
      </trkpt>
      <trkpt lat="44.04923" lon="6.03836">
        <ele>458.79998779297</ele>
        <time>2022-01-02T07:49:17.290Z</time>
      </trkpt>
      <trkpt lat="44.04928" lon="6.03849">
        <ele>460</ele>
        <time>2022-01-02T07:49:17.652Z</time>
      </trkpt>
      <trkpt lat="44.04929" lon="6.03852">
        <ele>460</ele>
        <time>2022-01-02T07:49:18.015Z</time>
      </trkpt>
      <trkpt lat="44.04934" lon="6.03867">
        <ele>461</ele>
        <time>2022-01-02T07:49:18.382Z</time>
      </trkpt>
      <trkpt lat="44.04936" lon="6.03879">
        <ele>461.79998779297</ele>
        <time>2022-01-02T07:49:18.752Z</time>
      </trkpt>
      <trkpt lat="44.04937" lon="6.03882">
        <ele>462.20001220703</ele>
        <time>2022-01-02T07:49:19.123Z</time>
      </trkpt>
      <trkpt lat="44.04938" lon="6.03897">
        <ele>463.20001220703</ele>
        <time>2022-01-02T07:49:19.498Z</time>
      </trkpt>
      <trkpt lat="44.04938" lon="6.039">
        <ele>463.39999389648</ele>
        <time>2022-01-02T07:49:19.874Z</time>
      </trkpt>
      <trkpt lat="44.04941" lon="6.03916">
        <ele>464.20001220703</ele>
        <time>2022-01-02T07:49:20.254Z</time>
      </trkpt>
      <trkpt lat="44.04943" lon="6.03918">
        <ele>464.60000610352</ele>
        <time>2022-01-02T07:49:20.635Z</time>
      </trkpt>
      <trkpt lat="44.0495" lon="6.03925">
        <ele>465.39999389648</ele>
        <time>2022-01-02T07:49:21.019Z</time>
      </trkpt>
      <trkpt lat="44.04956" lon="6.03929">
        <ele>465.79998779297</ele>
        <time>2022-01-02T07:49:21.405Z</time>
      </trkpt>
      <trkpt lat="44.04963" lon="6.03934">
        <ele>466.60000610352</ele>
        <time>2022-01-02T07:49:21.794Z</time>
      </trkpt>
      <trkpt lat="44.04967" lon="6.03937">
        <ele>466.79998779297</ele>
        <time>2022-01-02T07:49:22.184Z</time>
      </trkpt>
      <trkpt lat="44.04974" lon="6.03942">
        <ele>467.60000610352</ele>
        <time>2022-01-02T07:49:22.577Z</time>
      </trkpt>
      <trkpt lat="44.04977" lon="6.03944">
        <ele>468</ele>
        <time>2022-01-02T07:49:22.971Z</time>
      </trkpt>
      <trkpt lat="44.04985" lon="6.03947">
        <ele>468.79998779297</ele>
        <time>2022-01-02T07:49:23.368Z</time>
      </trkpt>
      <trkpt lat="44.04987" lon="6.03948">
        <ele>469.20001220703</ele>
        <time>2022-01-02T07:49:23.766Z</time>
      </trkpt>
      <trkpt lat="44.04998" lon="6.03953">
        <ele>469.79998779297</ele>
        <time>2022-01-02T07:49:24.168Z</time>
      </trkpt>
      <trkpt lat="44.05001" lon="6.03955">
        <ele>470.20001220703</ele>
        <time>2022-01-02T07:49:24.571Z</time>
      </trkpt>
      <trkpt lat="44.05011" lon="6.0396">
        <ele>471.20001220703</ele>
        <time>2022-01-02T07:49:24.978Z</time>
      </trkpt>
      <trkpt lat="44.05023" lon="6.03966">
        <ele>472.39999389648</ele>
        <time>2022-01-02T07:49:25.389Z</time>
      </trkpt>
      <trkpt lat="44.05029" lon="6.0397">
        <ele>473</ele>
        <time>2022-01-02T07:49:25.803Z</time>
      </trkpt>
      <trkpt lat="44.05033" lon="6.03973">
        <ele>473.39999389648</ele>
        <time>2022-01-02T07:49:26.218Z</time>
      </trkpt>
      <trkpt lat="44.05043" lon="6.03981">
        <ele>474.60000610352</ele>
        <time>2022-01-02T07:49:26.637Z</time>
      </trkpt>
      <trkpt lat="44.05057" lon="6.03988">
        <ele>475.60000610352</ele>
        <time>2022-01-02T07:49:27.061Z</time>
      </trkpt>
      <trkpt lat="44.05061" lon="6.03988">
        <ele>476</ele>
        <time>2022-01-02T07:49:27.487Z</time>
      </trkpt>
      <trkpt lat="44.0507" lon="6.03986">
        <ele>476.79998779297</ele>
        <time>2022-01-02T07:49:27.916Z</time>
      </trkpt>
      <trkpt lat="44.05081" lon="6.03985">
        <ele>477.79998779297</ele>
        <time>2022-01-02T07:49:28.349Z</time>
      </trkpt>
      <trkpt lat="44.05083" lon="6.03984">
        <ele>478</ele>
        <time>2022-01-02T07:49:28.783Z</time>
      </trkpt>
      <trkpt lat="44.05094" lon="6.03983">
        <ele>479</ele>
        <time>2022-01-02T07:49:29.220Z</time>
      </trkpt>
      <trkpt lat="44.05101" lon="6.03982">
        <ele>479.79998779297</ele>
        <time>2022-01-02T07:49:29.660Z</time>
      </trkpt>
      <trkpt lat="44.05105" lon="6.03981">
        <ele>480.20001220703</ele>
        <time>2022-01-02T07:49:30.101Z</time>
      </trkpt>
      <trkpt lat="44.05118" lon="6.03977">
        <ele>481.39999389648</ele>
        <time>2022-01-02T07:49:30.547Z</time>
      </trkpt>
      <trkpt lat="44.05122" lon="6.03975">
        <ele>481.79998779297</ele>
        <time>2022-01-02T07:49:30.994Z</time>
      </trkpt>
      <trkpt lat="44.05131" lon="6.03973">
        <ele>482.39999389648</ele>
        <time>2022-01-02T07:49:31.445Z</time>
      </trkpt>
      <trkpt lat="44.05141" lon="6.0397">
        <ele>483.39999389648</ele>
        <time>2022-01-02T07:49:31.899Z</time>
      </trkpt>
      <trkpt lat="44.05144" lon="6.0397">
        <ele>483.60000610352</ele>
        <time>2022-01-02T07:49:32.354Z</time>
      </trkpt>
      <trkpt lat="44.05154" lon="6.03968">
        <ele>484.79998779297</ele>
        <time>2022-01-02T07:49:32.813Z</time>
      </trkpt>
      <trkpt lat="44.05156" lon="6.03968">
        <ele>485.20001220703</ele>
        <time>2022-01-02T07:49:33.273Z</time>
      </trkpt>
      <trkpt lat="44.05166" lon="6.0397">
        <ele>486</ele>
        <time>2022-01-02T07:49:33.736Z</time>
      </trkpt>
      <trkpt lat="44.05168" lon="6.0397">
        <ele>486.20001220703</ele>
        <time>2022-01-02T07:49:34.200Z</time>
      </trkpt>
      <trkpt lat="44.05174" lon="6.03971">
        <ele>486.79998779297</ele>
        <time>2022-01-02T07:49:34.666Z</time>
      </trkpt>
      <trkpt lat="44.05178" lon="6.03972">
        <ele>487.20001220703</ele>
        <time>2022-01-02T07:49:35.133Z</time>
      </trkpt>
      <trkpt lat="44.05188" lon="6.03976">
        <ele>488.39999389648</ele>
        <time>2022-01-02T07:49:35.604Z</time>
      </trkpt>
      <trkpt lat="44.05201" lon="6.03981">
        <ele>489.39999389648</ele>
        <time>2022-01-02T07:49:36.079Z</time>
      </trkpt>
      <trkpt lat="44.05203" lon="6.03982">
        <ele>489.60000610352</ele>
        <time>2022-01-02T07:49:36.555Z</time>
      </trkpt>
      <trkpt lat="44.05217" lon="6.0399">
        <ele>490.79998779297</ele>
        <time>2022-01-02T07:49:37.036Z</time>
      </trkpt>
      <trkpt lat="44.05228" lon="6.03996">
        <ele>491.79998779297</ele>
        <time>2022-01-02T07:49:37.521Z</time>
      </trkpt>
      <trkpt lat="44.05229" lon="6.03997">
        <ele>492</ele>
        <time>2022-01-02T07:49:38.007Z</time>
      </trkpt>
      <trkpt lat="44.05238" lon="6.04003">
        <ele>493</ele>
        <time>2022-01-02T07:49:38.497Z</time>
      </trkpt>
      <trkpt lat="44.05242" lon="6.04004">
        <ele>493.60000610352</ele>
        <time>2022-01-02T07:49:38.988Z</time>
      </trkpt>
      <trkpt lat="44.05247" lon="6.04007">
        <ele>494.20001220703</ele>
        <time>2022-01-02T07:49:39.481Z</time>
      </trkpt>
      <trkpt lat="44.05253" lon="6.04011">
        <ele>494.60000610352</ele>
        <time>2022-01-02T07:49:39.976Z</time>
      </trkpt>
      <trkpt lat="44.05259" lon="6.04014">
        <ele>495.39999389648</ele>
        <time>2022-01-02T07:49:40.473Z</time>
      </trkpt>
      <trkpt lat="44.05272" lon="6.04022">
        <ele>496.60000610352</ele>
        <time>2022-01-02T07:49:40.975Z</time>
      </trkpt>
      <trkpt lat="44.05285" lon="6.0403">
        <ele>497.79998779297</ele>
        <time>2022-01-02T07:49:41.482Z</time>
      </trkpt>
      <trkpt lat="44.05297" lon="6.04038">
        <ele>499</ele>
        <time>2022-01-02T07:49:41.994Z</time>
      </trkpt>
      <trkpt lat="44.053" lon="6.04041">
        <ele>499.39999389648</ele>
        <time>2022-01-02T07:49:42.507Z</time>
      </trkpt>
      <trkpt lat="44.05306" lon="6.04044">
        <ele>500.20001220703</ele>
        <time>2022-01-02T07:49:43.023Z</time>
      </trkpt>
      <trkpt lat="44.05314" lon="6.04048">
        <ele>501.20001220703</ele>
        <time>2022-01-02T07:49:43.542Z</time>
      </trkpt>
      <trkpt lat="44.05318" lon="6.04049">
        <ele>502</ele>
        <time>2022-01-02T07:49:44.062Z</time>
      </trkpt>
      <trkpt lat="44.05326" lon="6.04049">
        <ele>502.60000610352</ele>
        <time>2022-01-02T07:49:44.584Z</time>
      </trkpt>
      <trkpt lat="44.05332" lon="6.04049">
        <ele>503</ele>
        <time>2022-01-02T07:49:45.109Z</time>
      </trkpt>
      <trkpt lat="44.05339" lon="6.04046">
        <ele>503.60000610352</ele>
        <time>2022-01-02T07:49:45.636Z</time>
      </trkpt>
      <trkpt lat="44.05349" lon="6.04039">
        <ele>504.60000610352</ele>
        <time>2022-01-02T07:49:46.167Z</time>
      </trkpt>
      <trkpt lat="44.05351" lon="6.04038">
        <ele>504.79998779297</ele>
        <time>2022-01-02T07:49:46.699Z</time>
      </trkpt>
      <trkpt lat="44.05362" lon="6.04032">
        <ele>506.20001220703</ele>
        <time>2022-01-02T07:49:47.235Z</time>
      </trkpt>
      <trkpt lat="44.05371" lon="6.04031">
        <ele>507.20001220703</ele>
        <time>2022-01-02T07:49:47.774Z</time>
      </trkpt>
      <trkpt lat="44.05376" lon="6.04031">
        <ele>507.79998779297</ele>
        <time>2022-01-02T07:49:48.315Z</time>
      </trkpt>
      <trkpt lat="44.0538" lon="6.04031">
        <ele>508.39999389648</ele>
        <time>2022-01-02T07:49:48.857Z</time>
      </trkpt>
      <trkpt lat="44.05389" lon="6.04032">
        <ele>509.39999389648</ele>
        <time>2022-01-02T07:49:49.402Z</time>
      </trkpt>
      <trkpt lat="44.05391" lon="6.04032">
        <ele>509.60000610352</ele>
        <time>2022-01-02T07:49:49.948Z</time>
      </trkpt>
      <trkpt lat="44.05398" lon="6.04031">
        <ele>510.60000610352</ele>
        <time>2022-01-02T07:49:50.496Z</time>
      </trkpt>
      <trkpt lat="44.05405" lon="6.04032">
        <ele>511.39999389648</ele>
        <time>2022-01-02T07:49:51.047Z</time>
      </trkpt>
      <trkpt lat="44.05407" lon="6.04032">
        <ele>511.60000610352</ele>
        <time>2022-01-02T07:49:51.599Z</time>
      </trkpt>
      <trkpt lat="44.05418" lon="6.04033">
        <ele>512.79998779297</ele>
        <time>2022-01-02T07:49:52.154Z</time>
      </trkpt>
      <trkpt lat="44.05428" lon="6.04034">
        <ele>514</ele>
        <time>2022-01-02T07:49:52.713Z</time>
      </trkpt>
      <trkpt lat="44.05432" lon="6.04035">
        <ele>514.40002441406</ele>
        <time>2022-01-02T07:49:53.274Z</time>
      </trkpt>
      <trkpt lat="44.05434" lon="6.04036">
        <ele>514.59997558594</ele>
        <time>2022-01-02T07:49:53.835Z</time>
      </trkpt>
      <trkpt lat="44.05438" lon="6.04038">
        <ele>515.20001220703</ele>
        <time>2022-01-02T07:49:54.398Z</time>
      </trkpt>
      <trkpt lat="44.05443" lon="6.04039">
        <ele>515.79998779297</ele>
        <time>2022-01-02T07:49:54.962Z</time>
      </trkpt>
      <trkpt lat="44.05446" lon="6.0404">
        <ele>516.20001220703</ele>
        <time>2022-01-02T07:49:55.528Z</time>
      </trkpt>
      <trkpt lat="44.05457" lon="6.04041">
        <ele>517.20001220703</ele>
        <time>2022-01-02T07:49:56.098Z</time>
      </trkpt>
      <trkpt lat="44.0546" lon="6.04041">
        <ele>517.40002441406</ele>
        <time>2022-01-02T07:49:56.668Z</time>
      </trkpt>
      <trkpt lat="44.0547" lon="6.04041">
        <ele>518.59997558594</ele>
        <time>2022-01-02T07:49:57.242Z</time>
      </trkpt>
      <trkpt lat="44.05481" lon="6.04041">
        <ele>519.59997558594</ele>
        <time>2022-01-02T07:49:57.820Z</time>
      </trkpt>
      <trkpt lat="44.05494" lon="6.04042">
        <ele>520.79998779297</ele>
        <time>2022-01-02T07:49:58.402Z</time>
      </trkpt>
      <trkpt lat="44.05498" lon="6.04043">
        <ele>521.20001220703</ele>
        <time>2022-01-02T07:49:58.986Z</time>
      </trkpt>
      <trkpt lat="44.05509" lon="6.04043">
        <ele>522</ele>
        <time>2022-01-02T07:49:59.574Z</time>
      </trkpt>
      <trkpt lat="44.05515" lon="6.04043">
        <ele>522.59997558594</ele>
        <time>2022-01-02T07:50:00.164Z</time>
      </trkpt>
      <trkpt lat="44.05522" lon="6.04042">
        <ele>523</ele>
        <time>2022-01-02T07:50:00.756Z</time>
      </trkpt>
      <trkpt lat="44.05531" lon="6.04041">
        <ele>524.20001220703</ele>
        <time>2022-01-02T07:50:01.351Z</time>
      </trkpt>
      <trkpt lat="44.05534" lon="6.0404">
        <ele>524.59997558594</ele>
        <time>2022-01-02T07:50:01.947Z</time>
      </trkpt>
      <trkpt lat="44.0554" lon="6.04039">
        <ele>525.20001220703</ele>
        <time>2022-01-02T07:50:02.546Z</time>
      </trkpt>
      <trkpt lat="44.05547" lon="6.04035">
        <ele>526.40002441406</ele>
        <time>2022-01-02T07:50:03.147Z</time>
      </trkpt>
      <trkpt lat="44.05558" lon="6.04027">
        <ele>528</ele>
        <time>2022-01-02T07:50:03.753Z</time>
      </trkpt>
      <trkpt lat="44.05568" lon="6.04022">
        <ele>529.20001220703</ele>
        <time>2022-01-02T07:50:04.362Z</time>
      </trkpt>
      <trkpt lat="44.05573" lon="6.04021">
        <ele>529.40002441406</ele>
        <time>2022-01-02T07:50:04.973Z</time>
      </trkpt>
      <trkpt lat="44.05579" lon="6.04021">
        <ele>530.20001220703</ele>
        <time>2022-01-02T07:50:05.586Z</time>
      </trkpt>
      <trkpt lat="44.05588" lon="6.0402">
        <ele>530.79998779297</ele>
        <time>2022-01-02T07:50:06.202Z</time>
      </trkpt>
      <trkpt lat="44.0559" lon="6.0402">
        <ele>531.20001220703</ele>
        <time>2022-01-02T07:50:06.819Z</time>
      </trkpt>
      <trkpt lat="44.05598" lon="6.04014">
        <ele>532.40002441406</ele>
        <time>2022-01-02T07:50:07.439Z</time>
      </trkpt>
      <trkpt lat="44.05603" lon="6.04009">
        <ele>533.20001220703</ele>
        <time>2022-01-02T07:50:08.061Z</time>
      </trkpt>
      <trkpt lat="44.05605" lon="6.04008">
        <ele>533.40002441406</ele>
        <time>2022-01-02T07:50:08.684Z</time>
      </trkpt>
      <trkpt lat="44.05611" lon="6.04001">
        <ele>534.59997558594</ele>
        <time>2022-01-02T07:50:09.310Z</time>
      </trkpt>
      <trkpt lat="44.05612" lon="6.03999">
        <ele>534.79998779297</ele>
        <time>2022-01-02T07:50:09.936Z</time>
      </trkpt>
      <trkpt lat="44.05617" lon="6.0399">
        <ele>535.59997558594</ele>
        <time>2022-01-02T07:50:10.565Z</time>
      </trkpt>
      <trkpt lat="44.05622" lon="6.03984">
        <ele>536.20001220703</ele>
        <time>2022-01-02T07:50:11.196Z</time>
      </trkpt>
      <trkpt lat="44.05627" lon="6.03978">
        <ele>537</ele>
        <time>2022-01-02T07:50:11.830Z</time>
      </trkpt>
      <trkpt lat="44.05632" lon="6.03969">
        <ele>538</ele>
        <time>2022-01-02T07:50:12.467Z</time>
      </trkpt>
      <trkpt lat="44.05634" lon="6.03967">
        <ele>538.20001220703</ele>
        <time>2022-01-02T07:50:13.104Z</time>
      </trkpt>
      <trkpt lat="44.05639" lon="6.03957">
        <ele>539.20001220703</ele>
        <time>2022-01-02T07:50:13.744Z</time>
      </trkpt>
      <trkpt lat="44.05643" lon="6.03948">
        <ele>540.40002441406</ele>
        <time>2022-01-02T07:50:14.387Z</time>
      </trkpt>
      <trkpt lat="44.05644" lon="6.03946">
        <ele>540.59997558594</ele>
        <time>2022-01-02T07:50:15.031Z</time>
      </trkpt>
      <trkpt lat="44.05649" lon="6.03936">
        <ele>541.40002441406</ele>
        <time>2022-01-02T07:50:15.678Z</time>
      </trkpt>
      <trkpt lat="44.05653" lon="6.03928">
        <ele>542.20001220703</ele>
        <time>2022-01-02T07:50:16.327Z</time>
      </trkpt>
      <trkpt lat="44.05656" lon="6.03923">
        <ele>542.59997558594</ele>
        <time>2022-01-02T07:50:16.978Z</time>
      </trkpt>
      <trkpt lat="44.05662" lon="6.03914">
        <ele>543.59997558594</ele>
        <time>2022-01-02T07:50:17.632Z</time>
      </trkpt>
      <trkpt lat="44.05664" lon="6.03913">
        <ele>544</ele>
        <time>2022-01-02T07:50:18.287Z</time>
      </trkpt>
      <trkpt lat="44.05665" lon="6.03912">
        <ele>544.20001220703</ele>
        <time>2022-01-02T07:50:18.942Z</time>
      </trkpt>
      <trkpt lat="44.05668" lon="6.03909">
        <ele>544.79998779297</ele>
        <time>2022-01-02T07:50:19.598Z</time>
      </trkpt>
      <trkpt lat="44.05669" lon="6.03908">
        <ele>545.20001220703</ele>
        <time>2022-01-02T07:50:20.255Z</time>
      </trkpt>
      <trkpt lat="44.0567" lon="6.03906">
        <ele>545.40002441406</ele>
        <time>2022-01-02T07:50:20.913Z</time>
      </trkpt>
      <trkpt lat="44.05675" lon="6.03901">
        <ele>546.40002441406</ele>
        <time>2022-01-02T07:50:21.573Z</time>
      </trkpt>
      <trkpt lat="44.05679" lon="6.03898">
        <ele>547</ele>
        <time>2022-01-02T07:50:22.234Z</time>
      </trkpt>
      <trkpt lat="44.05684" lon="6.03895">
        <ele>547.79998779297</ele>
        <time>2022-01-02T07:50:22.897Z</time>
      </trkpt>
      <trkpt lat="44.05689" lon="6.03893">
        <ele>548.59997558594</ele>
        <time>2022-01-02T07:50:23.562Z</time>
      </trkpt>
      <trkpt lat="44.0569" lon="6.03892">
        <ele>548.79998779297</ele>
        <time>2022-01-02T07:50:24.227Z</time>
      </trkpt>
      <trkpt lat="44.057" lon="6.03886">
        <ele>550</ele>
        <time>2022-01-02T07:50:24.896Z</time>
      </trkpt>
      <trkpt lat="44.0571" lon="6.0388">
        <ele>551.20001220703</ele>
        <time>2022-01-02T07:50:25.569Z</time>
      </trkpt>
      <trkpt lat="44.05714" lon="6.03877">
        <ele>551.79998779297</ele>
        <time>2022-01-02T07:50:26.244Z</time>
      </trkpt>
      <trkpt lat="44.0572" lon="6.03873">
        <ele>552.59997558594</ele>
        <time>2022-01-02T07:50:26.921Z</time>
      </trkpt>
      <trkpt lat="44.05731" lon="6.03865">
        <ele>553.59997558594</ele>
        <time>2022-01-02T07:50:27.602Z</time>
      </trkpt>
      <trkpt lat="44.05733" lon="6.03864">
        <ele>554</ele>
        <time>2022-01-02T07:50:28.284Z</time>
      </trkpt>
      <trkpt lat="44.05738" lon="6.03859">
        <ele>554.79998779297</ele>
        <time>2022-01-02T07:50:28.968Z</time>
      </trkpt>
      <trkpt lat="44.05746" lon="6.03854">
        <ele>556</ele>
        <time>2022-01-02T07:50:29.655Z</time>
      </trkpt>
      <trkpt lat="44.05758" lon="6.03846">
        <ele>557</ele>
        <time>2022-01-02T07:50:30.347Z</time>
      </trkpt>
      <trkpt lat="44.05763" lon="6.03843">
        <ele>557.79998779297</ele>
        <time>2022-01-02T07:50:31.041Z</time>
      </trkpt>
      <trkpt lat="44.05765" lon="6.03841">
        <ele>558.20001220703</ele>
        <time>2022-01-02T07:50:31.736Z</time>
      </trkpt>
      <trkpt lat="44.05773" lon="6.03838">
        <ele>559.40002441406</ele>
        <time>2022-01-02T07:50:32.434Z</time>
      </trkpt>
      <trkpt lat="44.05783" lon="6.03833">
        <ele>560.59997558594</ele>
        <time>2022-01-02T07:50:33.135Z</time>
      </trkpt>
      <trkpt lat="44.05791" lon="6.0383">
        <ele>561.59997558594</ele>
        <time>2022-01-02T07:50:33.839Z</time>
      </trkpt>
      <trkpt lat="44.05797" lon="6.03827">
        <ele>562.40002441406</ele>
        <time>2022-01-02T07:50:34.545Z</time>
      </trkpt>
      <trkpt lat="44.05799" lon="6.03825">
        <ele>562.59997558594</ele>
        <time>2022-01-02T07:50:35.252Z</time>
      </trkpt>
      <trkpt lat="44.05808" lon="6.03818">
        <ele>563.79998779297</ele>
        <time>2022-01-02T07:50:35.963Z</time>
      </trkpt>
      <trkpt lat="44.05812" lon="6.03816">
        <ele>564.59997558594</ele>
        <time>2022-01-02T07:50:36.675Z</time>
      </trkpt>
      <trkpt lat="44.05814" lon="6.03814">
        <ele>564.79998779297</ele>
        <time>2022-01-02T07:50:37.388Z</time>
      </trkpt>
      <trkpt lat="44.05823" lon="6.03808">
        <ele>565.79998779297</ele>
        <time>2022-01-02T07:50:38.105Z</time>
      </trkpt>
      <trkpt lat="44.05827" lon="6.03805">
        <ele>566.40002441406</ele>
        <time>2022-01-02T07:50:38.823Z</time>
      </trkpt>
      <trkpt lat="44.05831" lon="6.03803">
        <ele>566.79998779297</ele>
        <time>2022-01-02T07:50:39.543Z</time>
      </trkpt>
      <trkpt lat="44.05839" lon="6.038">
        <ele>568</ele>
        <time>2022-01-02T07:50:40.265Z</time>
      </trkpt>
      <trkpt lat="44.05841" lon="6.03799">
        <ele>568.20001220703</ele>
        <time>2022-01-02T07:50:40.988Z</time>
      </trkpt>
      <trkpt lat="44.05849" lon="6.03796">
        <ele>569.20001220703</ele>
        <time>2022-01-02T07:50:41.714Z</time>
      </trkpt>
      <trkpt lat="44.05853" lon="6.03794">
        <ele>569.79998779297</ele>
        <time>2022-01-02T07:50:42.442Z</time>
      </trkpt>
      <trkpt lat="44.05857" lon="6.03791">
        <ele>570.40002441406</ele>
        <time>2022-01-02T07:50:43.171Z</time>
      </trkpt>
      <trkpt lat="44.05867" lon="6.03786">
        <ele>571.79998779297</ele>
        <time>2022-01-02T07:50:43.904Z</time>
      </trkpt>
      <trkpt lat="44.05871" lon="6.03784">
        <ele>572.40002441406</ele>
        <time>2022-01-02T07:50:44.638Z</time>
      </trkpt>
      <trkpt lat="44.05875" lon="6.03783">
        <ele>572.79998779297</ele>
        <time>2022-01-02T07:50:45.374Z</time>
      </trkpt>
      <trkpt lat="44.05883" lon="6.03784">
        <ele>574</ele>
        <time>2022-01-02T07:50:46.113Z</time>
      </trkpt>
      <trkpt lat="44.05891" lon="6.03783">
        <ele>575.20001220703</ele>
        <time>2022-01-02T07:50:46.854Z</time>
      </trkpt>
      <trkpt lat="44.05894" lon="6.03779">
        <ele>575.79998779297</ele>
        <time>2022-01-02T07:50:47.597Z</time>
      </trkpt>
      <trkpt lat="44.05896" lon="6.03772">
        <ele>576.20001220703</ele>
        <time>2022-01-02T07:50:48.342Z</time>
      </trkpt>
      <trkpt lat="44.05895" lon="6.0377">
        <ele>576.40002441406</ele>
        <time>2022-01-02T07:50:49.087Z</time>
      </trkpt>
      <trkpt lat="44.05893" lon="6.03767">
        <ele>576.40002441406</ele>
        <time>2022-01-02T07:50:49.833Z</time>
      </trkpt>
      <trkpt lat="44.05891" lon="6.03764">
        <ele>577</ele>
        <time>2022-01-02T07:50:50.580Z</time>
      </trkpt>
      <trkpt lat="44.05883" lon="6.03758">
        <ele>577.79998779297</ele>
        <time>2022-01-02T07:50:51.330Z</time>
      </trkpt>
      <trkpt lat="44.05881" lon="6.03758">
        <ele>578</ele>
        <time>2022-01-02T07:50:52.081Z</time>
      </trkpt>
      <trkpt lat="44.05873" lon="6.03755">
        <ele>578.79998779297</ele>
        <time>2022-01-02T07:50:52.835Z</time>
      </trkpt>
      <trkpt lat="44.05869" lon="6.03753">
        <ele>579.20001220703</ele>
        <time>2022-01-02T07:50:53.591Z</time>
      </trkpt>
      <trkpt lat="44.05863" lon="6.03752">
        <ele>580</ele>
        <time>2022-01-02T07:50:54.349Z</time>
      </trkpt>
      <trkpt lat="44.05858" lon="6.03754">
        <ele>580.40002441406</ele>
        <time>2022-01-02T07:50:55.108Z</time>
      </trkpt>
      <trkpt lat="44.05845" lon="6.03756">
        <ele>581</ele>
        <time>2022-01-02T07:50:55.872Z</time>
      </trkpt>
      <trkpt lat="44.05841" lon="6.03757">
        <ele>581.40002441406</ele>
        <time>2022-01-02T07:50:56.637Z</time>
      </trkpt>
      <trkpt lat="44.05835" lon="6.03759">
        <ele>582</ele>
        <time>2022-01-02T07:50:57.405Z</time>
      </trkpt>
      <trkpt lat="44.05826" lon="6.03758">
        <ele>582.79998779297</ele>
        <time>2022-01-02T07:50:58.176Z</time>
      </trkpt>
      <trkpt lat="44.05824" lon="6.03758">
        <ele>583</ele>
        <time>2022-01-02T07:50:58.947Z</time>
      </trkpt>
      <trkpt lat="44.05812" lon="6.0376">
        <ele>584.20001220703</ele>
        <time>2022-01-02T07:50:59.723Z</time>
      </trkpt>
      <trkpt lat="44.0581" lon="6.03761">
        <ele>584.59997558594</ele>
        <time>2022-01-02T07:51:00.499Z</time>
      </trkpt>
      <trkpt lat="44.05801" lon="6.03762">
        <ele>585.20001220703</ele>
        <time>2022-01-02T07:51:01.278Z</time>
      </trkpt>
      <trkpt lat="44.05793" lon="6.03763">
        <ele>586.20001220703</ele>
        <time>2022-01-02T07:51:02.060Z</time>
      </trkpt>
      <trkpt lat="44.05791" lon="6.03763">
        <ele>586.59997558594</ele>
        <time>2022-01-02T07:51:02.843Z</time>
      </trkpt>
      <trkpt lat="44.05778" lon="6.03762">
        <ele>587.79998779297</ele>
        <time>2022-01-02T07:51:03.630Z</time>
      </trkpt>
      <trkpt lat="44.05772" lon="6.03762">
        <ele>588.59997558594</ele>
        <time>2022-01-02T07:51:04.420Z</time>
      </trkpt>
      <trkpt lat="44.0577" lon="6.03761">
        <ele>588.79998779297</ele>
        <time>2022-01-02T07:51:05.210Z</time>
      </trkpt>
      <trkpt lat="44.05757" lon="6.03761">
        <ele>590</ele>
        <time>2022-01-02T07:51:06.005Z</time>
      </trkpt>
      <trkpt lat="44.05751" lon="6.03761">
        <ele>590.59997558594</ele>
        <time>2022-01-02T07:51:06.802Z</time>
      </trkpt>
      <trkpt lat="44.05745" lon="6.03761">
        <ele>591</ele>
        <time>2022-01-02T07:51:07.601Z</time>
      </trkpt>
      <trkpt lat="44.05735" lon="6.03763">
        <ele>592.20001220703</ele>
        <time>2022-01-02T07:51:08.404Z</time>
      </trkpt>
      <trkpt lat="44.05731" lon="6.03763">
        <ele>592.79998779297</ele>
        <time>2022-01-02T07:51:09.208Z</time>
      </trkpt>
      <trkpt lat="44.05723" lon="6.03764">
        <ele>593.40002441406</ele>
        <time>2022-01-02T07:51:10.015Z</time>
      </trkpt>
      <trkpt lat="44.05712" lon="6.03765">
        <ele>594.40002441406</ele>
        <time>2022-01-02T07:51:10.826Z</time>
      </trkpt>
      <trkpt lat="44.05702" lon="6.03767">
        <ele>595.40002441406</ele>
        <time>2022-01-02T07:51:11.640Z</time>
      </trkpt>
      <trkpt lat="44.05698" lon="6.03767">
        <ele>595.79998779297</ele>
        <time>2022-01-02T07:51:12.456Z</time>
      </trkpt>
      <trkpt lat="44.05691" lon="6.03768">
        <ele>596.79998779297</ele>
        <time>2022-01-02T07:51:13.274Z</time>
      </trkpt>
      <trkpt lat="44.05687" lon="6.03768">
        <ele>597.40002441406</ele>
        <time>2022-01-02T07:51:14.093Z</time>
      </trkpt>
      <trkpt lat="44.05683" lon="6.03769">
        <ele>597.79998779297</ele>
        <time>2022-01-02T07:51:14.914Z</time>
      </trkpt>
      <trkpt lat="44.05673" lon="6.03771">
        <ele>599</ele>
        <time>2022-01-02T07:51:15.738Z</time>
      </trkpt>
      <trkpt lat="44.05669" lon="6.03772">
        <ele>599.40002441406</ele>
        <time>2022-01-02T07:51:16.564Z</time>
      </trkpt>
      <trkpt lat="44.05663" lon="6.03774">
        <ele>600</ele>
        <time>2022-01-02T07:51:17.392Z</time>
      </trkpt>
      <trkpt lat="44.05654" lon="6.03777">
        <ele>601.40002441406</ele>
        <time>2022-01-02T07:51:18.223Z</time>
      </trkpt>
      <trkpt lat="44.05648" lon="6.03779">
        <ele>601.79998779297</ele>
        <time>2022-01-02T07:51:19.056Z</time>
      </trkpt>
      <trkpt lat="44.05645" lon="6.0378">
        <ele>602.40002441406</ele>
        <time>2022-01-02T07:51:19.891Z</time>
      </trkpt>
      <trkpt lat="44.05637" lon="6.03784">
        <ele>603.20001220703</ele>
        <time>2022-01-02T07:51:20.728Z</time>
      </trkpt>
      <trkpt lat="44.05629" lon="6.03787">
        <ele>603.59997558594</ele>
        <time>2022-01-02T07:51:21.568Z</time>
      </trkpt>
      <trkpt lat="44.05621" lon="6.03791">
        <ele>604.59997558594</ele>
        <time>2022-01-02T07:51:22.411Z</time>
      </trkpt>
      <trkpt lat="44.05619" lon="6.03792">
        <ele>604.79998779297</ele>
        <time>2022-01-02T07:51:23.255Z</time>
      </trkpt>
      <trkpt lat="44.05609" lon="6.03796">
        <ele>605.79998779297</ele>
        <time>2022-01-02T07:51:24.103Z</time>
      </trkpt>
      <trkpt lat="44.05599" lon="6.038">
        <ele>606.79998779297</ele>
        <time>2022-01-02T07:51:24.954Z</time>
      </trkpt>
      <trkpt lat="44.05591" lon="6.03802">
        <ele>608</ele>
        <time>2022-01-02T07:51:25.808Z</time>
      </trkpt>
      <trkpt lat="44.05583" lon="6.03804">
        <ele>609</ele>
        <time>2022-01-02T07:51:26.665Z</time>
      </trkpt>
      <trkpt lat="44.05574" lon="6.03805">
        <ele>610.20001220703</ele>
        <time>2022-01-02T07:51:27.525Z</time>
      </trkpt>
      <trkpt lat="44.05562" lon="6.03803">
        <ele>611.20001220703</ele>
        <time>2022-01-02T07:51:28.389Z</time>
      </trkpt>
      <trkpt lat="44.05543" lon="6.03793">
        <ele>612.59997558594</ele>
        <time>2022-01-02T07:51:29.260Z</time>
      </trkpt>
      <trkpt lat="44.05531" lon="6.03778">
        <ele>613.59997558594</ele>
        <time>2022-01-02T07:51:30.137Z</time>
      </trkpt>
      <trkpt lat="44.05532" lon="6.0376">
        <ele>613.59997558594</ele>
        <time>2022-01-02T07:51:31.018Z</time>
      </trkpt>
      <trkpt lat="44.05545" lon="6.03751">
        <ele>613.59997558594</ele>
        <time>2022-01-02T07:51:31.904Z</time>
      </trkpt>
      <trkpt lat="44.05563" lon="6.03746">
        <ele>613.40002441406</ele>
        <time>2022-01-02T07:51:32.797Z</time>
      </trkpt>
      <trkpt lat="44.05566" lon="6.03745">
        <ele>613.40002441406</ele>
        <time>2022-01-02T07:51:33.691Z</time>
      </trkpt>
      <trkpt lat="44.0559" lon="6.03735">
        <ele>613.20001220703</ele>
        <time>2022-01-02T07:51:34.594Z</time>
      </trkpt>
      <trkpt lat="44.05609" lon="6.03728">
        <ele>613.40002441406</ele>
        <time>2022-01-02T07:51:35.504Z</time>
      </trkpt>
      <trkpt lat="44.0563" lon="6.03717">
        <ele>614.59997558594</ele>
        <time>2022-01-02T07:51:36.421Z</time>
      </trkpt>
      <trkpt lat="44.05646" lon="6.03711">
        <ele>615.79998779297</ele>
        <time>2022-01-02T07:51:37.344Z</time>
      </trkpt>
      <trkpt lat="44.05654" lon="6.03709">
        <ele>616</ele>
        <time>2022-01-02T07:51:38.270Z</time>
      </trkpt>
      <trkpt lat="44.0567" lon="6.03707">
        <ele>616.79998779297</ele>
        <time>2022-01-02T07:51:39.202Z</time>
      </trkpt>
      <trkpt lat="44.0568" lon="6.03705">
        <ele>618</ele>
        <time>2022-01-02T07:51:40.137Z</time>
      </trkpt>
      <trkpt lat="44.05686" lon="6.03704">
        <ele>618.40002441406</ele>
        <time>2022-01-02T07:51:41.074Z</time>
      </trkpt>
      <trkpt lat="44.05694" lon="6.03701">
        <ele>619.20001220703</ele>
        <time>2022-01-02T07:51:42.014Z</time>
      </trkpt>
      <trkpt lat="44.05699" lon="6.03695">
        <ele>620</ele>
        <time>2022-01-02T07:51:42.957Z</time>
      </trkpt>
      <trkpt lat="44.05701" lon="6.03692">
        <ele>620.79998779297</ele>
        <time>2022-01-02T07:51:43.901Z</time>
      </trkpt>
      <trkpt lat="44.05705" lon="6.03687">
        <ele>622</ele>
        <time>2022-01-02T07:51:44.847Z</time>
      </trkpt>
      <trkpt lat="44.05707" lon="6.03681">
        <ele>623.40002441406</ele>
        <time>2022-01-02T07:51:45.794Z</time>
      </trkpt>
      <trkpt lat="44.05709" lon="6.03675">
        <ele>624.59997558594</ele>
        <time>2022-01-02T07:51:46.743Z</time>
      </trkpt>
      <trkpt lat="44.0571" lon="6.03669">
        <ele>625.79998779297</ele>
        <time>2022-01-02T07:51:47.693Z</time>
      </trkpt>
      <trkpt lat="44.0571" lon="6.03666">
        <ele>626.40002441406</ele>
        <time>2022-01-02T07:51:48.644Z</time>
      </trkpt>
      <trkpt lat="44.05712" lon="6.0366">
        <ele>627.20001220703</ele>
        <time>2022-01-02T07:51:49.597Z</time>
      </trkpt>
      <trkpt lat="44.05712" lon="6.03657">
        <ele>627.79998779297</ele>
        <time>2022-01-02T07:51:50.550Z</time>
      </trkpt>
      <trkpt lat="44.05713" lon="6.03654">
        <ele>628.40002441406</ele>
        <time>2022-01-02T07:51:51.504Z</time>
      </trkpt>
      <trkpt lat="44.05712" lon="6.03651">
        <ele>629.20001220703</ele>
        <time>2022-01-02T07:51:52.459Z</time>
      </trkpt>
      <trkpt lat="44.05711" lon="6.03648">
        <ele>629.79998779297</ele>
        <time>2022-01-02T07:51:53.415Z</time>
      </trkpt>
      <trkpt lat="44.05709" lon="6.03641">
        <ele>630.40002441406</ele>
        <time>2022-01-02T07:51:54.373Z</time>
      </trkpt>
      <trkpt lat="44.05705" lon="6.03636">
        <ele>630.79998779297</ele>
        <time>2022-01-02T07:51:55.333Z</time>
      </trkpt>
      <trkpt lat="44.05691" lon="6.03619">
        <ele>631.20001220703</ele>
        <time>2022-01-02T07:51:56.299Z</time>
      </trkpt>
      <trkpt lat="44.05676" lon="6.03598">
        <ele>631.79998779297</ele>
        <time>2022-01-02T07:51:57.273Z</time>
      </trkpt>
      <trkpt lat="44.05673" lon="6.03595">
        <ele>632</ele>
        <time>2022-01-02T07:51:58.248Z</time>
      </trkpt>
      <trkpt lat="44.05664" lon="6.03584">
        <ele>632.79998779297</ele>
        <time>2022-01-02T07:51:59.227Z</time>
      </trkpt>
      <trkpt lat="44.05661" lon="6.03577">
        <ele>633.20001220703</ele>
        <time>2022-01-02T07:52:00.208Z</time>
      </trkpt>
      <trkpt lat="44.05655" lon="6.03571">
        <ele>633.79998779297</ele>
        <time>2022-01-02T07:52:01.192Z</time>
      </trkpt>
      <trkpt lat="44.05648" lon="6.03563">
        <ele>634.20001220703</ele>
        <time>2022-01-02T07:52:02.179Z</time>
      </trkpt>
      <trkpt lat="44.05644" lon="6.03557">
        <ele>634.59997558594</ele>
        <time>2022-01-02T07:52:03.168Z</time>
      </trkpt>
      <trkpt lat="44.05641" lon="6.03549">
        <ele>635.79998779297</ele>
        <time>2022-01-02T07:52:04.159Z</time>
      </trkpt>
      <trkpt lat="44.0564" lon="6.03544">
        <ele>636.59997558594</ele>
        <time>2022-01-02T07:52:05.151Z</time>
      </trkpt>
      <trkpt lat="44.05639" lon="6.03542">
        <ele>637</ele>
        <time>2022-01-02T07:52:06.144Z</time>
      </trkpt>
      <trkpt lat="44.05637" lon="6.03535">
        <ele>638.59997558594</ele>
        <time>2022-01-02T07:52:07.139Z</time>
      </trkpt>
      <trkpt lat="44.05635" lon="6.0353">
        <ele>639.79998779297</ele>
        <time>2022-01-02T07:52:08.135Z</time>
      </trkpt>
      <trkpt lat="44.05634" lon="6.03524">
        <ele>641.20001220703</ele>
        <time>2022-01-02T07:52:09.133Z</time>
      </trkpt>
      <trkpt lat="44.05636" lon="6.03519">
        <ele>642</ele>
        <time>2022-01-02T07:52:10.132Z</time>
      </trkpt>
      <trkpt lat="44.05637" lon="6.03518">
        <ele>642.59997558594</ele>
        <time>2022-01-02T07:52:11.132Z</time>
      </trkpt>
      <trkpt lat="44.05641" lon="6.03516">
        <ele>643.59997558594</ele>
        <time>2022-01-02T07:52:12.133Z</time>
      </trkpt>
      <trkpt lat="44.05644" lon="6.03516">
        <ele>644.79998779297</ele>
        <time>2022-01-02T07:52:13.135Z</time>
      </trkpt>
      <trkpt lat="44.05646" lon="6.03517">
        <ele>645</ele>
        <time>2022-01-02T07:52:14.138Z</time>
      </trkpt>
      <trkpt lat="44.05651" lon="6.03515">
        <ele>646</ele>
        <time>2022-01-02T07:52:15.143Z</time>
      </trkpt>
      <trkpt lat="44.05654" lon="6.03512">
        <ele>646.40002441406</ele>
        <time>2022-01-02T07:52:16.149Z</time>
      </trkpt>
      <trkpt lat="44.05658" lon="6.03514">
        <ele>647</ele>
        <time>2022-01-02T07:52:17.157Z</time>
      </trkpt>
      <trkpt lat="44.05659" lon="6.03516">
        <ele>647.40002441406</ele>
        <time>2022-01-02T07:52:18.165Z</time>
      </trkpt>
      <trkpt lat="44.05661" lon="6.03519">
        <ele>648</ele>
        <time>2022-01-02T07:52:19.174Z</time>
      </trkpt>
      <trkpt lat="44.05665" lon="6.03524">
        <ele>649</ele>
        <time>2022-01-02T07:52:20.185Z</time>
      </trkpt>
      <trkpt lat="44.05666" lon="6.03525">
        <ele>649.40002441406</ele>
        <time>2022-01-02T07:52:21.197Z</time>
      </trkpt>
      <trkpt lat="44.05674" lon="6.03528">
        <ele>650.40002441406</ele>
        <time>2022-01-02T07:52:22.211Z</time>
      </trkpt>
      <trkpt lat="44.05675" lon="6.03528">
        <ele>651</ele>
        <time>2022-01-02T07:52:23.226Z</time>
      </trkpt>
      <trkpt lat="44.05677" lon="6.03525">
        <ele>651.79998779297</ele>
        <time>2022-01-02T07:52:24.242Z</time>
      </trkpt>
      <trkpt lat="44.0568" lon="6.03524">
        <ele>653</ele>
        <time>2022-01-02T07:52:25.259Z</time>
      </trkpt>
      <trkpt lat="44.05681" lon="6.03525">
        <ele>653.40002441406</ele>
        <time>2022-01-02T07:52:26.276Z</time>
      </trkpt>
      <trkpt lat="44.05682" lon="6.03525">
        <ele>654.20001220703</ele>
        <time>2022-01-02T07:52:27.294Z</time>
      </trkpt>
      <trkpt lat="44.05686" lon="6.03524">
        <ele>655.40002441406</ele>
        <time>2022-01-02T07:52:28.313Z</time>
      </trkpt>
      <trkpt lat="44.05688" lon="6.03523">
        <ele>655.79998779297</ele>
        <time>2022-01-02T07:52:29.333Z</time>
      </trkpt>
      <trkpt lat="44.0569" lon="6.03523">
        <ele>656.40002441406</ele>
        <time>2022-01-02T07:52:30.354Z</time>
      </trkpt>
      <trkpt lat="44.05693" lon="6.03523">
        <ele>657.20001220703</ele>
        <time>2022-01-02T07:52:31.375Z</time>
      </trkpt>
      <trkpt lat="44.057" lon="6.03524">
        <ele>658.59997558594</ele>
        <time>2022-01-02T07:52:32.399Z</time>
      </trkpt>
      <trkpt lat="44.05706" lon="6.03521">
        <ele>659.79998779297</ele>
        <time>2022-01-02T07:52:33.425Z</time>
      </trkpt>
      <trkpt lat="44.0571" lon="6.03518">
        <ele>660.79998779297</ele>
        <time>2022-01-02T07:52:34.453Z</time>
      </trkpt>
      <trkpt lat="44.05711" lon="6.03516">
        <ele>661.40002441406</ele>
        <time>2022-01-02T07:52:35.481Z</time>
      </trkpt>
      <trkpt lat="44.05715" lon="6.03513">
        <ele>662.59997558594</ele>
        <time>2022-01-02T07:52:36.511Z</time>
      </trkpt>
      <trkpt lat="44.05718" lon="6.03511">
        <ele>663.59997558594</ele>
        <time>2022-01-02T07:52:37.542Z</time>
      </trkpt>
      <trkpt lat="44.05721" lon="6.0351">
        <ele>664.40002441406</ele>
        <time>2022-01-02T07:52:38.574Z</time>
      </trkpt>
      <trkpt lat="44.05723" lon="6.0351">
        <ele>665.20001220703</ele>
        <time>2022-01-02T07:52:39.607Z</time>
      </trkpt>
      <trkpt lat="44.05727" lon="6.0351">
        <ele>666.20001220703</ele>
        <time>2022-01-02T07:52:40.641Z</time>
      </trkpt>
      <trkpt lat="44.05731" lon="6.03509">
        <ele>667.20001220703</ele>
        <time>2022-01-02T07:52:41.677Z</time>
      </trkpt>
      <trkpt lat="44.05733" lon="6.03509">
        <ele>667.79998779297</ele>
        <time>2022-01-02T07:52:42.713Z</time>
      </trkpt>
      <trkpt lat="44.05737" lon="6.03507">
        <ele>669.59997558594</ele>
        <time>2022-01-02T07:52:43.751Z</time>
      </trkpt>
      <trkpt lat="44.05738" lon="6.03506">
        <ele>670</ele>
        <time>2022-01-02T07:52:44.790Z</time>
      </trkpt>
      <trkpt lat="44.05741" lon="6.03504">
        <ele>670.79998779297</ele>
        <time>2022-01-02T07:52:45.830Z</time>
      </trkpt>
      <trkpt lat="44.05743" lon="6.03505">
        <ele>671.79998779297</ele>
        <time>2022-01-02T07:52:46.870Z</time>
      </trkpt>
      <trkpt lat="44.05744" lon="6.03505">
        <ele>672.20001220703</ele>
        <time>2022-01-02T07:52:47.911Z</time>
      </trkpt>
      <trkpt lat="44.05746" lon="6.03502">
        <ele>673.20001220703</ele>
        <time>2022-01-02T07:52:48.953Z</time>
      </trkpt>
      <trkpt lat="44.05747" lon="6.035">
        <ele>673.59997558594</ele>
        <time>2022-01-02T07:52:49.995Z</time>
      </trkpt>
      <trkpt lat="44.0575" lon="6.03498">
        <ele>674.40002441406</ele>
        <time>2022-01-02T07:52:51.039Z</time>
      </trkpt>
      <trkpt lat="44.05754" lon="6.03495">
        <ele>675.40002441406</ele>
        <time>2022-01-02T07:52:52.084Z</time>
      </trkpt>
      <trkpt lat="44.05755" lon="6.03494">
        <ele>676.20001220703</ele>
        <time>2022-01-02T07:52:53.130Z</time>
      </trkpt>
      <trkpt lat="44.05756" lon="6.03492">
        <ele>677</ele>
        <time>2022-01-02T07:52:54.176Z</time>
      </trkpt>
      <trkpt lat="44.05759" lon="6.03489">
        <ele>678</ele>
        <time>2022-01-02T07:52:55.224Z</time>
      </trkpt>
      <trkpt lat="44.05761" lon="6.03488">
        <ele>678.40002441406</ele>
        <time>2022-01-02T07:52:56.272Z</time>
      </trkpt>
      <trkpt lat="44.05763" lon="6.03487">
        <ele>679.20001220703</ele>
        <time>2022-01-02T07:52:57.321Z</time>
      </trkpt>
      <trkpt lat="44.05768" lon="6.03485">
        <ele>681</ele>
        <time>2022-01-02T07:52:58.372Z</time>
      </trkpt>
      <trkpt lat="44.05769" lon="6.03485">
        <ele>681.59997558594</ele>
        <time>2022-01-02T07:52:59.423Z</time>
      </trkpt>
      <trkpt lat="44.05771" lon="6.03484">
        <ele>682</ele>
        <time>2022-01-02T07:53:00.475Z</time>
      </trkpt>
      <trkpt lat="44.05773" lon="6.03484">
        <ele>682.59997558594</ele>
        <time>2022-01-02T07:53:01.528Z</time>
      </trkpt>
      <trkpt lat="44.05774" lon="6.03483">
        <ele>683</ele>
        <time>2022-01-02T07:53:02.581Z</time>
      </trkpt>
      <trkpt lat="44.05776" lon="6.03482">
        <ele>683.40002441406</ele>
        <time>2022-01-02T07:53:03.635Z</time>
      </trkpt>
      <trkpt lat="44.05779" lon="6.03478">
        <ele>684.40002441406</ele>
        <time>2022-01-02T07:53:04.690Z</time>
      </trkpt>
      <trkpt lat="44.05784" lon="6.03477">
        <ele>685.79998779297</ele>
        <time>2022-01-02T07:53:05.747Z</time>
      </trkpt>
      <trkpt lat="44.05785" lon="6.03477">
        <ele>686.20001220703</ele>
        <time>2022-01-02T07:53:06.804Z</time>
      </trkpt>
      <trkpt lat="44.05786" lon="6.03477">
        <ele>686.59997558594</ele>
        <time>2022-01-02T07:53:07.862Z</time>
      </trkpt>
      <trkpt lat="44.05787" lon="6.03476">
        <ele>687</ele>
        <time>2022-01-02T07:53:08.920Z</time>
      </trkpt>
      <trkpt lat="44.0579" lon="6.03473">
        <ele>688</ele>
        <time>2022-01-02T07:53:09.979Z</time>
      </trkpt>
      <trkpt lat="44.05791" lon="6.03471">
        <ele>688.59997558594</ele>
        <time>2022-01-02T07:53:11.039Z</time>
      </trkpt>
      <trkpt lat="44.05794" lon="6.03467">
        <ele>690</ele>
        <time>2022-01-02T07:53:12.100Z</time>
      </trkpt>
      <trkpt lat="44.05796" lon="6.03466">
        <ele>691.20001220703</ele>
        <time>2022-01-02T07:53:13.162Z</time>
      </trkpt>
      <trkpt lat="44.05796" lon="6.03465">
        <ele>691.79998779297</ele>
        <time>2022-01-02T07:53:14.224Z</time>
      </trkpt>
      <trkpt lat="44.05804" lon="6.0345">
        <ele>696.79998779297</ele>
        <time>2022-01-02T07:53:15.291Z</time>
      </trkpt>
      <trkpt lat="44.05806" lon="6.03446">
        <ele>697.59997558594</ele>
        <time>2022-01-02T07:53:16.359Z</time>
      </trkpt>
      <trkpt lat="44.05807" lon="6.03445">
        <ele>698</ele>
        <time>2022-01-02T07:53:17.428Z</time>
      </trkpt>
      <trkpt lat="44.05811" lon="6.03444">
        <ele>699</ele>
        <time>2022-01-02T07:53:18.498Z</time>
      </trkpt>
      <trkpt lat="44.05813" lon="6.03444">
        <ele>699.40002441406</ele>
        <time>2022-01-02T07:53:19.569Z</time>
      </trkpt>
      <trkpt lat="44.05814" lon="6.03445">
        <ele>700.20001220703</ele>
        <time>2022-01-02T07:53:20.640Z</time>
      </trkpt>
      <trkpt lat="44.05817" lon="6.03447">
        <ele>701.40002441406</ele>
        <time>2022-01-02T07:53:21.712Z</time>
      </trkpt>
      <trkpt lat="44.0582" lon="6.03445">
        <ele>702.40002441406</ele>
        <time>2022-01-02T07:53:22.785Z</time>
      </trkpt>
      <trkpt lat="44.05822" lon="6.03444">
        <ele>703</ele>
        <time>2022-01-02T07:53:23.859Z</time>
      </trkpt>
      <trkpt lat="44.05826" lon="6.03443">
        <ele>704.20001220703</ele>
        <time>2022-01-02T07:53:24.935Z</time>
      </trkpt>
      <trkpt lat="44.05828" lon="6.03443">
        <ele>704.79998779297</ele>
        <time>2022-01-02T07:53:26.011Z</time>
      </trkpt>
      <trkpt lat="44.0583" lon="6.03444">
        <ele>705.40002441406</ele>
        <time>2022-01-02T07:53:27.088Z</time>
      </trkpt>
      <trkpt lat="44.05836" lon="6.03442">
        <ele>706.79998779297</ele>
        <time>2022-01-02T07:53:28.167Z</time>
      </trkpt>
      <trkpt lat="44.05842" lon="6.03442">
        <ele>708.40002441406</ele>
        <time>2022-01-02T07:53:29.248Z</time>
      </trkpt>
      <trkpt lat="44.05848" lon="6.03442">
        <ele>709.40002441406</ele>
        <time>2022-01-02T07:53:30.331Z</time>
      </trkpt>
      <trkpt lat="44.05849" lon="6.03442">
        <ele>709.79998779297</ele>
        <time>2022-01-02T07:53:31.415Z</time>
      </trkpt>
      <trkpt lat="44.05854" lon="6.03439">
        <ele>710.59997558594</ele>
        <time>2022-01-02T07:53:32.500Z</time>
      </trkpt>
      <trkpt lat="44.05863" lon="6.03438">
        <ele>711.59997558594</ele>
        <time>2022-01-02T07:53:33.589Z</time>
      </trkpt>
      <trkpt lat="44.05872" lon="6.03438">
        <ele>712.79998779297</ele>
        <time>2022-01-02T07:53:34.681Z</time>
      </trkpt>
      <trkpt lat="44.05873" lon="6.03438">
        <ele>713</ele>
        <time>2022-01-02T07:53:35.773Z</time>
      </trkpt>
      <trkpt lat="44.05883" lon="6.03435">
        <ele>714</ele>
        <time>2022-01-02T07:53:36.869Z</time>
      </trkpt>
      <trkpt lat="44.05895" lon="6.03433">
        <ele>715.40002441406</ele>
        <time>2022-01-02T07:53:37.969Z</time>
      </trkpt>
      <trkpt lat="44.05897" lon="6.03433">
        <ele>715.59997558594</ele>
        <time>2022-01-02T07:53:39.070Z</time>
      </trkpt>
      <trkpt lat="44.05905" lon="6.03433">
        <ele>716.40002441406</ele>
        <time>2022-01-02T07:53:40.173Z</time>
      </trkpt>
      <trkpt lat="44.05911" lon="6.03434">
        <ele>717</ele>
        <time>2022-01-02T07:53:41.279Z</time>
      </trkpt>
      <trkpt lat="44.05915" lon="6.03435">
        <ele>717.40002441406</ele>
        <time>2022-01-02T07:53:42.386Z</time>
      </trkpt>
      <trkpt lat="44.0592" lon="6.03435">
        <ele>717.79998779297</ele>
        <time>2022-01-02T07:53:43.495Z</time>
      </trkpt>
      <trkpt lat="44.05924" lon="6.03434">
        <ele>718.20001220703</ele>
        <time>2022-01-02T07:53:44.605Z</time>
      </trkpt>
      <trkpt lat="44.05928" lon="6.03434">
        <ele>718.59997558594</ele>
        <time>2022-01-02T07:53:45.717Z</time>
      </trkpt>
      <trkpt lat="44.05936" lon="6.03435">
        <ele>719.59997558594</ele>
        <time>2022-01-02T07:53:46.831Z</time>
      </trkpt>
      <trkpt lat="44.05938" lon="6.03434">
        <ele>719.79998779297</ele>
        <time>2022-01-02T07:53:47.946Z</time>
      </trkpt>
      <trkpt lat="44.05948" lon="6.03431">
        <ele>721</ele>
        <time>2022-01-02T07:53:49.065Z</time>
      </trkpt>
      <trkpt lat="44.05953" lon="6.03431">
        <ele>722</ele>
        <time>2022-01-02T07:53:50.186Z</time>
      </trkpt>
      <trkpt lat="44.05959" lon="6.03428">
        <ele>722.59997558594</ele>
        <time>2022-01-02T07:53:51.309Z</time>
      </trkpt>
      <trkpt lat="44.05963" lon="6.03426">
        <ele>723.40002441406</ele>
        <time>2022-01-02T07:53:52.433Z</time>
      </trkpt>
      <trkpt lat="44.05971" lon="6.03422">
        <ele>724.59997558594</ele>
        <time>2022-01-02T07:53:53.560Z</time>
      </trkpt>
      <trkpt lat="44.05973" lon="6.03422">
        <ele>725.20001220703</ele>
        <time>2022-01-02T07:53:54.688Z</time>
      </trkpt>
      <trkpt lat="44.05977" lon="6.03423">
        <ele>725.79998779297</ele>
        <time>2022-01-02T07:53:55.817Z</time>
      </trkpt>
      <trkpt lat="44.05984" lon="6.03424">
        <ele>727.20001220703</ele>
        <time>2022-01-02T07:53:56.949Z</time>
      </trkpt>
      <trkpt lat="44.05985" lon="6.03425">
        <ele>727.40002441406</ele>
        <time>2022-01-02T07:53:58.081Z</time>
      </trkpt>
      <trkpt lat="44.0599" lon="6.03425">
        <ele>728.40002441406</ele>
        <time>2022-01-02T07:53:59.215Z</time>
      </trkpt>
      <trkpt lat="44.05994" lon="6.03423">
        <ele>729.20001220703</ele>
        <time>2022-01-02T07:54:00.350Z</time>
      </trkpt>
      <trkpt lat="44.05995" lon="6.03422">
        <ele>729.79998779297</ele>
        <time>2022-01-02T07:54:01.486Z</time>
      </trkpt>
      <trkpt lat="44.06001" lon="6.03419">
        <ele>731</ele>
        <time>2022-01-02T07:54:02.624Z</time>
      </trkpt>
      <trkpt lat="44.06003" lon="6.03418">
        <ele>731.40002441406</ele>
        <time>2022-01-02T07:54:03.763Z</time>
      </trkpt>
      <trkpt lat="44.06007" lon="6.03417">
        <ele>732.20001220703</ele>
        <time>2022-01-02T07:54:04.903Z</time>
      </trkpt>
      <trkpt lat="44.06013" lon="6.03415">
        <ele>733.40002441406</ele>
        <time>2022-01-02T07:54:06.045Z</time>
      </trkpt>
      <trkpt lat="44.06017" lon="6.03413">
        <ele>734.59997558594</ele>
        <time>2022-01-02T07:54:07.189Z</time>
      </trkpt>
      <trkpt lat="44.06021" lon="6.03411">
        <ele>735.59997558594</ele>
        <time>2022-01-02T07:54:08.334Z</time>
      </trkpt>
      <trkpt lat="44.06025" lon="6.03411">
        <ele>736.59997558594</ele>
        <time>2022-01-02T07:54:09.481Z</time>
      </trkpt>
      <trkpt lat="44.06027" lon="6.0341">
        <ele>737.40002441406</ele>
        <time>2022-01-02T07:54:10.628Z</time>
      </trkpt>
      <trkpt lat="44.06029" lon="6.03409">
        <ele>738</ele>
        <time>2022-01-02T07:54:11.776Z</time>
      </trkpt>
      <trkpt lat="44.06033" lon="6.03408">
        <ele>739</ele>
        <time>2022-01-02T07:54:12.926Z</time>
      </trkpt>
      <trkpt lat="44.06038" lon="6.03407">
        <ele>740.20001220703</ele>
        <time>2022-01-02T07:54:14.077Z</time>
      </trkpt>
      <trkpt lat="44.06042" lon="6.03407">
        <ele>741.79998779297</ele>
        <time>2022-01-02T07:54:15.230Z</time>
      </trkpt>
      <trkpt lat="44.06048" lon="6.03405">
        <ele>743.20001220703</ele>
        <time>2022-01-02T07:54:16.385Z</time>
      </trkpt>
      <trkpt lat="44.06052" lon="6.03402">
        <ele>744.59997558594</ele>
        <time>2022-01-02T07:54:17.542Z</time>
      </trkpt>
      <trkpt lat="44.06057" lon="6.03401">
        <ele>745.59997558594</ele>
        <time>2022-01-02T07:54:18.700Z</time>
      </trkpt>
      <trkpt lat="44.0606" lon="6.03399">
        <ele>747</ele>
        <time>2022-01-02T07:54:19.859Z</time>
      </trkpt>
      <trkpt lat="44.06061" lon="6.03398">
        <ele>747.59997558594</ele>
        <time>2022-01-02T07:54:21.019Z</time>
      </trkpt>
      <trkpt lat="44.06064" lon="6.03394">
        <ele>748.59997558594</ele>
        <time>2022-01-02T07:54:22.180Z</time>
      </trkpt>
      <trkpt lat="44.0607" lon="6.03388">
        <ele>750</ele>
        <time>2022-01-02T07:54:23.344Z</time>
      </trkpt>
      <trkpt lat="44.06074" lon="6.03385">
        <ele>750.79998779297</ele>
        <time>2022-01-02T07:54:24.509Z</time>
      </trkpt>
      <trkpt lat="44.06076" lon="6.03384">
        <ele>751.20001220703</ele>
        <time>2022-01-02T07:54:25.675Z</time>
      </trkpt>
      <trkpt lat="44.0608" lon="6.03383">
        <ele>752.40002441406</ele>
        <time>2022-01-02T07:54:26.843Z</time>
      </trkpt>
      <trkpt lat="44.06084" lon="6.03385">
        <ele>753.59997558594</ele>
        <time>2022-01-02T07:54:28.012Z</time>
      </trkpt>
      <trkpt lat="44.06086" lon="6.03386">
        <ele>754.59997558594</ele>
        <time>2022-01-02T07:54:29.182Z</time>
      </trkpt>
      <trkpt lat="44.06089" lon="6.03388">
        <ele>755.79998779297</ele>
        <time>2022-01-02T07:54:30.353Z</time>
      </trkpt>
      <trkpt lat="44.06093" lon="6.03387">
        <ele>757</ele>
        <time>2022-01-02T07:54:31.525Z</time>
      </trkpt>
      <trkpt lat="44.06097" lon="6.03386">
        <ele>758.20001220703</ele>
        <time>2022-01-02T07:54:32.699Z</time>
      </trkpt>
      <trkpt lat="44.061" lon="6.03387">
        <ele>758.59997558594</ele>
        <time>2022-01-02T07:54:33.874Z</time>
      </trkpt>
      <trkpt lat="44.06102" lon="6.03388">
        <ele>759.40002441406</ele>
        <time>2022-01-02T07:54:35.050Z</time>
      </trkpt>
      <trkpt lat="44.06104" lon="6.03388">
        <ele>759.59997558594</ele>
        <time>2022-01-02T07:54:36.227Z</time>
      </trkpt>
      <trkpt lat="44.06109" lon="6.03389">
        <ele>760.40002441406</ele>
        <time>2022-01-02T07:54:37.405Z</time>
      </trkpt>
      <trkpt lat="44.06115" lon="6.03394">
        <ele>761.79998779297</ele>
        <time>2022-01-02T07:54:38.585Z</time>
      </trkpt>
      <trkpt lat="44.06117" lon="6.03395">
        <ele>762.20001220703</ele>
        <time>2022-01-02T07:54:39.766Z</time>
      </trkpt>
      <trkpt lat="44.06119" lon="6.03399">
        <ele>763</ele>
        <time>2022-01-02T07:54:40.948Z</time>
      </trkpt>
      <trkpt lat="44.06129" lon="6.03408">
        <ele>764.20001220703</ele>
        <time>2022-01-02T07:54:42.134Z</time>
      </trkpt>
      <trkpt lat="44.06131" lon="6.0341">
        <ele>764.59997558594</ele>
        <time>2022-01-02T07:54:43.322Z</time>
      </trkpt>
      <trkpt lat="44.06145" lon="6.03421">
        <ele>765.20001220703</ele>
        <time>2022-01-02T07:54:44.515Z</time>
      </trkpt>
      <trkpt lat="44.06146" lon="6.03422">
        <ele>765.20001220703</ele>
        <time>2022-01-02T07:54:45.709Z</time>
      </trkpt>
      <trkpt lat="44.0615" lon="6.03425">
        <ele>765.40002441406</ele>
        <time>2022-01-02T07:54:46.904Z</time>
      </trkpt>
      <trkpt lat="44.06154" lon="6.0343">
        <ele>765.59997558594</ele>
        <time>2022-01-02T07:54:48.101Z</time>
      </trkpt>
      <trkpt lat="44.06164" lon="6.03441">
        <ele>765</ele>
        <time>2022-01-02T07:54:49.302Z</time>
      </trkpt>
      <trkpt lat="44.06176" lon="6.03453">
        <ele>764.59997558594</ele>
        <time>2022-01-02T07:54:50.509Z</time>
      </trkpt>
      <trkpt lat="44.0619" lon="6.03469">
        <ele>763.20001220703</ele>
        <time>2022-01-02T07:54:51.722Z</time>
      </trkpt>
      <trkpt lat="44.06199" lon="6.03476">
        <ele>762.59997558594</ele>
        <time>2022-01-02T07:54:52.939Z</time>
      </trkpt>
      <trkpt lat="44.06204" lon="6.03479">
        <ele>762.20001220703</ele>
        <time>2022-01-02T07:54:54.158Z</time>
      </trkpt>
      <trkpt lat="44.06217" lon="6.03493">
        <ele>761</ele>
        <time>2022-01-02T07:54:55.382Z</time>
      </trkpt>
      <trkpt lat="44.06228" lon="6.03512">
        <ele>759.59997558594</ele>
        <time>2022-01-02T07:54:56.612Z</time>
      </trkpt>
      <trkpt lat="44.06232" lon="6.03517">
        <ele>759.20001220703</ele>
        <time>2022-01-02T07:54:57.844Z</time>
      </trkpt>
      <trkpt lat="44.06235" lon="6.03523">
        <ele>758.20001220703</ele>
        <time>2022-01-02T07:54:59.078Z</time>
      </trkpt>
      <trkpt lat="44.06242" lon="6.03537">
        <ele>756.79998779297</ele>
        <time>2022-01-02T07:55:00.316Z</time>
      </trkpt>
      <trkpt lat="44.06255" lon="6.03552">
        <ele>755.79998779297</ele>
        <time>2022-01-02T07:55:01.560Z</time>
      </trkpt>
      <trkpt lat="44.0626" lon="6.03556">
        <ele>755.59997558594</ele>
        <time>2022-01-02T07:55:02.806Z</time>
      </trkpt>
      <trkpt lat="44.0628" lon="6.03571">
        <ele>754.40002441406</ele>
        <time>2022-01-02T07:55:04.060Z</time>
      </trkpt>
      <trkpt lat="44.06291" lon="6.03577">
        <ele>753.79998779297</ele>
        <time>2022-01-02T07:55:05.318Z</time>
      </trkpt>
      <trkpt lat="44.06296" lon="6.03579">
        <ele>753.59997558594</ele>
        <time>2022-01-02T07:55:06.578Z</time>
      </trkpt>
      <trkpt lat="44.06301" lon="6.0358">
        <ele>753.40002441406</ele>
        <time>2022-01-02T07:55:07.840Z</time>
      </trkpt>
      <trkpt lat="44.0631" lon="6.03584">
        <ele>753.59997558594</ele>
        <time>2022-01-02T07:55:09.105Z</time>
      </trkpt>
      <trkpt lat="44.06319" lon="6.03588">
        <ele>754.40002441406</ele>
        <time>2022-01-02T07:55:10.373Z</time>
      </trkpt>
      <trkpt lat="44.06329" lon="6.03591">
        <ele>755.79998779297</ele>
        <time>2022-01-02T07:55:11.645Z</time>
      </trkpt>
      <trkpt lat="44.06331" lon="6.03592">
        <ele>756.20001220703</ele>
        <time>2022-01-02T07:55:12.918Z</time>
      </trkpt>
      <trkpt lat="44.06336" lon="6.03593">
        <ele>757.20001220703</ele>
        <time>2022-01-02T07:55:14.193Z</time>
      </trkpt>
      <trkpt lat="44.06345" lon="6.03595">
        <ele>758.59997558594</ele>
        <time>2022-01-02T07:55:15.471Z</time>
      </trkpt>
      <trkpt lat="44.06349" lon="6.03596">
        <ele>759.79998779297</ele>
        <time>2022-01-02T07:55:16.750Z</time>
      </trkpt>
      <trkpt lat="44.06352" lon="6.03596">
        <ele>760.40002441406</ele>
        <time>2022-01-02T07:55:18.030Z</time>
      </trkpt>
      <trkpt lat="44.06358" lon="6.03597">
        <ele>761.40002441406</ele>
        <time>2022-01-02T07:55:19.312Z</time>
      </trkpt>
      <trkpt lat="44.06363" lon="6.03597">
        <ele>762.59997558594</ele>
        <time>2022-01-02T07:55:20.596Z</time>
      </trkpt>
      <trkpt lat="44.06369" lon="6.03596">
        <ele>763.59997558594</ele>
        <time>2022-01-02T07:55:21.882Z</time>
      </trkpt>
      <trkpt lat="44.06371" lon="6.03596">
        <ele>764.20001220703</ele>
        <time>2022-01-02T07:55:23.169Z</time>
      </trkpt>
      <trkpt lat="44.06374" lon="6.03596">
        <ele>765</ele>
        <time>2022-01-02T07:55:24.457Z</time>
      </trkpt>
      <trkpt lat="44.06378" lon="6.03596">
        <ele>766</ele>
        <time>2022-01-02T07:55:25.746Z</time>
      </trkpt>
      <trkpt lat="44.06383" lon="6.03595">
        <ele>767</ele>
        <time>2022-01-02T07:55:27.037Z</time>
      </trkpt>
      <trkpt lat="44.06389" lon="6.03593">
        <ele>768.40002441406</ele>
        <time>2022-01-02T07:55:28.330Z</time>
      </trkpt>
      <trkpt lat="44.06394" lon="6.03594">
        <ele>769.40002441406</ele>
        <time>2022-01-02T07:55:29.625Z</time>
      </trkpt>
      <trkpt lat="44.06397" lon="6.03595">
        <ele>769.59997558594</ele>
        <time>2022-01-02T07:55:30.921Z</time>
      </trkpt>
      <trkpt lat="44.06404" lon="6.03593">
        <ele>771</ele>
        <time>2022-01-02T07:55:32.219Z</time>
      </trkpt>
      <trkpt lat="44.06406" lon="6.03592">
        <ele>771.40002441406</ele>
        <time>2022-01-02T07:55:33.518Z</time>
      </trkpt>
      <trkpt lat="44.0641" lon="6.0359">
        <ele>772.20001220703</ele>
        <time>2022-01-02T07:55:34.819Z</time>
      </trkpt>
      <trkpt lat="44.06415" lon="6.03593">
        <ele>773.40002441406</ele>
        <time>2022-01-02T07:55:36.121Z</time>
      </trkpt>
      <trkpt lat="44.06419" lon="6.03596">
        <ele>774.20001220703</ele>
        <time>2022-01-02T07:55:37.425Z</time>
      </trkpt>
      <trkpt lat="44.06424" lon="6.036">
        <ele>774.40002441406</ele>
        <time>2022-01-02T07:55:38.731Z</time>
      </trkpt>
      <trkpt lat="44.06429" lon="6.03602">
        <ele>774.40002441406</ele>
        <time>2022-01-02T07:55:40.039Z</time>
      </trkpt>
      <trkpt lat="44.0644" lon="6.03613">
        <ele>773</ele>
        <time>2022-01-02T07:55:41.352Z</time>
      </trkpt>
      <trkpt lat="44.06446" lon="6.03616">
        <ele>771.20001220703</ele>
        <time>2022-01-02T07:55:42.667Z</time>
      </trkpt>
      <trkpt lat="44.06449" lon="6.03616">
        <ele>770</ele>
        <time>2022-01-02T07:55:43.983Z</time>
      </trkpt>
      <trkpt lat="44.06453" lon="6.03617">
        <ele>769.20001220703</ele>
        <time>2022-01-02T07:55:45.300Z</time>
      </trkpt>
      <trkpt lat="44.06458" lon="6.03619">
        <ele>767.79998779297</ele>
        <time>2022-01-02T07:55:46.619Z</time>
      </trkpt>
      <trkpt lat="44.06463" lon="6.03622">
        <ele>766.59997558594</ele>
        <time>2022-01-02T07:55:47.940Z</time>
      </trkpt>
      <trkpt lat="44.06469" lon="6.03625">
        <ele>765</ele>
        <time>2022-01-02T07:55:49.263Z</time>
      </trkpt>
      <trkpt lat="44.06474" lon="6.0363">
        <ele>763.59997558594</ele>
        <time>2022-01-02T07:55:50.589Z</time>
      </trkpt>
      <trkpt lat="44.06486" lon="6.03639">
        <ele>762</ele>
        <time>2022-01-02T07:55:51.919Z</time>
      </trkpt>
      <trkpt lat="44.06498" lon="6.03644">
        <ele>761.40002441406</ele>
        <time>2022-01-02T07:55:53.254Z</time>
      </trkpt>
      <trkpt lat="44.0651" lon="6.03652">
        <ele>763.40002441406</ele>
        <time>2022-01-02T07:55:54.593Z</time>
      </trkpt>
      <trkpt lat="44.06512" lon="6.03654">
        <ele>764.20001220703</ele>
        <time>2022-01-02T07:55:55.933Z</time>
      </trkpt>
      <trkpt lat="44.06515" lon="6.03655">
        <ele>764.79998779297</ele>
        <time>2022-01-02T07:55:57.274Z</time>
      </trkpt>
      <trkpt lat="44.06528" lon="6.03658">
        <ele>765.79998779297</ele>
        <time>2022-01-02T07:55:58.620Z</time>
      </trkpt>
      <trkpt lat="44.06534" lon="6.0366">
        <ele>766</ele>
        <time>2022-01-02T07:55:59.968Z</time>
      </trkpt>
      <trkpt lat="44.06545" lon="6.03673">
        <ele>766.79998779297</ele>
        <time>2022-01-02T07:56:01.321Z</time>
      </trkpt>
      <trkpt lat="44.06547" lon="6.03676">
        <ele>767</ele>
        <time>2022-01-02T07:56:02.675Z</time>
      </trkpt>
      <trkpt lat="44.06552" lon="6.03686">
        <ele>768.20001220703</ele>
        <time>2022-01-02T07:56:04.032Z</time>
      </trkpt>
      <trkpt lat="44.06554" lon="6.03688">
        <ele>768.59997558594</ele>
        <time>2022-01-02T07:56:05.390Z</time>
      </trkpt>
      <trkpt lat="44.06555" lon="6.0369">
        <ele>769.20001220703</ele>
        <time>2022-01-02T07:56:06.749Z</time>
      </trkpt>
      <trkpt lat="44.06561" lon="6.03696">
        <ele>770.59997558594</ele>
        <time>2022-01-02T07:56:08.110Z</time>
      </trkpt>
      <trkpt lat="44.06565" lon="6.03698">
        <ele>772</ele>
        <time>2022-01-02T07:56:09.472Z</time>
      </trkpt>
      <trkpt lat="44.06566" lon="6.03699">
        <ele>772.59997558594</ele>
        <time>2022-01-02T07:56:10.835Z</time>
      </trkpt>
      <trkpt lat="44.06569" lon="6.037">
        <ele>773.40002441406</ele>
        <time>2022-01-02T07:56:12.199Z</time>
      </trkpt>
      <trkpt lat="44.06573" lon="6.03702">
        <ele>774.79998779297</ele>
        <time>2022-01-02T07:56:13.564Z</time>
      </trkpt>
      <trkpt lat="44.06577" lon="6.03705">
        <ele>776</ele>
        <time>2022-01-02T07:56:14.931Z</time>
      </trkpt>
      <trkpt lat="44.0658" lon="6.03709">
        <ele>777.59997558594</ele>
        <time>2022-01-02T07:56:16.299Z</time>
      </trkpt>
      <trkpt lat="44.06583" lon="6.03713">
        <ele>778.79998779297</ele>
        <time>2022-01-02T07:56:17.669Z</time>
      </trkpt>
      <trkpt lat="44.06587" lon="6.03716">
        <ele>780</ele>
        <time>2022-01-02T07:56:19.041Z</time>
      </trkpt>
      <trkpt lat="44.06591" lon="6.03718">
        <ele>781.40002441406</ele>
        <time>2022-01-02T07:56:20.414Z</time>
      </trkpt>
      <trkpt lat="44.06596" lon="6.0372">
        <ele>782.59997558594</ele>
        <time>2022-01-02T07:56:21.789Z</time>
      </trkpt>
      <trkpt lat="44.066" lon="6.03723">
        <ele>784</ele>
        <time>2022-01-02T07:56:23.165Z</time>
      </trkpt>
      <trkpt lat="44.06604" lon="6.03725">
        <ele>785.20001220703</ele>
        <time>2022-01-02T07:56:24.543Z</time>
      </trkpt>
      <trkpt lat="44.06606" lon="6.03726">
        <ele>785.79998779297</ele>
        <time>2022-01-02T07:56:25.922Z</time>
      </trkpt>
      <trkpt lat="44.06607" lon="6.03728">
        <ele>786.40002441406</ele>
        <time>2022-01-02T07:56:27.301Z</time>
      </trkpt>
      <trkpt lat="44.06611" lon="6.0373">
        <ele>787.59997558594</ele>
        <time>2022-01-02T07:56:28.682Z</time>
      </trkpt>
      <trkpt lat="44.06616" lon="6.03734">
        <ele>789</ele>
        <time>2022-01-02T07:56:30.065Z</time>
      </trkpt>
      <trkpt lat="44.06619" lon="6.03736">
        <ele>789.40002441406</ele>
        <time>2022-01-02T07:56:31.449Z</time>
      </trkpt>
      <trkpt lat="44.0662" lon="6.03736">
        <ele>790</ele>
        <time>2022-01-02T07:56:32.833Z</time>
      </trkpt>
      <trkpt lat="44.0662" lon="6.03736">
        <ele>790</ele>
        <time>2022-01-02T07:56:34.217Z</time>
      </trkpt>
      <trkpt lat="44.06615" lon="6.03733">
        <ele>791</ele>
        <time>2022-01-02T07:56:35.603Z</time>
      </trkpt>
      <trkpt lat="44.06612" lon="6.03732">
        <ele>790.59997558594</ele>
        <time>2022-01-02T07:56:36.990Z</time>
      </trkpt>
      <trkpt lat="44.06606" lon="6.03727">
        <ele>789.79998779297</ele>
        <time>2022-01-02T07:56:38.380Z</time>
      </trkpt>
      <trkpt lat="44.06599" lon="6.03723">
        <ele>788.59997558594</ele>
        <time>2022-01-02T07:56:39.772Z</time>
      </trkpt>
      <trkpt lat="44.06592" lon="6.03718">
        <ele>787</ele>
        <time>2022-01-02T07:56:41.167Z</time>
      </trkpt>
      <trkpt lat="44.06588" lon="6.03716">
        <ele>786</ele>
        <time>2022-01-02T07:56:42.564Z</time>
      </trkpt>
      <trkpt lat="44.06584" lon="6.03714">
        <ele>784.79998779297</ele>
        <time>2022-01-02T07:56:43.962Z</time>
      </trkpt>
      <trkpt lat="44.06581" lon="6.03711">
        <ele>783.79998779297</ele>
        <time>2022-01-02T07:56:45.361Z</time>
      </trkpt>
      <trkpt lat="44.06578" lon="6.03707">
        <ele>782.79998779297</ele>
        <time>2022-01-02T07:56:46.762Z</time>
      </trkpt>
      <trkpt lat="44.06575" lon="6.03703">
        <ele>781.59997558594</ele>
        <time>2022-01-02T07:56:48.164Z</time>
      </trkpt>
      <trkpt lat="44.06571" lon="6.03701">
        <ele>780</ele>
        <time>2022-01-02T07:56:49.568Z</time>
      </trkpt>
      <trkpt lat="44.06567" lon="6.03699">
        <ele>778.79998779297</ele>
        <time>2022-01-02T07:56:50.973Z</time>
      </trkpt>
      <trkpt lat="44.06563" lon="6.03696">
        <ele>777.79998779297</ele>
        <time>2022-01-02T07:56:52.380Z</time>
      </trkpt>
      <trkpt lat="44.0656" lon="6.03693">
        <ele>776.59997558594</ele>
        <time>2022-01-02T07:56:53.788Z</time>
      </trkpt>
      <trkpt lat="44.06556" lon="6.03689">
        <ele>775.20001220703</ele>
        <time>2022-01-02T07:56:55.198Z</time>
      </trkpt>
      <trkpt lat="44.06552" lon="6.03683">
        <ele>773.79998779297</ele>
        <time>2022-01-02T07:56:56.610Z</time>
      </trkpt>
      <trkpt lat="44.06548" lon="6.03676">
        <ele>772.20001220703</ele>
        <time>2022-01-02T07:56:58.024Z</time>
      </trkpt>
      <trkpt lat="44.06544" lon="6.03669">
        <ele>771.20001220703</ele>
        <time>2022-01-02T07:56:59.440Z</time>
      </trkpt>
      <trkpt lat="44.06539" lon="6.03664">
        <ele>769.59997558594</ele>
        <time>2022-01-02T07:57:00.859Z</time>
      </trkpt>
      <trkpt lat="44.06529" lon="6.03658">
        <ele>768.20001220703</ele>
        <time>2022-01-02T07:57:02.281Z</time>
      </trkpt>
      <trkpt lat="44.06511" lon="6.0365">
        <ele>767.40002441406</ele>
        <time>2022-01-02T07:57:03.710Z</time>
      </trkpt>
      <trkpt lat="44.06508" lon="6.03647">
        <ele>767.20001220703</ele>
        <time>2022-01-02T07:57:05.140Z</time>
      </trkpt>
      <trkpt lat="44.06504" lon="6.03643">
        <ele>766.59997558594</ele>
        <time>2022-01-02T07:57:06.572Z</time>
      </trkpt>
      <trkpt lat="44.06493" lon="6.03638">
        <ele>765.40002441406</ele>
        <time>2022-01-02T07:57:08.008Z</time>
      </trkpt>
      <trkpt lat="44.06486" lon="6.03635">
        <ele>764.20001220703</ele>
        <time>2022-01-02T07:57:09.447Z</time>
      </trkpt>
      <trkpt lat="44.0648" lon="6.0363">
        <ele>763</ele>
        <time>2022-01-02T07:57:10.888Z</time>
      </trkpt>
      <trkpt lat="44.06475" lon="6.03626">
        <ele>762.20001220703</ele>
        <time>2022-01-02T07:57:12.331Z</time>
      </trkpt>
      <trkpt lat="44.06471" lon="6.03622">
        <ele>762</ele>
        <time>2022-01-02T07:57:13.776Z</time>
      </trkpt>
      <trkpt lat="44.06465" lon="6.03619">
        <ele>762</ele>
        <time>2022-01-02T07:57:15.223Z</time>
      </trkpt>
      <trkpt lat="44.06456" lon="6.03615">
        <ele>763.20001220703</ele>
        <time>2022-01-02T07:57:16.673Z</time>
      </trkpt>
      <trkpt lat="44.06452" lon="6.03614">
        <ele>764.20001220703</ele>
        <time>2022-01-02T07:57:18.125Z</time>
      </trkpt>
      <trkpt lat="44.06449" lon="6.03614">
        <ele>766</ele>
        <time>2022-01-02T07:57:19.578Z</time>
      </trkpt>
      <trkpt lat="44.06447" lon="6.03614">
        <ele>767.20001220703</ele>
        <time>2022-01-02T07:57:21.031Z</time>
      </trkpt>
      <trkpt lat="44.06443" lon="6.03612">
        <ele>769.20001220703</ele>
        <time>2022-01-02T07:57:22.486Z</time>
      </trkpt>
      <trkpt lat="44.06442" lon="6.0361">
        <ele>769.59997558594</ele>
        <time>2022-01-02T07:57:23.941Z</time>
      </trkpt>
      <trkpt lat="44.0644" lon="6.03608">
        <ele>770.59997558594</ele>
        <time>2022-01-02T07:57:25.397Z</time>
      </trkpt>
      <trkpt lat="44.06437" lon="6.03604">
        <ele>772</ele>
        <time>2022-01-02T07:57:26.855Z</time>
      </trkpt>
      <trkpt lat="44.06435" lon="6.03603">
        <ele>773</ele>
        <time>2022-01-02T07:57:28.314Z</time>
      </trkpt>
      <trkpt lat="44.0643" lon="6.036">
        <ele>774</ele>
        <time>2022-01-02T07:57:29.774Z</time>
      </trkpt>
      <trkpt lat="44.06422" lon="6.03595">
        <ele>775.40002441406</ele>
        <time>2022-01-02T07:57:31.238Z</time>
      </trkpt>
      <trkpt lat="44.06418" lon="6.03592">
        <ele>775.59997558594</ele>
        <time>2022-01-02T07:57:32.703Z</time>
      </trkpt>
      <trkpt lat="44.06409" lon="6.03588">
        <ele>775.79998779297</ele>
        <time>2022-01-02T07:57:34.171Z</time>
      </trkpt>
      <trkpt lat="44.06405" lon="6.0359">
        <ele>775.79998779297</ele>
        <time>2022-01-02T07:57:35.641Z</time>
      </trkpt>
      <trkpt lat="44.06391" lon="6.0359">
        <ele>773.79998779297</ele>
        <time>2022-01-02T07:57:37.116Z</time>
      </trkpt>
      <trkpt lat="44.06386" lon="6.03591">
        <ele>772.59997558594</ele>
        <time>2022-01-02T07:57:38.592Z</time>
      </trkpt>
      <trkpt lat="44.06376" lon="6.03592">
        <ele>771.20001220703</ele>
        <time>2022-01-02T07:57:40.072Z</time>
      </trkpt>
      <trkpt lat="44.06371" lon="6.03592">
        <ele>770.40002441406</ele>
        <time>2022-01-02T07:57:41.554Z</time>
      </trkpt>
      <trkpt lat="44.06366" lon="6.03593">
        <ele>769</ele>
        <time>2022-01-02T07:57:43.038Z</time>
      </trkpt>
      <trkpt lat="44.0636" lon="6.03592">
        <ele>768</ele>
        <time>2022-01-02T07:57:44.524Z</time>
      </trkpt>
      <trkpt lat="44.06348" lon="6.03591">
        <ele>766</ele>
        <time>2022-01-02T07:57:46.014Z</time>
      </trkpt>
      <trkpt lat="44.06342" lon="6.0359">
        <ele>764.59997558594</ele>
        <time>2022-01-02T07:57:47.506Z</time>
      </trkpt>
      <trkpt lat="44.06336" lon="6.03589">
        <ele>763.20001220703</ele>
        <time>2022-01-02T07:57:49.000Z</time>
      </trkpt>
      <trkpt lat="44.0633" lon="6.03587">
        <ele>762</ele>
        <time>2022-01-02T07:57:50.496Z</time>
      </trkpt>
      <trkpt lat="44.06324" lon="6.03586">
        <ele>761</ele>
        <time>2022-01-02T07:57:51.994Z</time>
      </trkpt>
      <trkpt lat="44.06318" lon="6.03583">
        <ele>760.40002441406</ele>
        <time>2022-01-02T07:57:53.494Z</time>
      </trkpt>
      <trkpt lat="44.06312" lon="6.03581">
        <ele>759.20001220703</ele>
        <time>2022-01-02T07:57:54.997Z</time>
      </trkpt>
      <trkpt lat="44.06306" lon="6.03578">
        <ele>758</ele>
        <time>2022-01-02T07:57:56.502Z</time>
      </trkpt>
      <trkpt lat="44.06299" lon="6.03575">
        <ele>757.20001220703</ele>
        <time>2022-01-02T07:57:58.009Z</time>
      </trkpt>
      <trkpt lat="44.06293" lon="6.03573">
        <ele>756.20001220703</ele>
        <time>2022-01-02T07:57:59.519Z</time>
      </trkpt>
      <trkpt lat="44.06287" lon="6.0357">
        <ele>755.40002441406</ele>
        <time>2022-01-02T07:58:01.031Z</time>
      </trkpt>
      <trkpt lat="44.06281" lon="6.03567">
        <ele>755.20001220703</ele>
        <time>2022-01-02T07:58:02.545Z</time>
      </trkpt>
      <trkpt lat="44.06266" lon="6.03559">
        <ele>755</ele>
        <time>2022-01-02T07:58:04.065Z</time>
      </trkpt>
      <trkpt lat="44.0625" lon="6.03546">
        <ele>756</ele>
        <time>2022-01-02T07:58:05.591Z</time>
      </trkpt>
      <trkpt lat="44.06243" lon="6.03538">
        <ele>756.59997558594</ele>
        <time>2022-01-02T07:58:07.120Z</time>
      </trkpt>
      <trkpt lat="44.06233" lon="6.03517">
        <ele>757</ele>
        <time>2022-01-02T07:58:08.656Z</time>
      </trkpt>
      <trkpt lat="44.06224" lon="6.03505">
        <ele>758.20001220703</ele>
        <time>2022-01-02T07:58:10.196Z</time>
      </trkpt>
      <trkpt lat="44.06222" lon="6.03502">
        <ele>758.40002441406</ele>
        <time>2022-01-02T07:58:11.737Z</time>
      </trkpt>
      <trkpt lat="44.06216" lon="6.03492">
        <ele>759.40002441406</ele>
        <time>2022-01-02T07:58:13.281Z</time>
      </trkpt>
      <trkpt lat="44.06209" lon="6.03481">
        <ele>760.40002441406</ele>
        <time>2022-01-02T07:58:14.829Z</time>
      </trkpt>
      <trkpt lat="44.06206" lon="6.03479">
        <ele>760.59997558594</ele>
        <time>2022-01-02T07:58:16.378Z</time>
      </trkpt>
      <trkpt lat="44.06199" lon="6.03474">
        <ele>761.59997558594</ele>
        <time>2022-01-02T07:58:17.930Z</time>
      </trkpt>
      <trkpt lat="44.06188" lon="6.03466">
        <ele>762.59997558594</ele>
        <time>2022-01-02T07:58:19.486Z</time>
      </trkpt>
      <trkpt lat="44.06186" lon="6.03463">
        <ele>762.79998779297</ele>
        <time>2022-01-02T07:58:21.043Z</time>
      </trkpt>
      <trkpt lat="44.06172" lon="6.03447">
        <ele>764</ele>
        <time>2022-01-02T07:58:22.607Z</time>
      </trkpt>
      <trkpt lat="44.0617" lon="6.03444">
        <ele>764.40002441406</ele>
        <time>2022-01-02T07:58:24.172Z</time>
      </trkpt>
      <trkpt lat="44.06162" lon="6.03438">
        <ele>765</ele>
        <time>2022-01-02T07:58:25.740Z</time>
      </trkpt>
      <trkpt lat="44.06155" lon="6.0343">
        <ele>765.59997558594</ele>
        <time>2022-01-02T07:58:27.311Z</time>
      </trkpt>
      <trkpt lat="44.06143" lon="6.03417">
        <ele>766</ele>
        <time>2022-01-02T07:58:28.887Z</time>
      </trkpt>
      <trkpt lat="44.06126" lon="6.03403">
        <ele>765.59997558594</ele>
        <time>2022-01-02T07:58:30.470Z</time>
      </trkpt>
      <trkpt lat="44.06122" lon="6.034">
        <ele>764.79998779297</ele>
        <time>2022-01-02T07:58:32.055Z</time>
      </trkpt>
      <trkpt lat="44.0612" lon="6.03396">
        <ele>764.59997558594</ele>
        <time>2022-01-02T07:58:33.641Z</time>
      </trkpt>
      <trkpt lat="44.06115" lon="6.03391">
        <ele>764.40002441406</ele>
        <time>2022-01-02T07:58:35.229Z</time>
      </trkpt>
      <trkpt lat="44.0611" lon="6.03387">
        <ele>763.79998779297</ele>
        <time>2022-01-02T07:58:36.819Z</time>
      </trkpt>
      <trkpt lat="44.06099" lon="6.03383">
        <ele>762.59997558594</ele>
        <time>2022-01-02T07:58:38.413Z</time>
      </trkpt>
      <trkpt lat="44.06092" lon="6.03383">
        <ele>761.40002441406</ele>
        <time>2022-01-02T07:58:40.010Z</time>
      </trkpt>
      <trkpt lat="44.06088" lon="6.03381">
        <ele>760.20001220703</ele>
        <time>2022-01-02T07:58:41.608Z</time>
      </trkpt>
      <trkpt lat="44.06081" lon="6.03377">
        <ele>758.20001220703</ele>
        <time>2022-01-02T07:58:43.209Z</time>
      </trkpt>
      <trkpt lat="44.06077" lon="6.03379">
        <ele>757</ele>
        <time>2022-01-02T07:58:44.811Z</time>
      </trkpt>
      <trkpt lat="44.06073" lon="6.03382">
        <ele>755.59997558594</ele>
        <time>2022-01-02T07:58:46.415Z</time>
      </trkpt>
      <trkpt lat="44.06069" lon="6.03387">
        <ele>754.40002441406</ele>
        <time>2022-01-02T07:58:48.021Z</time>
      </trkpt>
      <trkpt lat="44.06065" lon="6.03392">
        <ele>753.20001220703</ele>
        <time>2022-01-02T07:58:49.628Z</time>
      </trkpt>
      <trkpt lat="44.06061" lon="6.03394">
        <ele>752</ele>
        <time>2022-01-02T07:58:51.237Z</time>
      </trkpt>
      <trkpt lat="44.06056" lon="6.03396">
        <ele>750.20001220703</ele>
        <time>2022-01-02T07:58:52.848Z</time>
      </trkpt>
      <trkpt lat="44.06051" lon="6.03399">
        <ele>749</ele>
        <time>2022-01-02T07:58:54.461Z</time>
      </trkpt>
      <trkpt lat="44.06046" lon="6.03399">
        <ele>748</ele>
        <time>2022-01-02T07:58:56.075Z</time>
      </trkpt>
      <trkpt lat="44.06041" lon="6.03399">
        <ele>746.59997558594</ele>
        <time>2022-01-02T07:58:57.691Z</time>
      </trkpt>
      <trkpt lat="44.06036" lon="6.034">
        <ele>745.20001220703</ele>
        <time>2022-01-02T07:58:59.309Z</time>
      </trkpt>
      <trkpt lat="44.0603" lon="6.03401">
        <ele>743.59997558594</ele>
        <time>2022-01-02T07:59:00.929Z</time>
      </trkpt>
      <trkpt lat="44.06025" lon="6.03402">
        <ele>742.20001220703</ele>
        <time>2022-01-02T07:59:02.551Z</time>
      </trkpt>
      <trkpt lat="44.0602" lon="6.03404">
        <ele>740.79998779297</ele>
        <time>2022-01-02T07:59:04.175Z</time>
      </trkpt>
      <trkpt lat="44.06015" lon="6.03407">
        <ele>739.20001220703</ele>
        <time>2022-01-02T07:59:05.801Z</time>
      </trkpt>
      <trkpt lat="44.06009" lon="6.03409">
        <ele>737.79998779297</ele>
        <time>2022-01-02T07:59:07.429Z</time>
      </trkpt>
      <trkpt lat="44.06003" lon="6.03412">
        <ele>736.40002441406</ele>
        <time>2022-01-02T07:59:09.059Z</time>
      </trkpt>
      <trkpt lat="44.05998" lon="6.03416">
        <ele>735</ele>
        <time>2022-01-02T07:59:10.691Z</time>
      </trkpt>
      <trkpt lat="44.05994" lon="6.03418">
        <ele>733.79998779297</ele>
        <time>2022-01-02T07:59:12.324Z</time>
      </trkpt>
      <trkpt lat="44.05989" lon="6.03417">
        <ele>732.40002441406</ele>
        <time>2022-01-02T07:59:13.959Z</time>
      </trkpt>
      <trkpt lat="44.0598" lon="6.03415">
        <ele>730.40002441406</ele>
        <time>2022-01-02T07:59:15.597Z</time>
      </trkpt>
      <trkpt lat="44.05975" lon="6.03415">
        <ele>729.20001220703</ele>
        <time>2022-01-02T07:59:17.237Z</time>
      </trkpt>
      <trkpt lat="44.0597" lon="6.03419">
        <ele>728</ele>
        <time>2022-01-02T07:59:18.879Z</time>
      </trkpt>
      <trkpt lat="44.05959" lon="6.03423">
        <ele>726.40002441406</ele>
        <time>2022-01-02T07:59:20.525Z</time>
      </trkpt>
      <trkpt lat="44.05953" lon="6.03424">
        <ele>725.59997558594</ele>
        <time>2022-01-02T07:59:22.173Z</time>
      </trkpt>
      <trkpt lat="44.05947" lon="6.03426">
        <ele>724.59997558594</ele>
        <time>2022-01-02T07:59:23.823Z</time>
      </trkpt>
      <trkpt lat="44.05935" lon="6.03427">
        <ele>722.59997558594</ele>
        <time>2022-01-02T07:59:25.477Z</time>
      </trkpt>
      <trkpt lat="44.05929" lon="6.03428">
        <ele>721.40002441406</ele>
        <time>2022-01-02T07:59:27.134Z</time>
      </trkpt>
      <trkpt lat="44.05915" lon="6.03427">
        <ele>720.20001220703</ele>
        <time>2022-01-02T07:59:28.795Z</time>
      </trkpt>
      <trkpt lat="44.05908" lon="6.03426">
        <ele>719.59997558594</ele>
        <time>2022-01-02T07:59:30.459Z</time>
      </trkpt>
      <trkpt lat="44.05902" lon="6.03426">
        <ele>719</ele>
        <time>2022-01-02T07:59:32.125Z</time>
      </trkpt>
      <trkpt lat="44.05889" lon="6.03428">
        <ele>717.20001220703</ele>
        <time>2022-01-02T07:59:33.795Z</time>
      </trkpt>
      <trkpt lat="44.05883" lon="6.03429">
        <ele>716.59997558594</ele>
        <time>2022-01-02T07:59:35.468Z</time>
      </trkpt>
      <trkpt lat="44.05877" lon="6.03429">
        <ele>715.79998779297</ele>
        <time>2022-01-02T07:59:37.143Z</time>
      </trkpt>
      <trkpt lat="44.05865" lon="6.0343">
        <ele>714.59997558594</ele>
        <time>2022-01-02T07:59:38.822Z</time>
      </trkpt>
      <trkpt lat="44.05861" lon="6.03431">
        <ele>713.59997558594</ele>
        <time>2022-01-02T07:59:40.502Z</time>
      </trkpt>
      <trkpt lat="44.05858" lon="6.03432">
        <ele>712.79998779297</ele>
        <time>2022-01-02T07:59:42.184Z</time>
      </trkpt>
      <trkpt lat="44.05849" lon="6.03431">
        <ele>711.59997558594</ele>
        <time>2022-01-02T07:59:43.869Z</time>
      </trkpt>
      <trkpt lat="44.05845" lon="6.03431">
        <ele>711</ele>
        <time>2022-01-02T07:59:45.555Z</time>
      </trkpt>
      <trkpt lat="44.05841" lon="6.03431">
        <ele>710.20001220703</ele>
        <time>2022-01-02T07:59:47.242Z</time>
      </trkpt>
      <trkpt lat="44.05833" lon="6.0343">
        <ele>708.40002441406</ele>
        <time>2022-01-02T07:59:48.932Z</time>
      </trkpt>
      <trkpt lat="44.0583" lon="6.03431">
        <ele>707.20001220703</ele>
        <time>2022-01-02T07:59:50.623Z</time>
      </trkpt>
      <trkpt lat="44.05826" lon="6.03432">
        <ele>706.20001220703</ele>
        <time>2022-01-02T07:59:52.316Z</time>
      </trkpt>
      <trkpt lat="44.05823" lon="6.03431">
        <ele>705</ele>
        <time>2022-01-02T07:59:54.010Z</time>
      </trkpt>
      <trkpt lat="44.05821" lon="6.03429">
        <ele>704.20001220703</ele>
        <time>2022-01-02T07:59:55.705Z</time>
      </trkpt>
      <trkpt lat="44.05819" lon="6.03429">
        <ele>703.59997558594</ele>
        <time>2022-01-02T07:59:57.400Z</time>
      </trkpt>
      <trkpt lat="44.05815" lon="6.0343">
        <ele>702.40002441406</ele>
        <time>2022-01-02T07:59:59.097Z</time>
      </trkpt>
      <trkpt lat="44.05813" lon="6.03432">
        <ele>701.59997558594</ele>
        <time>2022-01-02T08:00:00.795Z</time>
      </trkpt>
      <trkpt lat="44.0581" lon="6.03434">
        <ele>700.40002441406</ele>
        <time>2022-01-02T08:00:02.494Z</time>
      </trkpt>
      <trkpt lat="44.05808" lon="6.03439">
        <ele>698.40002441406</ele>
        <time>2022-01-02T08:00:04.194Z</time>
      </trkpt>
      <trkpt lat="44.05807" lon="6.03442">
        <ele>697.40002441406</ele>
        <time>2022-01-02T08:00:05.895Z</time>
      </trkpt>
      <trkpt lat="44.05803" lon="6.03446">
        <ele>696.20001220703</ele>
        <time>2022-01-02T08:00:07.598Z</time>
      </trkpt>
      <trkpt lat="44.05801" lon="6.03446">
        <ele>695</ele>
        <time>2022-01-02T08:00:09.302Z</time>
      </trkpt>
      <trkpt lat="44.05798" lon="6.03449">
        <ele>694</ele>
        <time>2022-01-02T08:00:11.007Z</time>
      </trkpt>
      <trkpt lat="44.05794" lon="6.03454">
        <ele>691.79998779297</ele>
        <time>2022-01-02T08:00:12.713Z</time>
      </trkpt>
      <trkpt lat="44.0579" lon="6.03456">
        <ele>689.79998779297</ele>
        <time>2022-01-02T08:00:14.421Z</time>
      </trkpt>
      <trkpt lat="44.05784" lon="6.03459">
        <ele>688.20001220703</ele>
        <time>2022-01-02T08:00:16.131Z</time>
      </trkpt>
      <trkpt lat="44.05782" lon="6.03463">
        <ele>687.20001220703</ele>
        <time>2022-01-02T08:00:17.842Z</time>
      </trkpt>
      <trkpt lat="44.05775" lon="6.03465">
        <ele>685.59997558594</ele>
        <time>2022-01-02T08:00:19.556Z</time>
      </trkpt>
      <trkpt lat="44.05772" lon="6.03467">
        <ele>684.79998779297</ele>
        <time>2022-01-02T08:00:21.271Z</time>
      </trkpt>
      <trkpt lat="44.05768" lon="6.03468">
        <ele>683.79998779297</ele>
        <time>2022-01-02T08:00:22.987Z</time>
      </trkpt>
      <trkpt lat="44.05762" lon="6.03473">
        <ele>682</ele>
        <time>2022-01-02T08:00:24.706Z</time>
      </trkpt>
      <trkpt lat="44.05758" lon="6.03476">
        <ele>680.59997558594</ele>
        <time>2022-01-02T08:00:26.426Z</time>
      </trkpt>
      <trkpt lat="44.05755" lon="6.03479">
        <ele>679.20001220703</ele>
        <time>2022-01-02T08:00:28.148Z</time>
      </trkpt>
      <trkpt lat="44.0575" lon="6.03485">
        <ele>677.20001220703</ele>
        <time>2022-01-02T08:00:29.872Z</time>
      </trkpt>
      <trkpt lat="44.05748" lon="6.03487">
        <ele>676</ele>
        <time>2022-01-02T08:00:31.597Z</time>
      </trkpt>
      <trkpt lat="44.05747" lon="6.03488">
        <ele>674.79998779297</ele>
        <time>2022-01-02T08:00:33.323Z</time>
      </trkpt>
      <trkpt lat="44.05743" lon="6.03488">
        <ele>673.20001220703</ele>
        <time>2022-01-02T08:00:35.050Z</time>
      </trkpt>
      <trkpt lat="44.05742" lon="6.0349">
        <ele>672.59997558594</ele>
        <time>2022-01-02T08:00:36.778Z</time>
      </trkpt>
      <trkpt lat="44.05739" lon="6.03493">
        <ele>672</ele>
        <time>2022-01-02T08:00:38.507Z</time>
      </trkpt>
      <trkpt lat="44.05732" lon="6.03496">
        <ele>670.40002441406</ele>
        <time>2022-01-02T08:00:40.238Z</time>
      </trkpt>
      <trkpt lat="44.05724" lon="6.03499">
        <ele>668.79998779297</ele>
        <time>2022-01-02T08:00:41.972Z</time>
      </trkpt>
      <trkpt lat="44.05716" lon="6.03504">
        <ele>666.79998779297</ele>
        <time>2022-01-02T08:00:43.709Z</time>
      </trkpt>
      <trkpt lat="44.05713" lon="6.03508">
        <ele>665.59997558594</ele>
        <time>2022-01-02T08:00:45.448Z</time>
      </trkpt>
      <trkpt lat="44.05709" lon="6.03512">
        <ele>664.20001220703</ele>
        <time>2022-01-02T08:00:47.188Z</time>
      </trkpt>
      <trkpt lat="44.05699" lon="6.03515">
        <ele>662.40002441406</ele>
        <time>2022-01-02T08:00:48.932Z</time>
      </trkpt>
      <trkpt lat="44.0569" lon="6.03515">
        <ele>660.40002441406</ele>
        <time>2022-01-02T08:00:50.679Z</time>
      </trkpt>
      <trkpt lat="44.05687" lon="6.03516">
        <ele>659</ele>
        <time>2022-01-02T08:00:52.427Z</time>
      </trkpt>
      <trkpt lat="44.05682" lon="6.03517">
        <ele>657.20001220703</ele>
        <time>2022-01-02T08:00:54.177Z</time>
      </trkpt>
      <trkpt lat="44.0568" lon="6.03519">
        <ele>656</ele>
        <time>2022-01-02T08:00:55.928Z</time>
      </trkpt>
      <trkpt lat="44.05678" lon="6.03521">
        <ele>655.20001220703</ele>
        <time>2022-01-02T08:00:57.680Z</time>
      </trkpt>
      <trkpt lat="44.05675" lon="6.0352">
        <ele>654</ele>
        <time>2022-01-02T08:00:59.433Z</time>
      </trkpt>
      <trkpt lat="44.05671" lon="6.03518">
        <ele>653.20001220703</ele>
        <time>2022-01-02T08:01:01.187Z</time>
      </trkpt>
      <trkpt lat="44.05667" lon="6.03515">
        <ele>652.59997558594</ele>
        <time>2022-01-02T08:01:02.943Z</time>
      </trkpt>
      <trkpt lat="44.0566" lon="6.03507">
        <ele>651</ele>
        <time>2022-01-02T08:01:04.702Z</time>
      </trkpt>
      <trkpt lat="44.05657" lon="6.03506">
        <ele>650.20001220703</ele>
        <time>2022-01-02T08:01:06.462Z</time>
      </trkpt>
      <trkpt lat="44.05655" lon="6.03507">
        <ele>648.79998779297</ele>
        <time>2022-01-02T08:01:08.223Z</time>
      </trkpt>
      <trkpt lat="44.05652" lon="6.03509">
        <ele>648.20001220703</ele>
        <time>2022-01-02T08:01:09.985Z</time>
      </trkpt>
      <trkpt lat="44.05647" lon="6.03509">
        <ele>647.59997558594</ele>
        <time>2022-01-02T08:01:11.749Z</time>
      </trkpt>
      <trkpt lat="44.05638" lon="6.0351">
        <ele>646.59997558594</ele>
        <time>2022-01-02T08:01:13.516Z</time>
      </trkpt>
      <trkpt lat="44.05635" lon="6.03513">
        <ele>646</ele>
        <time>2022-01-02T08:01:15.284Z</time>
      </trkpt>
      <trkpt lat="44.05632" lon="6.03521">
        <ele>644.20001220703</ele>
        <time>2022-01-02T08:01:17.054Z</time>
      </trkpt>
      <trkpt lat="44.0563" lon="6.03525">
        <ele>643</ele>
        <time>2022-01-02T08:01:18.826Z</time>
      </trkpt>
      <trkpt lat="44.0563" lon="6.03535">
        <ele>641.20001220703</ele>
        <time>2022-01-02T08:01:20.600Z</time>
      </trkpt>
      <trkpt lat="44.05632" lon="6.03541">
        <ele>639.79998779297</ele>
        <time>2022-01-02T08:01:22.376Z</time>
      </trkpt>
      <trkpt lat="44.05634" lon="6.03547">
        <ele>638.59997558594</ele>
        <time>2022-01-02T08:01:24.154Z</time>
      </trkpt>
      <trkpt lat="44.05638" lon="6.03553">
        <ele>637.40002441406</ele>
        <time>2022-01-02T08:01:25.933Z</time>
      </trkpt>
      <trkpt lat="44.05641" lon="6.03558">
        <ele>636.20001220703</ele>
        <time>2022-01-02T08:01:27.714Z</time>
      </trkpt>
      <trkpt lat="44.05644" lon="6.03562">
        <ele>635.59997558594</ele>
        <time>2022-01-02T08:01:29.496Z</time>
      </trkpt>
      <trkpt lat="44.05647" lon="6.03565">
        <ele>634.79998779297</ele>
        <time>2022-01-02T08:01:31.280Z</time>
      </trkpt>
      <trkpt lat="44.05649" lon="6.03568">
        <ele>634.59997558594</ele>
        <time>2022-01-02T08:01:33.065Z</time>
      </trkpt>
      <trkpt lat="44.05654" lon="6.03576">
        <ele>634</ele>
        <time>2022-01-02T08:01:34.853Z</time>
      </trkpt>
      <trkpt lat="44.05658" lon="6.0358">
        <ele>633.79998779297</ele>
        <time>2022-01-02T08:01:36.642Z</time>
      </trkpt>
      <trkpt lat="44.05667" lon="6.03591">
        <ele>633.20001220703</ele>
        <time>2022-01-02T08:01:38.435Z</time>
      </trkpt>
      <trkpt lat="44.05675" lon="6.03602">
        <ele>632.79998779297</ele>
        <time>2022-01-02T08:01:40.232Z</time>
      </trkpt>
      <trkpt lat="44.0568" lon="6.03607">
        <ele>632.59997558594</ele>
        <time>2022-01-02T08:01:42.032Z</time>
      </trkpt>
      <trkpt lat="44.05685" lon="6.03613">
        <ele>632.40002441406</ele>
        <time>2022-01-02T08:01:43.834Z</time>
      </trkpt>
      <trkpt lat="44.05695" lon="6.03624">
        <ele>632.40002441406</ele>
        <time>2022-01-02T08:01:45.640Z</time>
      </trkpt>
      <trkpt lat="44.05702" lon="6.03633">
        <ele>632</ele>
        <time>2022-01-02T08:01:47.449Z</time>
      </trkpt>
      <trkpt lat="44.05703" lon="6.03647">
        <ele>631</ele>
        <time>2022-01-02T08:01:49.262Z</time>
      </trkpt>
      <trkpt lat="44.05702" lon="6.03663">
        <ele>629.40002441406</ele>
        <time>2022-01-02T08:01:51.079Z</time>
      </trkpt>
      <trkpt lat="44.05698" lon="6.03676">
        <ele>627.79998779297</ele>
        <time>2022-01-02T08:01:52.900Z</time>
      </trkpt>
      <trkpt lat="44.05695" lon="6.03681">
        <ele>626.59997558594</ele>
        <time>2022-01-02T08:01:54.722Z</time>
      </trkpt>
      <trkpt lat="44.05691" lon="6.03687">
        <ele>624.79998779297</ele>
        <time>2022-01-02T08:01:56.546Z</time>
      </trkpt>
      <trkpt lat="44.05687" lon="6.03692">
        <ele>623.40002441406</ele>
        <time>2022-01-02T08:01:58.372Z</time>
      </trkpt>
      <trkpt lat="44.05683" lon="6.03694">
        <ele>622</ele>
        <time>2022-01-02T08:02:00.200Z</time>
      </trkpt>
      <trkpt lat="44.05674" lon="6.03698">
        <ele>620.40002441406</ele>
        <time>2022-01-02T08:02:02.031Z</time>
      </trkpt>
      <trkpt lat="44.05665" lon="6.03704">
        <ele>619</ele>
        <time>2022-01-02T08:02:03.865Z</time>
      </trkpt>
      <trkpt lat="44.05663" lon="6.03704">
        <ele>618.40002441406</ele>
        <time>2022-01-02T08:02:05.700Z</time>
      </trkpt>
      <trkpt lat="44.05662" lon="6.03705">
        <ele>618</ele>
        <time>2022-01-02T08:02:07.535Z</time>
      </trkpt>
      <trkpt lat="44.05662" lon="6.03706">
        <ele>617.79998779297</ele>
        <time>2022-01-02T08:02:09.371Z</time>
      </trkpt>
      <trkpt lat="44.05666" lon="6.03703">
        <ele>618.40002441406</ele>
        <time>2022-01-02T08:02:11.208Z</time>
      </trkpt>
      <trkpt lat="44.05671" lon="6.03703">
        <ele>619</ele>
        <time>2022-01-02T08:02:13.047Z</time>
      </trkpt>
      <trkpt lat="44.05676" lon="6.03703">
        <ele>619.40002441406</ele>
        <time>2022-01-02T08:02:14.888Z</time>
      </trkpt>
      <trkpt lat="44.05686" lon="6.03702">
        <ele>620.79998779297</ele>
        <time>2022-01-02T08:02:16.732Z</time>
      </trkpt>
      <trkpt lat="44.05696" lon="6.03694">
        <ele>622</ele>
        <time>2022-01-02T08:02:18.580Z</time>
      </trkpt>
      <trkpt lat="44.05702" lon="6.03687">
        <ele>623.40002441406</ele>
        <time>2022-01-02T08:02:20.431Z</time>
      </trkpt>
      <trkpt lat="44.05705" lon="6.03682">
        <ele>624.20001220703</ele>
        <time>2022-01-02T08:02:22.283Z</time>
      </trkpt>
      <trkpt lat="44.05706" lon="6.03679">
        <ele>624.79998779297</ele>
        <time>2022-01-02T08:02:24.136Z</time>
      </trkpt>
      <trkpt lat="44.05708" lon="6.03674">
        <ele>626.20001220703</ele>
        <time>2022-01-02T08:02:25.991Z</time>
      </trkpt>
      <trkpt lat="44.0571" lon="6.03667">
        <ele>627.20001220703</ele>
        <time>2022-01-02T08:02:27.848Z</time>
      </trkpt>
      <trkpt lat="44.05711" lon="6.0366">
        <ele>628.59997558594</ele>
        <time>2022-01-02T08:02:29.706Z</time>
      </trkpt>
      <trkpt lat="44.05712" lon="6.03651">
        <ele>630.20001220703</ele>
        <time>2022-01-02T08:02:31.567Z</time>
      </trkpt>
      <trkpt lat="44.0571" lon="6.03645">
        <ele>631.79998779297</ele>
        <time>2022-01-02T08:02:33.429Z</time>
      </trkpt>
      <trkpt lat="44.05706" lon="6.03638">
        <ele>632.59997558594</ele>
        <time>2022-01-02T08:02:35.294Z</time>
      </trkpt>
      <trkpt lat="44.05699" lon="6.03631">
        <ele>632.79998779297</ele>
        <time>2022-01-02T08:02:37.161Z</time>
      </trkpt>
      <trkpt lat="44.05693" lon="6.03623">
        <ele>633</ele>
        <time>2022-01-02T08:02:39.031Z</time>
      </trkpt>
      <trkpt lat="44.05686" lon="6.03614">
        <ele>633.20001220703</ele>
        <time>2022-01-02T08:02:40.905Z</time>
      </trkpt>
      <trkpt lat="44.05673" lon="6.03593">
        <ele>634</ele>
        <time>2022-01-02T08:02:42.786Z</time>
      </trkpt>
      <trkpt lat="44.05665" lon="6.0358">
        <ele>634.59997558594</ele>
        <time>2022-01-02T08:02:44.671Z</time>
      </trkpt>
      <trkpt lat="44.05662" lon="6.03573">
        <ele>635.20001220703</ele>
        <time>2022-01-02T08:02:46.558Z</time>
      </trkpt>
      <trkpt lat="44.05655" lon="6.03568">
        <ele>635.79998779297</ele>
        <time>2022-01-02T08:02:48.448Z</time>
      </trkpt>
      <trkpt lat="44.05653" lon="6.03564">
        <ele>636</ele>
        <time>2022-01-02T08:02:50.339Z</time>
      </trkpt>
      <trkpt lat="44.05649" lon="6.03554">
        <ele>636.59997558594</ele>
        <time>2022-01-02T08:02:52.233Z</time>
      </trkpt>
      <trkpt lat="44.05644" lon="6.03548">
        <ele>637.59997558594</ele>
        <time>2022-01-02T08:02:54.129Z</time>
      </trkpt>
      <trkpt lat="44.05642" lon="6.03547">
        <ele>638.40002441406</ele>
        <time>2022-01-02T08:02:56.026Z</time>
      </trkpt>
      <trkpt lat="44.05644" lon="6.03553">
        <ele>639</ele>
        <time>2022-01-02T08:02:57.925Z</time>
      </trkpt>
      <trkpt lat="44.05647" lon="6.03557">
        <ele>638.20001220703</ele>
        <time>2022-01-02T08:02:59.825Z</time>
      </trkpt>
      <trkpt lat="44.05654" lon="6.03565">
        <ele>637</ele>
        <time>2022-01-02T08:03:01.728Z</time>
      </trkpt>
      <trkpt lat="44.05655" lon="6.03568">
        <ele>636.59997558594</ele>
        <time>2022-01-02T08:03:03.632Z</time>
      </trkpt>
      <trkpt lat="44.05662" lon="6.03579">
        <ele>635.79998779297</ele>
        <time>2022-01-02T08:03:05.540Z</time>
      </trkpt>
      <trkpt lat="44.05665" lon="6.03581">
        <ele>635.40002441406</ele>
        <time>2022-01-02T08:03:07.449Z</time>
      </trkpt>
      <trkpt lat="44.05673" lon="6.03589">
        <ele>634.59997558594</ele>
        <time>2022-01-02T08:03:09.361Z</time>
      </trkpt>
      <trkpt lat="44.05676" lon="6.03593">
        <ele>634.59997558594</ele>
        <time>2022-01-02T08:03:11.274Z</time>
      </trkpt>
      <trkpt lat="44.05685" lon="6.03606">
        <ele>634</ele>
        <time>2022-01-02T08:03:13.192Z</time>
      </trkpt>
      <trkpt lat="44.05689" lon="6.0361">
        <ele>633.79998779297</ele>
        <time>2022-01-02T08:03:15.112Z</time>
      </trkpt>
      <trkpt lat="44.05692" lon="6.03613">
        <ele>633.59997558594</ele>
        <time>2022-01-02T08:03:17.033Z</time>
      </trkpt>
      <trkpt lat="44.05701" lon="6.03626">
        <ele>633.40002441406</ele>
        <time>2022-01-02T08:03:18.959Z</time>
      </trkpt>
      <trkpt lat="44.05704" lon="6.03642">
        <ele>633</ele>
        <time>2022-01-02T08:03:20.889Z</time>
      </trkpt>
      <trkpt lat="44.05703" lon="6.03649">
        <ele>632.59997558594</ele>
        <time>2022-01-02T08:03:22.821Z</time>
      </trkpt>
      <trkpt lat="44.05702" lon="6.03662">
        <ele>630.59997558594</ele>
        <time>2022-01-02T08:03:24.756Z</time>
      </trkpt>
      <trkpt lat="44.057" lon="6.03667">
        <ele>629.59997558594</ele>
        <time>2022-01-02T08:03:26.692Z</time>
      </trkpt>
      <trkpt lat="44.05697" lon="6.03672">
        <ele>628.40002441406</ele>
        <time>2022-01-02T08:03:28.630Z</time>
      </trkpt>
      <trkpt lat="44.05693" lon="6.03676">
        <ele>627.40002441406</ele>
        <time>2022-01-02T08:03:30.570Z</time>
      </trkpt>
      <trkpt lat="44.05689" lon="6.03682">
        <ele>626.20001220703</ele>
        <time>2022-01-02T08:03:32.512Z</time>
      </trkpt>
      <trkpt lat="44.05683" lon="6.03685">
        <ele>624.79998779297</ele>
        <time>2022-01-02T08:03:34.456Z</time>
      </trkpt>
      <trkpt lat="44.05676" lon="6.03687">
        <ele>623.59997558594</ele>
        <time>2022-01-02T08:03:36.402Z</time>
      </trkpt>
      <trkpt lat="44.05669" lon="6.03689">
        <ele>622.59997558594</ele>
        <time>2022-01-02T08:03:38.351Z</time>
      </trkpt>
      <trkpt lat="44.05654" lon="6.03693">
        <ele>621</ele>
        <time>2022-01-02T08:03:40.305Z</time>
      </trkpt>
      <trkpt lat="44.05647" lon="6.03696">
        <ele>620.40002441406</ele>
        <time>2022-01-02T08:03:42.262Z</time>
      </trkpt>
      <trkpt lat="44.05639" lon="6.03699">
        <ele>619.79998779297</ele>
        <time>2022-01-02T08:03:44.221Z</time>
      </trkpt>
      <trkpt lat="44.05625" lon="6.03706">
        <ele>618.40002441406</ele>
        <time>2022-01-02T08:03:46.186Z</time>
      </trkpt>
      <trkpt lat="44.05611" lon="6.03714">
        <ele>617.40002441406</ele>
        <time>2022-01-02T08:03:48.156Z</time>
      </trkpt>
      <trkpt lat="44.05604" lon="6.03718">
        <ele>617</ele>
        <time>2022-01-02T08:03:50.129Z</time>
      </trkpt>
      <trkpt lat="44.05582" lon="6.03728">
        <ele>616</ele>
        <time>2022-01-02T08:03:52.110Z</time>
      </trkpt>
      <trkpt lat="44.05576" lon="6.03731">
        <ele>615.79998779297</ele>
        <time>2022-01-02T08:03:54.093Z</time>
      </trkpt>
      <trkpt lat="44.05549" lon="6.03742">
        <ele>616</ele>
        <time>2022-01-02T08:03:56.086Z</time>
      </trkpt>
      <trkpt lat="44.05538" lon="6.03747">
        <ele>616.20001220703</ele>
        <time>2022-01-02T08:03:58.083Z</time>
      </trkpt>
      <trkpt lat="44.05525" lon="6.03757">
        <ele>616.40002441406</ele>
        <time>2022-01-02T08:04:00.085Z</time>
      </trkpt>
      <trkpt lat="44.05516" lon="6.03773">
        <ele>617.59997558594</ele>
        <time>2022-01-02T08:04:02.092Z</time>
      </trkpt>
      <trkpt lat="44.05512" lon="6.03776">
        <ele>619.20001220703</ele>
        <time>2022-01-02T08:04:04.101Z</time>
      </trkpt>
      <trkpt lat="44.05508" lon="6.03774">
        <ele>620.20001220703</ele>
        <time>2022-01-02T08:04:06.111Z</time>
      </trkpt>
      <trkpt lat="44.05501" lon="6.0377">
        <ele>620.59997558594</ele>
        <time>2022-01-02T08:04:08.124Z</time>
      </trkpt>
      <trkpt lat="44.05499" lon="6.03768">
        <ele>620.59997558594</ele>
        <time>2022-01-02T08:04:10.138Z</time>
      </trkpt>
      <trkpt lat="44.05498" lon="6.03766">
        <ele>620.59997558594</ele>
        <time>2022-01-02T08:04:12.153Z</time>
      </trkpt>
      <trkpt lat="44.05497" lon="6.03765">
        <ele>620.40002441406</ele>
        <time>2022-01-02T08:04:14.168Z</time>
      </trkpt>
      <trkpt lat="44.05492" lon="6.03767">
        <ele>619.59997558594</ele>
        <time>2022-01-02T08:04:16.185Z</time>
      </trkpt>
      <trkpt lat="44.0549" lon="6.03767">
        <ele>619.20001220703</ele>
        <time>2022-01-02T08:04:18.203Z</time>
      </trkpt>
      <trkpt lat="44.05484" lon="6.03765">
        <ele>618.20001220703</ele>
        <time>2022-01-02T08:04:20.223Z</time>
      </trkpt>
      <trkpt lat="44.0548" lon="6.03765">
        <ele>616.79998779297</ele>
        <time>2022-01-02T08:04:22.244Z</time>
      </trkpt>
      <trkpt lat="44.05478" lon="6.03764">
        <ele>616.20001220703</ele>
        <time>2022-01-02T08:04:24.266Z</time>
      </trkpt>
      <trkpt lat="44.05473" lon="6.03762">
        <ele>615.59997558594</ele>
        <time>2022-01-02T08:04:26.290Z</time>
      </trkpt>
      <trkpt lat="44.05468" lon="6.03761">
        <ele>615</ele>
        <time>2022-01-02T08:04:28.315Z</time>
      </trkpt>
      <trkpt lat="44.05464" lon="6.0376">
        <ele>614.59997558594</ele>
        <time>2022-01-02T08:04:30.342Z</time>
      </trkpt>
      <trkpt lat="44.05461" lon="6.03758">
        <ele>614.40002441406</ele>
        <time>2022-01-02T08:04:32.370Z</time>
      </trkpt>
      <trkpt lat="44.05453" lon="6.03757">
        <ele>613.20001220703</ele>
        <time>2022-01-02T08:04:34.401Z</time>
      </trkpt>
      <trkpt lat="44.0545" lon="6.03756">
        <ele>611.79998779297</ele>
        <time>2022-01-02T08:04:36.433Z</time>
      </trkpt>
      <trkpt lat="44.05447" lon="6.03753">
        <ele>609.79998779297</ele>
        <time>2022-01-02T08:04:38.466Z</time>
      </trkpt>
      <trkpt lat="44.05445" lon="6.0375">
        <ele>608.79998779297</ele>
        <time>2022-01-02T08:04:40.500Z</time>
      </trkpt>
      <trkpt lat="44.05441" lon="6.0375">
        <ele>607</ele>
        <time>2022-01-02T08:04:42.535Z</time>
      </trkpt>
      <trkpt lat="44.05438" lon="6.03751">
        <ele>606.20001220703</ele>
        <time>2022-01-02T08:04:44.571Z</time>
      </trkpt>
      <trkpt lat="44.05436" lon="6.03753">
        <ele>605.40002441406</ele>
        <time>2022-01-02T08:04:46.608Z</time>
      </trkpt>
      <trkpt lat="44.0543" lon="6.03755">
        <ele>603.59997558594</ele>
        <time>2022-01-02T08:04:48.647Z</time>
      </trkpt>
      <trkpt lat="44.05429" lon="6.03756">
        <ele>602.59997558594</ele>
        <time>2022-01-02T08:04:50.687Z</time>
      </trkpt>
      <trkpt lat="44.05427" lon="6.03757">
        <ele>601.79998779297</ele>
        <time>2022-01-02T08:04:52.728Z</time>
      </trkpt>
      <trkpt lat="44.05422" lon="6.03755">
        <ele>600</ele>
        <time>2022-01-02T08:04:54.770Z</time>
      </trkpt>
      <trkpt lat="44.0542" lon="6.03752">
        <ele>599.59997558594</ele>
        <time>2022-01-02T08:04:56.813Z</time>
      </trkpt>
      <trkpt lat="44.05417" lon="6.0375">
        <ele>599</ele>
        <time>2022-01-02T08:04:58.857Z</time>
      </trkpt>
      <trkpt lat="44.05414" lon="6.03748">
        <ele>597.20001220703</ele>
        <time>2022-01-02T08:05:00.903Z</time>
      </trkpt>
      <trkpt lat="44.05412" lon="6.03749">
        <ele>596.20001220703</ele>
        <time>2022-01-02T08:05:02.950Z</time>
      </trkpt>
      <trkpt lat="44.05408" lon="6.03749">
        <ele>595</ele>
        <time>2022-01-02T08:05:04.998Z</time>
      </trkpt>
      <trkpt lat="44.05407" lon="6.03748">
        <ele>594.59997558594</ele>
        <time>2022-01-02T08:05:07.047Z</time>
      </trkpt>
      <trkpt lat="44.05404" lon="6.03747">
        <ele>594</ele>
        <time>2022-01-02T08:05:09.096Z</time>
      </trkpt>
      <trkpt lat="44.05399" lon="6.03746">
        <ele>591.79998779297</ele>
        <time>2022-01-02T08:05:11.147Z</time>
      </trkpt>
      <trkpt lat="44.05396" lon="6.03746">
        <ele>590.59997558594</ele>
        <time>2022-01-02T08:05:13.199Z</time>
      </trkpt>
      <trkpt lat="44.05395" lon="6.03746">
        <ele>589.40002441406</ele>
        <time>2022-01-02T08:05:15.252Z</time>
      </trkpt>
      <trkpt lat="44.05394" lon="6.03744">
        <ele>588.40002441406</ele>
        <time>2022-01-02T08:05:17.305Z</time>
      </trkpt>
      <trkpt lat="44.05394" lon="6.03743">
        <ele>588</ele>
        <time>2022-01-02T08:05:19.359Z</time>
      </trkpt>
      <trkpt lat="44.05394" lon="6.03741">
        <ele>587.79998779297</ele>
        <time>2022-01-02T08:05:21.413Z</time>
      </trkpt>
      <trkpt lat="44.05391" lon="6.03738">
        <ele>587.59997558594</ele>
        <time>2022-01-02T08:05:23.468Z</time>
      </trkpt>
      <trkpt lat="44.05385" lon="6.03734">
        <ele>586.79998779297</ele>
        <time>2022-01-02T08:05:25.526Z</time>
      </trkpt>
      <trkpt lat="44.05377" lon="6.03732">
        <ele>585.40002441406</ele>
        <time>2022-01-02T08:05:27.586Z</time>
      </trkpt>
      <trkpt lat="44.0537" lon="6.03732">
        <ele>584</ele>
        <time>2022-01-02T08:05:29.649Z</time>
      </trkpt>
      <trkpt lat="44.05368" lon="6.03733">
        <ele>583.20001220703</ele>
        <time>2022-01-02T08:05:31.713Z</time>
      </trkpt>
      <trkpt lat="44.05366" lon="6.03735">
        <ele>582.20001220703</ele>
        <time>2022-01-02T08:05:33.777Z</time>
      </trkpt>
      <trkpt lat="44.0536" lon="6.03736">
        <ele>581</ele>
        <time>2022-01-02T08:05:35.844Z</time>
      </trkpt>
      <trkpt lat="44.05357" lon="6.03738">
        <ele>580.40002441406</ele>
        <time>2022-01-02T08:05:37.912Z</time>
      </trkpt>
      <trkpt lat="44.05355" lon="6.0374">
        <ele>579.79998779297</ele>
        <time>2022-01-02T08:05:39.981Z</time>
      </trkpt>
      <trkpt lat="44.0535" lon="6.03742">
        <ele>578.40002441406</ele>
        <time>2022-01-02T08:05:42.051Z</time>
      </trkpt>
      <trkpt lat="44.05341" lon="6.03747">
        <ele>576.59997558594</ele>
        <time>2022-01-02T08:05:44.125Z</time>
      </trkpt>
      <trkpt lat="44.05338" lon="6.03751">
        <ele>576</ele>
        <time>2022-01-02T08:05:46.200Z</time>
      </trkpt>
      <trkpt lat="44.05336" lon="6.03755">
        <ele>575.20001220703</ele>
        <time>2022-01-02T08:05:48.276Z</time>
      </trkpt>
      <trkpt lat="44.05334" lon="6.03759">
        <ele>574.59997558594</ele>
        <time>2022-01-02T08:05:50.354Z</time>
      </trkpt>
      <trkpt lat="44.05329" lon="6.03767">
        <ele>574.20001220703</ele>
        <time>2022-01-02T08:05:52.434Z</time>
      </trkpt>
      <trkpt lat="44.05327" lon="6.03771">
        <ele>573.79998779297</ele>
        <time>2022-01-02T08:05:54.516Z</time>
      </trkpt>
      <trkpt lat="44.05323" lon="6.03775">
        <ele>573.59997558594</ele>
        <time>2022-01-02T08:05:56.599Z</time>
      </trkpt>
      <trkpt lat="44.05316" lon="6.03775">
        <ele>573.20001220703</ele>
        <time>2022-01-02T08:05:58.685Z</time>
      </trkpt>
      <trkpt lat="44.05313" lon="6.03774">
        <ele>573</ele>
        <time>2022-01-02T08:06:00.772Z</time>
      </trkpt>
      <trkpt lat="44.05304" lon="6.03772">
        <ele>572.59997558594</ele>
        <time>2022-01-02T08:06:02.862Z</time>
      </trkpt>
      <trkpt lat="44.053" lon="6.03774">
        <ele>572.20001220703</ele>
        <time>2022-01-02T08:06:04.953Z</time>
      </trkpt>
      <trkpt lat="44.05297" lon="6.03774">
        <ele>572</ele>
        <time>2022-01-02T08:06:07.046Z</time>
      </trkpt>
      <trkpt lat="44.05289" lon="6.03773">
        <ele>571</ele>
        <time>2022-01-02T08:06:09.141Z</time>
      </trkpt>
      <trkpt lat="44.05286" lon="6.03771">
        <ele>570.79998779297</ele>
        <time>2022-01-02T08:06:11.237Z</time>
      </trkpt>
      <trkpt lat="44.05278" lon="6.03764">
        <ele>569.59997558594</ele>
        <time>2022-01-02T08:06:13.337Z</time>
      </trkpt>
      <trkpt lat="44.05274" lon="6.03765">
        <ele>568.59997558594</ele>
        <time>2022-01-02T08:06:15.438Z</time>
      </trkpt>
      <trkpt lat="44.05271" lon="6.03766">
        <ele>567.20001220703</ele>
        <time>2022-01-02T08:06:17.540Z</time>
      </trkpt>
      <trkpt lat="44.05269" lon="6.03768">
        <ele>566.59997558594</ele>
        <time>2022-01-02T08:06:19.643Z</time>
      </trkpt>
      <trkpt lat="44.05266" lon="6.0377">
        <ele>566.20001220703</ele>
        <time>2022-01-02T08:06:21.747Z</time>
      </trkpt>
      <trkpt lat="44.05262" lon="6.03771">
        <ele>565.79998779297</ele>
        <time>2022-01-02T08:06:23.853Z</time>
      </trkpt>
      <trkpt lat="44.05254" lon="6.03774">
        <ele>565.40002441406</ele>
        <time>2022-01-02T08:06:25.962Z</time>
      </trkpt>
      <trkpt lat="44.0525" lon="6.03775">
        <ele>564.79998779297</ele>
        <time>2022-01-02T08:06:28.072Z</time>
      </trkpt>
      <trkpt lat="44.05243" lon="6.03776">
        <ele>563</ele>
        <time>2022-01-02T08:06:30.184Z</time>
      </trkpt>
      <trkpt lat="44.05241" lon="6.03778">
        <ele>562</ele>
        <time>2022-01-02T08:06:32.297Z</time>
      </trkpt>
      <trkpt lat="44.05236" lon="6.03781">
        <ele>560.40002441406</ele>
        <time>2022-01-02T08:06:34.412Z</time>
      </trkpt>
      <trkpt lat="44.05233" lon="6.03781">
        <ele>559.59997558594</ele>
        <time>2022-01-02T08:06:36.528Z</time>
      </trkpt>
      <trkpt lat="44.05231" lon="6.03779">
        <ele>558.59997558594</ele>
        <time>2022-01-02T08:06:38.645Z</time>
      </trkpt>
      <trkpt lat="44.05227" lon="6.03775">
        <ele>557.40002441406</ele>
        <time>2022-01-02T08:06:40.764Z</time>
      </trkpt>
      <trkpt lat="44.05224" lon="6.03774">
        <ele>556.59997558594</ele>
        <time>2022-01-02T08:06:42.884Z</time>
      </trkpt>
      <trkpt lat="44.05221" lon="6.03772">
        <ele>556.20001220703</ele>
        <time>2022-01-02T08:06:45.005Z</time>
      </trkpt>
      <trkpt lat="44.05216" lon="6.03773">
        <ele>555.40002441406</ele>
        <time>2022-01-02T08:06:47.128Z</time>
      </trkpt>
      <trkpt lat="44.05214" lon="6.03772">
        <ele>554.79998779297</ele>
        <time>2022-01-02T08:06:49.251Z</time>
      </trkpt>
      <trkpt lat="44.0521" lon="6.03766">
        <ele>554.20001220703</ele>
        <time>2022-01-02T08:06:51.376Z</time>
      </trkpt>
      <trkpt lat="44.05207" lon="6.03756">
        <ele>553.79998779297</ele>
        <time>2022-01-02T08:06:53.504Z</time>
      </trkpt>
      <trkpt lat="44.05206" lon="6.03753">
        <ele>553.40002441406</ele>
        <time>2022-01-02T08:06:55.633Z</time>
      </trkpt>
      <trkpt lat="44.05206" lon="6.03751">
        <ele>552.59997558594</ele>
        <time>2022-01-02T08:06:57.763Z</time>
      </trkpt>
      <trkpt lat="44.05205" lon="6.03747">
        <ele>550.79998779297</ele>
        <time>2022-01-02T08:06:59.893Z</time>
      </trkpt>
      <trkpt lat="44.05204" lon="6.03747">
        <ele>550.20001220703</ele>
        <time>2022-01-02T08:07:02.024Z</time>
      </trkpt>
      <trkpt lat="44.05202" lon="6.03747">
        <ele>549.20001220703</ele>
        <time>2022-01-02T08:07:04.155Z</time>
      </trkpt>
      <trkpt lat="44.052" lon="6.03748">
        <ele>548.79998779297</ele>
        <time>2022-01-02T08:07:06.287Z</time>
      </trkpt>
      <trkpt lat="44.05194" lon="6.03753">
        <ele>548.40002441406</ele>
        <time>2022-01-02T08:07:08.422Z</time>
      </trkpt>
      <trkpt lat="44.05191" lon="6.03757">
        <ele>548.20001220703</ele>
        <time>2022-01-02T08:07:10.558Z</time>
      </trkpt>
      <trkpt lat="44.05188" lon="6.03762">
        <ele>547.20001220703</ele>
        <time>2022-01-02T08:07:12.696Z</time>
      </trkpt>
      <trkpt lat="44.05186" lon="6.0376">
        <ele>546.79998779297</ele>
        <time>2022-01-02T08:07:14.835Z</time>
      </trkpt>
      <trkpt lat="44.05185" lon="6.03755">
        <ele>546</ele>
        <time>2022-01-02T08:07:16.975Z</time>
      </trkpt>
      <trkpt lat="44.05186" lon="6.03753">
        <ele>545.59997558594</ele>
        <time>2022-01-02T08:07:19.116Z</time>
      </trkpt>
      <trkpt lat="44.05191" lon="6.03742">
        <ele>545</ele>
        <time>2022-01-02T08:07:21.260Z</time>
      </trkpt>
      <trkpt lat="44.05194" lon="6.03739">
        <ele>545</ele>
        <time>2022-01-02T08:07:23.405Z</time>
      </trkpt>
      <trkpt lat="44.05195" lon="6.03736">
        <ele>545</ele>
        <time>2022-01-02T08:07:25.551Z</time>
      </trkpt>
      <trkpt lat="44.05194" lon="6.03734">
        <ele>544.59997558594</ele>
        <time>2022-01-02T08:07:27.697Z</time>
      </trkpt>
      <trkpt lat="44.05193" lon="6.03731">
        <ele>544.20001220703</ele>
        <time>2022-01-02T08:07:29.844Z</time>
      </trkpt>
      <trkpt lat="44.05193" lon="6.03729">
        <ele>543.20001220703</ele>
        <time>2022-01-02T08:07:31.992Z</time>
      </trkpt>
      <trkpt lat="44.05196" lon="6.03725">
        <ele>541.79998779297</ele>
        <time>2022-01-02T08:07:34.141Z</time>
      </trkpt>
      <trkpt lat="44.05198" lon="6.03719">
        <ele>540.79998779297</ele>
        <time>2022-01-02T08:07:36.292Z</time>
      </trkpt>
      <trkpt lat="44.05197" lon="6.03717">
        <ele>540.20001220703</ele>
        <time>2022-01-02T08:07:38.443Z</time>
      </trkpt>
      <trkpt lat="44.05196" lon="6.03716">
        <ele>539.40002441406</ele>
        <time>2022-01-02T08:07:40.595Z</time>
      </trkpt>
      <trkpt lat="44.05193" lon="6.03715">
        <ele>538.20001220703</ele>
        <time>2022-01-02T08:07:42.748Z</time>
      </trkpt>
      <trkpt lat="44.05189" lon="6.03713">
        <ele>537.59997558594</ele>
        <time>2022-01-02T08:07:44.902Z</time>
      </trkpt>
      <trkpt lat="44.05185" lon="6.03712">
        <ele>536.79998779297</ele>
        <time>2022-01-02T08:07:47.058Z</time>
      </trkpt>
      <trkpt lat="44.05177" lon="6.03711">
        <ele>535.79998779297</ele>
        <time>2022-01-02T08:07:49.217Z</time>
      </trkpt>
      <trkpt lat="44.05173" lon="6.0371">
        <ele>535.40002441406</ele>
        <time>2022-01-02T08:07:51.377Z</time>
      </trkpt>
      <trkpt lat="44.0517" lon="6.03707">
        <ele>534.79998779297</ele>
        <time>2022-01-02T08:07:53.538Z</time>
      </trkpt>
      <trkpt lat="44.05162" lon="6.03704">
        <ele>533</ele>
        <time>2022-01-02T08:07:55.702Z</time>
      </trkpt>
      <trkpt lat="44.05154" lon="6.037">
        <ele>531.40002441406</ele>
        <time>2022-01-02T08:07:57.869Z</time>
      </trkpt>
      <trkpt lat="44.05151" lon="6.03699">
        <ele>530.79998779297</ele>
        <time>2022-01-02T08:08:00.037Z</time>
      </trkpt>
      <trkpt lat="44.0515" lon="6.03697">
        <ele>530</ele>
        <time>2022-01-02T08:08:02.206Z</time>
      </trkpt>
      <trkpt lat="44.05146" lon="6.03695">
        <ele>528.59997558594</ele>
        <time>2022-01-02T08:08:04.376Z</time>
      </trkpt>
      <trkpt lat="44.05143" lon="6.03695">
        <ele>528</ele>
        <time>2022-01-02T08:08:06.547Z</time>
      </trkpt>
      <trkpt lat="44.05141" lon="6.03694">
        <ele>527.20001220703</ele>
        <time>2022-01-02T08:08:08.719Z</time>
      </trkpt>
      <trkpt lat="44.0514" lon="6.03689">
        <ele>526.20001220703</ele>
        <time>2022-01-02T08:08:10.892Z</time>
      </trkpt>
      <trkpt lat="44.05143" lon="6.03681">
        <ele>525</ele>
        <time>2022-01-02T08:08:13.068Z</time>
      </trkpt>
      <trkpt lat="44.05143" lon="6.03679">
        <ele>524.40002441406</ele>
        <time>2022-01-02T08:08:15.244Z</time>
      </trkpt>
      <trkpt lat="44.05142" lon="6.03678">
        <ele>523.79998779297</ele>
        <time>2022-01-02T08:08:17.421Z</time>
      </trkpt>
      <trkpt lat="44.05134" lon="6.03675">
        <ele>522.59997558594</ele>
        <time>2022-01-02T08:08:19.600Z</time>
      </trkpt>
      <trkpt lat="44.05132" lon="6.03674">
        <ele>522</ele>
        <time>2022-01-02T08:08:21.780Z</time>
      </trkpt>
      <trkpt lat="44.05132" lon="6.03672">
        <ele>521.20001220703</ele>
        <time>2022-01-02T08:08:23.961Z</time>
      </trkpt>
      <trkpt lat="44.05131" lon="6.0367">
        <ele>520.79998779297</ele>
        <time>2022-01-02T08:08:26.142Z</time>
      </trkpt>
      <trkpt lat="44.05127" lon="6.03668">
        <ele>519.40002441406</ele>
        <time>2022-01-02T08:08:28.325Z</time>
      </trkpt>
      <trkpt lat="44.05125" lon="6.03669">
        <ele>518.59997558594</ele>
        <time>2022-01-02T08:08:30.508Z</time>
      </trkpt>
      <trkpt lat="44.05123" lon="6.0367">
        <ele>518</ele>
        <time>2022-01-02T08:08:32.692Z</time>
      </trkpt>
      <trkpt lat="44.05115" lon="6.03671">
        <ele>516.79998779297</ele>
        <time>2022-01-02T08:08:34.879Z</time>
      </trkpt>
      <trkpt lat="44.05111" lon="6.03668">
        <ele>515.20001220703</ele>
        <time>2022-01-02T08:08:37.068Z</time>
      </trkpt>
      <trkpt lat="44.0511" lon="6.03666">
        <ele>514.40002441406</ele>
        <time>2022-01-02T08:08:39.257Z</time>
      </trkpt>
      <trkpt lat="44.05109" lon="6.03666">
        <ele>513.79998779297</ele>
        <time>2022-01-02T08:08:41.447Z</time>
      </trkpt>
      <trkpt lat="44.05107" lon="6.0367">
        <ele>512.59997558594</ele>
        <time>2022-01-02T08:08:43.638Z</time>
      </trkpt>
      <trkpt lat="44.05101" lon="6.03676">
        <ele>511.79998779297</ele>
        <time>2022-01-02T08:08:45.831Z</time>
      </trkpt>
      <trkpt lat="44.051" lon="6.03675">
        <ele>511.39999389648</ele>
        <time>2022-01-02T08:08:48.025Z</time>
      </trkpt>
      <trkpt lat="44.05099" lon="6.03667">
        <ele>510</ele>
        <time>2022-01-02T08:08:50.221Z</time>
      </trkpt>
      <trkpt lat="44.05098" lon="6.03662">
        <ele>509.60000610352</ele>
        <time>2022-01-02T08:08:52.418Z</time>
      </trkpt>
      <trkpt lat="44.05099" lon="6.03651">
        <ele>508.60000610352</ele>
        <time>2022-01-02T08:08:54.618Z</time>
      </trkpt>
      <trkpt lat="44.05099" lon="6.03648">
        <ele>507.79998779297</ele>
        <time>2022-01-02T08:08:56.819Z</time>
      </trkpt>
      <trkpt lat="44.05098" lon="6.03647">
        <ele>507.39999389648</ele>
        <time>2022-01-02T08:08:59.020Z</time>
      </trkpt>
      <trkpt lat="44.05093" lon="6.03648">
        <ele>506</ele>
        <time>2022-01-02T08:09:01.223Z</time>
      </trkpt>
      <trkpt lat="44.05092" lon="6.03648">
        <ele>505.60000610352</ele>
        <time>2022-01-02T08:09:03.426Z</time>
      </trkpt>
      <trkpt lat="44.05091" lon="6.03644">
        <ele>504.60000610352</ele>
        <time>2022-01-02T08:09:05.630Z</time>
      </trkpt>
      <trkpt lat="44.05088" lon="6.03639">
        <ele>503.20001220703</ele>
        <time>2022-01-02T08:09:07.836Z</time>
      </trkpt>
      <trkpt lat="44.05084" lon="6.0364">
        <ele>501.60000610352</ele>
        <time>2022-01-02T08:09:10.043Z</time>
      </trkpt>
      <trkpt lat="44.05083" lon="6.03638">
        <ele>501.20001220703</ele>
        <time>2022-01-02T08:09:12.251Z</time>
      </trkpt>
      <trkpt lat="44.05083" lon="6.03636">
        <ele>500.60000610352</ele>
        <time>2022-01-02T08:09:14.460Z</time>
      </trkpt>
      <trkpt lat="44.05084" lon="6.03629">
        <ele>499.20001220703</ele>
        <time>2022-01-02T08:09:16.671Z</time>
      </trkpt>
      <trkpt lat="44.05087" lon="6.03618">
        <ele>498</ele>
        <time>2022-01-02T08:09:18.884Z</time>
      </trkpt>
      <trkpt lat="44.05086" lon="6.03616">
        <ele>497.39999389648</ele>
        <time>2022-01-02T08:09:21.098Z</time>
      </trkpt>
      <trkpt lat="44.05084" lon="6.03616">
        <ele>496.79998779297</ele>
        <time>2022-01-02T08:09:23.313Z</time>
      </trkpt>
      <trkpt lat="44.05078" lon="6.03617">
        <ele>495.39999389648</ele>
        <time>2022-01-02T08:09:25.530Z</time>
      </trkpt>
      <trkpt lat="44.05075" lon="6.03617">
        <ele>495</ele>
        <time>2022-01-02T08:09:27.748Z</time>
      </trkpt>
      <trkpt lat="44.05073" lon="6.03616">
        <ele>494.39999389648</ele>
        <time>2022-01-02T08:09:29.967Z</time>
      </trkpt>
      <trkpt lat="44.05072" lon="6.03612">
        <ele>492.79998779297</ele>
        <time>2022-01-02T08:09:32.187Z</time>
      </trkpt>
      <trkpt lat="44.05074" lon="6.03604">
        <ele>491.79998779297</ele>
        <time>2022-01-02T08:09:34.409Z</time>
      </trkpt>
      <trkpt lat="44.05075" lon="6.036">
        <ele>491.60000610352</ele>
        <time>2022-01-02T08:09:36.632Z</time>
      </trkpt>
      <trkpt lat="44.05076" lon="6.03595">
        <ele>490.79998779297</ele>
        <time>2022-01-02T08:09:38.856Z</time>
      </trkpt>
      <trkpt lat="44.05077" lon="6.03592">
        <ele>490</ele>
        <time>2022-01-02T08:09:41.081Z</time>
      </trkpt>
      <trkpt lat="44.05078" lon="6.03589">
        <ele>488.79998779297</ele>
        <time>2022-01-02T08:09:43.307Z</time>
      </trkpt>
      <trkpt lat="44.05076" lon="6.03585">
        <ele>487.60000610352</ele>
        <time>2022-01-02T08:09:45.534Z</time>
      </trkpt>
      <trkpt lat="44.05073" lon="6.03587">
        <ele>486</ele>
        <time>2022-01-02T08:09:47.762Z</time>
      </trkpt>
      <trkpt lat="44.05068" lon="6.03587">
        <ele>485</ele>
        <time>2022-01-02T08:09:49.992Z</time>
      </trkpt>
      <trkpt lat="44.05065" lon="6.03588">
        <ele>484.60000610352</ele>
        <time>2022-01-02T08:09:52.223Z</time>
      </trkpt>
      <trkpt lat="44.05062" lon="6.03589">
        <ele>484.20001220703</ele>
        <time>2022-01-02T08:09:54.455Z</time>
      </trkpt>
      <trkpt lat="44.05057" lon="6.03595">
        <ele>483.20001220703</ele>
        <time>2022-01-02T08:09:56.689Z</time>
      </trkpt>
      <trkpt lat="44.05053" lon="6.036">
        <ele>482.39999389648</ele>
        <time>2022-01-02T08:09:58.925Z</time>
      </trkpt>
      <trkpt lat="44.05048" lon="6.03604">
        <ele>482</ele>
        <time>2022-01-02T08:10:01.163Z</time>
      </trkpt>
      <trkpt lat="44.05046" lon="6.03603">
        <ele>481.39999389648</ele>
        <time>2022-01-02T08:10:03.402Z</time>
      </trkpt>
      <trkpt lat="44.05044" lon="6.03603">
        <ele>480.60000610352</ele>
        <time>2022-01-02T08:10:05.641Z</time>
      </trkpt>
      <trkpt lat="44.05043" lon="6.03601">
        <ele>479.60000610352</ele>
        <time>2022-01-02T08:10:07.881Z</time>
      </trkpt>
      <trkpt lat="44.05045" lon="6.03598">
        <ele>479</ele>
        <time>2022-01-02T08:10:10.122Z</time>
      </trkpt>
      <trkpt lat="44.05047" lon="6.03595">
        <ele>479</ele>
        <time>2022-01-02T08:10:12.364Z</time>
      </trkpt>
      <trkpt lat="44.05052" lon="6.03578">
        <ele>478.39999389648</ele>
        <time>2022-01-02T08:10:14.611Z</time>
      </trkpt>
      <trkpt lat="44.05054" lon="6.03568">
        <ele>476.79998779297</ele>
        <time>2022-01-02T08:10:16.860Z</time>
      </trkpt>
      <trkpt lat="44.05056" lon="6.03564">
        <ele>475.60000610352</ele>
        <time>2022-01-02T08:10:19.110Z</time>
      </trkpt>
      <trkpt lat="44.05059" lon="6.0356">
        <ele>474.39999389648</ele>
        <time>2022-01-02T08:10:21.362Z</time>
      </trkpt>
      <trkpt lat="44.0506" lon="6.03556">
        <ele>473.60000610352</ele>
        <time>2022-01-02T08:10:23.615Z</time>
      </trkpt>
      <trkpt lat="44.0506" lon="6.03553">
        <ele>472.60000610352</ele>
        <time>2022-01-02T08:10:25.869Z</time>
      </trkpt>
      <trkpt lat="44.05056" lon="6.03551">
        <ele>471</ele>
        <time>2022-01-02T08:10:28.124Z</time>
      </trkpt>
      <trkpt lat="44.05052" lon="6.0355">
        <ele>469.79998779297</ele>
        <time>2022-01-02T08:10:30.380Z</time>
      </trkpt>
      <trkpt lat="44.05051" lon="6.03549">
        <ele>469.39999389648</ele>
        <time>2022-01-02T08:10:32.637Z</time>
      </trkpt>
      <trkpt lat="44.05046" lon="6.03551">
        <ele>468.79998779297</ele>
        <time>2022-01-02T08:10:34.895Z</time>
      </trkpt>
      <trkpt lat="44.05043" lon="6.03552">
        <ele>468.39999389648</ele>
        <time>2022-01-02T08:10:37.155Z</time>
      </trkpt>
      <trkpt lat="44.05037" lon="6.03548">
        <ele>467.39999389648</ele>
        <time>2022-01-02T08:10:39.417Z</time>
      </trkpt>
      <trkpt lat="44.05035" lon="6.03547">
        <ele>467</ele>
        <time>2022-01-02T08:10:41.680Z</time>
      </trkpt>
      <trkpt lat="44.05032" lon="6.03548">
        <ele>466.60000610352</ele>
        <time>2022-01-02T08:10:43.944Z</time>
      </trkpt>
      <trkpt lat="44.05025" lon="6.03555">
        <ele>465.39999389648</ele>
        <time>2022-01-02T08:10:46.211Z</time>
      </trkpt>
      <trkpt lat="44.05022" lon="6.03557">
        <ele>464.79998779297</ele>
        <time>2022-01-02T08:10:48.479Z</time>
      </trkpt>
      <trkpt lat="44.05017" lon="6.03555">
        <ele>464</ele>
        <time>2022-01-02T08:10:50.749Z</time>
      </trkpt>
      <trkpt lat="44.05014" lon="6.03551">
        <ele>462.79998779297</ele>
        <time>2022-01-02T08:10:53.020Z</time>
      </trkpt>
      <trkpt lat="44.0501" lon="6.03553">
        <ele>461.79998779297</ele>
        <time>2022-01-02T08:10:55.293Z</time>
      </trkpt>
      <trkpt lat="44.05008" lon="6.03554">
        <ele>461.39999389648</ele>
        <time>2022-01-02T08:10:57.567Z</time>
      </trkpt>
      <trkpt lat="44.05006" lon="6.03556">
        <ele>461.20001220703</ele>
        <time>2022-01-02T08:10:59.841Z</time>
      </trkpt>
      <trkpt lat="44.05004" lon="6.03557">
        <ele>461</ele>
        <time>2022-01-02T08:11:02.116Z</time>
      </trkpt>
      <trkpt lat="44.05" lon="6.03557">
        <ele>460.79998779297</ele>
        <time>2022-01-02T08:11:04.392Z</time>
      </trkpt>
      <trkpt lat="44.04997" lon="6.03557">
        <ele>460.60000610352</ele>
        <time>2022-01-02T08:11:06.670Z</time>
      </trkpt>
      <trkpt lat="44.04991" lon="6.03562">
        <ele>459.20001220703</ele>
        <time>2022-01-02T08:11:08.950Z</time>
      </trkpt>
      <trkpt lat="44.04982" lon="6.03558">
        <ele>458</ele>
        <time>2022-01-02T08:11:11.233Z</time>
      </trkpt>
      <trkpt lat="44.04978" lon="6.03552">
        <ele>457</ele>
        <time>2022-01-02T08:11:13.518Z</time>
      </trkpt>
      <trkpt lat="44.04978" lon="6.0355">
        <ele>456.79998779297</ele>
        <time>2022-01-02T08:11:15.804Z</time>
      </trkpt>
      <trkpt lat="44.04979" lon="6.03546">
        <ele>457</ele>
        <time>2022-01-02T08:11:18.091Z</time>
      </trkpt>
      <trkpt lat="44.04978" lon="6.03546">
        <ele>457</ele>
        <time>2022-01-02T08:11:20.378Z</time>
      </trkpt>
      <trkpt lat="44.04975" lon="6.03553">
        <ele>457.39999389648</ele>
        <time>2022-01-02T08:11:22.667Z</time>
      </trkpt>
      <trkpt lat="44.04974" lon="6.03556">
        <ele>457.20001220703</ele>
        <time>2022-01-02T08:11:24.957Z</time>
      </trkpt>
      <trkpt lat="44.04972" lon="6.03558">
        <ele>456.60000610352</ele>
        <time>2022-01-02T08:11:27.248Z</time>
      </trkpt>
      <trkpt lat="44.04967" lon="6.03556">
        <ele>456.20001220703</ele>
        <time>2022-01-02T08:11:29.541Z</time>
      </trkpt>
      <trkpt lat="44.04962" lon="6.03554">
        <ele>455.79998779297</ele>
        <time>2022-01-02T08:11:31.836Z</time>
      </trkpt>
      <trkpt lat="44.0496" lon="6.03554">
        <ele>455.39999389648</ele>
        <time>2022-01-02T08:11:34.132Z</time>
      </trkpt>
      <trkpt lat="44.04954" lon="6.03558">
        <ele>454.79998779297</ele>
        <time>2022-01-02T08:11:36.430Z</time>
      </trkpt>
      <trkpt lat="44.04945" lon="6.03565">
        <ele>453.79998779297</ele>
        <time>2022-01-02T08:11:38.731Z</time>
      </trkpt>
      <trkpt lat="44.04937" lon="6.03571">
        <ele>452.79998779297</ele>
        <time>2022-01-02T08:11:41.036Z</time>
      </trkpt>
      <trkpt lat="44.04929" lon="6.03576">
        <ele>451</ele>
        <time>2022-01-02T08:11:43.344Z</time>
      </trkpt>
      <trkpt lat="44.04923" lon="6.03585">
        <ele>450</ele>
        <time>2022-01-02T08:11:45.655Z</time>
      </trkpt>
      <trkpt lat="44.04914" lon="6.03602">
        <ele>449</ele>
        <time>2022-01-02T08:11:47.971Z</time>
      </trkpt>
      <trkpt lat="44.04911" lon="6.03607">
        <ele>448.79998779297</ele>
        <time>2022-01-02T08:11:50.289Z</time>
      </trkpt>
      <trkpt lat="44.04908" lon="6.03611">
        <ele>448.60000610352</ele>
        <time>2022-01-02T08:11:52.608Z</time>
      </trkpt>
      <trkpt lat="44.04895" lon="6.03634">
        <ele>449.20001220703</ele>
        <time>2022-01-02T08:11:54.935Z</time>
      </trkpt>
      <trkpt lat="44.04888" lon="6.03644">
        <ele>450</ele>
        <time>2022-01-02T08:11:57.265Z</time>
      </trkpt>
      <trkpt lat="44.04879" lon="6.03662">
        <ele>451.20001220703</ele>
        <time>2022-01-02T08:11:59.601Z</time>
      </trkpt>
      <trkpt lat="44.04877" lon="6.03664">
        <ele>451.39999389648</ele>
        <time>2022-01-02T08:12:01.937Z</time>
      </trkpt>
      <trkpt lat="44.04871" lon="6.03664">
        <ele>451.60000610352</ele>
        <time>2022-01-02T08:12:04.276Z</time>
      </trkpt>
      <trkpt lat="44.04864" lon="6.03664">
        <ele>451.79998779297</ele>
        <time>2022-01-02T08:12:06.617Z</time>
      </trkpt>
      <trkpt lat="44.04847" lon="6.03662">
        <ele>451.39999389648</ele>
        <time>2022-01-02T08:12:08.964Z</time>
      </trkpt>
      <trkpt lat="44.04821" lon="6.03666">
        <ele>450.39999389648</ele>
        <time>2022-01-02T08:12:11.320Z</time>
      </trkpt>
      <trkpt lat="44.0482" lon="6.03673">
        <ele>450.39999389648</ele>
        <time>2022-01-02T08:12:13.678Z</time>
      </trkpt>
      <trkpt lat="44.04825" lon="6.03681">
        <ele>450.79998779297</ele>
        <time>2022-01-02T08:12:16.038Z</time>
      </trkpt>
      <trkpt lat="44.04828" lon="6.03686">
        <ele>451.20001220703</ele>
        <time>2022-01-02T08:12:18.400Z</time>
      </trkpt>
      <trkpt lat="44.04839" lon="6.03701">
        <ele>452.39999389648</ele>
        <time>2022-01-02T08:12:20.767Z</time>
      </trkpt>
      <trkpt lat="44.04847" lon="6.03711">
        <ele>453.39999389648</ele>
        <time>2022-01-02T08:12:23.138Z</time>
      </trkpt>
      <trkpt lat="44.04852" lon="6.03716">
        <ele>454</ele>
        <time>2022-01-02T08:12:25.511Z</time>
      </trkpt>
      <trkpt lat="44.04855" lon="6.03719">
        <ele>454.60000610352</ele>
        <time>2022-01-02T08:12:27.886Z</time>
      </trkpt>
      <trkpt lat="44.04863" lon="6.03727">
        <ele>455.60000610352</ele>
        <time>2022-01-02T08:12:30.264Z</time>
      </trkpt>
      <trkpt lat="44.04865" lon="6.03729">
        <ele>455.79998779297</ele>
        <time>2022-01-02T08:12:32.643Z</time>
      </trkpt>
      <trkpt lat="44.04874" lon="6.03742">
        <ele>456.79998779297</ele>
        <time>2022-01-02T08:12:35.026Z</time>
      </trkpt>
      <trkpt lat="44.04885" lon="6.0376">
        <ele>458.20001220703</ele>
        <time>2022-01-02T08:12:37.416Z</time>
      </trkpt>
      <trkpt lat="44.04887" lon="6.03762">
        <ele>458.60000610352</ele>
        <time>2022-01-02T08:12:39.806Z</time>
      </trkpt>
      <trkpt lat="44.04892" lon="6.0377">
        <ele>459</ele>
        <time>2022-01-02T08:12:42.199Z</time>
      </trkpt>
      <trkpt lat="44.04898" lon="6.03783">
        <ele>459.79998779297</ele>
        <time>2022-01-02T08:12:44.596Z</time>
      </trkpt>
      <trkpt lat="44.04899" lon="6.03786">
        <ele>460</ele>
        <time>2022-01-02T08:12:46.994Z</time>
      </trkpt>
      <trkpt lat="44.04904" lon="6.03798">
        <ele>461.20001220703</ele>
        <time>2022-01-02T08:12:49.395Z</time>
      </trkpt>
      <trkpt lat="44.0491" lon="6.03805">
        <ele>461.79998779297</ele>
        <time>2022-01-02T08:12:51.799Z</time>
      </trkpt>
      <trkpt lat="44.04913" lon="6.03809">
        <ele>462.20001220703</ele>
        <time>2022-01-02T08:12:54.204Z</time>
      </trkpt>
      <trkpt lat="44.04917" lon="6.0382">
        <ele>462.79998779297</ele>
        <time>2022-01-02T08:12:56.612Z</time>
      </trkpt>
      <trkpt lat="44.04919" lon="6.03828">
        <ele>463.39999389648</ele>
        <time>2022-01-02T08:12:59.023Z</time>
      </trkpt>
      <trkpt lat="44.04924" lon="6.03842">
        <ele>464.39999389648</ele>
        <time>2022-01-02T08:13:01.438Z</time>
      </trkpt>
      <trkpt lat="44.0493" lon="6.0386">
        <ele>465.60000610352</ele>
        <time>2022-01-02T08:13:03.858Z</time>
      </trkpt>
      <trkpt lat="44.04932" lon="6.03869">
        <ele>466.39999389648</ele>
        <time>2022-01-02T08:13:06.280Z</time>
      </trkpt>
      <trkpt lat="44.04933" lon="6.03875">
        <ele>466.60000610352</ele>
        <time>2022-01-02T08:13:08.704Z</time>
      </trkpt>
      <trkpt lat="44.04935" lon="6.0389">
        <ele>467.79998779297</ele>
        <time>2022-01-02T08:13:11.131Z</time>
      </trkpt>
      <trkpt lat="44.04935" lon="6.03893">
        <ele>468</ele>
        <time>2022-01-02T08:13:13.559Z</time>
      </trkpt>
      <trkpt lat="44.04936" lon="6.03905">
        <ele>468.79998779297</ele>
        <time>2022-01-02T08:13:15.990Z</time>
      </trkpt>
      <trkpt lat="44.04939" lon="6.03917">
        <ele>469.60000610352</ele>
        <time>2022-01-02T08:13:18.424Z</time>
      </trkpt>
      <trkpt lat="44.04941" lon="6.03919">
        <ele>470</ele>
        <time>2022-01-02T08:13:20.859Z</time>
      </trkpt>
      <trkpt lat="44.0495" lon="6.03926">
        <ele>470.79998779297</ele>
        <time>2022-01-02T08:13:23.298Z</time>
      </trkpt>
      <trkpt lat="44.04952" lon="6.03928">
        <ele>471</ele>
        <time>2022-01-02T08:13:25.737Z</time>
      </trkpt>
      <trkpt lat="44.04962" lon="6.03934">
        <ele>472</ele>
        <time>2022-01-02T08:13:28.180Z</time>
      </trkpt>
      <trkpt lat="44.04974" lon="6.03941">
        <ele>473.20001220703</ele>
        <time>2022-01-02T08:13:30.628Z</time>
      </trkpt>
      <trkpt lat="44.04981" lon="6.03945">
        <ele>474</ele>
        <time>2022-01-02T08:13:33.079Z</time>
      </trkpt>
      <trkpt lat="44.04986" lon="6.03947">
        <ele>474.20001220703</ele>
        <time>2022-01-02T08:13:35.531Z</time>
      </trkpt>
      <trkpt lat="44.04998" lon="6.03954">
        <ele>475.39999389648</ele>
        <time>2022-01-02T08:13:37.988Z</time>
      </trkpt>
      <trkpt lat="44.05" lon="6.03955">
        <ele>475.60000610352</ele>
        <time>2022-01-02T08:13:40.446Z</time>
      </trkpt>
      <trkpt lat="44.05012" lon="6.03962">
        <ele>476.60000610352</ele>
        <time>2022-01-02T08:13:42.908Z</time>
      </trkpt>
      <trkpt lat="44.05016" lon="6.03965">
        <ele>477</ele>
        <time>2022-01-02T08:13:45.372Z</time>
      </trkpt>
      <trkpt lat="44.05025" lon="6.03969">
        <ele>477.79998779297</ele>
        <time>2022-01-02T08:13:47.839Z</time>
      </trkpt>
      <trkpt lat="44.05036" lon="6.03977">
        <ele>478.79998779297</ele>
        <time>2022-01-02T08:13:50.310Z</time>
      </trkpt>
      <trkpt lat="44.05049" lon="6.03986">
        <ele>480</ele>
        <time>2022-01-02T08:13:52.787Z</time>
      </trkpt>
      <trkpt lat="44.05054" lon="6.03988">
        <ele>480.39999389648</ele>
        <time>2022-01-02T08:13:55.265Z</time>
      </trkpt>
      <trkpt lat="44.05061" lon="6.03988">
        <ele>481</ele>
        <time>2022-01-02T08:13:57.746Z</time>
      </trkpt>
      <trkpt lat="44.05074" lon="6.03986">
        <ele>482.20001220703</ele>
        <time>2022-01-02T08:14:00.231Z</time>
      </trkpt>
      <trkpt lat="44.05086" lon="6.03984">
        <ele>483.39999389648</ele>
        <time>2022-01-02T08:14:02.720Z</time>
      </trkpt>
      <trkpt lat="44.05095" lon="6.03982">
        <ele>484.20001220703</ele>
        <time>2022-01-02T08:14:05.213Z</time>
      </trkpt>
      <trkpt lat="44.05097" lon="6.03982">
        <ele>484.60000610352</ele>
        <time>2022-01-02T08:14:07.706Z</time>
      </trkpt>
      <trkpt lat="44.05111" lon="6.03978">
        <ele>485.79998779297</ele>
        <time>2022-01-02T08:14:10.204Z</time>
      </trkpt>
      <trkpt lat="44.05122" lon="6.03974">
        <ele>486.79998779297</ele>
        <time>2022-01-02T08:14:12.706Z</time>
      </trkpt>
      <trkpt lat="44.05132" lon="6.03971">
        <ele>487.60000610352</ele>
        <time>2022-01-02T08:14:15.212Z</time>
      </trkpt>
      <trkpt lat="44.05136" lon="6.0397">
        <ele>488</ele>
        <time>2022-01-02T08:14:17.720Z</time>
      </trkpt>
      <trkpt lat="44.05146" lon="6.03967">
        <ele>488.79998779297</ele>
        <time>2022-01-02T08:14:20.231Z</time>
      </trkpt>
      <trkpt lat="44.05151" lon="6.03967">
        <ele>489.20001220703</ele>
        <time>2022-01-02T08:14:22.744Z</time>
      </trkpt>
      <trkpt lat="44.05158" lon="6.03968">
        <ele>490</ele>
        <time>2022-01-02T08:14:25.259Z</time>
      </trkpt>
      <trkpt lat="44.05162" lon="6.03968">
        <ele>490.39999389648</ele>
        <time>2022-01-02T08:14:27.776Z</time>
      </trkpt>
      <trkpt lat="44.05167" lon="6.03968">
        <ele>491</ele>
        <time>2022-01-02T08:14:30.294Z</time>
      </trkpt>
      <trkpt lat="44.05173" lon="6.03969">
        <ele>491.60000610352</ele>
        <time>2022-01-02T08:14:32.814Z</time>
      </trkpt>
      <trkpt lat="44.05177" lon="6.0397">
        <ele>492.20001220703</ele>
        <time>2022-01-02T08:14:35.336Z</time>
      </trkpt>
      <trkpt lat="44.05183" lon="6.03972">
        <ele>492.79998779297</ele>
        <time>2022-01-02T08:14:37.860Z</time>
      </trkpt>
      <trkpt lat="44.05185" lon="6.03974">
        <ele>493</ele>
        <time>2022-01-02T08:14:40.385Z</time>
      </trkpt>
      <trkpt lat="44.05187" lon="6.03975">
        <ele>493.20001220703</ele>
        <time>2022-01-02T08:14:42.911Z</time>
      </trkpt>
      <trkpt lat="44.05197" lon="6.0398">
        <ele>494.20001220703</ele>
        <time>2022-01-02T08:14:45.440Z</time>
      </trkpt>
      <trkpt lat="44.05199" lon="6.03981">
        <ele>494.39999389648</ele>
        <time>2022-01-02T08:14:47.970Z</time>
      </trkpt>
      <trkpt lat="44.0521" lon="6.03987">
        <ele>495.60000610352</ele>
        <time>2022-01-02T08:14:50.504Z</time>
      </trkpt>
      <trkpt lat="44.05215" lon="6.03989">
        <ele>496</ele>
        <time>2022-01-02T08:14:53.040Z</time>
      </trkpt>
      <trkpt lat="44.05221" lon="6.03994">
        <ele>496.60000610352</ele>
        <time>2022-01-02T08:14:55.578Z</time>
      </trkpt>
      <trkpt lat="44.05232" lon="6.04001">
        <ele>497.60000610352</ele>
        <time>2022-01-02T08:14:58.121Z</time>
      </trkpt>
      <trkpt lat="44.05243" lon="6.04008">
        <ele>498.79998779297</ele>
        <time>2022-01-02T08:15:00.668Z</time>
      </trkpt>
      <trkpt lat="44.05248" lon="6.0401">
        <ele>499.20001220703</ele>
        <time>2022-01-02T08:15:03.217Z</time>
      </trkpt>
      <trkpt lat="44.05254" lon="6.04014">
        <ele>499.79998779297</ele>
        <time>2022-01-02T08:15:05.768Z</time>
      </trkpt>
      <trkpt lat="44.05264" lon="6.0402">
        <ele>500.79998779297</ele>
        <time>2022-01-02T08:15:08.323Z</time>
      </trkpt>
      <trkpt lat="44.0527" lon="6.04024">
        <ele>501.39999389648</ele>
        <time>2022-01-02T08:15:10.880Z</time>
      </trkpt>
      <trkpt lat="44.05276" lon="6.04028">
        <ele>502</ele>
        <time>2022-01-02T08:15:13.439Z</time>
      </trkpt>
      <trkpt lat="44.05287" lon="6.04034">
        <ele>503.20001220703</ele>
        <time>2022-01-02T08:15:16.003Z</time>
      </trkpt>
      <trkpt lat="44.05295" lon="6.0404">
        <ele>504.20001220703</ele>
        <time>2022-01-02T08:15:18.570Z</time>
      </trkpt>
      <trkpt lat="44.05301" lon="6.04045">
        <ele>504.79998779297</ele>
        <time>2022-01-02T08:15:21.139Z</time>
      </trkpt>
      <trkpt lat="44.05306" lon="6.04048">
        <ele>505.20001220703</ele>
        <time>2022-01-02T08:15:23.710Z</time>
      </trkpt>
      <trkpt lat="44.05315" lon="6.04052">
        <ele>506.20001220703</ele>
        <time>2022-01-02T08:15:26.284Z</time>
      </trkpt>
      <trkpt lat="44.05318" lon="6.04053">
        <ele>506.39999389648</ele>
        <time>2022-01-02T08:15:28.859Z</time>
      </trkpt>
      <trkpt lat="44.05328" lon="6.04053">
        <ele>507.39999389648</ele>
        <time>2022-01-02T08:15:31.438Z</time>
      </trkpt>
      <trkpt lat="44.05333" lon="6.04051">
        <ele>507.79998779297</ele>
        <time>2022-01-02T08:15:34.019Z</time>
      </trkpt>
      <trkpt lat="44.0534" lon="6.04047">
        <ele>508.60000610352</ele>
        <time>2022-01-02T08:15:36.602Z</time>
      </trkpt>
      <trkpt lat="44.05348" lon="6.0404">
        <ele>509.39999389648</ele>
        <time>2022-01-02T08:15:39.189Z</time>
      </trkpt>
      <trkpt lat="44.0535" lon="6.04039">
        <ele>509.60000610352</ele>
        <time>2022-01-02T08:15:41.776Z</time>
      </trkpt>
      <trkpt lat="44.05361" lon="6.04034">
        <ele>510.60000610352</ele>
        <time>2022-01-02T08:15:44.367Z</time>
      </trkpt>
      <trkpt lat="44.05363" lon="6.04034">
        <ele>510.79998779297</ele>
        <time>2022-01-02T08:15:46.959Z</time>
      </trkpt>
      <trkpt lat="44.05372" lon="6.04033">
        <ele>512</ele>
        <time>2022-01-02T08:15:49.554Z</time>
      </trkpt>
      <trkpt lat="44.05377" lon="6.04033">
        <ele>512.59997558594</ele>
        <time>2022-01-02T08:15:52.151Z</time>
      </trkpt>
      <trkpt lat="44.05382" lon="6.04033">
        <ele>513.20001220703</ele>
        <time>2022-01-02T08:15:54.750Z</time>
      </trkpt>
      <trkpt lat="44.05391" lon="6.04033">
        <ele>514.40002441406</ele>
        <time>2022-01-02T08:15:57.352Z</time>
      </trkpt>
      <trkpt lat="44.05393" lon="6.04033">
        <ele>514.59997558594</ele>
        <time>2022-01-02T08:15:59.955Z</time>
      </trkpt>
      <trkpt lat="44.05402" lon="6.04032">
        <ele>515.40002441406</ele>
        <time>2022-01-02T08:16:02.561Z</time>
      </trkpt>
      <trkpt lat="44.05406" lon="6.04034">
        <ele>516</ele>
        <time>2022-01-02T08:16:05.168Z</time>
      </trkpt>
      <trkpt lat="44.0541" lon="6.04035">
        <ele>516.40002441406</ele>
        <time>2022-01-02T08:16:07.777Z</time>
      </trkpt>
      <trkpt lat="44.05422" lon="6.04038">
        <ele>517.59997558594</ele>
        <time>2022-01-02T08:16:10.390Z</time>
      </trkpt>
      <trkpt lat="44.05431" lon="6.0404">
        <ele>519</ele>
        <time>2022-01-02T08:16:13.006Z</time>
      </trkpt>
      <trkpt lat="44.05443" lon="6.04042">
        <ele>520.20001220703</ele>
        <time>2022-01-02T08:16:15.626Z</time>
      </trkpt>
      <trkpt lat="44.05452" lon="6.04043">
        <ele>521</ele>
        <time>2022-01-02T08:16:18.250Z</time>
      </trkpt>
      <trkpt lat="44.05462" lon="6.04044">
        <ele>522</ele>
        <time>2022-01-02T08:16:20.877Z</time>
      </trkpt>
      <trkpt lat="44.05464" lon="6.04044">
        <ele>522.20001220703</ele>
        <time>2022-01-02T08:16:23.505Z</time>
      </trkpt>
      <trkpt lat="44.05476" lon="6.04045">
        <ele>523.40002441406</ele>
        <time>2022-01-02T08:16:26.137Z</time>
      </trkpt>
      <trkpt lat="44.05478" lon="6.04045">
        <ele>523.79998779297</ele>
        <time>2022-01-02T08:16:28.770Z</time>
      </trkpt>
      <trkpt lat="44.05487" lon="6.04046">
        <ele>524.40002441406</ele>
        <time>2022-01-02T08:16:31.406Z</time>
      </trkpt>
      <trkpt lat="44.05489" lon="6.04047">
        <ele>524.59997558594</ele>
        <time>2022-01-02T08:16:34.042Z</time>
      </trkpt>
      <trkpt lat="44.05499" lon="6.04048">
        <ele>525.40002441406</ele>
        <time>2022-01-02T08:16:36.682Z</time>
      </trkpt>
      <trkpt lat="44.05509" lon="6.04048">
        <ele>526</ele>
        <time>2022-01-02T08:16:39.325Z</time>
      </trkpt>
      <trkpt lat="44.05513" lon="6.04048">
        <ele>526.59997558594</ele>
        <time>2022-01-02T08:16:41.970Z</time>
      </trkpt>
      <trkpt lat="44.05523" lon="6.04046">
        <ele>527.79998779297</ele>
        <time>2022-01-02T08:16:44.618Z</time>
      </trkpt>
      <trkpt lat="44.05528" lon="6.04046">
        <ele>528.20001220703</ele>
        <time>2022-01-02T08:16:47.268Z</time>
      </trkpt>
      <trkpt lat="44.05535" lon="6.04044">
        <ele>529.20001220703</ele>
        <time>2022-01-02T08:16:49.921Z</time>
      </trkpt>
      <trkpt lat="44.05547" lon="6.04039">
        <ele>530.40002441406</ele>
        <time>2022-01-02T08:16:52.578Z</time>
      </trkpt>
      <trkpt lat="44.05549" lon="6.04038">
        <ele>530.59997558594</ele>
        <time>2022-01-02T08:16:55.236Z</time>
      </trkpt>
      <trkpt lat="44.05555" lon="6.04034">
        <ele>531.40002441406</ele>
        <time>2022-01-02T08:16:57.896Z</time>
      </trkpt>
      <trkpt lat="44.05564" lon="6.04028">
        <ele>532.40002441406</ele>
        <time>2022-01-02T08:17:00.559Z</time>
      </trkpt>
      <trkpt lat="44.05575" lon="6.04025">
        <ele>533.59997558594</ele>
        <time>2022-01-02T08:17:03.226Z</time>
      </trkpt>
      <trkpt lat="44.05577" lon="6.04024">
        <ele>533.79998779297</ele>
        <time>2022-01-02T08:17:05.894Z</time>
      </trkpt>
      <trkpt lat="44.05583" lon="6.04025">
        <ele>534.79998779297</ele>
        <time>2022-01-02T08:17:08.564Z</time>
      </trkpt>
      <trkpt lat="44.05588" lon="6.04024">
        <ele>535.20001220703</ele>
        <time>2022-01-02T08:17:11.236Z</time>
      </trkpt>
      <trkpt lat="44.05591" lon="6.04023">
        <ele>535.59997558594</ele>
        <time>2022-01-02T08:17:13.909Z</time>
      </trkpt>
      <trkpt lat="44.05593" lon="6.04022">
        <ele>535.79998779297</ele>
        <time>2022-01-02T08:17:16.583Z</time>
      </trkpt>
      <trkpt lat="44.05599" lon="6.04016">
        <ele>536.59997558594</ele>
        <time>2022-01-02T08:17:19.259Z</time>
      </trkpt>
      <trkpt lat="44.05601" lon="6.04014">
        <ele>537</ele>
        <time>2022-01-02T08:17:21.936Z</time>
      </trkpt>
      <trkpt lat="44.05607" lon="6.04005">
        <ele>538</ele>
        <time>2022-01-02T08:17:24.616Z</time>
      </trkpt>
      <trkpt lat="44.05613" lon="6.03999">
        <ele>539</ele>
        <time>2022-01-02T08:17:27.299Z</time>
      </trkpt>
      <trkpt lat="44.05614" lon="6.03996">
        <ele>539.20001220703</ele>
        <time>2022-01-02T08:17:29.983Z</time>
      </trkpt>
      <trkpt lat="44.05622" lon="6.03984">
        <ele>540.40002441406</ele>
        <time>2022-01-02T08:17:32.671Z</time>
      </trkpt>
      <trkpt lat="44.05626" lon="6.03978">
        <ele>541.20001220703</ele>
        <time>2022-01-02T08:17:35.361Z</time>
      </trkpt>
      <trkpt lat="44.05628" lon="6.03974">
        <ele>541.59997558594</ele>
        <time>2022-01-02T08:17:38.052Z</time>
      </trkpt>
      <trkpt lat="44.05634" lon="6.03965">
        <ele>542.59997558594</ele>
        <time>2022-01-02T08:17:40.746Z</time>
      </trkpt>
      <trkpt lat="44.0564" lon="6.03953">
        <ele>543.79998779297</ele>
        <time>2022-01-02T08:17:43.444Z</time>
      </trkpt>
      <trkpt lat="44.05646" lon="6.03941">
        <ele>545</ele>
        <time>2022-01-02T08:17:46.146Z</time>
      </trkpt>
      <trkpt lat="44.05654" lon="6.03927">
        <ele>546</ele>
        <time>2022-01-02T08:17:48.852Z</time>
      </trkpt>
      <trkpt lat="44.05661" lon="6.03916">
        <ele>547.20001220703</ele>
        <time>2022-01-02T08:17:51.562Z</time>
      </trkpt>
      <trkpt lat="44.05666" lon="6.03909">
        <ele>548.20001220703</ele>
        <time>2022-01-02T08:17:54.274Z</time>
      </trkpt>
      <trkpt lat="44.05668" lon="6.03906">
        <ele>548.59997558594</ele>
        <time>2022-01-02T08:17:56.987Z</time>
      </trkpt>
      <trkpt lat="44.05674" lon="6.039">
        <ele>549.79998779297</ele>
        <time>2022-01-02T08:17:59.703Z</time>
      </trkpt>
      <trkpt lat="44.05682" lon="6.03893">
        <ele>551</ele>
        <time>2022-01-02T08:18:02.422Z</time>
      </trkpt>
      <trkpt lat="44.05691" lon="6.03889">
        <ele>552.20001220703</ele>
        <time>2022-01-02T08:18:05.144Z</time>
      </trkpt>
      <trkpt lat="44.05698" lon="6.03886">
        <ele>553</ele>
        <time>2022-01-02T08:18:07.869Z</time>
      </trkpt>
      <trkpt lat="44.057" lon="6.03885">
        <ele>553.40002441406</ele>
        <time>2022-01-02T08:18:10.595Z</time>
      </trkpt>
      <trkpt lat="44.0571" lon="6.03879">
        <ele>554.59997558594</ele>
        <time>2022-01-02T08:18:13.325Z</time>
      </trkpt>
      <trkpt lat="44.05713" lon="6.03878">
        <ele>555</ele>
        <time>2022-01-02T08:18:16.056Z</time>
      </trkpt>
      <trkpt lat="44.05718" lon="6.03875">
        <ele>555.59997558594</ele>
        <time>2022-01-02T08:18:18.788Z</time>
      </trkpt>
      <trkpt lat="44.05727" lon="6.03868">
        <ele>556.79998779297</ele>
        <time>2022-01-02T08:18:21.524Z</time>
      </trkpt>
      <trkpt lat="44.05729" lon="6.03866">
        <ele>557</ele>
        <time>2022-01-02T08:18:24.261Z</time>
      </trkpt>
      <trkpt lat="44.05736" lon="6.03861">
        <ele>558</ele>
        <time>2022-01-02T08:18:27.001Z</time>
      </trkpt>
      <trkpt lat="44.05744" lon="6.03854">
        <ele>559</ele>
        <time>2022-01-02T08:18:29.744Z</time>
      </trkpt>
      <trkpt lat="44.05748" lon="6.03852">
        <ele>559.59997558594</ele>
        <time>2022-01-02T08:18:32.489Z</time>
      </trkpt>
      <trkpt lat="44.05754" lon="6.03848">
        <ele>560.40002441406</ele>
        <time>2022-01-02T08:18:35.236Z</time>
      </trkpt>
      <trkpt lat="44.05761" lon="6.03844">
        <ele>561.40002441406</ele>
        <time>2022-01-02T08:18:37.985Z</time>
      </trkpt>
      <trkpt lat="44.05765" lon="6.03842">
        <ele>561.79998779297</ele>
        <time>2022-01-02T08:18:40.736Z</time>
      </trkpt>
      <trkpt lat="44.05772" lon="6.03838">
        <ele>562.59997558594</ele>
        <time>2022-01-02T08:18:43.489Z</time>
      </trkpt>
      <trkpt lat="44.05778" lon="6.03835">
        <ele>563.79998779297</ele>
        <time>2022-01-02T08:18:46.245Z</time>
      </trkpt>
      <trkpt lat="44.05786" lon="6.03831">
        <ele>564.79998779297</ele>
        <time>2022-01-02T08:18:49.004Z</time>
      </trkpt>
      <trkpt lat="44.05788" lon="6.0383">
        <ele>565</ele>
        <time>2022-01-02T08:18:51.764Z</time>
      </trkpt>
      <trkpt lat="44.05796" lon="6.03826">
        <ele>566.40002441406</ele>
        <time>2022-01-02T08:18:54.527Z</time>
      </trkpt>
      <trkpt lat="44.05804" lon="6.03821">
        <ele>567.59997558594</ele>
        <time>2022-01-02T08:18:57.293Z</time>
      </trkpt>
      <trkpt lat="44.05814" lon="6.03814">
        <ele>568.59997558594</ele>
        <time>2022-01-02T08:19:00.062Z</time>
      </trkpt>
      <trkpt lat="44.05822" lon="6.03808">
        <ele>569.40002441406</ele>
        <time>2022-01-02T08:19:02.835Z</time>
      </trkpt>
      <trkpt lat="44.05824" lon="6.03807">
        <ele>569.79998779297</ele>
        <time>2022-01-02T08:19:05.608Z</time>
      </trkpt>
      <trkpt lat="44.0583" lon="6.03804">
        <ele>570.79998779297</ele>
        <time>2022-01-02T08:19:08.384Z</time>
      </trkpt>
      <trkpt lat="44.05837" lon="6.03801">
        <ele>571.59997558594</ele>
        <time>2022-01-02T08:19:11.162Z</time>
      </trkpt>
      <trkpt lat="44.05841" lon="6.03799">
        <ele>572.20001220703</ele>
        <time>2022-01-02T08:19:13.942Z</time>
      </trkpt>
      <trkpt lat="44.0585" lon="6.03796">
        <ele>573.40002441406</ele>
        <time>2022-01-02T08:19:16.725Z</time>
      </trkpt>
      <trkpt lat="44.05854" lon="6.03794">
        <ele>573.79998779297</ele>
        <time>2022-01-02T08:19:19.509Z</time>
      </trkpt>
      <trkpt lat="44.05857" lon="6.03791">
        <ele>574.40002441406</ele>
        <time>2022-01-02T08:19:22.295Z</time>
      </trkpt>
      <trkpt lat="44.05865" lon="6.03786">
        <ele>575.20001220703</ele>
        <time>2022-01-02T08:19:25.084Z</time>
      </trkpt>
      <trkpt lat="44.05873" lon="6.03783">
        <ele>576.20001220703</ele>
        <time>2022-01-02T08:19:27.876Z</time>
      </trkpt>
      <trkpt lat="44.05881" lon="6.03783">
        <ele>577.40002441406</ele>
        <time>2022-01-02T08:19:30.670Z</time>
      </trkpt>
      <trkpt lat="44.0589" lon="6.03783">
        <ele>578.59997558594</ele>
        <time>2022-01-02T08:19:33.468Z</time>
      </trkpt>
      <trkpt lat="44.05895" lon="6.03777">
        <ele>579.59997558594</ele>
        <time>2022-01-02T08:19:36.268Z</time>
      </trkpt>
      <trkpt lat="44.05895" lon="6.03774">
        <ele>579.79998779297</ele>
        <time>2022-01-02T08:19:39.069Z</time>
      </trkpt>
      <trkpt lat="44.05891" lon="6.03763">
        <ele>580.79998779297</ele>
        <time>2022-01-02T08:19:41.873Z</time>
      </trkpt>
      <trkpt lat="44.05889" lon="6.03762">
        <ele>581</ele>
        <time>2022-01-02T08:19:44.677Z</time>
      </trkpt>
      <trkpt lat="44.0588" lon="6.03758">
        <ele>581.40002441406</ele>
        <time>2022-01-02T08:19:47.485Z</time>
      </trkpt>
      <trkpt lat="44.05874" lon="6.03756">
        <ele>581.79998779297</ele>
        <time>2022-01-02T08:19:50.295Z</time>
      </trkpt>
      <trkpt lat="44.0587" lon="6.03754">
        <ele>582.20001220703</ele>
        <time>2022-01-02T08:19:53.106Z</time>
      </trkpt>
      <trkpt lat="44.05861" lon="6.03751">
        <ele>583.40002441406</ele>
        <time>2022-01-02T08:19:55.921Z</time>
      </trkpt>
      <trkpt lat="44.05846" lon="6.03755">
        <ele>584.40002441406</ele>
        <time>2022-01-02T08:19:58.741Z</time>
      </trkpt>
      <trkpt lat="44.05844" lon="6.03756">
        <ele>584.59997558594</ele>
        <time>2022-01-02T08:20:01.562Z</time>
      </trkpt>
      <trkpt lat="44.05829" lon="6.03757">
        <ele>585.40002441406</ele>
        <time>2022-01-02T08:20:04.388Z</time>
      </trkpt>
      <trkpt lat="44.0582" lon="6.03758">
        <ele>586.59997558594</ele>
        <time>2022-01-02T08:20:07.217Z</time>
      </trkpt>
      <trkpt lat="44.0581" lon="6.0376">
        <ele>587.59997558594</ele>
        <time>2022-01-02T08:20:10.049Z</time>
      </trkpt>
      <trkpt lat="44.05801" lon="6.03761">
        <ele>588.79998779297</ele>
        <time>2022-01-02T08:20:12.885Z</time>
      </trkpt>
      <trkpt lat="44.05791" lon="6.03761">
        <ele>589.79998779297</ele>
        <time>2022-01-02T08:20:15.724Z</time>
      </trkpt>
      <trkpt lat="44.05782" lon="6.03761">
        <ele>590.79998779297</ele>
        <time>2022-01-02T08:20:18.566Z</time>
      </trkpt>
      <trkpt lat="44.05779" lon="6.03761">
        <ele>591.20001220703</ele>
        <time>2022-01-02T08:20:21.409Z</time>
      </trkpt>
      <trkpt lat="44.05767" lon="6.0376">
        <ele>592.40002441406</ele>
        <time>2022-01-02T08:20:24.256Z</time>
      </trkpt>
      <trkpt lat="44.05758" lon="6.0376">
        <ele>593.20001220703</ele>
        <time>2022-01-02T08:20:27.107Z</time>
      </trkpt>
      <trkpt lat="44.05756" lon="6.03759">
        <ele>593.40002441406</ele>
        <time>2022-01-02T08:20:29.959Z</time>
      </trkpt>
      <trkpt lat="44.05744" lon="6.0376">
        <ele>594.59997558594</ele>
        <time>2022-01-02T08:20:32.815Z</time>
      </trkpt>
      <trkpt lat="44.05734" lon="6.0376">
        <ele>595.79998779297</ele>
        <time>2022-01-02T08:20:35.674Z</time>
      </trkpt>
      <trkpt lat="44.05723" lon="6.03762">
        <ele>597</ele>
        <time>2022-01-02T08:20:38.537Z</time>
      </trkpt>
      <trkpt lat="44.05714" lon="6.03762">
        <ele>598</ele>
        <time>2022-01-02T08:20:41.403Z</time>
      </trkpt>
      <trkpt lat="44.05711" lon="6.03763">
        <ele>598.20001220703</ele>
        <time>2022-01-02T08:20:44.270Z</time>
      </trkpt>
      <trkpt lat="44.057" lon="6.03763">
        <ele>599</ele>
        <time>2022-01-02T08:20:47.141Z</time>
      </trkpt>
      <trkpt lat="44.05691" lon="6.03764">
        <ele>600.20001220703</ele>
        <time>2022-01-02T08:20:50.015Z</time>
      </trkpt>
      <trkpt lat="44.05688" lon="6.03764">
        <ele>600.59997558594</ele>
        <time>2022-01-02T08:20:52.890Z</time>
      </trkpt>
      <trkpt lat="44.05682" lon="6.03765">
        <ele>601.40002441406</ele>
        <time>2022-01-02T08:20:55.767Z</time>
      </trkpt>
      <trkpt lat="44.05672" lon="6.03767">
        <ele>602.40002441406</ele>
        <time>2022-01-02T08:20:58.648Z</time>
      </trkpt>
      <trkpt lat="44.05662" lon="6.0377">
        <ele>603.59997558594</ele>
        <time>2022-01-02T08:21:01.533Z</time>
      </trkpt>
      <trkpt lat="44.05653" lon="6.03773">
        <ele>604.59997558594</ele>
        <time>2022-01-02T08:21:04.421Z</time>
      </trkpt>
      <trkpt lat="44.05644" lon="6.03777">
        <ele>605.79998779297</ele>
        <time>2022-01-02T08:21:07.312Z</time>
      </trkpt>
      <trkpt lat="44.05637" lon="6.0378">
        <ele>606.40002441406</ele>
        <time>2022-01-02T08:21:10.205Z</time>
      </trkpt>
      <trkpt lat="44.05631" lon="6.03783">
        <ele>607</ele>
        <time>2022-01-02T08:21:13.101Z</time>
      </trkpt>
      <trkpt lat="44.0562" lon="6.03788">
        <ele>608</ele>
        <time>2022-01-02T08:21:16.001Z</time>
      </trkpt>
      <trkpt lat="44.05618" lon="6.03789">
        <ele>608.40002441406</ele>
        <time>2022-01-02T08:21:18.902Z</time>
      </trkpt>
      <trkpt lat="44.05611" lon="6.03793">
        <ele>609.20001220703</ele>
        <time>2022-01-02T08:21:21.805Z</time>
      </trkpt>
      <trkpt lat="44.05602" lon="6.03797">
        <ele>610.20001220703</ele>
        <time>2022-01-02T08:21:24.711Z</time>
      </trkpt>
      <trkpt lat="44.056" lon="6.03797">
        <ele>610.40002441406</ele>
        <time>2022-01-02T08:21:27.618Z</time>
      </trkpt>
      <trkpt lat="44.05593" lon="6.038">
        <ele>611.40002441406</ele>
        <time>2022-01-02T08:21:30.528Z</time>
      </trkpt>
      <trkpt lat="44.05584" lon="6.03802">
        <ele>612.59997558594</ele>
        <time>2022-01-02T08:21:33.441Z</time>
      </trkpt>
      <trkpt lat="44.05577" lon="6.03803">
        <ele>613.40002441406</ele>
        <time>2022-01-02T08:21:36.356Z</time>
      </trkpt>
      <trkpt lat="44.05575" lon="6.03803">
        <ele>613.59997558594</ele>
        <time>2022-01-02T08:21:39.272Z</time>
      </trkpt>
      <trkpt lat="44.05563" lon="6.03802">
        <ele>614.59997558594</ele>
        <time>2022-01-02T08:21:42.192Z</time>
      </trkpt>
      <trkpt lat="44.05559" lon="6.03801">
        <ele>615</ele>
        <time>2022-01-02T08:21:45.114Z</time>
      </trkpt>
      <trkpt lat="44.05547" lon="6.03796">
        <ele>615.59997558594</ele>
        <time>2022-01-02T08:21:48.040Z</time>
      </trkpt>
      <trkpt lat="44.0554" lon="6.03791">
        <ele>616.20001220703</ele>
        <time>2022-01-02T08:21:50.969Z</time>
      </trkpt>
      <trkpt lat="44.05534" lon="6.03785">
        <ele>616.59997558594</ele>
        <time>2022-01-02T08:21:53.900Z</time>
      </trkpt>
      <trkpt lat="44.05531" lon="6.03783">
        <ele>617</ele>
        <time>2022-01-02T08:21:56.832Z</time>
      </trkpt>
      <trkpt lat="44.05529" lon="6.0378">
        <ele>617.20001220703</ele>
        <time>2022-01-02T08:21:59.766Z</time>
      </trkpt>
      <trkpt lat="44.0553" lon="6.03774">
        <ele>617.59997558594</ele>
        <time>2022-01-02T08:22:02.701Z</time>
      </trkpt>
      <trkpt lat="44.05527" lon="6.03766">
        <ele>617.59997558594</ele>
        <time>2022-01-02T08:22:05.638Z</time>
      </trkpt>
      <trkpt lat="44.05523" lon="6.03768">
        <ele>617.59997558594</ele>
        <time>2022-01-02T08:22:08.577Z</time>
      </trkpt>
      <trkpt lat="44.05522" lon="6.03771">
        <ele>618.20001220703</ele>
        <time>2022-01-02T08:22:11.516Z</time>
      </trkpt>
      <trkpt lat="44.0552" lon="6.03775">
        <ele>619.20001220703</ele>
        <time>2022-01-02T08:22:14.457Z</time>
      </trkpt>
      <trkpt lat="44.05517" lon="6.03779">
        <ele>620</ele>
        <time>2022-01-02T08:22:17.399Z</time>
      </trkpt>
      <trkpt lat="44.05515" lon="6.03779">
        <ele>620.40002441406</ele>
        <time>2022-01-02T08:22:20.342Z</time>
      </trkpt>
      <trkpt lat="44.0551" lon="6.03776">
        <ele>621.20001220703</ele>
        <time>2022-01-02T08:22:23.287Z</time>
      </trkpt>
      <trkpt lat="44.05507" lon="6.03775">
        <ele>621.40002441406</ele>
        <time>2022-01-02T08:22:26.233Z</time>
      </trkpt>
      <trkpt lat="44.05503" lon="6.03773">
        <ele>621.59997558594</ele>
        <time>2022-01-02T08:22:29.180Z</time>
      </trkpt>
      <trkpt lat="44.05503" lon="6.03773">
        <ele>621.59997558594</ele>
        <time>2022-01-02T08:22:32.128Z</time>
      </trkpt>
      <trkpt lat="44.05503" lon="6.03772">
        <ele>621.59997558594</ele>
        <time>2022-01-02T08:22:35.076Z</time>
      </trkpt>
      <trkpt lat="44.05501" lon="6.0377">
        <ele>621.40002441406</ele>
        <time>2022-01-02T08:22:38.024Z</time>
      </trkpt>
      <trkpt lat="44.05499" lon="6.03767">
        <ele>621</ele>
        <time>2022-01-02T08:22:40.973Z</time>
      </trkpt>
      <trkpt lat="44.05494" lon="6.03769">
        <ele>620.20001220703</ele>
        <time>2022-01-02T08:22:43.924Z</time>
      </trkpt>
      <trkpt lat="44.05491" lon="6.03769">
        <ele>619.59997558594</ele>
        <time>2022-01-02T08:22:46.876Z</time>
      </trkpt>
      <trkpt lat="44.05488" lon="6.03767">
        <ele>619.20001220703</ele>
        <time>2022-01-02T08:22:49.829Z</time>
      </trkpt>
      <trkpt lat="44.05484" lon="6.03766">
        <ele>618</ele>
        <time>2022-01-02T08:22:52.784Z</time>
      </trkpt>
      <trkpt lat="44.05479" lon="6.03765">
        <ele>616.79998779297</ele>
        <time>2022-01-02T08:22:55.741Z</time>
      </trkpt>
      <trkpt lat="44.05472" lon="6.03762">
        <ele>615.79998779297</ele>
        <time>2022-01-02T08:22:58.700Z</time>
      </trkpt>
      <trkpt lat="44.0546" lon="6.03758">
        <ele>614.20001220703</ele>
        <time>2022-01-02T08:23:01.663Z</time>
      </trkpt>
      <trkpt lat="44.05457" lon="6.03757">
        <ele>613.59997558594</ele>
        <time>2022-01-02T08:23:04.627Z</time>
      </trkpt>
      <trkpt lat="44.05454" lon="6.03757">
        <ele>612.79998779297</ele>
        <time>2022-01-02T08:23:07.592Z</time>
      </trkpt>
      <trkpt lat="44.0545" lon="6.03754">
        <ele>611</ele>
        <time>2022-01-02T08:23:10.559Z</time>
      </trkpt>
      <trkpt lat="44.05449" lon="6.03752">
        <ele>610.20001220703</ele>
        <time>2022-01-02T08:23:13.527Z</time>
      </trkpt>
      <trkpt lat="44.05448" lon="6.0375">
        <ele>609.40002441406</ele>
        <time>2022-01-02T08:23:16.495Z</time>
      </trkpt>
      <trkpt lat="44.05445" lon="6.03749">
        <ele>607.79998779297</ele>
        <time>2022-01-02T08:23:19.465Z</time>
      </trkpt>
      <trkpt lat="44.05442" lon="6.03749">
        <ele>607</ele>
        <time>2022-01-02T08:23:22.435Z</time>
      </trkpt>
      <trkpt lat="44.0544" lon="6.0375">
        <ele>606</ele>
        <time>2022-01-02T08:23:25.406Z</time>
      </trkpt>
      <trkpt lat="44.05435" lon="6.03751">
        <ele>604.59997558594</ele>
        <time>2022-01-02T08:23:28.379Z</time>
      </trkpt>
      <trkpt lat="44.05433" lon="6.03753">
        <ele>603.59997558594</ele>
        <time>2022-01-02T08:23:31.353Z</time>
      </trkpt>
      <trkpt lat="44.05431" lon="6.03754">
        <ele>602.59997558594</ele>
        <time>2022-01-02T08:23:34.328Z</time>
      </trkpt>
      <trkpt lat="44.05429" lon="6.03754">
        <ele>601.79998779297</ele>
        <time>2022-01-02T08:23:37.303Z</time>
      </trkpt>
      <trkpt lat="44.05425" lon="6.03751">
        <ele>600.20001220703</ele>
        <time>2022-01-02T08:23:40.280Z</time>
      </trkpt>
      <trkpt lat="44.05422" lon="6.03749">
        <ele>599.59997558594</ele>
        <time>2022-01-02T08:23:43.258Z</time>
      </trkpt>
      <trkpt lat="44.05419" lon="6.03745">
        <ele>598.40002441406</ele>
        <time>2022-01-02T08:23:46.238Z</time>
      </trkpt>
      <trkpt lat="44.05417" lon="6.03745">
        <ele>597.40002441406</ele>
        <time>2022-01-02T08:23:49.218Z</time>
      </trkpt>
      <trkpt lat="44.05415" lon="6.03745">
        <ele>596.40002441406</ele>
        <time>2022-01-02T08:23:52.199Z</time>
      </trkpt>
      <trkpt lat="44.05414" lon="6.03746">
        <ele>595.79998779297</ele>
        <time>2022-01-02T08:23:55.180Z</time>
      </trkpt>
      <trkpt lat="44.05409" lon="6.03746">
        <ele>594.40002441406</ele>
        <time>2022-01-02T08:23:58.163Z</time>
      </trkpt>
      <trkpt lat="44.05405" lon="6.03746">
        <ele>593.20001220703</ele>
        <time>2022-01-02T08:24:01.148Z</time>
      </trkpt>
      <trkpt lat="44.05401" lon="6.03747">
        <ele>591.20001220703</ele>
        <time>2022-01-02T08:24:04.134Z</time>
      </trkpt>
      <trkpt lat="44.05399" lon="6.03746">
        <ele>590</ele>
        <time>2022-01-02T08:24:07.121Z</time>
      </trkpt>
      <trkpt lat="44.05397" lon="6.03745">
        <ele>588.79998779297</ele>
        <time>2022-01-02T08:24:10.108Z</time>
      </trkpt>
      <trkpt lat="44.05398" lon="6.03743">
        <ele>588.40002441406</ele>
        <time>2022-01-02T08:24:13.096Z</time>
      </trkpt>
      <trkpt lat="44.05394" lon="6.03735">
        <ele>587.79998779297</ele>
        <time>2022-01-02T08:24:16.086Z</time>
      </trkpt>
      <trkpt lat="44.05389" lon="6.03733">
        <ele>586.59997558594</ele>
        <time>2022-01-02T08:24:19.078Z</time>
      </trkpt>
      <trkpt lat="44.05383" lon="6.03731">
        <ele>585.59997558594</ele>
        <time>2022-01-02T08:24:22.072Z</time>
      </trkpt>
      <trkpt lat="44.05377" lon="6.03729">
        <ele>584.40002441406</ele>
        <time>2022-01-02T08:24:25.069Z</time>
      </trkpt>
      <trkpt lat="44.05374" lon="6.0373">
        <ele>583.79998779297</ele>
        <time>2022-01-02T08:24:28.067Z</time>
      </trkpt>
      <trkpt lat="44.05371" lon="6.03732">
        <ele>582.79998779297</ele>
        <time>2022-01-02T08:24:31.066Z</time>
      </trkpt>
      <trkpt lat="44.05364" lon="6.03735">
        <ele>581.79998779297</ele>
        <time>2022-01-02T08:24:34.067Z</time>
      </trkpt>
      <trkpt lat="44.05359" lon="6.03737">
        <ele>580.79998779297</ele>
        <time>2022-01-02T08:24:37.070Z</time>
      </trkpt>
      <trkpt lat="44.05356" lon="6.03741">
        <ele>579.40002441406</ele>
        <time>2022-01-02T08:24:40.075Z</time>
      </trkpt>
      <trkpt lat="44.05354" lon="6.03741">
        <ele>579.20001220703</ele>
        <time>2022-01-02T08:24:43.080Z</time>
      </trkpt>
      <trkpt lat="44.05348" lon="6.03743">
        <ele>578</ele>
        <time>2022-01-02T08:24:46.087Z</time>
      </trkpt>
      <trkpt lat="44.05343" lon="6.03749">
        <ele>576.59997558594</ele>
        <time>2022-01-02T08:24:49.097Z</time>
      </trkpt>
      <trkpt lat="44.05338" lon="6.03757">
        <ele>575.40002441406</ele>
        <time>2022-01-02T08:24:52.109Z</time>
      </trkpt>
      <trkpt lat="44.05332" lon="6.03766">
        <ele>574.79998779297</ele>
        <time>2022-01-02T08:24:55.124Z</time>
      </trkpt>
      <trkpt lat="44.05326" lon="6.03774">
        <ele>574.40002441406</ele>
        <time>2022-01-02T08:24:58.142Z</time>
      </trkpt>
      <trkpt lat="44.05322" lon="6.03776">
        <ele>574.20001220703</ele>
        <time>2022-01-02T08:25:01.162Z</time>
      </trkpt>
      <trkpt lat="44.05311" lon="6.03773">
        <ele>573.79998779297</ele>
        <time>2022-01-02T08:25:04.186Z</time>
      </trkpt>
      <trkpt lat="44.05306" lon="6.03772">
        <ele>573.40002441406</ele>
        <time>2022-01-02T08:25:07.212Z</time>
      </trkpt>
      <trkpt lat="44.05297" lon="6.03772">
        <ele>572.40002441406</ele>
        <time>2022-01-02T08:25:10.241Z</time>
      </trkpt>
      <trkpt lat="44.05294" lon="6.03771">
        <ele>572</ele>
        <time>2022-01-02T08:25:13.271Z</time>
      </trkpt>
      <trkpt lat="44.05287" lon="6.03768">
        <ele>571</ele>
        <time>2022-01-02T08:25:16.303Z</time>
      </trkpt>
      <trkpt lat="44.05284" lon="6.03765">
        <ele>570.59997558594</ele>
        <time>2022-01-02T08:25:19.336Z</time>
      </trkpt>
      <trkpt lat="44.05279" lon="6.03763">
        <ele>569.59997558594</ele>
        <time>2022-01-02T08:25:22.372Z</time>
      </trkpt>
      <trkpt lat="44.05276" lon="6.03763">
        <ele>568.40002441406</ele>
        <time>2022-01-02T08:25:25.409Z</time>
      </trkpt>
      <trkpt lat="44.05273" lon="6.03765">
        <ele>567.59997558594</ele>
        <time>2022-01-02T08:25:28.447Z</time>
      </trkpt>
      <trkpt lat="44.05271" lon="6.03766">
        <ele>567.20001220703</ele>
        <time>2022-01-02T08:25:31.485Z</time>
      </trkpt>
      <trkpt lat="44.0526" lon="6.0377">
        <ele>566.40002441406</ele>
        <time>2022-01-02T08:25:34.527Z</time>
      </trkpt>
      <trkpt lat="44.05256" lon="6.03771">
        <ele>566</ele>
        <time>2022-01-02T08:25:37.571Z</time>
      </trkpt>
      <trkpt lat="44.05247" lon="6.03772">
        <ele>564.59997558594</ele>
        <time>2022-01-02T08:25:40.618Z</time>
      </trkpt>
      <trkpt lat="44.05245" lon="6.03773">
        <ele>563.59997558594</ele>
        <time>2022-01-02T08:25:43.666Z</time>
      </trkpt>
      <trkpt lat="44.05241" lon="6.03778">
        <ele>561.79998779297</ele>
        <time>2022-01-02T08:25:46.716Z</time>
      </trkpt>
      <trkpt lat="44.05238" lon="6.03779">
        <ele>561</ele>
        <time>2022-01-02T08:25:49.766Z</time>
      </trkpt>
      <trkpt lat="44.05236" lon="6.03778">
        <ele>560.40002441406</ele>
        <time>2022-01-02T08:25:52.817Z</time>
      </trkpt>
      <trkpt lat="44.05232" lon="6.03774">
        <ele>558.79998779297</ele>
        <time>2022-01-02T08:25:55.870Z</time>
      </trkpt>
      <trkpt lat="44.05229" lon="6.03772">
        <ele>558.20001220703</ele>
        <time>2022-01-02T08:25:58.924Z</time>
      </trkpt>
      <trkpt lat="44.05226" lon="6.03771">
        <ele>557.59997558594</ele>
        <time>2022-01-02T08:26:01.979Z</time>
      </trkpt>
      <trkpt lat="44.0522" lon="6.0377">
        <ele>556.79998779297</ele>
        <time>2022-01-02T08:26:05.036Z</time>
      </trkpt>
      <trkpt lat="44.05217" lon="6.03771">
        <ele>555.79998779297</ele>
        <time>2022-01-02T08:26:08.094Z</time>
      </trkpt>
      <trkpt lat="44.05213" lon="6.03768">
        <ele>555.20001220703</ele>
        <time>2022-01-02T08:26:11.154Z</time>
      </trkpt>
      <trkpt lat="44.05211" lon="6.0376">
        <ele>555</ele>
        <time>2022-01-02T08:26:14.216Z</time>
      </trkpt>
      <trkpt lat="44.0521" lon="6.03756">
        <ele>554.59997558594</ele>
        <time>2022-01-02T08:26:17.279Z</time>
      </trkpt>
      <trkpt lat="44.05208" lon="6.03751">
        <ele>553.79998779297</ele>
        <time>2022-01-02T08:26:20.343Z</time>
      </trkpt>
      <trkpt lat="44.05208" lon="6.03746">
        <ele>552</ele>
        <time>2022-01-02T08:26:23.409Z</time>
      </trkpt>
      <trkpt lat="44.05205" lon="6.03745">
        <ele>550.59997558594</ele>
        <time>2022-01-02T08:26:26.476Z</time>
      </trkpt>
      <trkpt lat="44.05203" lon="6.03747">
        <ele>550</ele>
        <time>2022-01-02T08:26:29.543Z</time>
      </trkpt>
      <trkpt lat="44.05198" lon="6.0375">
        <ele>549.40002441406</ele>
        <time>2022-01-02T08:26:32.612Z</time>
      </trkpt>
      <trkpt lat="44.05192" lon="6.03757">
        <ele>548.79998779297</ele>
        <time>2022-01-02T08:26:35.684Z</time>
      </trkpt>
      <trkpt lat="44.0519" lon="6.0376">
        <ele>548.40002441406</ele>
        <time>2022-01-02T08:26:38.757Z</time>
      </trkpt>
      <trkpt lat="44.05186" lon="6.03759">
        <ele>547.59997558594</ele>
        <time>2022-01-02T08:26:41.831Z</time>
      </trkpt>
      <trkpt lat="44.05186" lon="6.03757">
        <ele>547.20001220703</ele>
        <time>2022-01-02T08:26:44.906Z</time>
      </trkpt>
      <trkpt lat="44.05187" lon="6.0375">
        <ele>546.20001220703</ele>
        <time>2022-01-02T08:26:47.983Z</time>
      </trkpt>
      <trkpt lat="44.05188" lon="6.03747">
        <ele>546.20001220703</ele>
        <time>2022-01-02T08:26:51.061Z</time>
      </trkpt>
      <trkpt lat="44.0519" lon="6.03744">
        <ele>546</ele>
        <time>2022-01-02T08:26:54.140Z</time>
      </trkpt>
      <trkpt lat="44.05195" lon="6.03737">
        <ele>546</ele>
        <time>2022-01-02T08:26:57.221Z</time>
      </trkpt>
      <trkpt lat="44.05194" lon="6.03732">
        <ele>545.20001220703</ele>
        <time>2022-01-02T08:27:00.304Z</time>
      </trkpt>
      <trkpt lat="44.05194" lon="6.0373">
        <ele>543.79998779297</ele>
        <time>2022-01-02T08:27:03.387Z</time>
      </trkpt>
      <trkpt lat="44.05197" lon="6.03727">
        <ele>542.20001220703</ele>
        <time>2022-01-02T08:27:06.471Z</time>
      </trkpt>
      <trkpt lat="44.05197" lon="6.03725">
        <ele>541.79998779297</ele>
        <time>2022-01-02T08:27:09.556Z</time>
      </trkpt>
      <trkpt lat="44.05195" lon="6.03722">
        <ele>540.59997558594</ele>
        <time>2022-01-02T08:27:12.642Z</time>
      </trkpt>
      <trkpt lat="44.05193" lon="6.0372">
        <ele>539.59997558594</ele>
        <time>2022-01-02T08:27:15.729Z</time>
      </trkpt>
      <trkpt lat="44.0519" lon="6.03719">
        <ele>538.79998779297</ele>
        <time>2022-01-02T08:27:18.817Z</time>
      </trkpt>
      <trkpt lat="44.05185" lon="6.03717">
        <ele>538.20001220703</ele>
        <time>2022-01-02T08:27:21.907Z</time>
      </trkpt>
      <trkpt lat="44.05178" lon="6.03715">
        <ele>536.79998779297</ele>
        <time>2022-01-02T08:27:24.999Z</time>
      </trkpt>
      <trkpt lat="44.05174" lon="6.03713">
        <ele>536.20001220703</ele>
        <time>2022-01-02T08:27:28.093Z</time>
      </trkpt>
      <trkpt lat="44.05171" lon="6.03711">
        <ele>535.59997558594</ele>
        <time>2022-01-02T08:27:31.188Z</time>
      </trkpt>
      <trkpt lat="44.05164" lon="6.03707">
        <ele>534.20001220703</ele>
        <time>2022-01-02T08:27:34.285Z</time>
      </trkpt>
      <trkpt lat="44.0516" lon="6.03705">
        <ele>533.40002441406</ele>
        <time>2022-01-02T08:27:37.384Z</time>
      </trkpt>
      <trkpt lat="44.05157" lon="6.03703">
        <ele>532.79998779297</ele>
        <time>2022-01-02T08:27:40.484Z</time>
      </trkpt>
      <trkpt lat="44.05152" lon="6.037">
        <ele>531.20001220703</ele>
        <time>2022-01-02T08:27:43.586Z</time>
      </trkpt>
      <trkpt lat="44.0515" lon="6.03698">
        <ele>530.40002441406</ele>
        <time>2022-01-02T08:27:46.689Z</time>
      </trkpt>
      <trkpt lat="44.05149" lon="6.03696">
        <ele>530</ele>
        <time>2022-01-02T08:27:49.793Z</time>
      </trkpt>
      <trkpt lat="44.05145" lon="6.03696">
        <ele>528.79998779297</ele>
        <time>2022-01-02T08:27:52.898Z</time>
      </trkpt>
      <trkpt lat="44.05141" lon="6.03693">
        <ele>527.59997558594</ele>
        <time>2022-01-02T08:27:56.005Z</time>
      </trkpt>
      <trkpt lat="44.05143" lon="6.03685">
        <ele>526.40002441406</ele>
        <time>2022-01-02T08:27:59.114Z</time>
      </trkpt>
      <trkpt lat="44.05144" lon="6.03683">
        <ele>526.20001220703</ele>
        <time>2022-01-02T08:28:02.224Z</time>
      </trkpt>
      <trkpt lat="44.05142" lon="6.0368">
        <ele>525.20001220703</ele>
        <time>2022-01-02T08:28:05.335Z</time>
      </trkpt>
      <trkpt lat="44.0514" lon="6.03679">
        <ele>524.40002441406</ele>
        <time>2022-01-02T08:28:08.446Z</time>
      </trkpt>
      <trkpt lat="44.05138" lon="6.03678">
        <ele>524</ele>
        <time>2022-01-02T08:28:11.558Z</time>
      </trkpt>
      <trkpt lat="44.05132" lon="6.03674">
        <ele>522.59997558594</ele>
        <time>2022-01-02T08:28:14.672Z</time>
      </trkpt>
      <trkpt lat="44.0513" lon="6.0367">
        <ele>521.40002441406</ele>
        <time>2022-01-02T08:28:17.788Z</time>
      </trkpt>
      <trkpt lat="44.05126" lon="6.03671">
        <ele>520</ele>
        <time>2022-01-02T08:28:20.905Z</time>
      </trkpt>
      <trkpt lat="44.05119" lon="6.03673">
        <ele>518.59997558594</ele>
        <time>2022-01-02T08:28:24.025Z</time>
      </trkpt>
      <trkpt lat="44.05116" lon="6.03673">
        <ele>518.40002441406</ele>
        <time>2022-01-02T08:28:27.146Z</time>
      </trkpt>
      <trkpt lat="44.05113" lon="6.03672">
        <ele>517.59997558594</ele>
        <time>2022-01-02T08:28:30.268Z</time>
      </trkpt>
      <trkpt lat="44.05112" lon="6.03669">
        <ele>516.40002441406</ele>
        <time>2022-01-02T08:28:33.390Z</time>
      </trkpt>
      <trkpt lat="44.05111" lon="6.03668">
        <ele>515.79998779297</ele>
        <time>2022-01-02T08:28:36.513Z</time>
      </trkpt>
      <trkpt lat="44.0511" lon="6.03667">
        <ele>515.20001220703</ele>
        <time>2022-01-02T08:28:39.636Z</time>
      </trkpt>
      <trkpt lat="44.05109" lon="6.03669">
        <ele>514.59997558594</ele>
        <time>2022-01-02T08:28:42.760Z</time>
      </trkpt>
      <trkpt lat="44.05108" lon="6.03672">
        <ele>514</ele>
        <time>2022-01-02T08:28:45.885Z</time>
      </trkpt>
      <trkpt lat="44.05104" lon="6.03678">
        <ele>513.20001220703</ele>
        <time>2022-01-02T08:28:49.012Z</time>
      </trkpt>
      <trkpt lat="44.05102" lon="6.03678">
        <ele>513</ele>
        <time>2022-01-02T08:28:52.139Z</time>
      </trkpt>
      <trkpt lat="44.051" lon="6.0367">
        <ele>511.60000610352</ele>
        <time>2022-01-02T08:28:55.269Z</time>
      </trkpt>
      <trkpt lat="44.05098" lon="6.03656">
        <ele>510.20001220703</ele>
        <time>2022-01-02T08:28:58.402Z</time>
      </trkpt>
      <trkpt lat="44.05099" lon="6.03652">
        <ele>509.60000610352</ele>
        <time>2022-01-02T08:29:01.536Z</time>
      </trkpt>
      <trkpt lat="44.05098" lon="6.0365">
        <ele>509</ele>
        <time>2022-01-02T08:29:04.671Z</time>
      </trkpt>
      <trkpt lat="44.05095" lon="6.0365">
        <ele>507.60000610352</ele>
        <time>2022-01-02T08:29:07.807Z</time>
      </trkpt>
      <trkpt lat="44.05092" lon="6.03651">
        <ele>506.39999389648</ele>
        <time>2022-01-02T08:29:10.944Z</time>
      </trkpt>
      <trkpt lat="44.05091" lon="6.03649">
        <ele>506</ele>
        <time>2022-01-02T08:29:14.082Z</time>
      </trkpt>
      <trkpt lat="44.05091" lon="6.03645">
        <ele>505.20001220703</ele>
        <time>2022-01-02T08:29:17.221Z</time>
      </trkpt>
      <trkpt lat="44.05087" lon="6.03643">
        <ele>504.20001220703</ele>
        <time>2022-01-02T08:29:20.361Z</time>
      </trkpt>
      <trkpt lat="44.05085" lon="6.03644">
        <ele>503.60000610352</ele>
        <time>2022-01-02T08:29:23.502Z</time>
      </trkpt>
      <trkpt lat="44.05082" lon="6.03642">
        <ele>502.20001220703</ele>
        <time>2022-01-02T08:29:26.644Z</time>
      </trkpt>
      <trkpt lat="44.05082" lon="6.03637">
        <ele>501.20001220703</ele>
        <time>2022-01-02T08:29:29.788Z</time>
      </trkpt>
      <trkpt lat="44.05083" lon="6.03633">
        <ele>500.60000610352</ele>
        <time>2022-01-02T08:29:32.933Z</time>
      </trkpt>
      <trkpt lat="44.05084" lon="6.0363">
        <ele>500.39999389648</ele>
        <time>2022-01-02T08:29:36.078Z</time>
      </trkpt>
      <trkpt lat="44.05085" lon="6.03627">
        <ele>499.79998779297</ele>
        <time>2022-01-02T08:29:39.224Z</time>
      </trkpt>
      <trkpt lat="44.05086" lon="6.03621">
        <ele>499.20001220703</ele>
        <time>2022-01-02T08:29:42.372Z</time>
      </trkpt>
      <trkpt lat="44.05084" lon="6.03619">
        <ele>498.79998779297</ele>
        <time>2022-01-02T08:29:45.521Z</time>
      </trkpt>
      <trkpt lat="44.0508" lon="6.03619">
        <ele>497.39999389648</ele>
        <time>2022-01-02T08:29:48.671Z</time>
      </trkpt>
      <trkpt lat="44.05078" lon="6.03619">
        <ele>496.79998779297</ele>
        <time>2022-01-02T08:29:51.822Z</time>
      </trkpt>
      <trkpt lat="44.05072" lon="6.03619">
        <ele>495.60000610352</ele>
        <time>2022-01-02T08:29:54.975Z</time>
      </trkpt>
      <trkpt lat="44.0507" lon="6.03616">
        <ele>494.39999389648</ele>
        <time>2022-01-02T08:29:58.129Z</time>
      </trkpt>
      <trkpt lat="44.05072" lon="6.03612">
        <ele>493.39999389648</ele>
        <time>2022-01-02T08:30:01.284Z</time>
      </trkpt>
      <trkpt lat="44.05073" lon="6.03609">
        <ele>493.20001220703</ele>
        <time>2022-01-02T08:30:04.440Z</time>
      </trkpt>
      <trkpt lat="44.05073" lon="6.03605">
        <ele>493</ele>
        <time>2022-01-02T08:30:07.597Z</time>
      </trkpt>
      <trkpt lat="44.05075" lon="6.03598">
        <ele>491.79998779297</ele>
        <time>2022-01-02T08:30:10.756Z</time>
      </trkpt>
      <trkpt lat="44.05077" lon="6.03591">
        <ele>490.39999389648</ele>
        <time>2022-01-02T08:30:13.916Z</time>
      </trkpt>
      <trkpt lat="44.05075" lon="6.03588">
        <ele>489.20001220703</ele>
        <time>2022-01-02T08:30:17.078Z</time>
      </trkpt>
      <trkpt lat="44.05073" lon="6.03588">
        <ele>488.60000610352</ele>
        <time>2022-01-02T08:30:20.240Z</time>
      </trkpt>
      <trkpt lat="44.05071" lon="6.03589">
        <ele>487.79998779297</ele>
        <time>2022-01-02T08:30:23.403Z</time>
      </trkpt>
      <trkpt lat="44.05066" lon="6.0359">
        <ele>486.79998779297</ele>
        <time>2022-01-02T08:30:26.568Z</time>
      </trkpt>
      <trkpt lat="44.05063" lon="6.03589">
        <ele>486.60000610352</ele>
        <time>2022-01-02T08:30:29.734Z</time>
      </trkpt>
      <trkpt lat="44.05055" lon="6.03595">
        <ele>485</ele>
        <time>2022-01-02T08:30:32.903Z</time>
      </trkpt>
      <trkpt lat="44.05052" lon="6.03598">
        <ele>484.60000610352</ele>
        <time>2022-01-02T08:30:36.073Z</time>
      </trkpt>
      <trkpt lat="44.05048" lon="6.03603">
        <ele>484</ele>
        <time>2022-01-02T08:30:39.245Z</time>
      </trkpt>
      <trkpt lat="44.05043" lon="6.03606">
        <ele>483.20001220703</ele>
        <time>2022-01-02T08:30:42.419Z</time>
      </trkpt>
      <trkpt lat="44.05041" lon="6.03606">
        <ele>482.39999389648</ele>
        <time>2022-01-02T08:30:45.594Z</time>
      </trkpt>
      <trkpt lat="44.05041" lon="6.03605">
        <ele>481.79998779297</ele>
        <time>2022-01-02T08:30:48.769Z</time>
      </trkpt>
      <trkpt lat="44.05041" lon="6.03604">
        <ele>481.39999389648</ele>
        <time>2022-01-02T08:30:51.944Z</time>
      </trkpt>
      <trkpt lat="44.05041" lon="6.03603">
        <ele>481.20001220703</ele>
        <time>2022-01-02T08:30:55.119Z</time>
      </trkpt>
      <trkpt lat="44.05044" lon="6.03598">
        <ele>480.79998779297</ele>
        <time>2022-01-02T08:30:58.296Z</time>
      </trkpt>
      <trkpt lat="44.05047" lon="6.0359">
        <ele>480.60000610352</ele>
        <time>2022-01-02T08:31:01.475Z</time>
      </trkpt>
      <trkpt lat="44.0505" lon="6.03582">
        <ele>480.39999389648</ele>
        <time>2022-01-02T08:31:04.656Z</time>
      </trkpt>
      <trkpt lat="44.05052" lon="6.03574">
        <ele>479</ele>
        <time>2022-01-02T08:31:07.840Z</time>
      </trkpt>
      <trkpt lat="44.05054" lon="6.0357">
        <ele>478.39999389648</ele>
        <time>2022-01-02T08:31:11.025Z</time>
      </trkpt>
      <trkpt lat="44.05056" lon="6.03566">
        <ele>477.39999389648</ele>
        <time>2022-01-02T08:31:14.211Z</time>
      </trkpt>
      <trkpt lat="44.05058" lon="6.03561">
        <ele>475.79998779297</ele>
        <time>2022-01-02T08:31:17.398Z</time>
      </trkpt>
      <trkpt lat="44.05059" lon="6.03557">
        <ele>474.79998779297</ele>
        <time>2022-01-02T08:31:20.586Z</time>
      </trkpt>
      <trkpt lat="44.05058" lon="6.03554">
        <ele>474</ele>
        <time>2022-01-02T08:31:23.775Z</time>
      </trkpt>
      <trkpt lat="44.05053" lon="6.03555">
        <ele>472.79998779297</ele>
        <time>2022-01-02T08:31:26.966Z</time>
      </trkpt>
      <trkpt lat="44.05051" lon="6.03555">
        <ele>472.20001220703</ele>
        <time>2022-01-02T08:31:30.158Z</time>
      </trkpt>
      <trkpt lat="44.05047" lon="6.03552">
        <ele>471.39999389648</ele>
        <time>2022-01-02T08:31:33.351Z</time>
      </trkpt>
      <trkpt lat="44.05041" lon="6.03553">
        <ele>470.39999389648</ele>
        <time>2022-01-02T08:31:36.546Z</time>
      </trkpt>
      <trkpt lat="44.05038" lon="6.03552">
        <ele>470</ele>
        <time>2022-01-02T08:31:39.743Z</time>
      </trkpt>
      <trkpt lat="44.05035" lon="6.03549">
        <ele>469.60000610352</ele>
        <time>2022-01-02T08:31:42.941Z</time>
      </trkpt>
      <trkpt lat="44.05032" lon="6.03548">
        <ele>469.20001220703</ele>
        <time>2022-01-02T08:31:46.140Z</time>
      </trkpt>
      <trkpt lat="44.05027" lon="6.03548">
        <ele>468</ele>
        <time>2022-01-02T08:31:49.341Z</time>
      </trkpt>
      <trkpt lat="44.05023" lon="6.03554">
        <ele>467</ele>
        <time>2022-01-02T08:31:52.544Z</time>
      </trkpt>
      <trkpt lat="44.05018" lon="6.03559">
        <ele>466.39999389648</ele>
        <time>2022-01-02T08:31:55.749Z</time>
      </trkpt>
      <trkpt lat="44.05016" lon="6.03559">
        <ele>466</ele>
        <time>2022-01-02T08:31:58.955Z</time>
      </trkpt>
      <trkpt lat="44.05013" lon="6.03555">
        <ele>465.20001220703</ele>
        <time>2022-01-02T08:32:02.162Z</time>
      </trkpt>
      <trkpt lat="44.05012" lon="6.03553">
        <ele>464.79998779297</ele>
        <time>2022-01-02T08:32:05.370Z</time>
      </trkpt>
      <trkpt lat="44.05011" lon="6.03553">
        <ele>464.60000610352</ele>
        <time>2022-01-02T08:32:08.578Z</time>
      </trkpt>
      <trkpt lat="44.05008" lon="6.03554">
        <ele>463.60000610352</ele>
        <time>2022-01-02T08:32:11.787Z</time>
      </trkpt>
      <trkpt lat="44.04998" lon="6.03557">
        <ele>462.60000610352</ele>
        <time>2022-01-02T08:32:15.000Z</time>
      </trkpt>
      <trkpt lat="44.04996" lon="6.03559">
        <ele>462</ele>
        <time>2022-01-02T08:32:18.214Z</time>
      </trkpt>
      <trkpt lat="44.04991" lon="6.03562">
        <ele>461</ele>
        <time>2022-01-02T08:32:21.430Z</time>
      </trkpt>
      <trkpt lat="44.04982" lon="6.03554">
        <ele>459.60000610352</ele>
        <time>2022-01-02T08:32:24.649Z</time>
      </trkpt>
      <trkpt lat="44.0498" lon="6.03544">
        <ele>458.60000610352</ele>
        <time>2022-01-02T08:32:27.871Z</time>
      </trkpt>
      <trkpt lat="44.04978" lon="6.03538">
        <ele>458.60000610352</ele>
        <time>2022-01-02T08:32:31.095Z</time>
      </trkpt>
      <trkpt lat="44.04972" lon="6.03532">
        <ele>457.79998779297</ele>
        <time>2022-01-02T08:32:34.321Z</time>
      </trkpt>
      <trkpt lat="44.0497" lon="6.0353">
        <ele>457.20001220703</ele>
        <time>2022-01-02T08:32:37.548Z</time>
      </trkpt>
      <trkpt lat="44.04968" lon="6.03528">
        <ele>456.79998779297</ele>
        <time>2022-01-02T08:32:40.776Z</time>
      </trkpt>
      <trkpt lat="44.04966" lon="6.03527">
        <ele>456</ele>
        <time>2022-01-02T08:32:44.005Z</time>
      </trkpt>
      <trkpt lat="44.04964" lon="6.03526">
        <ele>455.79998779297</ele>
        <time>2022-01-02T08:32:47.235Z</time>
      </trkpt>
      <trkpt lat="44.04959" lon="6.03522">
        <ele>455</ele>
        <time>2022-01-02T08:32:50.466Z</time>
      </trkpt>
      <trkpt lat="44.04955" lon="6.03521">
        <ele>454.39999389648</ele>
        <time>2022-01-02T08:32:53.699Z</time>
      </trkpt>
      <trkpt lat="44.04949" lon="6.03522">
        <ele>453.79998779297</ele>
        <time>2022-01-02T08:32:56.934Z</time>
      </trkpt>
      <trkpt lat="44.04943" lon="6.0352">
        <ele>453.39999389648</ele>
        <time>2022-01-02T08:33:00.171Z</time>
      </trkpt>
      <trkpt lat="44.04941" lon="6.03513">
        <ele>452.60000610352</ele>
        <time>2022-01-02T08:33:03.410Z</time>
      </trkpt>
      <trkpt lat="44.04939" lon="6.0351">
        <ele>452.39999389648</ele>
        <time>2022-01-02T08:33:06.650Z</time>
      </trkpt>
      <trkpt lat="44.04934" lon="6.03502">
        <ele>451.20001220703</ele>
        <time>2022-01-02T08:33:09.893Z</time>
      </trkpt>
      <trkpt lat="44.04931" lon="6.03499">
        <ele>450.39999389648</ele>
        <time>2022-01-02T08:33:13.137Z</time>
      </trkpt>
      <trkpt lat="44.04927" lon="6.03497">
        <ele>449.39999389648</ele>
        <time>2022-01-02T08:33:16.383Z</time>
      </trkpt>
      <trkpt lat="44.04916" lon="6.03492">
        <ele>448</ele>
        <time>2022-01-02T08:33:19.632Z</time>
      </trkpt>
      <trkpt lat="44.04913" lon="6.0349">
        <ele>447.39999389648</ele>
        <time>2022-01-02T08:33:22.883Z</time>
      </trkpt>
      <trkpt lat="44.0491" lon="6.03488">
        <ele>447</ele>
        <time>2022-01-02T08:33:26.135Z</time>
      </trkpt>
      <trkpt lat="44.04901" lon="6.03483">
        <ele>445.79998779297</ele>
        <time>2022-01-02T08:33:29.390Z</time>
      </trkpt>
      <trkpt lat="44.04899" lon="6.0348">
        <ele>445</ele>
        <time>2022-01-02T08:33:32.646Z</time>
      </trkpt>
      <trkpt lat="44.04897" lon="6.03477">
        <ele>444.60000610352</ele>
        <time>2022-01-02T08:33:35.903Z</time>
      </trkpt>
      <trkpt lat="44.04892" lon="6.03468">
        <ele>443.79998779297</ele>
        <time>2022-01-02T08:33:39.163Z</time>
      </trkpt>
      <trkpt lat="44.04893" lon="6.03465">
        <ele>443.20001220703</ele>
        <time>2022-01-02T08:33:42.424Z</time>
      </trkpt>
      <trkpt lat="44.04893" lon="6.03464">
        <ele>442.39999389648</ele>
        <time>2022-01-02T08:33:45.685Z</time>
      </trkpt>
      <trkpt lat="44.04892" lon="6.03464">
        <ele>442.20001220703</ele>
        <time>2022-01-02T08:33:48.946Z</time>
      </trkpt>
      <trkpt lat="44.04895" lon="6.03457">
        <ele>441.79998779297</ele>
        <time>2022-01-02T08:33:52.209Z</time>
      </trkpt>
      <trkpt lat="44.04896" lon="6.03452">
        <ele>441.79998779297</ele>
        <time>2022-01-02T08:33:55.474Z</time>
      </trkpt>
      <trkpt lat="44.04896" lon="6.03449">
        <ele>441.60000610352</ele>
        <time>2022-01-02T08:33:58.739Z</time>
      </trkpt>
      <trkpt lat="44.04891" lon="6.03443">
        <ele>441.60000610352</ele>
        <time>2022-01-02T08:34:02.006Z</time>
      </trkpt>
      <trkpt lat="44.04886" lon="6.03436">
        <ele>441.20001220703</ele>
        <time>2022-01-02T08:34:05.276Z</time>
      </trkpt>
      <trkpt lat="44.04871" lon="6.03415">
        <ele>440.20001220703</ele>
        <time>2022-01-02T08:34:08.554Z</time>
      </trkpt>
      <trkpt lat="44.04865" lon="6.03408">
        <ele>440</ele>
        <time>2022-01-02T08:34:11.834Z</time>
      </trkpt>
      <trkpt lat="44.04857" lon="6.03397">
        <ele>439.79998779297</ele>
        <time>2022-01-02T08:34:15.118Z</time>
      </trkpt>
      <trkpt lat="44.04838" lon="6.03371">
        <ele>439.20001220703</ele>
        <time>2022-01-02T08:34:18.411Z</time>
      </trkpt>
      <trkpt lat="44.04833" lon="6.03361">
        <ele>439.20001220703</ele>
        <time>2022-01-02T08:34:21.707Z</time>
      </trkpt>
      <trkpt lat="44.04832" lon="6.0335">
        <ele>439</ele>
        <time>2022-01-02T08:34:25.006Z</time>
      </trkpt>
      <trkpt lat="44.0484" lon="6.03331">
        <ele>438.79998779297</ele>
        <time>2022-01-02T08:34:28.311Z</time>
      </trkpt>
      <trkpt lat="44.0484" lon="6.03312">
        <ele>438.60000610352</ele>
        <time>2022-01-02T08:34:31.621Z</time>
      </trkpt>
      <trkpt lat="44.04836" lon="6.0328">
        <ele>438.39999389648</ele>
        <time>2022-01-02T08:34:34.939Z</time>
      </trkpt>
      <trkpt lat="44.04835" lon="6.03268">
        <ele>438.39999389648</ele>
        <time>2022-01-02T08:34:38.260Z</time>
      </trkpt>
      <trkpt lat="44.04831" lon="6.03238">
        <ele>438.79998779297</ele>
        <time>2022-01-02T08:34:41.589Z</time>
      </trkpt>
      <trkpt lat="44.04824" lon="6.03221">
        <ele>438.79998779297</ele>
        <time>2022-01-02T08:34:44.922Z</time>
      </trkpt>
      <trkpt lat="44.04822" lon="6.03216">
        <ele>438.79998779297</ele>
        <time>2022-01-02T08:34:48.257Z</time>
      </trkpt>
      <trkpt lat="44.04813" lon="6.03205">
        <ele>438</ele>
        <time>2022-01-02T08:34:51.596Z</time>
      </trkpt>
      <trkpt lat="44.04803" lon="6.03194">
        <ele>437.20001220703</ele>
        <time>2022-01-02T08:34:54.939Z</time>
      </trkpt>
      <trkpt lat="44.04798" lon="6.03189">
        <ele>437</ele>
        <time>2022-01-02T08:34:58.285Z</time>
      </trkpt>
      <trkpt lat="44.04768" lon="6.03163">
        <ele>436</ele>
        <time>2022-01-02T08:35:01.643Z</time>
      </trkpt>
      <trkpt lat="44.04756" lon="6.03154">
        <ele>436</ele>
        <time>2022-01-02T08:35:05.006Z</time>
      </trkpt>
      <trkpt lat="44.04749" lon="6.03148">
        <ele>436</ele>
        <time>2022-01-02T08:35:08.372Z</time>
      </trkpt>
      <trkpt lat="44.04744" lon="6.03145">
        <ele>436</ele>
        <time>2022-01-02T08:35:11.740Z</time>
      </trkpt>
      <trkpt lat="44.04728" lon="6.03137">
        <ele>435.79998779297</ele>
        <time>2022-01-02T08:35:15.114Z</time>
      </trkpt>
      <trkpt lat="44.04698" lon="6.0312">
        <ele>435.20001220703</ele>
        <time>2022-01-02T08:35:18.499Z</time>
      </trkpt>
      <trkpt lat="44.04696" lon="6.0312">
        <ele>435.20001220703</ele>
        <time>2022-01-02T08:35:21.885Z</time>
      </trkpt>
      <trkpt lat="44.0469" lon="6.03123">
        <ele>435.39999389648</ele>
        <time>2022-01-02T08:35:25.273Z</time>
      </trkpt>
      <trkpt lat="44.04688" lon="6.03132">
        <ele>435.60000610352</ele>
        <time>2022-01-02T08:35:28.663Z</time>
      </trkpt>
      <trkpt lat="44.04687" lon="6.03136">
        <ele>435.39999389648</ele>
        <time>2022-01-02T08:35:32.054Z</time>
      </trkpt>
      <trkpt lat="44.04678" lon="6.03169">
        <ele>435.79998779297</ele>
        <time>2022-01-02T08:35:35.454Z</time>
      </trkpt>
      <trkpt lat="44.04673" lon="6.03194">
        <ele>436</ele>
        <time>2022-01-02T08:35:38.861Z</time>
      </trkpt>
      <trkpt lat="44.04666" lon="6.03234">
        <ele>436.60000610352</ele>
        <time>2022-01-02T08:35:42.278Z</time>
      </trkpt>
      <trkpt lat="44.0466" lon="6.03288">
        <ele>436.79998779297</ele>
        <time>2022-01-02T08:35:45.709Z</time>
      </trkpt>
      <trkpt lat="44.04659" lon="6.03304">
        <ele>437.20001220703</ele>
        <time>2022-01-02T08:35:49.144Z</time>
      </trkpt>
      <trkpt lat="44.04659" lon="6.03317">
        <ele>437.20001220703</ele>
        <time>2022-01-02T08:35:52.582Z</time>
      </trkpt>
      <trkpt lat="44.04659" lon="6.03331">
        <ele>437.20001220703</ele>
        <time>2022-01-02T08:35:56.024Z</time>
      </trkpt>
      <trkpt lat="44.04657" lon="6.03333">
        <ele>437.39999389648</ele>
        <time>2022-01-02T08:35:59.466Z</time>
      </trkpt>
      <trkpt lat="44.04646" lon="6.03333">
        <ele>438.20001220703</ele>
        <time>2022-01-02T08:36:02.912Z</time>
      </trkpt>
      <trkpt lat="44.04641" lon="6.03332">
        <ele>438</ele>
        <time>2022-01-02T08:36:06.360Z</time>
      </trkpt>
      <trkpt lat="44.04639" lon="6.03328">
        <ele>437.60000610352</ele>
        <time>2022-01-02T08:36:09.809Z</time>
      </trkpt>
      <trkpt lat="44.04637" lon="6.0332">
        <ele>437.39999389648</ele>
        <time>2022-01-02T08:36:13.261Z</time>
      </trkpt>
      <trkpt lat="44.04633" lon="6.03318">
        <ele>437.20001220703</ele>
        <time>2022-01-02T08:36:16.714Z</time>
      </trkpt>
      <trkpt lat="44.04625" lon="6.03308">
        <ele>437.39999389648</ele>
        <time>2022-01-02T08:36:20.171Z</time>
      </trkpt>
      <trkpt lat="44.04624" lon="6.033">
        <ele>437.20001220703</ele>
        <time>2022-01-02T08:36:23.630Z</time>
      </trkpt>
      <trkpt lat="44.04623" lon="6.03297">
        <ele>437.20001220703</ele>
        <time>2022-01-02T08:36:27.090Z</time>
      </trkpt>
      <trkpt lat="44.04619" lon="6.03292">
        <ele>437</ele>
        <time>2022-01-02T08:36:30.551Z</time>
      </trkpt>
      <trkpt lat="44.04616" lon="6.03287">
        <ele>436.79998779297</ele>
        <time>2022-01-02T08:36:34.014Z</time>
      </trkpt>
      <trkpt lat="44.04611" lon="6.03275">
        <ele>436.79998779297</ele>
        <time>2022-01-02T08:36:37.481Z</time>
      </trkpt>
      <trkpt lat="44.04602" lon="6.03259">
        <ele>436.79998779297</ele>
        <time>2022-01-02T08:36:40.953Z</time>
      </trkpt>
      <trkpt lat="44.04589" lon="6.03238">
        <ele>437</ele>
        <time>2022-01-02T08:36:44.432Z</time>
      </trkpt>
      <trkpt lat="44.04577" lon="6.03214">
        <ele>437.60000610352</ele>
        <time>2022-01-02T08:36:47.918Z</time>
      </trkpt>
      <trkpt lat="44.04563" lon="6.03206">
        <ele>437.60000610352</ele>
        <time>2022-01-02T08:36:51.409Z</time>
      </trkpt>
      <trkpt lat="44.04547" lon="6.0321">
        <ele>437.39999389648</ele>
        <time>2022-01-02T08:36:54.906Z</time>
      </trkpt>
      <trkpt lat="44.04536" lon="6.03199">
        <ele>437.39999389648</ele>
        <time>2022-01-02T08:36:58.408Z</time>
      </trkpt>
      <trkpt lat="44.04519" lon="6.03176">
        <ele>436.79998779297</ele>
        <time>2022-01-02T08:37:01.918Z</time>
      </trkpt>
      <trkpt lat="44.045" lon="6.03153">
        <ele>436.79998779297</ele>
        <time>2022-01-02T08:37:05.437Z</time>
      </trkpt>
      <trkpt lat="44.04497" lon="6.03149">
        <ele>436.79998779297</ele>
        <time>2022-01-02T08:37:08.957Z</time>
      </trkpt>
      <trkpt lat="44.04492" lon="6.03132">
        <ele>436.60000610352</ele>
        <time>2022-01-02T08:37:12.482Z</time>
      </trkpt>
      <trkpt lat="44.04481" lon="6.03119">
        <ele>436.60000610352</ele>
        <time>2022-01-02T08:37:16.012Z</time>
      </trkpt>
      <trkpt lat="44.04468" lon="6.03108">
        <ele>436.39999389648</ele>
        <time>2022-01-02T08:37:19.547Z</time>
      </trkpt>
      <trkpt lat="44.04466" lon="6.03103">
        <ele>436.20001220703</ele>
        <time>2022-01-02T08:37:23.084Z</time>
      </trkpt>
      <trkpt lat="44.04467" lon="6.03087">
        <ele>436</ele>
        <time>2022-01-02T08:37:26.625Z</time>
      </trkpt>
      <trkpt lat="44.04459" lon="6.03071">
        <ele>435.79998779297</ele>
        <time>2022-01-02T08:37:30.171Z</time>
      </trkpt>
      <trkpt lat="44.0444" lon="6.03065">
        <ele>436</ele>
        <time>2022-01-02T08:37:33.723Z</time>
      </trkpt>
      <trkpt lat="44.04427" lon="6.03071">
        <ele>437</ele>
        <time>2022-01-02T08:37:37.280Z</time>
      </trkpt>
      <trkpt lat="44.04422" lon="6.03071">
        <ele>437.60000610352</ele>
        <time>2022-01-02T08:37:40.839Z</time>
      </trkpt>
      <trkpt lat="44.04414" lon="6.03067">
        <ele>438.79998779297</ele>
        <time>2022-01-02T08:37:44.401Z</time>
      </trkpt>
      <trkpt lat="44.04398" lon="6.03062">
        <ele>439.79998779297</ele>
        <time>2022-01-02T08:37:47.969Z</time>
      </trkpt>
      <trkpt lat="44.04386" lon="6.03059">
        <ele>440</ele>
        <time>2022-01-02T08:37:51.541Z</time>
      </trkpt>
      <trkpt lat="44.04357" lon="6.03046">
        <ele>439.60000610352</ele>
        <time>2022-01-02T08:37:55.124Z</time>
      </trkpt>
      <trkpt lat="44.04357" lon="6.03028">
        <ele>439.39999389648</ele>
        <time>2022-01-02T08:37:58.711Z</time>
      </trkpt>
      <trkpt lat="44.04358" lon="6.03004">
        <ele>438.79998779297</ele>
        <time>2022-01-02T08:38:02.304Z</time>
      </trkpt>
      <trkpt lat="44.04359" lon="6.02998">
        <ele>438.60000610352</ele>
        <time>2022-01-02T08:38:05.899Z</time>
      </trkpt>
      <trkpt lat="44.0437" lon="6.02956">
        <ele>438.20001220703</ele>
        <time>2022-01-02T08:38:09.505Z</time>
      </trkpt>
      <trkpt lat="44.04377" lon="6.02939">
        <ele>437.79998779297</ele>
        <time>2022-01-02T08:38:13.116Z</time>
      </trkpt>
      <trkpt lat="44.04381" lon="6.02934">
        <ele>438.20001220703</ele>
        <time>2022-01-02T08:38:16.729Z</time>
      </trkpt>
      <trkpt lat="44.04381" lon="6.02934">
        <ele>438.20001220703</ele>
        <time>2022-01-02T08:38:20.342Z</time>
      </trkpt>
      <trkpt lat="44.04376" lon="6.02931">
        <ele>441.79998779297</ele>
        <time>2022-01-02T08:38:23.957Z</time>
      </trkpt>
      <trkpt lat="44.04374" lon="6.02933">
        <ele>441.79998779297</ele>
        <time>2022-01-02T08:38:27.573Z</time>
      </trkpt>
      <trkpt lat="44.04372" lon="6.02937">
        <ele>442</ele>
        <time>2022-01-02T08:38:31.190Z</time>
      </trkpt>
      <trkpt lat="44.04367" lon="6.02946">
        <ele>442.39999389648</ele>
        <time>2022-01-02T08:38:34.810Z</time>
      </trkpt>
      <trkpt lat="44.04363" lon="6.02957">
        <ele>442.39999389648</ele>
        <time>2022-01-02T08:38:38.433Z</time>
      </trkpt>
      <trkpt lat="44.04351" lon="6.02965">
        <ele>442.60000610352</ele>
        <time>2022-01-02T08:38:42.061Z</time>
      </trkpt>
      <trkpt lat="44.04345" lon="6.02974">
        <ele>442.79998779297</ele>
        <time>2022-01-02T08:38:45.692Z</time>
      </trkpt>
      <trkpt lat="44.04342" lon="6.0298">
        <ele>442.79998779297</ele>
        <time>2022-01-02T08:38:49.325Z</time>
      </trkpt>
      <trkpt lat="44.04327" lon="6.02997">
        <ele>443.39999389648</ele>
        <time>2022-01-02T08:38:52.964Z</time>
      </trkpt>
      <trkpt lat="44.04324" lon="6.02997">
        <ele>443.39999389648</ele>
        <time>2022-01-02T08:38:56.604Z</time>
      </trkpt>
      <trkpt lat="44.04318" lon="6.02994">
        <ele>443.79998779297</ele>
        <time>2022-01-02T08:39:00.247Z</time>
      </trkpt>
      <trkpt lat="44.04316" lon="6.02991">
        <ele>444</ele>
        <time>2022-01-02T08:39:03.891Z</time>
      </trkpt>
      <trkpt lat="44.04313" lon="6.0299">
        <ele>444.20001220703</ele>
        <time>2022-01-02T08:39:07.536Z</time>
      </trkpt>
      <trkpt lat="44.04304" lon="6.02992">
        <ele>444.20001220703</ele>
        <time>2022-01-02T08:39:11.184Z</time>
      </trkpt>
      <trkpt lat="44.04294" lon="6.03004">
        <ele>444.20001220703</ele>
        <time>2022-01-02T08:39:14.836Z</time>
      </trkpt>
      <trkpt lat="44.04282" lon="6.0303">
        <ele>444.60000610352</ele>
        <time>2022-01-02T08:39:18.496Z</time>
      </trkpt>
      <trkpt lat="44.04273" lon="6.03049">
        <ele>445.20001220703</ele>
        <time>2022-01-02T08:39:22.162Z</time>
      </trkpt>
      <trkpt lat="44.0427" lon="6.03053">
        <ele>445.60000610352</ele>
        <time>2022-01-02T08:39:25.830Z</time>
      </trkpt>
      <trkpt lat="44.04264" lon="6.03064">
        <ele>446.20001220703</ele>
        <time>2022-01-02T08:39:29.501Z</time>
      </trkpt>
      <trkpt lat="44.04261" lon="6.03071">
        <ele>446.39999389648</ele>
        <time>2022-01-02T08:39:33.174Z</time>
      </trkpt>
      <trkpt lat="44.0425" lon="6.03095">
        <ele>447.39999389648</ele>
        <time>2022-01-02T08:39:36.854Z</time>
      </trkpt>
      <trkpt lat="44.04249" lon="6.03098">
        <ele>447.60000610352</ele>
        <time>2022-01-02T08:39:40.535Z</time>
      </trkpt>
      <trkpt lat="44.04239" lon="6.03123">
        <ele>448.20001220703</ele>
        <time>2022-01-02T08:39:44.223Z</time>
      </trkpt>
      <trkpt lat="44.04237" lon="6.03126">
        <ele>448.39999389648</ele>
        <time>2022-01-02T08:39:47.912Z</time>
      </trkpt>
      <trkpt lat="44.04231" lon="6.03145">
        <ele>449</ele>
        <time>2022-01-02T08:39:51.606Z</time>
      </trkpt>
      <trkpt lat="44.04228" lon="6.0316">
        <ele>449.39999389648</ele>
        <time>2022-01-02T08:39:55.304Z</time>
      </trkpt>
      <trkpt lat="44.04227" lon="6.03166">
        <ele>449.60000610352</ele>
        <time>2022-01-02T08:39:59.004Z</time>
      </trkpt>
      <trkpt lat="44.04224" lon="6.03183">
        <ele>450.39999389648</ele>
        <time>2022-01-02T08:40:02.708Z</time>
      </trkpt>
      <trkpt lat="44.04223" lon="6.0319">
        <ele>450.60000610352</ele>
        <time>2022-01-02T08:40:06.414Z</time>
      </trkpt>
      <trkpt lat="44.0422" lon="6.03205">
        <ele>451.39999389648</ele>
        <time>2022-01-02T08:40:10.124Z</time>
      </trkpt>
      <trkpt lat="44.04218" lon="6.03215">
        <ele>451.79998779297</ele>
        <time>2022-01-02T08:40:13.837Z</time>
      </trkpt>
      <trkpt lat="44.0421" lon="6.03237">
        <ele>452.60000610352</ele>
        <time>2022-01-02T08:40:17.556Z</time>
      </trkpt>
      <trkpt lat="44.04208" lon="6.03239">
        <ele>452.60000610352</ele>
        <time>2022-01-02T08:40:21.276Z</time>
      </trkpt>
      <trkpt lat="44.04196" lon="6.03252">
        <ele>453.60000610352</ele>
        <time>2022-01-02T08:40:25.001Z</time>
      </trkpt>
      <trkpt lat="44.04192" lon="6.03257">
        <ele>453.79998779297</ele>
        <time>2022-01-02T08:40:28.728Z</time>
      </trkpt>
      <trkpt lat="44.04187" lon="6.03268">
        <ele>454.20001220703</ele>
        <time>2022-01-02T08:40:32.458Z</time>
      </trkpt>
      <trkpt lat="44.04187" lon="6.03275">
        <ele>454.20001220703</ele>
        <time>2022-01-02T08:40:36.190Z</time>
      </trkpt>
      <trkpt lat="44.04189" lon="6.03285">
        <ele>454.60000610352</ele>
        <time>2022-01-02T08:40:39.924Z</time>
      </trkpt>
      <trkpt lat="44.04195" lon="6.03307">
        <ele>455.60000610352</ele>
        <time>2022-01-02T08:40:43.664Z</time>
      </trkpt>
      <trkpt lat="44.04196" lon="6.03314">
        <ele>455.79998779297</ele>
        <time>2022-01-02T08:40:47.406Z</time>
      </trkpt>
      <trkpt lat="44.04196" lon="6.03337">
        <ele>456.60000610352</ele>
        <time>2022-01-02T08:40:51.154Z</time>
      </trkpt>
      <trkpt lat="44.04195" lon="6.03341">
        <ele>456.60000610352</ele>
        <time>2022-01-02T08:40:54.903Z</time>
      </trkpt>
      <trkpt lat="44.04194" lon="6.0336">
        <ele>457.39999389648</ele>
        <time>2022-01-02T08:40:58.657Z</time>
      </trkpt>
      <trkpt lat="44.04193" lon="6.03367">
        <ele>457.79998779297</ele>
        <time>2022-01-02T08:41:02.413Z</time>
      </trkpt>
      <trkpt lat="44.04192" lon="6.03387">
        <ele>458.60000610352</ele>
        <time>2022-01-02T08:41:06.174Z</time>
      </trkpt>
      <trkpt lat="44.04192" lon="6.0339">
        <ele>458.79998779297</ele>
        <time>2022-01-02T08:41:09.935Z</time>
      </trkpt>
      <trkpt lat="44.04191" lon="6.03406">
        <ele>459.60000610352</ele>
        <time>2022-01-02T08:41:13.700Z</time>
      </trkpt>
      <trkpt lat="44.04191" lon="6.03412">
        <ele>459.79998779297</ele>
        <time>2022-01-02T08:41:17.467Z</time>
      </trkpt>
      <trkpt lat="44.0419" lon="6.03423">
        <ele>460.20001220703</ele>
        <time>2022-01-02T08:41:21.237Z</time>
      </trkpt>
      <trkpt lat="44.04189" lon="6.0344">
        <ele>460.60000610352</ele>
        <time>2022-01-02T08:41:25.011Z</time>
      </trkpt>
      <trkpt lat="44.04188" lon="6.03451">
        <ele>461</ele>
        <time>2022-01-02T08:41:28.788Z</time>
      </trkpt>
      <trkpt lat="44.04186" lon="6.03471">
        <ele>461.79998779297</ele>
        <time>2022-01-02T08:41:32.570Z</time>
      </trkpt>
      <trkpt lat="44.04186" lon="6.03474">
        <ele>462</ele>
        <time>2022-01-02T08:41:36.353Z</time>
      </trkpt>
      <trkpt lat="44.04183" lon="6.03491">
        <ele>462.60000610352</ele>
        <time>2022-01-02T08:41:40.140Z</time>
      </trkpt>
      <trkpt lat="44.04182" lon="6.03497">
        <ele>463</ele>
        <time>2022-01-02T08:41:43.929Z</time>
      </trkpt>
      <trkpt lat="44.0418" lon="6.03513">
        <ele>463.60000610352</ele>
        <time>2022-01-02T08:41:47.722Z</time>
      </trkpt>
      <trkpt lat="44.04179" lon="6.03519">
        <ele>464.20001220703</ele>
        <time>2022-01-02T08:41:51.516Z</time>
      </trkpt>
      <trkpt lat="44.04179" lon="6.03529">
        <ele>464.39999389648</ele>
        <time>2022-01-02T08:41:55.313Z</time>
      </trkpt>
      <trkpt lat="44.04175" lon="6.03552">
        <ele>465.20001220703</ele>
        <time>2022-01-02T08:41:59.116Z</time>
      </trkpt>
      <trkpt lat="44.04174" lon="6.03555">
        <ele>465.20001220703</ele>
        <time>2022-01-02T08:42:02.920Z</time>
      </trkpt>
      <trkpt lat="44.04164" lon="6.03575">
        <ele>466</ele>
        <time>2022-01-02T08:42:06.730Z</time>
      </trkpt>
      <trkpt lat="44.04162" lon="6.03585">
        <ele>466.20001220703</ele>
        <time>2022-01-02T08:42:10.542Z</time>
      </trkpt>
      <trkpt lat="44.04162" lon="6.03595">
        <ele>466.20001220703</ele>
        <time>2022-01-02T08:42:14.357Z</time>
      </trkpt>
      <trkpt lat="44.0417" lon="6.0361">
        <ele>466.79998779297</ele>
        <time>2022-01-02T08:42:18.177Z</time>
      </trkpt>
      <trkpt lat="44.04171" lon="6.03613">
        <ele>467</ele>
        <time>2022-01-02T08:42:21.997Z</time>
      </trkpt>
      <trkpt lat="44.04176" lon="6.03622">
        <ele>467.20001220703</ele>
        <time>2022-01-02T08:42:25.820Z</time>
      </trkpt>
      <trkpt lat="44.0418" lon="6.03635">
        <ele>467.60000610352</ele>
        <time>2022-01-02T08:42:29.647Z</time>
      </trkpt>
      <trkpt lat="44.0418" lon="6.03659">
        <ele>468.39999389648</ele>
        <time>2022-01-02T08:42:33.480Z</time>
      </trkpt>
      <trkpt lat="44.04178" lon="6.03682">
        <ele>469.60000610352</ele>
        <time>2022-01-02T08:42:37.319Z</time>
      </trkpt>
      <trkpt lat="44.04177" lon="6.03685">
        <ele>469.60000610352</ele>
        <time>2022-01-02T08:42:41.159Z</time>
      </trkpt>
      <trkpt lat="44.04171" lon="6.03712">
        <ele>470.60000610352</ele>
        <time>2022-01-02T08:42:45.006Z</time>
      </trkpt>
      <trkpt lat="44.04161" lon="6.03736">
        <ele>471.60000610352</ele>
        <time>2022-01-02T08:42:48.860Z</time>
      </trkpt>
      <trkpt lat="44.04152" lon="6.03756">
        <ele>472.60000610352</ele>
        <time>2022-01-02T08:42:52.720Z</time>
      </trkpt>
      <trkpt lat="44.04155" lon="6.03777">
        <ele>473</ele>
        <time>2022-01-02T08:42:56.585Z</time>
      </trkpt>
      <trkpt lat="44.04159" lon="6.03802">
        <ele>473.60000610352</ele>
        <time>2022-01-02T08:43:00.456Z</time>
      </trkpt>
      <trkpt lat="44.04154" lon="6.03834">
        <ele>474.79998779297</ele>
        <time>2022-01-02T08:43:04.336Z</time>
      </trkpt>
      <trkpt lat="44.04144" lon="6.03858">
        <ele>475.79998779297</ele>
        <time>2022-01-02T08:43:08.223Z</time>
      </trkpt>
      <trkpt lat="44.04143" lon="6.03861">
        <ele>475.79998779297</ele>
        <time>2022-01-02T08:43:12.111Z</time>
      </trkpt>
      <trkpt lat="44.04143" lon="6.03876">
        <ele>476.20001220703</ele>
        <time>2022-01-02T08:43:16.002Z</time>
      </trkpt>
      <trkpt lat="44.04142" lon="6.0389">
        <ele>477</ele>
        <time>2022-01-02T08:43:19.897Z</time>
      </trkpt>
      <trkpt lat="44.0414" lon="6.03903">
        <ele>477.39999389648</ele>
        <time>2022-01-02T08:43:23.795Z</time>
      </trkpt>
      <trkpt lat="44.04135" lon="6.03922">
        <ele>478</ele>
        <time>2022-01-02T08:43:27.698Z</time>
      </trkpt>
      <trkpt lat="44.04133" lon="6.03933">
        <ele>478.60000610352</ele>
        <time>2022-01-02T08:43:31.604Z</time>
      </trkpt>
      <trkpt lat="44.04128" lon="6.03952">
        <ele>479.20001220703</ele>
        <time>2022-01-02T08:43:35.515Z</time>
      </trkpt>
      <trkpt lat="44.04125" lon="6.03969">
        <ele>479.79998779297</ele>
        <time>2022-01-02T08:43:39.431Z</time>
      </trkpt>
      <trkpt lat="44.04123" lon="6.03979">
        <ele>480.39999389648</ele>
        <time>2022-01-02T08:43:43.349Z</time>
      </trkpt>
      <trkpt lat="44.0412" lon="6.04001">
        <ele>481</ele>
        <time>2022-01-02T08:43:47.273Z</time>
      </trkpt>
      <trkpt lat="44.0412" lon="6.04008">
        <ele>481.39999389648</ele>
        <time>2022-01-02T08:43:51.199Z</time>
      </trkpt>
      <trkpt lat="44.04116" lon="6.04033">
        <ele>482.39999389648</ele>
        <time>2022-01-02T08:43:55.131Z</time>
      </trkpt>
      <trkpt lat="44.04116" lon="6.04037">
        <ele>482.60000610352</ele>
        <time>2022-01-02T08:43:59.064Z</time>
      </trkpt>
      <trkpt lat="44.04112" lon="6.04062">
        <ele>483.79998779297</ele>
        <time>2022-01-02T08:44:03.003Z</time>
      </trkpt>
      <trkpt lat="44.0411" lon="6.04069">
        <ele>484</ele>
        <time>2022-01-02T08:44:06.944Z</time>
      </trkpt>
      <trkpt lat="44.04105" lon="6.04086">
        <ele>484.20001220703</ele>
        <time>2022-01-02T08:44:10.890Z</time>
      </trkpt>
      <trkpt lat="44.04099" lon="6.04094">
        <ele>484.60000610352</ele>
        <time>2022-01-02T08:44:14.839Z</time>
      </trkpt>
      <trkpt lat="44.04083" lon="6.04101">
        <ele>485.39999389648</ele>
        <time>2022-01-02T08:44:18.794Z</time>
      </trkpt>
      <trkpt lat="44.04077" lon="6.041">
        <ele>485.60000610352</ele>
        <time>2022-01-02T08:44:22.751Z</time>
      </trkpt>
      <trkpt lat="44.04063" lon="6.04096">
        <ele>486.20001220703</ele>
        <time>2022-01-02T08:44:26.713Z</time>
      </trkpt>
      <trkpt lat="44.04052" lon="6.04093">
        <ele>486.79998779297</ele>
        <time>2022-01-02T08:44:30.679Z</time>
      </trkpt>
      <trkpt lat="44.04044" lon="6.04091">
        <ele>487.20001220703</ele>
        <time>2022-01-02T08:44:34.647Z</time>
      </trkpt>
      <trkpt lat="44.04036" lon="6.0409">
        <ele>487.79998779297</ele>
        <time>2022-01-02T08:44:38.618Z</time>
      </trkpt>
      <trkpt lat="44.04025" lon="6.04089">
        <ele>488.20001220703</ele>
        <time>2022-01-02T08:44:42.593Z</time>
      </trkpt>
      <trkpt lat="44.04016" lon="6.04088">
        <ele>488.79998779297</ele>
        <time>2022-01-02T08:44:46.571Z</time>
      </trkpt>
      <trkpt lat="44.04003" lon="6.04088">
        <ele>489.20001220703</ele>
        <time>2022-01-02T08:44:50.554Z</time>
      </trkpt>
      <trkpt lat="44.03993" lon="6.04089">
        <ele>489.79998779297</ele>
        <time>2022-01-02T08:44:54.540Z</time>
      </trkpt>
      <trkpt lat="44.03991" lon="6.04087">
        <ele>490.20001220703</ele>
        <time>2022-01-02T08:44:58.527Z</time>
      </trkpt>
      <trkpt lat="44.03992" lon="6.04079">
        <ele>490.60000610352</ele>
        <time>2022-01-02T08:45:02.517Z</time>
      </trkpt>
      <trkpt lat="44.03995" lon="6.04077">
        <ele>491</ele>
        <time>2022-01-02T08:45:06.508Z</time>
      </trkpt>
      <trkpt lat="44.04" lon="6.04077">
        <ele>491.39999389648</ele>
        <time>2022-01-02T08:45:10.501Z</time>
      </trkpt>
      <trkpt lat="44.04003" lon="6.04077">
        <ele>491.79998779297</ele>
        <time>2022-01-02T08:45:14.495Z</time>
      </trkpt>
      <trkpt lat="44.04006" lon="6.04077">
        <ele>492.20001220703</ele>
        <time>2022-01-02T08:45:18.490Z</time>
      </trkpt>
      <trkpt lat="44.04019" lon="6.04076">
        <ele>493.39999389648</ele>
        <time>2022-01-02T08:45:22.489Z</time>
      </trkpt>
      <trkpt lat="44.04034" lon="6.04074">
        <ele>494</ele>
        <time>2022-01-02T08:45:26.493Z</time>
      </trkpt>
      <trkpt lat="44.04039" lon="6.04073">
        <ele>494.39999389648</ele>
        <time>2022-01-02T08:45:30.499Z</time>
      </trkpt>
      <trkpt lat="44.04052" lon="6.04071">
        <ele>495</ele>
        <time>2022-01-02T08:45:34.510Z</time>
      </trkpt>
      <trkpt lat="44.04057" lon="6.04071">
        <ele>495.60000610352</ele>
        <time>2022-01-02T08:45:38.522Z</time>
      </trkpt>
      <trkpt lat="44.04069" lon="6.0407">
        <ele>496.60000610352</ele>
        <time>2022-01-02T08:45:42.539Z</time>
      </trkpt>
      <trkpt lat="44.04071" lon="6.0407">
        <ele>496.79998779297</ele>
        <time>2022-01-02T08:45:46.556Z</time>
      </trkpt>
      <trkpt lat="44.0408" lon="6.04068">
        <ele>497.60000610352</ele>
        <time>2022-01-02T08:45:50.577Z</time>
      </trkpt>
      <trkpt lat="44.04084" lon="6.04064">
        <ele>498.20001220703</ele>
        <time>2022-01-02T08:45:54.599Z</time>
      </trkpt>
      <trkpt lat="44.04087" lon="6.04058">
        <ele>498.79998779297</ele>
        <time>2022-01-02T08:45:58.623Z</time>
      </trkpt>
      <trkpt lat="44.04088" lon="6.04048">
        <ele>499.39999389648</ele>
        <time>2022-01-02T08:46:02.650Z</time>
      </trkpt>
      <trkpt lat="44.04089" lon="6.04045">
        <ele>500</ele>
        <time>2022-01-02T08:46:06.677Z</time>
      </trkpt>
      <trkpt lat="44.04089" lon="6.04035">
        <ele>501</ele>
        <time>2022-01-02T08:46:10.707Z</time>
      </trkpt>
      <trkpt lat="44.04089" lon="6.04028">
        <ele>501.39999389648</ele>
        <time>2022-01-02T08:46:14.739Z</time>
      </trkpt>
      <trkpt lat="44.04089" lon="6.04014">
        <ele>502.20001220703</ele>
        <time>2022-01-02T08:46:18.774Z</time>
      </trkpt>
      <trkpt lat="44.0409" lon="6.03993">
        <ele>503.20001220703</ele>
        <time>2022-01-02T08:46:22.815Z</time>
      </trkpt>
      <trkpt lat="44.04091" lon="6.03973">
        <ele>504.20001220703</ele>
        <time>2022-01-02T08:46:26.861Z</time>
      </trkpt>
      <trkpt lat="44.04092" lon="6.03956">
        <ele>505.39999389648</ele>
        <time>2022-01-02T08:46:30.911Z</time>
      </trkpt>
      <trkpt lat="44.04093" lon="6.03953">
        <ele>505.39999389648</ele>
        <time>2022-01-02T08:46:34.962Z</time>
      </trkpt>
      <trkpt lat="44.04093" lon="6.03932">
        <ele>506.60000610352</ele>
        <time>2022-01-02T08:46:39.018Z</time>
      </trkpt>
      <trkpt lat="44.04093" lon="6.03923">
        <ele>507</ele>
        <time>2022-01-02T08:46:43.076Z</time>
      </trkpt>
      <trkpt lat="44.04093" lon="6.03913">
        <ele>507.79998779297</ele>
        <time>2022-01-02T08:46:47.137Z</time>
      </trkpt>
      <trkpt lat="44.04093" lon="6.03906">
        <ele>508.79998779297</ele>
        <time>2022-01-02T08:46:51.199Z</time>
      </trkpt>
      <trkpt lat="44.04092" lon="6.03897">
        <ele>509.79998779297</ele>
        <time>2022-01-02T08:46:55.264Z</time>
      </trkpt>
      <trkpt lat="44.04091" lon="6.03894">
        <ele>510</ele>
        <time>2022-01-02T08:46:59.330Z</time>
      </trkpt>
      <trkpt lat="44.04087" lon="6.03887">
        <ele>510.39999389648</ele>
        <time>2022-01-02T08:47:03.398Z</time>
      </trkpt>
      <trkpt lat="44.04085" lon="6.03885">
        <ele>510.60000610352</ele>
        <time>2022-01-02T08:47:07.467Z</time>
      </trkpt>
      <trkpt lat="44.04081" lon="6.03883">
        <ele>511</ele>
        <time>2022-01-02T08:47:11.537Z</time>
      </trkpt>
      <trkpt lat="44.04079" lon="6.03882">
        <ele>511.20001220703</ele>
        <time>2022-01-02T08:47:15.608Z</time>
      </trkpt>
      <trkpt lat="44.04072" lon="6.03881">
        <ele>512.20001220703</ele>
        <time>2022-01-02T08:47:19.681Z</time>
      </trkpt>
      <trkpt lat="44.0407" lon="6.0388">
        <ele>512.40002441406</ele>
        <time>2022-01-02T08:47:23.755Z</time>
      </trkpt>
      <trkpt lat="44.04064" lon="6.03877">
        <ele>513.20001220703</ele>
        <time>2022-01-02T08:47:27.832Z</time>
      </trkpt>
      <trkpt lat="44.04055" lon="6.03872">
        <ele>514.40002441406</ele>
        <time>2022-01-02T08:47:31.912Z</time>
      </trkpt>
      <trkpt lat="44.04047" lon="6.03867">
        <ele>515.40002441406</ele>
        <time>2022-01-02T08:47:35.995Z</time>
      </trkpt>
      <trkpt lat="44.0404" lon="6.03865">
        <ele>516.40002441406</ele>
        <time>2022-01-02T08:47:40.080Z</time>
      </trkpt>
      <trkpt lat="44.04038" lon="6.03866">
        <ele>516.79998779297</ele>
        <time>2022-01-02T08:47:44.166Z</time>
      </trkpt>
      <trkpt lat="44.04033" lon="6.03866">
        <ele>517.79998779297</ele>
        <time>2022-01-02T08:47:48.254Z</time>
      </trkpt>
      <trkpt lat="44.04025" lon="6.0387">
        <ele>519</ele>
        <time>2022-01-02T08:47:52.345Z</time>
      </trkpt>
      <trkpt lat="44.04018" lon="6.03874">
        <ele>520</ele>
        <time>2022-01-02T08:47:56.438Z</time>
      </trkpt>
      <trkpt lat="44.04012" lon="6.03877">
        <ele>521.20001220703</ele>
        <time>2022-01-02T08:48:00.534Z</time>
      </trkpt>
      <trkpt lat="44.04006" lon="6.0388">
        <ele>522.20001220703</ele>
        <time>2022-01-02T08:48:04.632Z</time>
      </trkpt>
      <trkpt lat="44.03997" lon="6.03885">
        <ele>523.40002441406</ele>
        <time>2022-01-02T08:48:08.733Z</time>
      </trkpt>
      <trkpt lat="44.03993" lon="6.03887">
        <ele>524</ele>
        <time>2022-01-02T08:48:12.836Z</time>
      </trkpt>
      <trkpt lat="44.03989" lon="6.0389">
        <ele>524.59997558594</ele>
        <time>2022-01-02T08:48:16.940Z</time>
      </trkpt>
      <trkpt lat="44.03985" lon="6.03901">
        <ele>525.20001220703</ele>
        <time>2022-01-02T08:48:21.047Z</time>
      </trkpt>
      <trkpt lat="44.03986" lon="6.03915">
        <ele>525.59997558594</ele>
        <time>2022-01-02T08:48:25.158Z</time>
      </trkpt>
      <trkpt lat="44.03987" lon="6.03922">
        <ele>525.79998779297</ele>
        <time>2022-01-02T08:48:29.271Z</time>
      </trkpt>
      <trkpt lat="44.03991" lon="6.03941">
        <ele>526.79998779297</ele>
        <time>2022-01-02T08:48:33.389Z</time>
      </trkpt>
      <trkpt lat="44.03992" lon="6.03951">
        <ele>527.40002441406</ele>
        <time>2022-01-02T08:48:37.509Z</time>
      </trkpt>
      <trkpt lat="44.03992" lon="6.03954">
        <ele>527.79998779297</ele>
        <time>2022-01-02T08:48:41.630Z</time>
      </trkpt>
      <trkpt lat="44.03989" lon="6.03966">
        <ele>528.79998779297</ele>
        <time>2022-01-02T08:48:45.754Z</time>
      </trkpt>
      <trkpt lat="44.03988" lon="6.03968">
        <ele>529</ele>
        <time>2022-01-02T08:48:49.879Z</time>
      </trkpt>
      <trkpt lat="44.03978" lon="6.03972">
        <ele>529.59997558594</ele>
        <time>2022-01-02T08:48:54.008Z</time>
      </trkpt>
      <trkpt lat="44.03969" lon="6.03973">
        <ele>529.79998779297</ele>
        <time>2022-01-02T08:48:58.140Z</time>
      </trkpt>
      <trkpt lat="44.03956" lon="6.03974">
        <ele>531</ele>
        <time>2022-01-02T08:49:02.276Z</time>
      </trkpt>
      <trkpt lat="44.0394" lon="6.03976">
        <ele>532</ele>
        <time>2022-01-02T08:49:06.418Z</time>
      </trkpt>
      <trkpt lat="44.03925" lon="6.03977">
        <ele>533</ele>
        <time>2022-01-02T08:49:10.565Z</time>
      </trkpt>
      <trkpt lat="44.03923" lon="6.03977">
        <ele>533</ele>
        <time>2022-01-02T08:49:14.713Z</time>
      </trkpt>
      <trkpt lat="44.03903" lon="6.03976">
        <ele>534.20001220703</ele>
        <time>2022-01-02T08:49:18.868Z</time>
      </trkpt>
      <trkpt lat="44.03898" lon="6.03976">
        <ele>534.40002441406</ele>
        <time>2022-01-02T08:49:23.025Z</time>
      </trkpt>
      <trkpt lat="44.03883" lon="6.03974">
        <ele>535.20001220703</ele>
        <time>2022-01-02T08:49:27.187Z</time>
      </trkpt>
      <trkpt lat="44.03878" lon="6.03973">
        <ele>535.59997558594</ele>
        <time>2022-01-02T08:49:31.351Z</time>
      </trkpt>
      <trkpt lat="44.03858" lon="6.03971">
        <ele>536.40002441406</ele>
        <time>2022-01-02T08:49:35.522Z</time>
      </trkpt>
      <trkpt lat="44.03855" lon="6.03971">
        <ele>536.59997558594</ele>
        <time>2022-01-02T08:49:39.694Z</time>
      </trkpt>
      <trkpt lat="44.03837" lon="6.0397">
        <ele>537.40002441406</ele>
        <time>2022-01-02T08:49:43.872Z</time>
      </trkpt>
      <trkpt lat="44.03824" lon="6.03968">
        <ele>537.79998779297</ele>
        <time>2022-01-02T08:49:48.054Z</time>
      </trkpt>
      <trkpt lat="44.03812" lon="6.03966">
        <ele>538.40002441406</ele>
        <time>2022-01-02T08:49:52.241Z</time>
      </trkpt>
      <trkpt lat="44.03794" lon="6.03963">
        <ele>539.40002441406</ele>
        <time>2022-01-02T08:49:56.434Z</time>
      </trkpt>
      <trkpt lat="44.03792" lon="6.03963">
        <ele>539.59997558594</ele>
        <time>2022-01-02T08:50:00.628Z</time>
      </trkpt>
      <trkpt lat="44.03779" lon="6.03961">
        <ele>540.59997558594</ele>
        <time>2022-01-02T08:50:04.826Z</time>
      </trkpt>
      <trkpt lat="44.03774" lon="6.0396">
        <ele>541</ele>
        <time>2022-01-02T08:50:09.026Z</time>
      </trkpt>
      <trkpt lat="44.03762" lon="6.03958">
        <ele>541.79998779297</ele>
        <time>2022-01-02T08:50:13.230Z</time>
      </trkpt>
      <trkpt lat="44.03753" lon="6.03953">
        <ele>542.59997558594</ele>
        <time>2022-01-02T08:50:17.438Z</time>
      </trkpt>
      <trkpt lat="44.03749" lon="6.03951">
        <ele>543</ele>
        <time>2022-01-02T08:50:21.647Z</time>
      </trkpt>
      <trkpt lat="44.03738" lon="6.03939">
        <ele>544</ele>
        <time>2022-01-02T08:50:25.861Z</time>
      </trkpt>
      <trkpt lat="44.03729" lon="6.03926">
        <ele>545</ele>
        <time>2022-01-02T08:50:30.080Z</time>
      </trkpt>
      <trkpt lat="44.03722" lon="6.03917">
        <ele>545.59997558594</ele>
        <time>2022-01-02T08:50:34.302Z</time>
      </trkpt>
      <trkpt lat="44.03715" lon="6.03908">
        <ele>546.40002441406</ele>
        <time>2022-01-02T08:50:38.527Z</time>
      </trkpt>
      <trkpt lat="44.0371" lon="6.03894">
        <ele>547.20001220703</ele>
        <time>2022-01-02T08:50:42.756Z</time>
      </trkpt>
      <trkpt lat="44.03709" lon="6.03891">
        <ele>547.40002441406</ele>
        <time>2022-01-02T08:50:46.986Z</time>
      </trkpt>
      <trkpt lat="44.0371" lon="6.03879">
        <ele>548.20001220703</ele>
        <time>2022-01-02T08:50:51.219Z</time>
      </trkpt>
      <trkpt lat="44.0371" lon="6.03873">
        <ele>548.59997558594</ele>
        <time>2022-01-02T08:50:55.454Z</time>
      </trkpt>
      <trkpt lat="44.03709" lon="6.0387">
        <ele>548.59997558594</ele>
        <time>2022-01-02T08:50:59.689Z</time>
      </trkpt>
      <trkpt lat="44.03705" lon="6.03869">
        <ele>549</ele>
        <time>2022-01-02T08:51:03.926Z</time>
      </trkpt>
      <trkpt lat="44.03701" lon="6.03868">
        <ele>549.59997558594</ele>
        <time>2022-01-02T08:51:08.164Z</time>
      </trkpt>
      <trkpt lat="44.03699" lon="6.03867">
        <ele>549.79998779297</ele>
        <time>2022-01-02T08:51:12.403Z</time>
      </trkpt>
      <trkpt lat="44.03697" lon="6.03863">
        <ele>550.59997558594</ele>
        <time>2022-01-02T08:51:16.643Z</time>
      </trkpt>
      <trkpt lat="44.03696" lon="6.03861">
        <ele>550.79998779297</ele>
        <time>2022-01-02T08:51:20.884Z</time>
      </trkpt>
      <trkpt lat="44.03693" lon="6.03853">
        <ele>551.79998779297</ele>
        <time>2022-01-02T08:51:25.127Z</time>
      </trkpt>
      <trkpt lat="44.03692" lon="6.03851">
        <ele>552.20001220703</ele>
        <time>2022-01-02T08:51:29.371Z</time>
      </trkpt>
      <trkpt lat="44.03687" lon="6.03848">
        <ele>553.40002441406</ele>
        <time>2022-01-02T08:51:33.617Z</time>
      </trkpt>
      <trkpt lat="44.03685" lon="6.03846">
        <ele>553.79998779297</ele>
        <time>2022-01-02T08:51:37.863Z</time>
      </trkpt>
      <trkpt lat="44.03682" lon="6.03843">
        <ele>554.79998779297</ele>
        <time>2022-01-02T08:51:42.111Z</time>
      </trkpt>
      <trkpt lat="44.0368" lon="6.0384">
        <ele>555.20001220703</ele>
        <time>2022-01-02T08:51:46.360Z</time>
      </trkpt>
      <trkpt lat="44.03678" lon="6.03839">
        <ele>555.79998779297</ele>
        <time>2022-01-02T08:51:50.609Z</time>
      </trkpt>
      <trkpt lat="44.03673" lon="6.03836">
        <ele>557</ele>
        <time>2022-01-02T08:51:54.860Z</time>
      </trkpt>
      <trkpt lat="44.03669" lon="6.03834">
        <ele>558</ele>
        <time>2022-01-02T08:51:59.113Z</time>
      </trkpt>
      <trkpt lat="44.03667" lon="6.03833">
        <ele>558.40002441406</ele>
        <time>2022-01-02T08:52:03.367Z</time>
      </trkpt>
      <trkpt lat="44.03665" lon="6.03833">
        <ele>559</ele>
        <time>2022-01-02T08:52:07.622Z</time>
      </trkpt>
      <trkpt lat="44.03661" lon="6.03831">
        <ele>560.40002441406</ele>
        <time>2022-01-02T08:52:11.878Z</time>
      </trkpt>
      <trkpt lat="44.03656" lon="6.03829">
        <ele>561.40002441406</ele>
        <time>2022-01-02T08:52:16.136Z</time>
      </trkpt>
      <trkpt lat="44.03652" lon="6.03826">
        <ele>562.40002441406</ele>
        <time>2022-01-02T08:52:20.395Z</time>
      </trkpt>
      <trkpt lat="44.03648" lon="6.03824">
        <ele>563.59997558594</ele>
        <time>2022-01-02T08:52:24.656Z</time>
      </trkpt>
      <trkpt lat="44.03642" lon="6.0382">
        <ele>564.79998779297</ele>
        <time>2022-01-02T08:52:28.919Z</time>
      </trkpt>
      <trkpt lat="44.03641" lon="6.03816">
        <ele>566</ele>
        <time>2022-01-02T08:52:33.183Z</time>
      </trkpt>
      <trkpt lat="44.0364" lon="6.03812">
        <ele>567</ele>
        <time>2022-01-02T08:52:37.448Z</time>
      </trkpt>
      <trkpt lat="44.03638" lon="6.03807">
        <ele>568.20001220703</ele>
        <time>2022-01-02T08:52:41.714Z</time>
      </trkpt>
      <trkpt lat="44.03638" lon="6.03805">
        <ele>569</ele>
        <time>2022-01-02T08:52:45.981Z</time>
      </trkpt>
      <trkpt lat="44.03637" lon="6.03802">
        <ele>569.40002441406</ele>
        <time>2022-01-02T08:52:50.249Z</time>
      </trkpt>
      <trkpt lat="44.03634" lon="6.03798">
        <ele>570.40002441406</ele>
        <time>2022-01-02T08:52:54.518Z</time>
      </trkpt>
      <trkpt lat="44.03631" lon="6.03795">
        <ele>571.20001220703</ele>
        <time>2022-01-02T08:52:58.789Z</time>
      </trkpt>
      <trkpt lat="44.03629" lon="6.03793">
        <ele>571.59997558594</ele>
        <time>2022-01-02T08:53:03.060Z</time>
      </trkpt>
      <trkpt lat="44.03625" lon="6.03791">
        <ele>572.79998779297</ele>
        <time>2022-01-02T08:53:07.333Z</time>
      </trkpt>
      <trkpt lat="44.03621" lon="6.03789">
        <ele>574</ele>
        <time>2022-01-02T08:53:11.607Z</time>
      </trkpt>
      <trkpt lat="44.03619" lon="6.03788">
        <ele>574.40002441406</ele>
        <time>2022-01-02T08:53:15.882Z</time>
      </trkpt>
      <trkpt lat="44.03615" lon="6.03787">
        <ele>575.59997558594</ele>
        <time>2022-01-02T08:53:20.159Z</time>
      </trkpt>
      <trkpt lat="44.03609" lon="6.03783">
        <ele>577.20001220703</ele>
        <time>2022-01-02T08:53:24.438Z</time>
      </trkpt>
      <trkpt lat="44.03608" lon="6.03782">
        <ele>577.79998779297</ele>
        <time>2022-01-02T08:53:28.717Z</time>
      </trkpt>
      <trkpt lat="44.03606" lon="6.0378">
        <ele>578.59997558594</ele>
        <time>2022-01-02T08:53:32.997Z</time>
      </trkpt>
      <trkpt lat="44.03602" lon="6.03778">
        <ele>579.59997558594</ele>
        <time>2022-01-02T08:53:37.279Z</time>
      </trkpt>
      <trkpt lat="44.036" lon="6.03777">
        <ele>580</ele>
        <time>2022-01-02T08:53:41.561Z</time>
      </trkpt>
      <trkpt lat="44.03599" lon="6.03775">
        <ele>580.40002441406</ele>
        <time>2022-01-02T08:53:45.844Z</time>
      </trkpt>
      <trkpt lat="44.03597" lon="6.03774">
        <ele>580.79998779297</ele>
        <time>2022-01-02T08:53:50.128Z</time>
      </trkpt>
      <trkpt lat="44.0359" lon="6.03772">
        <ele>582.40002441406</ele>
        <time>2022-01-02T08:53:54.414Z</time>
      </trkpt>
      <trkpt lat="44.03588" lon="6.03771">
        <ele>582.59997558594</ele>
        <time>2022-01-02T08:53:58.701Z</time>
      </trkpt>
      <trkpt lat="44.03582" lon="6.03769">
        <ele>583.40002441406</ele>
        <time>2022-01-02T08:54:02.990Z</time>
      </trkpt>
      <trkpt lat="44.0358" lon="6.03768">
        <ele>583.79998779297</ele>
        <time>2022-01-02T08:54:07.280Z</time>
      </trkpt>
      <trkpt lat="44.03576" lon="6.03765">
        <ele>584.59997558594</ele>
        <time>2022-01-02T08:54:11.571Z</time>
      </trkpt>
      <trkpt lat="44.03574" lon="6.03765">
        <ele>584.79998779297</ele>
        <time>2022-01-02T08:54:15.863Z</time>
      </trkpt>
      <trkpt lat="44.03573" lon="6.03764">
        <ele>585</ele>
        <time>2022-01-02T08:54:20.156Z</time>
      </trkpt>
      <trkpt lat="44.03566" lon="6.03759">
        <ele>585.79998779297</ele>
        <time>2022-01-02T08:54:24.451Z</time>
      </trkpt>
      <trkpt lat="44.03565" lon="6.03758">
        <ele>586</ele>
        <time>2022-01-02T08:54:28.747Z</time>
      </trkpt>
      <trkpt lat="44.03555" lon="6.03756">
        <ele>587</ele>
        <time>2022-01-02T08:54:33.046Z</time>
      </trkpt>
      <trkpt lat="44.03546" lon="6.0375">
        <ele>588.20001220703</ele>
        <time>2022-01-02T08:54:37.349Z</time>
      </trkpt>
      <trkpt lat="44.03538" lon="6.03745">
        <ele>589.59997558594</ele>
        <time>2022-01-02T08:54:41.655Z</time>
      </trkpt>
      <trkpt lat="44.03533" lon="6.03745">
        <ele>590</ele>
        <time>2022-01-02T08:54:45.962Z</time>
      </trkpt>
      <trkpt lat="44.03519" lon="6.03742">
        <ele>590</ele>
        <time>2022-01-02T08:54:50.274Z</time>
      </trkpt>
      <trkpt lat="44.03508" lon="6.03741">
        <ele>589.40002441406</ele>
        <time>2022-01-02T08:54:54.590Z</time>
      </trkpt>
      <trkpt lat="44.03497" lon="6.03736">
        <ele>589.40002441406</ele>
        <time>2022-01-02T08:54:58.910Z</time>
      </trkpt>
      <trkpt lat="44.03484" lon="6.0373">
        <ele>589.79998779297</ele>
        <time>2022-01-02T08:55:03.235Z</time>
      </trkpt>
      <trkpt lat="44.03471" lon="6.0373">
        <ele>590.40002441406</ele>
        <time>2022-01-02T08:55:07.565Z</time>
      </trkpt>
      <trkpt lat="44.03469" lon="6.03729">
        <ele>590.59997558594</ele>
        <time>2022-01-02T08:55:11.895Z</time>
      </trkpt>
      <trkpt lat="44.03466" lon="6.03728">
        <ele>590.79998779297</ele>
        <time>2022-01-02T08:55:16.226Z</time>
      </trkpt>
      <trkpt lat="44.03459" lon="6.03726">
        <ele>591.40002441406</ele>
        <time>2022-01-02T08:55:20.560Z</time>
      </trkpt>
      <trkpt lat="44.03454" lon="6.03725">
        <ele>591.79998779297</ele>
        <time>2022-01-02T08:55:24.896Z</time>
      </trkpt>
      <trkpt lat="44.03446" lon="6.03723">
        <ele>592.40002441406</ele>
        <time>2022-01-02T08:55:29.235Z</time>
      </trkpt>
      <trkpt lat="44.03444" lon="6.03722">
        <ele>592.79998779297</ele>
        <time>2022-01-02T08:55:33.574Z</time>
      </trkpt>
      <trkpt lat="44.03435" lon="6.03718">
        <ele>594.40002441406</ele>
        <time>2022-01-02T08:55:37.917Z</time>
      </trkpt>
      <trkpt lat="44.03433" lon="6.03719">
        <ele>594.59997558594</ele>
        <time>2022-01-02T08:55:42.261Z</time>
      </trkpt>
      <trkpt lat="44.03427" lon="6.03719">
        <ele>595.40002441406</ele>
        <time>2022-01-02T08:55:46.606Z</time>
      </trkpt>
      <trkpt lat="44.03423" lon="6.03717">
        <ele>595.79998779297</ele>
        <time>2022-01-02T08:55:50.953Z</time>
      </trkpt>
      <trkpt lat="44.03416" lon="6.03712">
        <ele>596.40002441406</ele>
        <time>2022-01-02T08:55:55.303Z</time>
      </trkpt>
      <trkpt lat="44.03413" lon="6.0371">
        <ele>596.40002441406</ele>
        <time>2022-01-02T08:55:59.654Z</time>
      </trkpt>
      <trkpt lat="44.03409" lon="6.03707">
        <ele>596.20001220703</ele>
        <time>2022-01-02T08:56:04.006Z</time>
      </trkpt>
      <trkpt lat="44.03399" lon="6.03707">
        <ele>595.40002441406</ele>
        <time>2022-01-02T08:56:08.362Z</time>
      </trkpt>
      <trkpt lat="44.03389" lon="6.03707">
        <ele>594.79998779297</ele>
        <time>2022-01-02T08:56:12.721Z</time>
      </trkpt>
      <trkpt lat="44.03381" lon="6.03702">
        <ele>594.40002441406</ele>
        <time>2022-01-02T08:56:17.083Z</time>
      </trkpt>
      <trkpt lat="44.03378" lon="6.03699">
        <ele>594.40002441406</ele>
        <time>2022-01-02T08:56:21.447Z</time>
      </trkpt>
      <trkpt lat="44.03371" lon="6.037">
        <ele>594</ele>
        <time>2022-01-02T08:56:25.813Z</time>
      </trkpt>
      <trkpt lat="44.03353" lon="6.03698">
        <ele>593.20001220703</ele>
        <time>2022-01-02T08:56:30.185Z</time>
      </trkpt>
      <trkpt lat="44.03344" lon="6.03696">
        <ele>592.40002441406</ele>
        <time>2022-01-02T08:56:34.561Z</time>
      </trkpt>
      <trkpt lat="44.0334" lon="6.03694">
        <ele>592</ele>
        <time>2022-01-02T08:56:38.938Z</time>
      </trkpt>
      <trkpt lat="44.03335" lon="6.03692">
        <ele>591.20001220703</ele>
        <time>2022-01-02T08:56:43.317Z</time>
      </trkpt>
      <trkpt lat="44.0333" lon="6.03691">
        <ele>590.79998779297</ele>
        <time>2022-01-02T08:56:47.698Z</time>
      </trkpt>
      <trkpt lat="44.03319" lon="6.0369">
        <ele>589.20001220703</ele>
        <time>2022-01-02T08:56:52.083Z</time>
      </trkpt>
      <trkpt lat="44.03313" lon="6.03686">
        <ele>587</ele>
        <time>2022-01-02T08:56:56.470Z</time>
      </trkpt>
      <trkpt lat="44.03313" lon="6.03682">
        <ele>585.59997558594</ele>
        <time>2022-01-02T08:57:00.858Z</time>
      </trkpt>
      <trkpt lat="44.03313" lon="6.0368">
        <ele>585.20001220703</ele>
        <time>2022-01-02T08:57:05.246Z</time>
      </trkpt>
      <trkpt lat="44.03316" lon="6.03674">
        <ele>584.40002441406</ele>
        <time>2022-01-02T08:57:09.636Z</time>
      </trkpt>
      <trkpt lat="44.03318" lon="6.03672">
        <ele>584</ele>
        <time>2022-01-02T08:57:14.027Z</time>
      </trkpt>
      <trkpt lat="44.03322" lon="6.03669">
        <ele>583.40002441406</ele>
        <time>2022-01-02T08:57:18.420Z</time>
      </trkpt>
      <trkpt lat="44.03326" lon="6.03668">
        <ele>583.20001220703</ele>
        <time>2022-01-02T08:57:22.814Z</time>
      </trkpt>
      <trkpt lat="44.03332" lon="6.03664">
        <ele>583.79998779297</ele>
        <time>2022-01-02T08:57:27.210Z</time>
      </trkpt>
      <trkpt lat="44.03333" lon="6.03663">
        <ele>583.79998779297</ele>
        <time>2022-01-02T08:57:31.607Z</time>
      </trkpt>
      <trkpt lat="44.03329" lon="6.03648">
        <ele>583.20001220703</ele>
        <time>2022-01-02T08:57:36.008Z</time>
      </trkpt>
      <trkpt lat="44.03328" lon="6.03636">
        <ele>581.59997558594</ele>
        <time>2022-01-02T08:57:40.412Z</time>
      </trkpt>
      <trkpt lat="44.03328" lon="6.03629">
        <ele>580.20001220703</ele>
        <time>2022-01-02T08:57:44.818Z</time>
      </trkpt>
      <trkpt lat="44.0333" lon="6.03624">
        <ele>579</ele>
        <time>2022-01-02T08:57:49.225Z</time>
      </trkpt>
      <trkpt lat="44.03332" lon="6.03621">
        <ele>577.79998779297</ele>
        <time>2022-01-02T08:57:53.633Z</time>
      </trkpt>
      <trkpt lat="44.03338" lon="6.03621">
        <ele>576</ele>
        <time>2022-01-02T08:57:58.043Z</time>
      </trkpt>
      <trkpt lat="44.03344" lon="6.03622">
        <ele>575.59997558594</ele>
        <time>2022-01-02T08:58:02.455Z</time>
      </trkpt>
      <trkpt lat="44.03352" lon="6.03618">
        <ele>575</ele>
        <time>2022-01-02T08:58:06.870Z</time>
      </trkpt>
      <trkpt lat="44.03356" lon="6.03615">
        <ele>574.59997558594</ele>
        <time>2022-01-02T08:58:11.287Z</time>
      </trkpt>
      <trkpt lat="44.0336" lon="6.03612">
        <ele>574.20001220703</ele>
        <time>2022-01-02T08:58:15.706Z</time>
      </trkpt>
      <trkpt lat="44.03364" lon="6.03609">
        <ele>573.79998779297</ele>
        <time>2022-01-02T08:58:20.126Z</time>
      </trkpt>
      <trkpt lat="44.03371" lon="6.03604">
        <ele>572.40002441406</ele>
        <time>2022-01-02T08:58:24.549Z</time>
      </trkpt>
      <trkpt lat="44.03378" lon="6.03602">
        <ele>571.20001220703</ele>
        <time>2022-01-02T08:58:28.974Z</time>
      </trkpt>
      <trkpt lat="44.03381" lon="6.036">
        <ele>570.79998779297</ele>
        <time>2022-01-02T08:58:33.400Z</time>
      </trkpt>
      <trkpt lat="44.03384" lon="6.03596">
        <ele>570.20001220703</ele>
        <time>2022-01-02T08:58:37.828Z</time>
      </trkpt>
      <trkpt lat="44.03392" lon="6.03585">
        <ele>569.40002441406</ele>
        <time>2022-01-02T08:58:42.260Z</time>
      </trkpt>
      <trkpt lat="44.03406" lon="6.0357">
        <ele>569.59997558594</ele>
        <time>2022-01-02T08:58:46.698Z</time>
      </trkpt>
      <trkpt lat="44.0342" lon="6.03565">
        <ele>569.59997558594</ele>
        <time>2022-01-02T08:58:51.141Z</time>
      </trkpt>
      <trkpt lat="44.03424" lon="6.03564">
        <ele>569.59997558594</ele>
        <time>2022-01-02T08:58:55.585Z</time>
      </trkpt>
      <trkpt lat="44.0344" lon="6.03559">
        <ele>570</ele>
        <time>2022-01-02T08:59:00.035Z</time>
      </trkpt>
      <trkpt lat="44.03453" lon="6.03562">
        <ele>570.79998779297</ele>
        <time>2022-01-02T08:59:04.490Z</time>
      </trkpt>
      <trkpt lat="44.03456" lon="6.03561">
        <ele>570.79998779297</ele>
        <time>2022-01-02T08:59:08.946Z</time>
      </trkpt>
      <trkpt lat="44.03462" lon="6.03558">
        <ele>570.79998779297</ele>
        <time>2022-01-02T08:59:13.404Z</time>
      </trkpt>
      <trkpt lat="44.03465" lon="6.03559">
        <ele>570.59997558594</ele>
        <time>2022-01-02T08:59:17.863Z</time>
      </trkpt>
      <trkpt lat="44.03474" lon="6.03555">
        <ele>570.40002441406</ele>
        <time>2022-01-02T08:59:22.325Z</time>
      </trkpt>
      <trkpt lat="44.03485" lon="6.03557">
        <ele>570.40002441406</ele>
        <time>2022-01-02T08:59:26.791Z</time>
      </trkpt>
      <trkpt lat="44.03488" lon="6.03556">
        <ele>570.40002441406</ele>
        <time>2022-01-02T08:59:31.258Z</time>
      </trkpt>
      <trkpt lat="44.03505" lon="6.03553">
        <ele>570.40002441406</ele>
        <time>2022-01-02T08:59:35.731Z</time>
      </trkpt>
      <trkpt lat="44.0352" lon="6.03559">
        <ele>570.59997558594</ele>
        <time>2022-01-02T08:59:40.210Z</time>
      </trkpt>
      <trkpt lat="44.03525" lon="6.03571">
        <ele>571.40002441406</ele>
        <time>2022-01-02T08:59:44.692Z</time>
      </trkpt>
      <trkpt lat="44.03529" lon="6.03573">
        <ele>571.59997558594</ele>
        <time>2022-01-02T08:59:49.176Z</time>
      </trkpt>
      <trkpt lat="44.03537" lon="6.03577">
        <ele>571.79998779297</ele>
        <time>2022-01-02T08:59:53.663Z</time>
      </trkpt>
      <trkpt lat="44.03544" lon="6.03587">
        <ele>571.59997558594</ele>
        <time>2022-01-02T08:59:58.153Z</time>
      </trkpt>
      <trkpt lat="44.03547" lon="6.03596">
        <ele>570.40002441406</ele>
        <time>2022-01-02T09:00:02.646Z</time>
      </trkpt>
      <trkpt lat="44.03549" lon="6.03597">
        <ele>569.79998779297</ele>
        <time>2022-01-02T09:00:07.139Z</time>
      </trkpt>
      <trkpt lat="44.03551" lon="6.03599">
        <ele>569.20001220703</ele>
        <time>2022-01-02T09:00:11.633Z</time>
      </trkpt>
      <trkpt lat="44.03555" lon="6.03602">
        <ele>568.20001220703</ele>
        <time>2022-01-02T09:00:16.129Z</time>
      </trkpt>
      <trkpt lat="44.03558" lon="6.03604">
        <ele>567.79998779297</ele>
        <time>2022-01-02T09:00:20.626Z</time>
      </trkpt>
      <trkpt lat="44.03561" lon="6.03607">
        <ele>567.40002441406</ele>
        <time>2022-01-02T09:00:25.124Z</time>
      </trkpt>
      <trkpt lat="44.03565" lon="6.03609">
        <ele>567</ele>
        <time>2022-01-02T09:00:29.624Z</time>
      </trkpt>
      <trkpt lat="44.03569" lon="6.03609">
        <ele>566.40002441406</ele>
        <time>2022-01-02T09:00:34.125Z</time>
      </trkpt>
      <trkpt lat="44.03573" lon="6.03611">
        <ele>565.59997558594</ele>
        <time>2022-01-02T09:00:38.628Z</time>
      </trkpt>
      <trkpt lat="44.03577" lon="6.03615">
        <ele>564.79998779297</ele>
        <time>2022-01-02T09:00:43.132Z</time>
      </trkpt>
      <trkpt lat="44.0358" lon="6.03619">
        <ele>564.20001220703</ele>
        <time>2022-01-02T09:00:47.638Z</time>
      </trkpt>
      <trkpt lat="44.03583" lon="6.03624">
        <ele>563.20001220703</ele>
        <time>2022-01-02T09:00:52.145Z</time>
      </trkpt>
      <trkpt lat="44.03586" lon="6.03629">
        <ele>562</ele>
        <time>2022-01-02T09:00:56.654Z</time>
      </trkpt>
      <trkpt lat="44.0359" lon="6.03633">
        <ele>560.79998779297</ele>
        <time>2022-01-02T09:01:01.165Z</time>
      </trkpt>
      <trkpt lat="44.03601" lon="6.03641">
        <ele>559</ele>
        <time>2022-01-02T09:01:05.680Z</time>
      </trkpt>
      <trkpt lat="44.03611" lon="6.03647">
        <ele>557.40002441406</ele>
        <time>2022-01-02T09:01:10.199Z</time>
      </trkpt>
      <trkpt lat="44.03619" lon="6.03653">
        <ele>555.59997558594</ele>
        <time>2022-01-02T09:01:14.721Z</time>
      </trkpt>
      <trkpt lat="44.03623" lon="6.03656">
        <ele>554.59997558594</ele>
        <time>2022-01-02T09:01:19.245Z</time>
      </trkpt>
      <trkpt lat="44.03627" lon="6.03659">
        <ele>553.79998779297</ele>
        <time>2022-01-02T09:01:23.770Z</time>
      </trkpt>
      <trkpt lat="44.0363" lon="6.03664">
        <ele>553</ele>
        <time>2022-01-02T09:01:28.297Z</time>
      </trkpt>
      <trkpt lat="44.03634" lon="6.03669">
        <ele>552.20001220703</ele>
        <time>2022-01-02T09:01:32.826Z</time>
      </trkpt>
      <trkpt lat="44.03636" lon="6.03673">
        <ele>551</ele>
        <time>2022-01-02T09:01:37.356Z</time>
      </trkpt>
      <trkpt lat="44.03641" lon="6.03678">
        <ele>549.20001220703</ele>
        <time>2022-01-02T09:01:41.888Z</time>
      </trkpt>
      <trkpt lat="44.03647" lon="6.03682">
        <ele>548</ele>
        <time>2022-01-02T09:01:46.422Z</time>
      </trkpt>
      <trkpt lat="44.03654" lon="6.03689">
        <ele>546.59997558594</ele>
        <time>2022-01-02T09:01:50.959Z</time>
      </trkpt>
      <trkpt lat="44.03658" lon="6.03694">
        <ele>545.20001220703</ele>
        <time>2022-01-02T09:01:55.498Z</time>
      </trkpt>
      <trkpt lat="44.0366" lon="6.03694">
        <ele>544.79998779297</ele>
        <time>2022-01-02T09:02:00.038Z</time>
      </trkpt>
      <trkpt lat="44.03662" lon="6.03694">
        <ele>544.20001220703</ele>
        <time>2022-01-02T09:02:04.579Z</time>
      </trkpt>
      <trkpt lat="44.0367" lon="6.03694">
        <ele>543</ele>
        <time>2022-01-02T09:02:09.122Z</time>
      </trkpt>
      <trkpt lat="44.03681" lon="6.0369">
        <ele>541.79998779297</ele>
        <time>2022-01-02T09:02:13.669Z</time>
      </trkpt>
      <trkpt lat="44.03684" lon="6.03686">
        <ele>541.40002441406</ele>
        <time>2022-01-02T09:02:18.218Z</time>
      </trkpt>
      <trkpt lat="44.03687" lon="6.03682">
        <ele>540.79998779297</ele>
        <time>2022-01-02T09:02:22.768Z</time>
      </trkpt>
      <trkpt lat="44.03699" lon="6.03679">
        <ele>539.59997558594</ele>
        <time>2022-01-02T09:02:27.322Z</time>
      </trkpt>
      <trkpt lat="44.03709" lon="6.03672">
        <ele>538.59997558594</ele>
        <time>2022-01-02T09:02:31.880Z</time>
      </trkpt>
      <trkpt lat="44.0372" lon="6.0366">
        <ele>537.40002441406</ele>
        <time>2022-01-02T09:02:36.443Z</time>
      </trkpt>
      <trkpt lat="44.03731" lon="6.03649">
        <ele>536.40002441406</ele>
        <time>2022-01-02T09:02:41.011Z</time>
      </trkpt>
      <trkpt lat="44.03735" lon="6.03644">
        <ele>536.20001220703</ele>
        <time>2022-01-02T09:02:45.581Z</time>
      </trkpt>
      <trkpt lat="44.03744" lon="6.03634">
        <ele>535.40002441406</ele>
        <time>2022-01-02T09:02:50.155Z</time>
      </trkpt>
      <trkpt lat="44.03754" lon="6.03623">
        <ele>534.79998779297</ele>
        <time>2022-01-02T09:02:54.733Z</time>
      </trkpt>
      <trkpt lat="44.03764" lon="6.03614">
        <ele>534.40002441406</ele>
        <time>2022-01-02T09:02:59.316Z</time>
      </trkpt>
      <trkpt lat="44.03771" lon="6.03607">
        <ele>534</ele>
        <time>2022-01-02T09:03:03.902Z</time>
      </trkpt>
      <trkpt lat="44.03781" lon="6.03601">
        <ele>533.79998779297</ele>
        <time>2022-01-02T09:03:08.491Z</time>
      </trkpt>
      <trkpt lat="44.03789" lon="6.03597">
        <ele>533.40002441406</ele>
        <time>2022-01-02T09:03:13.084Z</time>
      </trkpt>
      <trkpt lat="44.03815" lon="6.0359">
        <ele>532.59997558594</ele>
        <time>2022-01-02T09:03:17.686Z</time>
      </trkpt>
      <trkpt lat="44.03824" lon="6.03585">
        <ele>532.59997558594</ele>
        <time>2022-01-02T09:03:22.291Z</time>
      </trkpt>
      <trkpt lat="44.03835" lon="6.03579">
        <ele>532</ele>
        <time>2022-01-02T09:03:26.900Z</time>
      </trkpt>
      <trkpt lat="44.03842" lon="6.03571">
        <ele>531.40002441406</ele>
        <time>2022-01-02T09:03:31.512Z</time>
      </trkpt>
      <trkpt lat="44.03847" lon="6.03568">
        <ele>531.20001220703</ele>
        <time>2022-01-02T09:03:36.126Z</time>
      </trkpt>
      <trkpt lat="44.03855" lon="6.03562">
        <ele>530.59997558594</ele>
        <time>2022-01-02T09:03:40.743Z</time>
      </trkpt>
      <trkpt lat="44.03859" lon="6.03559">
        <ele>530.40002441406</ele>
        <time>2022-01-02T09:03:45.362Z</time>
      </trkpt>
      <trkpt lat="44.03868" lon="6.03551">
        <ele>530</ele>
        <time>2022-01-02T09:03:49.985Z</time>
      </trkpt>
      <trkpt lat="44.03871" lon="6.03545">
        <ele>529.79998779297</ele>
        <time>2022-01-02T09:03:54.609Z</time>
      </trkpt>
      <trkpt lat="44.03884" lon="6.03533">
        <ele>529.40002441406</ele>
        <time>2022-01-02T09:03:59.239Z</time>
      </trkpt>
      <trkpt lat="44.03891" lon="6.03522">
        <ele>529.20001220703</ele>
        <time>2022-01-02T09:04:03.872Z</time>
      </trkpt>
      <trkpt lat="44.039" lon="6.03498">
        <ele>529</ele>
        <time>2022-01-02T09:04:08.512Z</time>
      </trkpt>
      <trkpt lat="44.03899" lon="6.03493">
        <ele>528.79998779297</ele>
        <time>2022-01-02T09:04:13.154Z</time>
      </trkpt>
      <trkpt lat="44.0389" lon="6.03476">
        <ele>529.20001220703</ele>
        <time>2022-01-02T09:04:17.801Z</time>
      </trkpt>
      <trkpt lat="44.03879" lon="6.03476">
        <ele>529.59997558594</ele>
        <time>2022-01-02T09:04:22.452Z</time>
      </trkpt>
      <trkpt lat="44.03862" lon="6.03476">
        <ele>530.59997558594</ele>
        <time>2022-01-02T09:04:27.109Z</time>
      </trkpt>
      <trkpt lat="44.03852" lon="6.03478">
        <ele>531</ele>
        <time>2022-01-02T09:04:31.769Z</time>
      </trkpt>
      <trkpt lat="44.03849" lon="6.03479">
        <ele>531</ele>
        <time>2022-01-02T09:04:36.430Z</time>
      </trkpt>
      <trkpt lat="44.03841" lon="6.03481">
        <ele>531.20001220703</ele>
        <time>2022-01-02T09:04:41.094Z</time>
      </trkpt>
      <trkpt lat="44.03833" lon="6.03485">
        <ele>531.20001220703</ele>
        <time>2022-01-02T09:04:45.761Z</time>
      </trkpt>
      <trkpt lat="44.03821" lon="6.03487">
        <ele>530.79998779297</ele>
        <time>2022-01-02T09:04:50.432Z</time>
      </trkpt>
      <trkpt lat="44.03806" lon="6.03491">
        <ele>530.79998779297</ele>
        <time>2022-01-02T09:04:55.109Z</time>
      </trkpt>
      <trkpt lat="44.03791" lon="6.03494">
        <ele>530.40002441406</ele>
        <time>2022-01-02T09:04:59.791Z</time>
      </trkpt>
      <trkpt lat="44.03789" lon="6.03491">
        <ele>530.20001220703</ele>
        <time>2022-01-02T09:05:04.474Z</time>
      </trkpt>
      <trkpt lat="44.03782" lon="6.03481">
        <ele>529</ele>
        <time>2022-01-02T09:05:09.160Z</time>
      </trkpt>
      <trkpt lat="44.03779" lon="6.03477">
        <ele>528.59997558594</ele>
        <time>2022-01-02T09:05:13.848Z</time>
      </trkpt>
      <trkpt lat="44.03774" lon="6.03471">
        <ele>527.79998779297</ele>
        <time>2022-01-02T09:05:18.538Z</time>
      </trkpt>
      <trkpt lat="44.03768" lon="6.03466">
        <ele>525.79998779297</ele>
        <time>2022-01-02T09:05:23.231Z</time>
      </trkpt>
      <trkpt lat="44.03762" lon="6.03465">
        <ele>524.20001220703</ele>
        <time>2022-01-02T09:05:27.925Z</time>
      </trkpt>
      <trkpt lat="44.03761" lon="6.03465">
        <ele>523.79998779297</ele>
        <time>2022-01-02T09:05:32.620Z</time>
      </trkpt>
      <trkpt lat="44.03761" lon="6.03464">
        <ele>523.20001220703</ele>
        <time>2022-01-02T09:05:37.315Z</time>
      </trkpt>
      <trkpt lat="44.03758" lon="6.0346">
        <ele>522.79998779297</ele>
        <time>2022-01-02T09:05:42.012Z</time>
      </trkpt>
      <trkpt lat="44.03757" lon="6.03458">
        <ele>522.59997558594</ele>
        <time>2022-01-02T09:05:46.709Z</time>
      </trkpt>
      <trkpt lat="44.03755" lon="6.03455">
        <ele>522.40002441406</ele>
        <time>2022-01-02T09:05:51.407Z</time>
      </trkpt>
      <trkpt lat="44.03751" lon="6.03451">
        <ele>521.40002441406</ele>
        <time>2022-01-02T09:05:56.107Z</time>
      </trkpt>
      <trkpt lat="44.03748" lon="6.03449">
        <ele>519.20001220703</ele>
        <time>2022-01-02T09:06:00.808Z</time>
      </trkpt>
      <trkpt lat="44.03748" lon="6.03447">
        <ele>517.40002441406</ele>
        <time>2022-01-02T09:06:05.509Z</time>
      </trkpt>
      <trkpt lat="44.03749" lon="6.03443">
        <ele>516.59997558594</ele>
        <time>2022-01-02T09:06:10.212Z</time>
      </trkpt>
      <trkpt lat="44.03749" lon="6.03437">
        <ele>516.40002441406</ele>
        <time>2022-01-02T09:06:14.916Z</time>
      </trkpt>
      <trkpt lat="44.03749" lon="6.03433">
        <ele>517.79998779297</ele>
        <time>2022-01-02T09:06:19.621Z</time>
      </trkpt>
      <trkpt lat="44.03749" lon="6.03432">
        <ele>518</ele>
        <time>2022-01-02T09:06:24.326Z</time>
      </trkpt>
      <trkpt lat="44.03756" lon="6.03418">
        <ele>521.79998779297</ele>
        <time>2022-01-02T09:06:29.036Z</time>
      </trkpt>
      <trkpt lat="44.03758" lon="6.03413">
        <ele>522.59997558594</ele>
        <time>2022-01-02T09:06:33.747Z</time>
      </trkpt>
      <trkpt lat="44.03758" lon="6.0341">
        <ele>523.20001220703</ele>
        <time>2022-01-02T09:06:38.459Z</time>
      </trkpt>
      <trkpt lat="44.03755" lon="6.03407">
        <ele>524.20001220703</ele>
        <time>2022-01-02T09:06:43.172Z</time>
      </trkpt>
      <trkpt lat="44.03753" lon="6.03406">
        <ele>524.79998779297</ele>
        <time>2022-01-02T09:06:47.886Z</time>
      </trkpt>
      <trkpt lat="44.03747" lon="6.034">
        <ele>525.59997558594</ele>
        <time>2022-01-02T09:06:52.603Z</time>
      </trkpt>
      <trkpt lat="44.03743" lon="6.03398">
        <ele>526.40002441406</ele>
        <time>2022-01-02T09:06:57.321Z</time>
      </trkpt>
      <trkpt lat="44.03737" lon="6.03396">
        <ele>526.79998779297</ele>
        <time>2022-01-02T09:07:02.041Z</time>
      </trkpt>
      <trkpt lat="44.03726" lon="6.03394">
        <ele>527.40002441406</ele>
        <time>2022-01-02T09:07:06.765Z</time>
      </trkpt>
      <trkpt lat="44.03724" lon="6.03395">
        <ele>527.59997558594</ele>
        <time>2022-01-02T09:07:11.490Z</time>
      </trkpt>
      <trkpt lat="44.03718" lon="6.03395">
        <ele>528.79998779297</ele>
        <time>2022-01-02T09:07:16.217Z</time>
      </trkpt>
      <trkpt lat="44.03715" lon="6.03396">
        <ele>529.40002441406</ele>
        <time>2022-01-02T09:07:20.945Z</time>
      </trkpt>
      <trkpt lat="44.03713" lon="6.03396">
        <ele>529.59997558594</ele>
        <time>2022-01-02T09:07:25.674Z</time>
      </trkpt>
      <trkpt lat="44.0371" lon="6.03396">
        <ele>529.79998779297</ele>
        <time>2022-01-02T09:07:30.404Z</time>
      </trkpt>
      <trkpt lat="44.03708" lon="6.03395">
        <ele>530.20001220703</ele>
        <time>2022-01-02T09:07:35.135Z</time>
      </trkpt>
      <trkpt lat="44.03701" lon="6.03391">
        <ele>531.20001220703</ele>
        <time>2022-01-02T09:07:39.868Z</time>
      </trkpt>
      <trkpt lat="44.03697" lon="6.03388">
        <ele>531.40002441406</ele>
        <time>2022-01-02T09:07:44.603Z</time>
      </trkpt>
      <trkpt lat="44.03693" lon="6.03384">
        <ele>532.40002441406</ele>
        <time>2022-01-02T09:07:49.340Z</time>
      </trkpt>
      <trkpt lat="44.03691" lon="6.03384">
        <ele>533.20001220703</ele>
        <time>2022-01-02T09:07:54.077Z</time>
      </trkpt>
      <trkpt lat="44.03689" lon="6.03384">
        <ele>533.59997558594</ele>
        <time>2022-01-02T09:07:58.815Z</time>
      </trkpt>
      <trkpt lat="44.03677" lon="6.03386">
        <ele>535</ele>
        <time>2022-01-02T09:08:03.557Z</time>
      </trkpt>
      <trkpt lat="44.03675" lon="6.03388">
        <ele>535.20001220703</ele>
        <time>2022-01-02T09:08:08.300Z</time>
      </trkpt>
      <trkpt lat="44.03662" lon="6.03391">
        <ele>535.40002441406</ele>
        <time>2022-01-02T09:08:13.047Z</time>
      </trkpt>
      <trkpt lat="44.03647" lon="6.03391">
        <ele>536</ele>
        <time>2022-01-02T09:08:17.800Z</time>
      </trkpt>
      <trkpt lat="44.0364" lon="6.0339">
        <ele>537.40002441406</ele>
        <time>2022-01-02T09:08:22.555Z</time>
      </trkpt>
      <trkpt lat="44.03631" lon="6.03392">
        <ele>538.40002441406</ele>
        <time>2022-01-02T09:08:27.313Z</time>
      </trkpt>
      <trkpt lat="44.03615" lon="6.03393">
        <ele>539.20001220703</ele>
        <time>2022-01-02T09:08:32.077Z</time>
      </trkpt>
      <trkpt lat="44.0361" lon="6.03394">
        <ele>539.59997558594</ele>
        <time>2022-01-02T09:08:36.843Z</time>
      </trkpt>
      <trkpt lat="44.03602" lon="6.03395">
        <ele>540.59997558594</ele>
        <time>2022-01-02T09:08:41.611Z</time>
      </trkpt>
      <trkpt lat="44.03593" lon="6.03396">
        <ele>541.79998779297</ele>
        <time>2022-01-02T09:08:46.383Z</time>
      </trkpt>
      <trkpt lat="44.03591" lon="6.03396">
        <ele>541.79998779297</ele>
        <time>2022-01-02T09:08:51.155Z</time>
      </trkpt>
      <trkpt lat="44.03589" lon="6.03396">
        <ele>542.40002441406</ele>
        <time>2022-01-02T09:08:55.928Z</time>
      </trkpt>
      <trkpt lat="44.03582" lon="6.03396">
        <ele>543</ele>
        <time>2022-01-02T09:09:00.704Z</time>
      </trkpt>
      <trkpt lat="44.0358" lon="6.03396">
        <ele>543.20001220703</ele>
        <time>2022-01-02T09:09:05.480Z</time>
      </trkpt>
      <trkpt lat="44.03569" lon="6.03396">
        <ele>544</ele>
        <time>2022-01-02T09:09:10.260Z</time>
      </trkpt>
      <trkpt lat="44.03566" lon="6.03395">
        <ele>544.20001220703</ele>
        <time>2022-01-02T09:09:15.041Z</time>
      </trkpt>
      <trkpt lat="44.03554" lon="6.03391">
        <ele>545</ele>
        <time>2022-01-02T09:09:19.826Z</time>
      </trkpt>
      <trkpt lat="44.03552" lon="6.0339">
        <ele>545.40002441406</ele>
        <time>2022-01-02T09:09:24.612Z</time>
      </trkpt>
      <trkpt lat="44.03543" lon="6.03387">
        <ele>546.59997558594</ele>
        <time>2022-01-02T09:09:29.401Z</time>
      </trkpt>
      <trkpt lat="44.03541" lon="6.03386">
        <ele>547.20001220703</ele>
        <time>2022-01-02T09:09:34.191Z</time>
      </trkpt>
      <trkpt lat="44.03535" lon="6.03385">
        <ele>547.79998779297</ele>
        <time>2022-01-02T09:09:38.983Z</time>
      </trkpt>
      <trkpt lat="44.03525" lon="6.03384">
        <ele>548.79998779297</ele>
        <time>2022-01-02T09:09:43.779Z</time>
      </trkpt>
      <trkpt lat="44.0352" lon="6.03383">
        <ele>549.59997558594</ele>
        <time>2022-01-02T09:09:48.576Z</time>
      </trkpt>
      <trkpt lat="44.03515" lon="6.03384">
        <ele>550</ele>
        <time>2022-01-02T09:09:53.375Z</time>
      </trkpt>
      <trkpt lat="44.03499" lon="6.03384">
        <ele>550.79998779297</ele>
        <time>2022-01-02T09:09:58.180Z</time>
      </trkpt>
      <trkpt lat="44.03495" lon="6.03384">
        <ele>551</ele>
        <time>2022-01-02T09:10:02.986Z</time>
      </trkpt>
      <trkpt lat="44.03493" lon="6.03384">
        <ele>551.20001220703</ele>
        <time>2022-01-02T09:10:07.793Z</time>
      </trkpt>
      <trkpt lat="44.03484" lon="6.03388">
        <ele>551.59997558594</ele>
        <time>2022-01-02T09:10:12.603Z</time>
      </trkpt>
      <trkpt lat="44.03478" lon="6.03389">
        <ele>552.20001220703</ele>
        <time>2022-01-02T09:10:17.416Z</time>
      </trkpt>
      <trkpt lat="44.03471" lon="6.03387">
        <ele>553</ele>
        <time>2022-01-02T09:10:22.231Z</time>
      </trkpt>
      <trkpt lat="44.03469" lon="6.03387">
        <ele>553.59997558594</ele>
        <time>2022-01-02T09:10:27.047Z</time>
      </trkpt>
      <trkpt lat="44.03465" lon="6.03384">
        <ele>554.59997558594</ele>
        <time>2022-01-02T09:10:31.864Z</time>
      </trkpt>
      <trkpt lat="44.03463" lon="6.03383">
        <ele>555.20001220703</ele>
        <time>2022-01-02T09:10:36.682Z</time>
      </trkpt>
      <trkpt lat="44.03462" lon="6.03382">
        <ele>555.79998779297</ele>
        <time>2022-01-02T09:10:41.500Z</time>
      </trkpt>
      <trkpt lat="44.03458" lon="6.03382">
        <ele>557</ele>
        <time>2022-01-02T09:10:46.320Z</time>
      </trkpt>
      <trkpt lat="44.03455" lon="6.03385">
        <ele>557.59997558594</ele>
        <time>2022-01-02T09:10:51.141Z</time>
      </trkpt>
      <trkpt lat="44.03451" lon="6.03388">
        <ele>558</ele>
        <time>2022-01-02T09:10:55.964Z</time>
      </trkpt>
      <trkpt lat="44.03447" lon="6.0339">
        <ele>558.40002441406</ele>
        <time>2022-01-02T09:11:00.788Z</time>
      </trkpt>
      <trkpt lat="44.03443" lon="6.03388">
        <ele>559.20001220703</ele>
        <time>2022-01-02T09:11:05.614Z</time>
      </trkpt>
      <trkpt lat="44.03438" lon="6.03385">
        <ele>560.20001220703</ele>
        <time>2022-01-02T09:11:10.441Z</time>
      </trkpt>
      <trkpt lat="44.03436" lon="6.03384">
        <ele>560.79998779297</ele>
        <time>2022-01-02T09:11:15.269Z</time>
      </trkpt>
      <trkpt lat="44.03431" lon="6.03382">
        <ele>561.79998779297</ele>
        <time>2022-01-02T09:11:20.099Z</time>
      </trkpt>
      <trkpt lat="44.03429" lon="6.03381">
        <ele>562.40002441406</ele>
        <time>2022-01-02T09:11:24.930Z</time>
      </trkpt>
      <trkpt lat="44.03428" lon="6.0338">
        <ele>563</ele>
        <time>2022-01-02T09:11:29.761Z</time>
      </trkpt>
      <trkpt lat="44.03428" lon="6.0338">
        <ele>563.40002441406</ele>
        <time>2022-01-02T09:11:34.592Z</time>
      </trkpt>
      <trkpt lat="44.0343" lon="6.03377">
        <ele>564.20001220703</ele>
        <time>2022-01-02T09:11:39.424Z</time>
      </trkpt>
      <trkpt lat="44.03438" lon="6.03373">
        <ele>564.79998779297</ele>
        <time>2022-01-02T09:11:44.259Z</time>
      </trkpt>
      <trkpt lat="44.03443" lon="6.0336">
        <ele>565.40002441406</ele>
        <time>2022-01-02T09:11:49.098Z</time>
      </trkpt>
      <trkpt lat="44.03449" lon="6.03353">
        <ele>566.40002441406</ele>
        <time>2022-01-02T09:11:53.940Z</time>
      </trkpt>
      <trkpt lat="44.03453" lon="6.03349">
        <ele>566.79998779297</ele>
        <time>2022-01-02T09:11:58.783Z</time>
      </trkpt>
      <trkpt lat="44.0346" lon="6.03343">
        <ele>567.40002441406</ele>
        <time>2022-01-02T09:12:03.629Z</time>
      </trkpt>
      <trkpt lat="44.03463" lon="6.0334">
        <ele>567.59997558594</ele>
        <time>2022-01-02T09:12:08.477Z</time>
      </trkpt>
      <trkpt lat="44.03467" lon="6.03337">
        <ele>567.79998779297</ele>
        <time>2022-01-02T09:12:13.326Z</time>
      </trkpt>
      <trkpt lat="44.03472" lon="6.03329">
        <ele>568.40002441406</ele>
        <time>2022-01-02T09:12:18.178Z</time>
      </trkpt>
      <trkpt lat="44.03475" lon="6.03323">
        <ele>569.40002441406</ele>
        <time>2022-01-02T09:12:23.032Z</time>
      </trkpt>
      <trkpt lat="44.03476" lon="6.03319">
        <ele>571</ele>
        <time>2022-01-02T09:12:27.887Z</time>
      </trkpt>
      <trkpt lat="44.03476" lon="6.03313">
        <ele>572</ele>
        <time>2022-01-02T09:12:32.743Z</time>
      </trkpt>
      <trkpt lat="44.03478" lon="6.03307">
        <ele>573.59997558594</ele>
        <time>2022-01-02T09:12:37.601Z</time>
      </trkpt>
      <trkpt lat="44.03486" lon="6.03295">
        <ele>574.40002441406</ele>
        <time>2022-01-02T09:12:42.463Z</time>
      </trkpt>
      <trkpt lat="44.03492" lon="6.03281">
        <ele>573.59997558594</ele>
        <time>2022-01-02T09:12:47.329Z</time>
      </trkpt>
      <trkpt lat="44.03496" lon="6.03269">
        <ele>572.20001220703</ele>
        <time>2022-01-02T09:12:52.198Z</time>
      </trkpt>
      <trkpt lat="44.03495" lon="6.03258">
        <ele>570.79998779297</ele>
        <time>2022-01-02T09:12:57.070Z</time>
      </trkpt>
      <trkpt lat="44.03492" lon="6.03251">
        <ele>569.59997558594</ele>
        <time>2022-01-02T09:13:01.944Z</time>
      </trkpt>
      <trkpt lat="44.0349" lon="6.03241">
        <ele>567.59997558594</ele>
        <time>2022-01-02T09:13:06.821Z</time>
      </trkpt>
      <trkpt lat="44.03491" lon="6.03237">
        <ele>566.40002441406</ele>
        <time>2022-01-02T09:13:11.699Z</time>
      </trkpt>
      <trkpt lat="44.03492" lon="6.03225">
        <ele>565</ele>
        <time>2022-01-02T09:13:16.580Z</time>
      </trkpt>
      <trkpt lat="44.03491" lon="6.03218">
        <ele>564.20001220703</ele>
        <time>2022-01-02T09:13:21.463Z</time>
      </trkpt>
      <trkpt lat="44.0349" lon="6.03213">
        <ele>563</ele>
        <time>2022-01-02T09:13:26.347Z</time>
      </trkpt>
      <trkpt lat="44.03488" lon="6.03209">
        <ele>561.59997558594</ele>
        <time>2022-01-02T09:13:31.232Z</time>
      </trkpt>
      <trkpt lat="44.03486" lon="6.03206">
        <ele>560.59997558594</ele>
        <time>2022-01-02T09:13:36.119Z</time>
      </trkpt>
      <trkpt lat="44.03482" lon="6.03201">
        <ele>559.79998779297</ele>
        <time>2022-01-02T09:13:41.007Z</time>
      </trkpt>
      <trkpt lat="44.03477" lon="6.03188">
        <ele>558.59997558594</ele>
        <time>2022-01-02T09:13:45.899Z</time>
      </trkpt>
      <trkpt lat="44.03479" lon="6.03176">
        <ele>557.79998779297</ele>
        <time>2022-01-02T09:13:50.794Z</time>
      </trkpt>
      <trkpt lat="44.03488" lon="6.03175">
        <ele>557.79998779297</ele>
        <time>2022-01-02T09:13:55.692Z</time>
      </trkpt>
      <trkpt lat="44.03499" lon="6.03174">
        <ele>558.59997558594</ele>
        <time>2022-01-02T09:14:00.594Z</time>
      </trkpt>
      <trkpt lat="44.03503" lon="6.03173">
        <ele>559</ele>
        <time>2022-01-02T09:14:05.498Z</time>
      </trkpt>
      <trkpt lat="44.03514" lon="6.03166">
        <ele>560</ele>
        <time>2022-01-02T09:14:10.406Z</time>
      </trkpt>
      <trkpt lat="44.03516" lon="6.03164">
        <ele>560.20001220703</ele>
        <time>2022-01-02T09:14:15.315Z</time>
      </trkpt>
      <trkpt lat="44.03527" lon="6.0316">
        <ele>559.79998779297</ele>
        <time>2022-01-02T09:14:20.228Z</time>
      </trkpt>
      <trkpt lat="44.03529" lon="6.03159">
        <ele>559.79998779297</ele>
        <time>2022-01-02T09:14:25.142Z</time>
      </trkpt>
      <trkpt lat="44.03535" lon="6.03159">
        <ele>559.59997558594</ele>
        <time>2022-01-02T09:14:30.058Z</time>
      </trkpt>
      <trkpt lat="44.03537" lon="6.03158">
        <ele>559.40002441406</ele>
        <time>2022-01-02T09:14:34.974Z</time>
      </trkpt>
      <trkpt lat="44.03544" lon="6.03159">
        <ele>558.40002441406</ele>
        <time>2022-01-02T09:14:39.893Z</time>
      </trkpt>
      <trkpt lat="44.0355" lon="6.03158">
        <ele>557.40002441406</ele>
        <time>2022-01-02T09:14:44.814Z</time>
      </trkpt>
      <trkpt lat="44.03553" lon="6.03157">
        <ele>556.79998779297</ele>
        <time>2022-01-02T09:14:49.736Z</time>
      </trkpt>
      <trkpt lat="44.03562" lon="6.03156">
        <ele>555.59997558594</ele>
        <time>2022-01-02T09:14:54.661Z</time>
      </trkpt>
      <trkpt lat="44.03567" lon="6.03153">
        <ele>555</ele>
        <time>2022-01-02T09:14:59.588Z</time>
      </trkpt>
      <trkpt lat="44.03572" lon="6.03151">
        <ele>554.40002441406</ele>
        <time>2022-01-02T09:15:04.517Z</time>
      </trkpt>
      <trkpt lat="44.03582" lon="6.03145">
        <ele>553.20001220703</ele>
        <time>2022-01-02T09:15:09.450Z</time>
      </trkpt>
      <trkpt lat="44.03601" lon="6.03134">
        <ele>552</ele>
        <time>2022-01-02T09:15:14.390Z</time>
      </trkpt>
      <trkpt lat="44.03619" lon="6.03123">
        <ele>551</ele>
        <time>2022-01-02T09:15:19.337Z</time>
      </trkpt>
      <trkpt lat="44.03624" lon="6.03121">
        <ele>550.59997558594</ele>
        <time>2022-01-02T09:15:24.285Z</time>
      </trkpt>
      <trkpt lat="44.0363" lon="6.0312">
        <ele>549.79998779297</ele>
        <time>2022-01-02T09:15:29.235Z</time>
      </trkpt>
      <trkpt lat="44.03643" lon="6.03121">
        <ele>548.59997558594</ele>
        <time>2022-01-02T09:15:34.190Z</time>
      </trkpt>
      <trkpt lat="44.0365" lon="6.0312">
        <ele>547.59997558594</ele>
        <time>2022-01-02T09:15:39.148Z</time>
      </trkpt>
      <trkpt lat="44.03659" lon="6.03117">
        <ele>546.59997558594</ele>
        <time>2022-01-02T09:15:44.109Z</time>
      </trkpt>
      <trkpt lat="44.03667" lon="6.03113">
        <ele>545.79998779297</ele>
        <time>2022-01-02T09:15:49.073Z</time>
      </trkpt>
      <trkpt lat="44.03675" lon="6.03108">
        <ele>544.59997558594</ele>
        <time>2022-01-02T09:15:54.040Z</time>
      </trkpt>
      <trkpt lat="44.03682" lon="6.03103">
        <ele>543.40002441406</ele>
        <time>2022-01-02T09:15:59.010Z</time>
      </trkpt>
      <trkpt lat="44.0369" lon="6.03099">
        <ele>542.40002441406</ele>
        <time>2022-01-02T09:16:03.982Z</time>
      </trkpt>
      <trkpt lat="44.03715" lon="6.03099">
        <ele>540.79998779297</ele>
        <time>2022-01-02T09:16:08.963Z</time>
      </trkpt>
      <trkpt lat="44.03724" lon="6.031">
        <ele>539.79998779297</ele>
        <time>2022-01-02T09:16:13.948Z</time>
      </trkpt>
      <trkpt lat="44.03733" lon="6.03099">
        <ele>538.40002441406</ele>
        <time>2022-01-02T09:16:18.936Z</time>
      </trkpt>
      <trkpt lat="44.03751" lon="6.03098">
        <ele>536.40002441406</ele>
        <time>2022-01-02T09:16:23.930Z</time>
      </trkpt>
      <trkpt lat="44.0376" lon="6.03096">
        <ele>535.20001220703</ele>
        <time>2022-01-02T09:16:28.927Z</time>
      </trkpt>
      <trkpt lat="44.03769" lon="6.03093">
        <ele>534</ele>
        <time>2022-01-02T09:16:33.927Z</time>
      </trkpt>
      <trkpt lat="44.03777" lon="6.0309">
        <ele>532.79998779297</ele>
        <time>2022-01-02T09:16:38.930Z</time>
      </trkpt>
      <trkpt lat="44.03786" lon="6.03088">
        <ele>531.59997558594</ele>
        <time>2022-01-02T09:16:43.936Z</time>
      </trkpt>
      <trkpt lat="44.03793" lon="6.03085">
        <ele>530.79998779297</ele>
        <time>2022-01-02T09:16:48.945Z</time>
      </trkpt>
      <trkpt lat="44.03801" lon="6.03083">
        <ele>530.40002441406</ele>
        <time>2022-01-02T09:16:53.957Z</time>
      </trkpt>
      <trkpt lat="44.03814" lon="6.03077">
        <ele>529.59997558594</ele>
        <time>2022-01-02T09:16:58.973Z</time>
      </trkpt>
      <trkpt lat="44.03819" lon="6.03072">
        <ele>529.40002441406</ele>
        <time>2022-01-02T09:17:03.992Z</time>
      </trkpt>
      <trkpt lat="44.03831" lon="6.03063">
        <ele>529.59997558594</ele>
        <time>2022-01-02T09:17:09.015Z</time>
      </trkpt>
      <trkpt lat="44.03848" lon="6.03057">
        <ele>531.20001220703</ele>
        <time>2022-01-02T09:17:14.044Z</time>
      </trkpt>
      <trkpt lat="44.03866" lon="6.03058">
        <ele>531.20001220703</ele>
        <time>2022-01-02T09:17:19.080Z</time>
      </trkpt>
      <trkpt lat="44.039" lon="6.03059">
        <ele>529.59997558594</ele>
        <time>2022-01-02T09:17:24.128Z</time>
      </trkpt>
      <trkpt lat="44.03905" lon="6.03059">
        <ele>529.40002441406</ele>
        <time>2022-01-02T09:17:29.177Z</time>
      </trkpt>
      <trkpt lat="44.03924" lon="6.03055">
        <ele>528.79998779297</ele>
        <time>2022-01-02T09:17:34.233Z</time>
      </trkpt>
      <trkpt lat="44.0394" lon="6.03042">
        <ele>528.79998779297</ele>
        <time>2022-01-02T09:17:39.295Z</time>
      </trkpt>
      <trkpt lat="44.0394" lon="6.03029">
        <ele>529.40002441406</ele>
        <time>2022-01-02T09:17:44.361Z</time>
      </trkpt>
      <trkpt lat="44.03937" lon="6.03018">
        <ele>530.40002441406</ele>
        <time>2022-01-02T09:17:49.430Z</time>
      </trkpt>
      <trkpt lat="44.03935" lon="6.0301">
        <ele>531.20001220703</ele>
        <time>2022-01-02T09:17:54.501Z</time>
      </trkpt>
      <trkpt lat="44.03934" lon="6.03006">
        <ele>531.59997558594</ele>
        <time>2022-01-02T09:17:59.573Z</time>
      </trkpt>
      <trkpt lat="44.03931" lon="6.02994">
        <ele>532.79998779297</ele>
        <time>2022-01-02T09:18:04.648Z</time>
      </trkpt>
      <trkpt lat="44.03926" lon="6.02975">
        <ele>533.59997558594</ele>
        <time>2022-01-02T09:18:09.728Z</time>
      </trkpt>
      <trkpt lat="44.03924" lon="6.02967">
        <ele>533.79998779297</ele>
        <time>2022-01-02T09:18:14.810Z</time>
      </trkpt>
      <trkpt lat="44.03915" lon="6.02945">
        <ele>533.79998779297</ele>
        <time>2022-01-02T09:18:19.899Z</time>
      </trkpt>
      <trkpt lat="44.03903" lon="6.02925">
        <ele>533.20001220703</ele>
        <time>2022-01-02T09:18:24.994Z</time>
      </trkpt>
      <trkpt lat="44.03888" lon="6.02909">
        <ele>532.79998779297</ele>
        <time>2022-01-02T09:18:30.096Z</time>
      </trkpt>
      <trkpt lat="44.03883" lon="6.02904">
        <ele>532.59997558594</ele>
        <time>2022-01-02T09:18:35.200Z</time>
      </trkpt>
      <trkpt lat="44.03863" lon="6.02898">
        <ele>533.79998779297</ele>
        <time>2022-01-02T09:18:40.311Z</time>
      </trkpt>
      <trkpt lat="44.0385" lon="6.02895">
        <ele>535</ele>
        <time>2022-01-02T09:18:45.427Z</time>
      </trkpt>
      <trkpt lat="44.0384" lon="6.02895">
        <ele>536.20001220703</ele>
        <time>2022-01-02T09:18:50.546Z</time>
      </trkpt>
      <trkpt lat="44.03828" lon="6.02899">
        <ele>537.40002441406</ele>
        <time>2022-01-02T09:18:55.670Z</time>
      </trkpt>
      <trkpt lat="44.03826" lon="6.029">
        <ele>537.79998779297</ele>
        <time>2022-01-02T09:19:00.794Z</time>
      </trkpt>
      <trkpt lat="44.03821" lon="6.02903">
        <ele>538.59997558594</ele>
        <time>2022-01-02T09:19:05.920Z</time>
      </trkpt>
      <trkpt lat="44.03813" lon="6.02909">
        <ele>539.40002441406</ele>
        <time>2022-01-02T09:19:11.049Z</time>
      </trkpt>
      <trkpt lat="44.03811" lon="6.02911">
        <ele>540.20001220703</ele>
        <time>2022-01-02T09:19:16.179Z</time>
      </trkpt>
      <trkpt lat="44.03803" lon="6.02915">
        <ele>541.59997558594</ele>
        <time>2022-01-02T09:19:21.312Z</time>
      </trkpt>
      <trkpt lat="44.03796" lon="6.0292">
        <ele>543</ele>
        <time>2022-01-02T09:19:26.448Z</time>
      </trkpt>
      <trkpt lat="44.03794" lon="6.02922">
        <ele>543.40002441406</ele>
        <time>2022-01-02T09:19:31.585Z</time>
      </trkpt>
      <trkpt lat="44.03792" lon="6.02925">
        <ele>544</ele>
        <time>2022-01-02T09:19:36.723Z</time>
      </trkpt>
      <trkpt lat="44.03788" lon="6.0293">
        <ele>545</ele>
        <time>2022-01-02T09:19:41.863Z</time>
      </trkpt>
      <trkpt lat="44.03784" lon="6.02935">
        <ele>546</ele>
        <time>2022-01-02T09:19:47.005Z</time>
      </trkpt>
      <trkpt lat="44.03777" lon="6.02944">
        <ele>547.40002441406</ele>
        <time>2022-01-02T09:19:52.150Z</time>
      </trkpt>
      <trkpt lat="44.03769" lon="6.0295">
        <ele>548.20001220703</ele>
        <time>2022-01-02T09:19:57.298Z</time>
      </trkpt>
      <trkpt lat="44.03768" lon="6.02952">
        <ele>548.40002441406</ele>
        <time>2022-01-02T09:20:02.447Z</time>
      </trkpt>
      <trkpt lat="44.03762" lon="6.02958">
        <ele>549.40002441406</ele>
        <time>2022-01-02T09:20:07.598Z</time>
      </trkpt>
      <trkpt lat="44.03759" lon="6.02961">
        <ele>550.79998779297</ele>
        <time>2022-01-02T09:20:12.751Z</time>
      </trkpt>
      <trkpt lat="44.03755" lon="6.02963">
        <ele>552</ele>
        <time>2022-01-02T09:20:17.905Z</time>
      </trkpt>
      <trkpt lat="44.03752" lon="6.02966">
        <ele>553</ele>
        <time>2022-01-02T09:20:23.060Z</time>
      </trkpt>
      <trkpt lat="44.03748" lon="6.02969">
        <ele>554.20001220703</ele>
        <time>2022-01-02T09:20:28.217Z</time>
      </trkpt>
      <trkpt lat="44.03746" lon="6.02971">
        <ele>554.40002441406</ele>
        <time>2022-01-02T09:20:33.375Z</time>
      </trkpt>
      <trkpt lat="44.03743" lon="6.02974">
        <ele>555.59997558594</ele>
        <time>2022-01-02T09:20:38.534Z</time>
      </trkpt>
      <trkpt lat="44.0374" lon="6.02975">
        <ele>556.40002441406</ele>
        <time>2022-01-02T09:20:43.694Z</time>
      </trkpt>
      <trkpt lat="44.0374" lon="6.02977">
        <ele>556.59997558594</ele>
        <time>2022-01-02T09:20:48.854Z</time>
      </trkpt>
      <trkpt lat="44.03741" lon="6.02978">
        <ele>557</ele>
        <time>2022-01-02T09:20:54.015Z</time>
      </trkpt>
      <trkpt lat="44.03744" lon="6.02979">
        <ele>557.79998779297</ele>
        <time>2022-01-02T09:20:59.177Z</time>
      </trkpt>
      <trkpt lat="44.03745" lon="6.0298">
        <ele>558.20001220703</ele>
        <time>2022-01-02T09:21:04.339Z</time>
      </trkpt>
      <trkpt lat="44.03749" lon="6.02982">
        <ele>558.79998779297</ele>
        <time>2022-01-02T09:21:09.503Z</time>
      </trkpt>
      <trkpt lat="44.03755" lon="6.02988">
        <ele>560.20001220703</ele>
        <time>2022-01-02T09:21:14.669Z</time>
      </trkpt>
      <trkpt lat="44.03754" lon="6.02991">
        <ele>560.59997558594</ele>
        <time>2022-01-02T09:21:19.836Z</time>
      </trkpt>
      <trkpt lat="44.03753" lon="6.02993">
        <ele>561.20001220703</ele>
        <time>2022-01-02T09:21:25.004Z</time>
      </trkpt>
      <trkpt lat="44.03748" lon="6.02993">
        <ele>562</ele>
        <time>2022-01-02T09:21:30.173Z</time>
      </trkpt>
      <trkpt lat="44.03746" lon="6.02994">
        <ele>562</ele>
        <time>2022-01-02T09:21:35.343Z</time>
      </trkpt>
      <trkpt lat="44.03744" lon="6.02994">
        <ele>562.20001220703</ele>
        <time>2022-01-02T09:21:40.514Z</time>
      </trkpt>
      <trkpt lat="44.03734" lon="6.02998">
        <ele>563</ele>
        <time>2022-01-02T09:21:45.689Z</time>
      </trkpt>
      <trkpt lat="44.03729" lon="6.02998">
        <ele>563.59997558594</ele>
        <time>2022-01-02T09:21:50.865Z</time>
      </trkpt>
      <trkpt lat="44.0372" lon="6.03003">
        <ele>564.79998779297</ele>
        <time>2022-01-02T09:21:56.045Z</time>
      </trkpt>
      <trkpt lat="44.03711" lon="6.03004">
        <ele>565.59997558594</ele>
        <time>2022-01-02T09:22:01.228Z</time>
      </trkpt>
      <trkpt lat="44.03708" lon="6.03003">
        <ele>566</ele>
        <time>2022-01-02T09:22:06.412Z</time>
      </trkpt>
      <trkpt lat="44.03701" lon="6.03001">
        <ele>566.79998779297</ele>
        <time>2022-01-02T09:22:11.599Z</time>
      </trkpt>
      <trkpt lat="44.03696" lon="6.03002">
        <ele>567</ele>
        <time>2022-01-02T09:22:16.787Z</time>
      </trkpt>
      <trkpt lat="44.03694" lon="6.03003">
        <ele>567.59997558594</ele>
        <time>2022-01-02T09:22:21.976Z</time>
      </trkpt>
      <trkpt lat="44.03689" lon="6.03004">
        <ele>568.40002441406</ele>
        <time>2022-01-02T09:22:27.167Z</time>
      </trkpt>
      <trkpt lat="44.03681" lon="6.03006">
        <ele>569.79998779297</ele>
        <time>2022-01-02T09:22:32.361Z</time>
      </trkpt>
      <trkpt lat="44.03674" lon="6.03008">
        <ele>570.79998779297</ele>
        <time>2022-01-02T09:22:37.557Z</time>
      </trkpt>
      <trkpt lat="44.03665" lon="6.0301">
        <ele>571.59997558594</ele>
        <time>2022-01-02T09:22:42.756Z</time>
      </trkpt>
      <trkpt lat="44.03658" lon="6.03009">
        <ele>572.40002441406</ele>
        <time>2022-01-02T09:22:47.958Z</time>
      </trkpt>
      <trkpt lat="44.03652" lon="6.0301">
        <ele>572.59997558594</ele>
        <time>2022-01-02T09:22:53.162Z</time>
      </trkpt>
      <trkpt lat="44.03649" lon="6.03011">
        <ele>572.79998779297</ele>
        <time>2022-01-02T09:22:58.367Z</time>
      </trkpt>
      <trkpt lat="44.03649" lon="6.03011">
        <ele>573</ele>
        <time>2022-01-02T09:23:03.572Z</time>
      </trkpt>
      <trkpt lat="44.03646" lon="6.03011">
        <ele>573.40002441406</ele>
        <time>2022-01-02T09:23:08.778Z</time>
      </trkpt>
      <trkpt lat="44.03643" lon="6.03012">
        <ele>573.79998779297</ele>
        <time>2022-01-02T09:23:13.985Z</time>
      </trkpt>
      <trkpt lat="44.0364" lon="6.03014">
        <ele>574.79998779297</ele>
        <time>2022-01-02T09:23:19.193Z</time>
      </trkpt>
      <trkpt lat="44.03634" lon="6.03015">
        <ele>576.20001220703</ele>
        <time>2022-01-02T09:23:24.403Z</time>
      </trkpt>
      <trkpt lat="44.03633" lon="6.03015">
        <ele>577.59997558594</ele>
        <time>2022-01-02T09:23:29.614Z</time>
      </trkpt>
      <trkpt lat="44.03631" lon="6.03014">
        <ele>578.59997558594</ele>
        <time>2022-01-02T09:23:34.826Z</time>
      </trkpt>
      <trkpt lat="44.03628" lon="6.03012">
        <ele>579.79998779297</ele>
        <time>2022-01-02T09:23:40.039Z</time>
      </trkpt>
      <trkpt lat="44.03625" lon="6.03012">
        <ele>581.40002441406</ele>
        <time>2022-01-02T09:23:45.253Z</time>
      </trkpt>
      <trkpt lat="44.03623" lon="6.03012">
        <ele>582.40002441406</ele>
        <time>2022-01-02T09:23:50.467Z</time>
      </trkpt>
      <trkpt lat="44.03622" lon="6.03012">
        <ele>583</ele>
        <time>2022-01-02T09:23:55.682Z</time>
      </trkpt>
      <trkpt lat="44.03618" lon="6.03011">
        <ele>584.40002441406</ele>
        <time>2022-01-02T09:24:00.898Z</time>
      </trkpt>
      <trkpt lat="44.03614" lon="6.03012">
        <ele>585.40002441406</ele>
        <time>2022-01-02T09:24:06.116Z</time>
      </trkpt>
      <trkpt lat="44.03609" lon="6.03013">
        <ele>586.59997558594</ele>
        <time>2022-01-02T09:24:11.335Z</time>
      </trkpt>
      <trkpt lat="44.03604" lon="6.03013">
        <ele>588.20001220703</ele>
        <time>2022-01-02T09:24:16.556Z</time>
      </trkpt>
      <trkpt lat="44.036" lon="6.03014">
        <ele>589.40002441406</ele>
        <time>2022-01-02T09:24:21.779Z</time>
      </trkpt>
      <trkpt lat="44.03594" lon="6.03016">
        <ele>590.79998779297</ele>
        <time>2022-01-02T09:24:27.004Z</time>
      </trkpt>
      <trkpt lat="44.03587" lon="6.03016">
        <ele>592.20001220703</ele>
        <time>2022-01-02T09:24:32.231Z</time>
      </trkpt>
      <trkpt lat="44.03578" lon="6.03019">
        <ele>593.20001220703</ele>
        <time>2022-01-02T09:24:37.461Z</time>
      </trkpt>
      <trkpt lat="44.03574" lon="6.03022">
        <ele>593.79998779297</ele>
        <time>2022-01-02T09:24:42.693Z</time>
      </trkpt>
      <trkpt lat="44.03569" lon="6.03025">
        <ele>594.59997558594</ele>
        <time>2022-01-02T09:24:47.927Z</time>
      </trkpt>
      <trkpt lat="44.03563" lon="6.03025">
        <ele>595.40002441406</ele>
        <time>2022-01-02T09:24:53.163Z</time>
      </trkpt>
      <trkpt lat="44.03561" lon="6.03026">
        <ele>595.79998779297</ele>
        <time>2022-01-02T09:24:58.400Z</time>
      </trkpt>
      <trkpt lat="44.03556" lon="6.03025">
        <ele>597.20001220703</ele>
        <time>2022-01-02T09:25:03.639Z</time>
      </trkpt>
      <trkpt lat="44.03554" lon="6.03025">
        <ele>597.79998779297</ele>
        <time>2022-01-02T09:25:08.878Z</time>
      </trkpt>
      <trkpt lat="44.03552" lon="6.03026">
        <ele>598.40002441406</ele>
        <time>2022-01-02T09:25:14.118Z</time>
      </trkpt>
      <trkpt lat="44.03543" lon="6.03028">
        <ele>599.40002441406</ele>
        <time>2022-01-02T09:25:19.361Z</time>
      </trkpt>
      <trkpt lat="44.03541" lon="6.03027">
        <ele>599.79998779297</ele>
        <time>2022-01-02T09:25:24.605Z</time>
      </trkpt>
      <trkpt lat="44.03539" lon="6.03025">
        <ele>600.20001220703</ele>
        <time>2022-01-02T09:25:29.849Z</time>
      </trkpt>
      <trkpt lat="44.03538" lon="6.03024">
        <ele>600.59997558594</ele>
        <time>2022-01-02T09:25:35.094Z</time>
      </trkpt>
      <trkpt lat="44.03532" lon="6.03023">
        <ele>602</ele>
        <time>2022-01-02T09:25:40.341Z</time>
      </trkpt>
      <trkpt lat="44.0353" lon="6.03022">
        <ele>602.40002441406</ele>
        <time>2022-01-02T09:25:45.589Z</time>
      </trkpt>
      <trkpt lat="44.03524" lon="6.0302">
        <ele>603.20001220703</ele>
        <time>2022-01-02T09:25:50.839Z</time>
      </trkpt>
      <trkpt lat="44.0352" lon="6.03019">
        <ele>603.79998779297</ele>
        <time>2022-01-02T09:25:56.091Z</time>
      </trkpt>
      <trkpt lat="44.03513" lon="6.03018">
        <ele>604.40002441406</ele>
        <time>2022-01-02T09:26:01.345Z</time>
      </trkpt>
      <trkpt lat="44.03502" lon="6.0302">
        <ele>605.20001220703</ele>
        <time>2022-01-02T09:26:06.603Z</time>
      </trkpt>
      <trkpt lat="44.03499" lon="6.03021">
        <ele>605.40002441406</ele>
        <time>2022-01-02T09:26:11.862Z</time>
      </trkpt>
      <trkpt lat="44.03489" lon="6.03025">
        <ele>605.79998779297</ele>
        <time>2022-01-02T09:26:17.125Z</time>
      </trkpt>
      <trkpt lat="44.03486" lon="6.03024">
        <ele>605.59997558594</ele>
        <time>2022-01-02T09:26:22.389Z</time>
      </trkpt>
      <trkpt lat="44.03483" lon="6.03014">
        <ele>606</ele>
        <time>2022-01-02T09:26:27.655Z</time>
      </trkpt>
      <trkpt lat="44.03478" lon="6.03008">
        <ele>606.79998779297</ele>
        <time>2022-01-02T09:26:32.923Z</time>
      </trkpt>
      <trkpt lat="44.03471" lon="6.03">
        <ele>607.40002441406</ele>
        <time>2022-01-02T09:26:38.195Z</time>
      </trkpt>
      <trkpt lat="44.03464" lon="6.02989">
        <ele>608</ele>
        <time>2022-01-02T09:26:43.470Z</time>
      </trkpt>
      <trkpt lat="44.03456" lon="6.0298">
        <ele>608.59997558594</ele>
        <time>2022-01-02T09:26:48.749Z</time>
      </trkpt>
      <trkpt lat="44.03446" lon="6.0297">
        <ele>609</ele>
        <time>2022-01-02T09:26:54.032Z</time>
      </trkpt>
      <trkpt lat="44.0344" lon="6.02963">
        <ele>609.59997558594</ele>
        <time>2022-01-02T09:26:59.318Z</time>
      </trkpt>
      <trkpt lat="44.03434" lon="6.02956">
        <ele>610.40002441406</ele>
        <time>2022-01-02T09:27:04.607Z</time>
      </trkpt>
      <trkpt lat="44.03428" lon="6.02951">
        <ele>611.59997558594</ele>
        <time>2022-01-02T09:27:09.898Z</time>
      </trkpt>
      <trkpt lat="44.03427" lon="6.02949">
        <ele>612.20001220703</ele>
        <time>2022-01-02T09:27:15.190Z</time>
      </trkpt>
      <trkpt lat="44.03425" lon="6.02947">
        <ele>612.59997558594</ele>
        <time>2022-01-02T09:27:20.483Z</time>
      </trkpt>
      <trkpt lat="44.03423" lon="6.02942">
        <ele>613.59997558594</ele>
        <time>2022-01-02T09:27:25.777Z</time>
      </trkpt>
      <trkpt lat="44.03419" lon="6.02937">
        <ele>614.59997558594</ele>
        <time>2022-01-02T09:27:31.073Z</time>
      </trkpt>
      <trkpt lat="44.03418" lon="6.02935">
        <ele>615.20001220703</ele>
        <time>2022-01-02T09:27:36.370Z</time>
      </trkpt>
      <trkpt lat="44.03415" lon="6.02933">
        <ele>616.79998779297</ele>
        <time>2022-01-02T09:27:41.668Z</time>
      </trkpt>
      <trkpt lat="44.03411" lon="6.02929">
        <ele>617.79998779297</ele>
        <time>2022-01-02T09:27:46.967Z</time>
      </trkpt>
      <trkpt lat="44.03407" lon="6.02927">
        <ele>619.79998779297</ele>
        <time>2022-01-02T09:27:52.268Z</time>
      </trkpt>
      <trkpt lat="44.03404" lon="6.02923">
        <ele>620.79998779297</ele>
        <time>2022-01-02T09:27:57.570Z</time>
      </trkpt>
      <trkpt lat="44.03402" lon="6.02922">
        <ele>621.79998779297</ele>
        <time>2022-01-02T09:28:02.873Z</time>
      </trkpt>
      <trkpt lat="44.034" lon="6.02922">
        <ele>622.59997558594</ele>
        <time>2022-01-02T09:28:08.177Z</time>
      </trkpt>
      <trkpt lat="44.03397" lon="6.02922">
        <ele>623.20001220703</ele>
        <time>2022-01-02T09:28:13.482Z</time>
      </trkpt>
      <trkpt lat="44.03392" lon="6.02919">
        <ele>624.20001220703</ele>
        <time>2022-01-02T09:28:18.789Z</time>
      </trkpt>
      <trkpt lat="44.0339" lon="6.02917">
        <ele>624.79998779297</ele>
        <time>2022-01-02T09:28:24.096Z</time>
      </trkpt>
      <trkpt lat="44.03389" lon="6.02915">
        <ele>625.20001220703</ele>
        <time>2022-01-02T09:28:29.404Z</time>
      </trkpt>
      <trkpt lat="44.03386" lon="6.02912">
        <ele>626.40002441406</ele>
        <time>2022-01-02T09:28:34.713Z</time>
      </trkpt>
      <trkpt lat="44.03384" lon="6.02912">
        <ele>627</ele>
        <time>2022-01-02T09:28:40.023Z</time>
      </trkpt>
      <trkpt lat="44.03382" lon="6.02912">
        <ele>627.40002441406</ele>
        <time>2022-01-02T09:28:45.334Z</time>
      </trkpt>
      <trkpt lat="44.0338" lon="6.02911">
        <ele>627.59997558594</ele>
        <time>2022-01-02T09:28:50.645Z</time>
      </trkpt>
      <trkpt lat="44.03379" lon="6.02909">
        <ele>628</ele>
        <time>2022-01-02T09:28:55.957Z</time>
      </trkpt>
      <trkpt lat="44.03374" lon="6.02906">
        <ele>628.40002441406</ele>
        <time>2022-01-02T09:29:01.271Z</time>
      </trkpt>
      <trkpt lat="44.03369" lon="6.02901">
        <ele>629.59997558594</ele>
        <time>2022-01-02T09:29:06.587Z</time>
      </trkpt>
      <trkpt lat="44.03364" lon="6.02896">
        <ele>631</ele>
        <time>2022-01-02T09:29:11.905Z</time>
      </trkpt>
      <trkpt lat="44.03357" lon="6.02889">
        <ele>632.20001220703</ele>
        <time>2022-01-02T09:29:17.226Z</time>
      </trkpt>
      <trkpt lat="44.03352" lon="6.02884">
        <ele>632.79998779297</ele>
        <time>2022-01-02T09:29:22.550Z</time>
      </trkpt>
      <trkpt lat="44.0335" lon="6.02883">
        <ele>633.20001220703</ele>
        <time>2022-01-02T09:29:27.874Z</time>
      </trkpt>
      <trkpt lat="44.03344" lon="6.02878">
        <ele>634.40002441406</ele>
        <time>2022-01-02T09:29:33.201Z</time>
      </trkpt>
      <trkpt lat="44.03336" lon="6.02872">
        <ele>635.40002441406</ele>
        <time>2022-01-02T09:29:38.531Z</time>
      </trkpt>
      <trkpt lat="44.03326" lon="6.02863">
        <ele>636.40002441406</ele>
        <time>2022-01-02T09:29:43.865Z</time>
      </trkpt>
      <trkpt lat="44.0332" lon="6.02858">
        <ele>637.59997558594</ele>
        <time>2022-01-02T09:29:49.201Z</time>
      </trkpt>
      <trkpt lat="44.03315" lon="6.02854">
        <ele>638.40002441406</ele>
        <time>2022-01-02T09:29:54.540Z</time>
      </trkpt>
      <trkpt lat="44.0331" lon="6.02849">
        <ele>639.59997558594</ele>
        <time>2022-01-02T09:29:59.881Z</time>
      </trkpt>
      <trkpt lat="44.03306" lon="6.02846">
        <ele>640</ele>
        <time>2022-01-02T09:30:05.223Z</time>
      </trkpt>
      <trkpt lat="44.03303" lon="6.02843">
        <ele>640.59997558594</ele>
        <time>2022-01-02T09:30:10.567Z</time>
      </trkpt>
      <trkpt lat="44.03293" lon="6.02832">
        <ele>641.79998779297</ele>
        <time>2022-01-02T09:30:15.915Z</time>
      </trkpt>
      <trkpt lat="44.03277" lon="6.02815">
        <ele>642.79998779297</ele>
        <time>2022-01-02T09:30:21.270Z</time>
      </trkpt>
      <trkpt lat="44.03265" lon="6.02799">
        <ele>644</ele>
        <time>2022-01-02T09:30:26.631Z</time>
      </trkpt>
      <trkpt lat="44.03264" lon="6.02797">
        <ele>644.40002441406</ele>
        <time>2022-01-02T09:30:31.992Z</time>
      </trkpt>
      <trkpt lat="44.03261" lon="6.02793">
        <ele>645.20001220703</ele>
        <time>2022-01-02T09:30:37.355Z</time>
      </trkpt>
      <trkpt lat="44.03258" lon="6.02788">
        <ele>646.40002441406</ele>
        <time>2022-01-02T09:30:42.720Z</time>
      </trkpt>
      <trkpt lat="44.03253" lon="6.02783">
        <ele>648</ele>
        <time>2022-01-02T09:30:48.087Z</time>
      </trkpt>
      <trkpt lat="44.03248" lon="6.02778">
        <ele>649.40002441406</ele>
        <time>2022-01-02T09:30:53.456Z</time>
      </trkpt>
      <trkpt lat="44.03243" lon="6.02775">
        <ele>650.59997558594</ele>
        <time>2022-01-02T09:30:58.827Z</time>
      </trkpt>
      <trkpt lat="44.03239" lon="6.02773">
        <ele>651.79998779297</ele>
        <time>2022-01-02T09:31:04.199Z</time>
      </trkpt>
      <trkpt lat="44.03231" lon="6.02773">
        <ele>652.59997558594</ele>
        <time>2022-01-02T09:31:09.574Z</time>
      </trkpt>
      <trkpt lat="44.03229" lon="6.02773">
        <ele>652.79998779297</ele>
        <time>2022-01-02T09:31:14.950Z</time>
      </trkpt>
      <trkpt lat="44.03213" lon="6.02772">
        <ele>653.20001220703</ele>
        <time>2022-01-02T09:31:20.331Z</time>
      </trkpt>
      <trkpt lat="44.03196" lon="6.0277">
        <ele>653.79998779297</ele>
        <time>2022-01-02T09:31:25.718Z</time>
      </trkpt>
      <trkpt lat="44.03193" lon="6.02769">
        <ele>654.20001220703</ele>
        <time>2022-01-02T09:31:31.106Z</time>
      </trkpt>
      <trkpt lat="44.03189" lon="6.02768">
        <ele>654.79998779297</ele>
        <time>2022-01-02T09:31:36.496Z</time>
      </trkpt>
      <trkpt lat="44.03182" lon="6.02766">
        <ele>655.79998779297</ele>
        <time>2022-01-02T09:31:41.888Z</time>
      </trkpt>
      <trkpt lat="44.03173" lon="6.02766">
        <ele>656.79998779297</ele>
        <time>2022-01-02T09:31:47.284Z</time>
      </trkpt>
      <trkpt lat="44.0317" lon="6.02766">
        <ele>657</ele>
        <time>2022-01-02T09:31:52.680Z</time>
      </trkpt>
      <trkpt lat="44.03152" lon="6.02774">
        <ele>657.40002441406</ele>
        <time>2022-01-02T09:31:58.083Z</time>
      </trkpt>
      <trkpt lat="44.03129" lon="6.02784">
        <ele>657.59997558594</ele>
        <time>2022-01-02T09:32:03.494Z</time>
      </trkpt>
      <trkpt lat="44.03124" lon="6.02785">
        <ele>658.20001220703</ele>
        <time>2022-01-02T09:32:08.907Z</time>
      </trkpt>
      <trkpt lat="44.0311" lon="6.02789">
        <ele>659.20001220703</ele>
        <time>2022-01-02T09:32:14.325Z</time>
      </trkpt>
      <trkpt lat="44.03086" lon="6.02798">
        <ele>660.20001220703</ele>
        <time>2022-01-02T09:32:19.752Z</time>
      </trkpt>
      <trkpt lat="44.03062" lon="6.02812">
        <ele>660.59997558594</ele>
        <time>2022-01-02T09:32:25.188Z</time>
      </trkpt>
      <trkpt lat="44.03054" lon="6.02815">
        <ele>661.40002441406</ele>
        <time>2022-01-02T09:32:30.627Z</time>
      </trkpt>
      <trkpt lat="44.03045" lon="6.02817">
        <ele>662.40002441406</ele>
        <time>2022-01-02T09:32:36.069Z</time>
      </trkpt>
      <trkpt lat="44.03039" lon="6.02818">
        <ele>663.20001220703</ele>
        <time>2022-01-02T09:32:41.513Z</time>
      </trkpt>
      <trkpt lat="44.03036" lon="6.02819">
        <ele>663.40002441406</ele>
        <time>2022-01-02T09:32:46.958Z</time>
      </trkpt>
      <trkpt lat="44.03028" lon="6.02821">
        <ele>664.59997558594</ele>
        <time>2022-01-02T09:32:52.406Z</time>
      </trkpt>
      <trkpt lat="44.03018" lon="6.02823">
        <ele>665.79998779297</ele>
        <time>2022-01-02T09:32:57.858Z</time>
      </trkpt>
      <trkpt lat="44.0301" lon="6.02826">
        <ele>666.79998779297</ele>
        <time>2022-01-02T09:33:03.313Z</time>
      </trkpt>
      <trkpt lat="44.02996" lon="6.02829">
        <ele>668.20001220703</ele>
        <time>2022-01-02T09:33:08.772Z</time>
      </trkpt>
      <trkpt lat="44.02985" lon="6.02831">
        <ele>669.59997558594</ele>
        <time>2022-01-02T09:33:14.235Z</time>
      </trkpt>
      <trkpt lat="44.0298" lon="6.02832">
        <ele>670.40002441406</ele>
        <time>2022-01-02T09:33:19.700Z</time>
      </trkpt>
      <trkpt lat="44.02977" lon="6.02833">
        <ele>670.59997558594</ele>
        <time>2022-01-02T09:33:25.166Z</time>
      </trkpt>
      <trkpt lat="44.02967" lon="6.02837">
        <ele>671.59997558594</ele>
        <time>2022-01-02T09:33:30.636Z</time>
      </trkpt>
      <trkpt lat="44.02959" lon="6.0284">
        <ele>672</ele>
        <time>2022-01-02T09:33:36.109Z</time>
      </trkpt>
      <trkpt lat="44.02938" lon="6.02849">
        <ele>672.40002441406</ele>
        <time>2022-01-02T09:33:41.589Z</time>
      </trkpt>
      <trkpt lat="44.02925" lon="6.02859">
        <ele>672.20001220703</ele>
        <time>2022-01-02T09:33:47.074Z</time>
      </trkpt>
      <trkpt lat="44.02915" lon="6.02876">
        <ele>672</ele>
        <time>2022-01-02T09:33:52.565Z</time>
      </trkpt>
      <trkpt lat="44.02898" lon="6.02896">
        <ele>671.79998779297</ele>
        <time>2022-01-02T09:33:58.064Z</time>
      </trkpt>
      <trkpt lat="44.02879" lon="6.02919">
        <ele>672.59997558594</ele>
        <time>2022-01-02T09:34:03.572Z</time>
      </trkpt>
      <trkpt lat="44.0287" lon="6.02932">
        <ele>673.20001220703</ele>
        <time>2022-01-02T09:34:09.084Z</time>
      </trkpt>
      <trkpt lat="44.02871" lon="6.02939">
        <ele>673.59997558594</ele>
        <time>2022-01-02T09:34:14.598Z</time>
      </trkpt>
      <trkpt lat="44.02877" lon="6.02947">
        <ele>674.40002441406</ele>
        <time>2022-01-02T09:34:20.115Z</time>
      </trkpt>
      <trkpt lat="44.02886" lon="6.0295">
        <ele>674.59997558594</ele>
        <time>2022-01-02T09:34:25.635Z</time>
      </trkpt>
      <trkpt lat="44.02891" lon="6.02952">
        <ele>674.40002441406</ele>
        <time>2022-01-02T09:34:31.157Z</time>
      </trkpt>
      <trkpt lat="44.02896" lon="6.02953">
        <ele>674</ele>
        <time>2022-01-02T09:34:36.681Z</time>
      </trkpt>
      <trkpt lat="44.02901" lon="6.02955">
        <ele>673.40002441406</ele>
        <time>2022-01-02T09:34:42.206Z</time>
      </trkpt>
      <trkpt lat="44.02911" lon="6.02961">
        <ele>672.20001220703</ele>
        <time>2022-01-02T09:34:47.735Z</time>
      </trkpt>
      <trkpt lat="44.02916" lon="6.02965">
        <ele>671.59997558594</ele>
        <time>2022-01-02T09:34:53.266Z</time>
      </trkpt>
      <trkpt lat="44.02927" lon="6.02971">
        <ele>670.79998779297</ele>
        <time>2022-01-02T09:34:58.801Z</time>
      </trkpt>
      <trkpt lat="44.02938" lon="6.02973">
        <ele>670</ele>
        <time>2022-01-02T09:35:04.340Z</time>
      </trkpt>
      <trkpt lat="44.02943" lon="6.02975">
        <ele>669.59997558594</ele>
        <time>2022-01-02T09:35:09.881Z</time>
      </trkpt>
      <trkpt lat="44.02949" lon="6.02984">
        <ele>669</ele>
        <time>2022-01-02T09:35:15.425Z</time>
      </trkpt>
      <trkpt lat="44.02952" lon="6.02988">
        <ele>669</ele>
        <time>2022-01-02T09:35:20.970Z</time>
      </trkpt>
      <trkpt lat="44.02966" lon="6.03011">
        <ele>670.20001220703</ele>
        <time>2022-01-02T09:35:26.523Z</time>
      </trkpt>
      <trkpt lat="44.02969" lon="6.0302">
        <ele>670.79998779297</ele>
        <time>2022-01-02T09:35:32.079Z</time>
      </trkpt>
      <trkpt lat="44.02971" lon="6.03028">
        <ele>671.40002441406</ele>
        <time>2022-01-02T09:35:37.637Z</time>
      </trkpt>
      <trkpt lat="44.02974" lon="6.03031">
        <ele>672</ele>
        <time>2022-01-02T09:35:43.196Z</time>
      </trkpt>
      <trkpt lat="44.02981" lon="6.03041">
        <ele>673.40002441406</ele>
        <time>2022-01-02T09:35:48.758Z</time>
      </trkpt>
      <trkpt lat="44.02982" lon="6.03045">
        <ele>673.79998779297</ele>
        <time>2022-01-02T09:35:54.321Z</time>
      </trkpt>
      <trkpt lat="44.02982" lon="6.03049">
        <ele>674.40002441406</ele>
        <time>2022-01-02T09:35:59.886Z</time>
      </trkpt>
      <trkpt lat="44.0298" lon="6.03057">
        <ele>675.59997558594</ele>
        <time>2022-01-02T09:36:05.453Z</time>
      </trkpt>
      <trkpt lat="44.02981" lon="6.03064">
        <ele>676.59997558594</ele>
        <time>2022-01-02T09:36:11.022Z</time>
      </trkpt>
      <trkpt lat="44.02983" lon="6.03068">
        <ele>677.20001220703</ele>
        <time>2022-01-02T09:36:16.592Z</time>
      </trkpt>
      <trkpt lat="44.02988" lon="6.03073">
        <ele>678</ele>
        <time>2022-01-02T09:36:22.164Z</time>
      </trkpt>
      <trkpt lat="44.02997" lon="6.0308">
        <ele>678.59997558594</ele>
        <time>2022-01-02T09:36:27.739Z</time>
      </trkpt>
      <trkpt lat="44.03009" lon="6.03087">
        <ele>679</ele>
        <time>2022-01-02T09:36:33.319Z</time>
      </trkpt>
      <trkpt lat="44.0302" lon="6.03093">
        <ele>679</ele>
        <time>2022-01-02T09:36:38.903Z</time>
      </trkpt>
      <trkpt lat="44.03024" lon="6.03095">
        <ele>679.20001220703</ele>
        <time>2022-01-02T09:36:44.489Z</time>
      </trkpt>
      <trkpt lat="44.03028" lon="6.03096">
        <ele>679.20001220703</ele>
        <time>2022-01-02T09:36:50.076Z</time>
      </trkpt>
      <trkpt lat="44.03041" lon="6.03105">
        <ele>679.20001220703</ele>
        <time>2022-01-02T09:36:55.668Z</time>
      </trkpt>
      <trkpt lat="44.03048" lon="6.03111">
        <ele>679.20001220703</ele>
        <time>2022-01-02T09:37:01.263Z</time>
      </trkpt>
      <trkpt lat="44.03053" lon="6.0312">
        <ele>679.20001220703</ele>
        <time>2022-01-02T09:37:06.861Z</time>
      </trkpt>
      <trkpt lat="44.03055" lon="6.03135">
        <ele>679.59997558594</ele>
        <time>2022-01-02T09:37:12.463Z</time>
      </trkpt>
      <trkpt lat="44.03056" lon="6.03139">
        <ele>680</ele>
        <time>2022-01-02T09:37:18.066Z</time>
      </trkpt>
      <trkpt lat="44.03059" lon="6.03155">
        <ele>680.59997558594</ele>
        <time>2022-01-02T09:37:23.673Z</time>
      </trkpt>
      <trkpt lat="44.03059" lon="6.03159">
        <ele>680.79998779297</ele>
        <time>2022-01-02T09:37:29.281Z</time>
      </trkpt>
      <trkpt lat="44.03057" lon="6.03167">
        <ele>681.20001220703</ele>
        <time>2022-01-02T09:37:34.891Z</time>
      </trkpt>
      <trkpt lat="44.03053" lon="6.03173">
        <ele>682.20001220703</ele>
        <time>2022-01-02T09:37:40.503Z</time>
      </trkpt>
      <trkpt lat="44.03049" lon="6.03176">
        <ele>683.59997558594</ele>
        <time>2022-01-02T09:37:46.116Z</time>
      </trkpt>
      <trkpt lat="44.03045" lon="6.0318">
        <ele>684.40002441406</ele>
        <time>2022-01-02T09:37:51.731Z</time>
      </trkpt>
      <trkpt lat="44.03045" lon="6.03181">
        <ele>684.40002441406</ele>
        <time>2022-01-02T09:37:57.347Z</time>
      </trkpt>
      <trkpt lat="44.03044" lon="6.03185">
        <ele>684.20001220703</ele>
        <time>2022-01-02T09:38:02.964Z</time>
      </trkpt>
      <trkpt lat="44.03042" lon="6.03186">
        <ele>684.20001220703</ele>
        <time>2022-01-02T09:38:08.581Z</time>
      </trkpt>
      <trkpt lat="44.03034" lon="6.03195">
        <ele>682.40002441406</ele>
        <time>2022-01-02T09:38:14.202Z</time>
      </trkpt>
      <trkpt lat="44.03031" lon="6.03196">
        <ele>681.40002441406</ele>
        <time>2022-01-02T09:38:19.824Z</time>
      </trkpt>
      <trkpt lat="44.03025" lon="6.03197">
        <ele>680.40002441406</ele>
        <time>2022-01-02T09:38:25.448Z</time>
      </trkpt>
      <trkpt lat="44.03022" lon="6.03198">
        <ele>680</ele>
        <time>2022-01-02T09:38:31.073Z</time>
      </trkpt>
      <trkpt lat="44.0301" lon="6.03203">
        <ele>679.20001220703</ele>
        <time>2022-01-02T09:38:36.703Z</time>
      </trkpt>
      <trkpt lat="44.03006" lon="6.03204">
        <ele>678.59997558594</ele>
        <time>2022-01-02T09:38:42.334Z</time>
      </trkpt>
      <trkpt lat="44.03" lon="6.03203">
        <ele>678.20001220703</ele>
        <time>2022-01-02T09:38:47.967Z</time>
      </trkpt>
      <trkpt lat="44.02994" lon="6.032">
        <ele>678.79998779297</ele>
        <time>2022-01-02T09:38:53.602Z</time>
      </trkpt>
      <trkpt lat="44.02989" lon="6.03198">
        <ele>679</ele>
        <time>2022-01-02T09:38:59.239Z</time>
      </trkpt>
      <trkpt lat="44.02978" lon="6.03196">
        <ele>679</ele>
        <time>2022-01-02T09:39:04.880Z</time>
      </trkpt>
      <trkpt lat="44.02972" lon="6.03194">
        <ele>679.40002441406</ele>
        <time>2022-01-02T09:39:10.523Z</time>
      </trkpt>
      <trkpt lat="44.02957" lon="6.03192">
        <ele>680.40002441406</ele>
        <time>2022-01-02T09:39:16.171Z</time>
      </trkpt>
      <trkpt lat="44.02951" lon="6.03191">
        <ele>680.59997558594</ele>
        <time>2022-01-02T09:39:21.821Z</time>
      </trkpt>
      <trkpt lat="44.02928" lon="6.03181">
        <ele>681</ele>
        <time>2022-01-02T09:39:27.480Z</time>
      </trkpt>
      <trkpt lat="44.02901" lon="6.03161">
        <ele>681</ele>
        <time>2022-01-02T09:39:33.149Z</time>
      </trkpt>
      <trkpt lat="44.02884" lon="6.03151">
        <ele>681.20001220703</ele>
        <time>2022-01-02T09:39:38.825Z</time>
      </trkpt>
      <trkpt lat="44.0288" lon="6.0315">
        <ele>681.20001220703</ele>
        <time>2022-01-02T09:39:44.502Z</time>
      </trkpt>
      <trkpt lat="44.02878" lon="6.03152">
        <ele>680.79998779297</ele>
        <time>2022-01-02T09:39:50.180Z</time>
      </trkpt>
      <trkpt lat="44.02873" lon="6.03155">
        <ele>680.59997558594</ele>
        <time>2022-01-02T09:39:55.860Z</time>
      </trkpt>
      <trkpt lat="44.02859" lon="6.03155">
        <ele>679.40002441406</ele>
        <time>2022-01-02T09:40:01.545Z</time>
      </trkpt>
      <trkpt lat="44.0285" lon="6.0316">
        <ele>678</ele>
        <time>2022-01-02T09:40:07.234Z</time>
      </trkpt>
      <trkpt lat="44.02847" lon="6.03162">
        <ele>677.20001220703</ele>
        <time>2022-01-02T09:40:12.924Z</time>
      </trkpt>
      <trkpt lat="44.02843" lon="6.03165">
        <ele>676.20001220703</ele>
        <time>2022-01-02T09:40:18.615Z</time>
      </trkpt>
      <trkpt lat="44.02839" lon="6.03167">
        <ele>675</ele>
        <time>2022-01-02T09:40:24.308Z</time>
      </trkpt>
      <trkpt lat="44.02836" lon="6.03169">
        <ele>673.59997558594</ele>
        <time>2022-01-02T09:40:30.002Z</time>
      </trkpt>
      <trkpt lat="44.02833" lon="6.03173">
        <ele>672.20001220703</ele>
        <time>2022-01-02T09:40:35.697Z</time>
      </trkpt>
      <trkpt lat="44.0283" lon="6.03176">
        <ele>671</ele>
        <time>2022-01-02T09:40:41.394Z</time>
      </trkpt>
      <trkpt lat="44.02826" lon="6.0318">
        <ele>669.20001220703</ele>
        <time>2022-01-02T09:40:47.092Z</time>
      </trkpt>
      <trkpt lat="44.02822" lon="6.03184">
        <ele>668.20001220703</ele>
        <time>2022-01-02T09:40:52.792Z</time>
      </trkpt>
      <trkpt lat="44.02818" lon="6.03187">
        <ele>667</ele>
        <time>2022-01-02T09:40:58.494Z</time>
      </trkpt>
      <trkpt lat="44.02813" lon="6.03189">
        <ele>666</ele>
        <time>2022-01-02T09:41:04.197Z</time>
      </trkpt>
      <trkpt lat="44.02809" lon="6.0319">
        <ele>664.59997558594</ele>
        <time>2022-01-02T09:41:09.902Z</time>
      </trkpt>
      <trkpt lat="44.02802" lon="6.03195">
        <ele>663.20001220703</ele>
        <time>2022-01-02T09:41:15.610Z</time>
      </trkpt>
      <trkpt lat="44.02794" lon="6.032">
        <ele>661.59997558594</ele>
        <time>2022-01-02T09:41:21.321Z</time>
      </trkpt>
      <trkpt lat="44.02787" lon="6.03206">
        <ele>660</ele>
        <time>2022-01-02T09:41:27.035Z</time>
      </trkpt>
      <trkpt lat="44.02783" lon="6.03209">
        <ele>658.40002441406</ele>
        <time>2022-01-02T09:41:32.750Z</time>
      </trkpt>
      <trkpt lat="44.02778" lon="6.03211">
        <ele>657.20001220703</ele>
        <time>2022-01-02T09:41:38.467Z</time>
      </trkpt>
      <trkpt lat="44.02774" lon="6.03213">
        <ele>656</ele>
        <time>2022-01-02T09:41:44.185Z</time>
      </trkpt>
      <trkpt lat="44.02771" lon="6.03214">
        <ele>655</ele>
        <time>2022-01-02T09:41:49.905Z</time>
      </trkpt>
      <trkpt lat="44.02768" lon="6.03217">
        <ele>653.59997558594</ele>
        <time>2022-01-02T09:41:55.626Z</time>
      </trkpt>
      <trkpt lat="44.02766" lon="6.0322">
        <ele>652.20001220703</ele>
        <time>2022-01-02T09:42:01.348Z</time>
      </trkpt>
      <trkpt lat="44.02766" lon="6.03224">
        <ele>651.20001220703</ele>
        <time>2022-01-02T09:42:07.071Z</time>
      </trkpt>
      <trkpt lat="44.02765" lon="6.03228">
        <ele>650</ele>
        <time>2022-01-02T09:42:12.795Z</time>
      </trkpt>
      <trkpt lat="44.02763" lon="6.03232">
        <ele>649</ele>
        <time>2022-01-02T09:42:18.520Z</time>
      </trkpt>
      <trkpt lat="44.02761" lon="6.03235">
        <ele>647.79998779297</ele>
        <time>2022-01-02T09:42:24.246Z</time>
      </trkpt>
      <trkpt lat="44.02758" lon="6.03237">
        <ele>646.20001220703</ele>
        <time>2022-01-02T09:42:29.973Z</time>
      </trkpt>
      <trkpt lat="44.02755" lon="6.03236">
        <ele>644.79998779297</ele>
        <time>2022-01-02T09:42:35.701Z</time>
      </trkpt>
      <trkpt lat="44.02752" lon="6.03237">
        <ele>643.59997558594</ele>
        <time>2022-01-02T09:42:41.430Z</time>
      </trkpt>
      <trkpt lat="44.02748" lon="6.03238">
        <ele>642</ele>
        <time>2022-01-02T09:42:47.161Z</time>
      </trkpt>
      <trkpt lat="44.02744" lon="6.03238">
        <ele>640.79998779297</ele>
        <time>2022-01-02T09:42:52.893Z</time>
      </trkpt>
      <trkpt lat="44.0274" lon="6.03236">
        <ele>639.79998779297</ele>
        <time>2022-01-02T09:42:58.627Z</time>
      </trkpt>
      <trkpt lat="44.02733" lon="6.03235">
        <ele>638</ele>
        <time>2022-01-02T09:43:04.363Z</time>
      </trkpt>
      <trkpt lat="44.02729" lon="6.03237">
        <ele>637.20001220703</ele>
        <time>2022-01-02T09:43:10.100Z</time>
      </trkpt>
      <trkpt lat="44.02725" lon="6.03239">
        <ele>636.20001220703</ele>
        <time>2022-01-02T09:43:15.839Z</time>
      </trkpt>
      <trkpt lat="44.02722" lon="6.03242">
        <ele>635</ele>
        <time>2022-01-02T09:43:21.579Z</time>
      </trkpt>
      <trkpt lat="44.02718" lon="6.03244">
        <ele>633.20001220703</ele>
        <time>2022-01-02T09:43:27.321Z</time>
      </trkpt>
      <trkpt lat="44.02714" lon="6.03245">
        <ele>632.40002441406</ele>
        <time>2022-01-02T09:43:33.064Z</time>
      </trkpt>
      <trkpt lat="44.0271" lon="6.03246">
        <ele>631.59997558594</ele>
        <time>2022-01-02T09:43:38.809Z</time>
      </trkpt>
      <trkpt lat="44.02704" lon="6.03253">
        <ele>629.59997558594</ele>
        <time>2022-01-02T09:43:44.556Z</time>
      </trkpt>
      <trkpt lat="44.02701" lon="6.03259">
        <ele>628.59997558594</ele>
        <time>2022-01-02T09:43:50.305Z</time>
      </trkpt>
      <trkpt lat="44.02698" lon="6.03264">
        <ele>627.20001220703</ele>
        <time>2022-01-02T09:43:56.056Z</time>
      </trkpt>
      <trkpt lat="44.02695" lon="6.03268">
        <ele>626</ele>
        <time>2022-01-02T09:44:01.808Z</time>
      </trkpt>
      <trkpt lat="44.02691" lon="6.03272">
        <ele>624.40002441406</ele>
        <time>2022-01-02T09:44:07.562Z</time>
      </trkpt>
      <trkpt lat="44.02685" lon="6.03281">
        <ele>622.79998779297</ele>
        <time>2022-01-02T09:44:13.319Z</time>
      </trkpt>
      <trkpt lat="44.02684" lon="6.03286">
        <ele>622.20001220703</ele>
        <time>2022-01-02T09:44:19.077Z</time>
      </trkpt>
      <trkpt lat="44.0268" lon="6.03296">
        <ele>621.79998779297</ele>
        <time>2022-01-02T09:44:24.838Z</time>
      </trkpt>
      <trkpt lat="44.02679" lon="6.03299">
        <ele>621.79998779297</ele>
        <time>2022-01-02T09:44:30.600Z</time>
      </trkpt>
      <trkpt lat="44.02677" lon="6.03311">
        <ele>622</ele>
        <time>2022-01-02T09:44:36.365Z</time>
      </trkpt>
      <trkpt lat="44.02678" lon="6.03315">
        <ele>622.20001220703</ele>
        <time>2022-01-02T09:44:42.131Z</time>
      </trkpt>
      <trkpt lat="44.02679" lon="6.03333">
        <ele>623.20001220703</ele>
        <time>2022-01-02T09:44:47.902Z</time>
      </trkpt>
      <trkpt lat="44.02674" lon="6.03342">
        <ele>624.59997558594</ele>
        <time>2022-01-02T09:44:53.676Z</time>
      </trkpt>
      <trkpt lat="44.02669" lon="6.0334">
        <ele>625.79998779297</ele>
        <time>2022-01-02T09:44:59.451Z</time>
      </trkpt>
      <trkpt lat="44.02667" lon="6.03338">
        <ele>626.40002441406</ele>
        <time>2022-01-02T09:45:05.227Z</time>
      </trkpt>
      <trkpt lat="44.02662" lon="6.03334">
        <ele>627</ele>
        <time>2022-01-02T09:45:11.005Z</time>
      </trkpt>
      <trkpt lat="44.0266" lon="6.0333">
        <ele>627.40002441406</ele>
        <time>2022-01-02T09:45:16.785Z</time>
      </trkpt>
      <trkpt lat="44.02653" lon="6.03325">
        <ele>628</ele>
        <time>2022-01-02T09:45:22.567Z</time>
      </trkpt>
      <trkpt lat="44.02652" lon="6.03322">
        <ele>628.40002441406</ele>
        <time>2022-01-02T09:45:28.350Z</time>
      </trkpt>
      <trkpt lat="44.0265" lon="6.03317">
        <ele>629.20001220703</ele>
        <time>2022-01-02T09:45:34.134Z</time>
      </trkpt>
      <trkpt lat="44.02647" lon="6.03309">
        <ele>630.20001220703</ele>
        <time>2022-01-02T09:45:39.921Z</time>
      </trkpt>
      <trkpt lat="44.02647" lon="6.03307">
        <ele>630.59997558594</ele>
        <time>2022-01-02T09:45:45.708Z</time>
      </trkpt>
      <trkpt lat="44.02647" lon="6.03305">
        <ele>631</ele>
        <time>2022-01-02T09:45:51.496Z</time>
      </trkpt>
      <trkpt lat="44.02648" lon="6.033">
        <ele>631.59997558594</ele>
        <time>2022-01-02T09:45:57.285Z</time>
      </trkpt>
      <trkpt lat="44.02649" lon="6.03298">
        <ele>632</ele>
        <time>2022-01-02T09:46:03.075Z</time>
      </trkpt>
      <trkpt lat="44.02648" lon="6.03288">
        <ele>632.59997558594</ele>
        <time>2022-01-02T09:46:08.867Z</time>
      </trkpt>
      <trkpt lat="44.02648" lon="6.03285">
        <ele>632.79998779297</ele>
        <time>2022-01-02T09:46:14.660Z</time>
      </trkpt>
      <trkpt lat="44.0265" lon="6.0327">
        <ele>633.59997558594</ele>
        <time>2022-01-02T09:46:20.457Z</time>
      </trkpt>
      <trkpt lat="44.0265" lon="6.03261">
        <ele>634.79998779297</ele>
        <time>2022-01-02T09:46:26.256Z</time>
      </trkpt>
      <trkpt lat="44.02649" lon="6.03259">
        <ele>635.40002441406</ele>
        <time>2022-01-02T09:46:32.056Z</time>
      </trkpt>
      <trkpt lat="44.02647" lon="6.03254">
        <ele>636.20001220703</ele>
        <time>2022-01-02T09:46:37.857Z</time>
      </trkpt>
      <trkpt lat="44.02645" lon="6.03249">
        <ele>637.59997558594</ele>
        <time>2022-01-02T09:46:43.660Z</time>
      </trkpt>
      <trkpt lat="44.02643" lon="6.03246">
        <ele>639.20001220703</ele>
        <time>2022-01-02T09:46:49.463Z</time>
      </trkpt>
      <trkpt lat="44.02642" lon="6.03246">
        <ele>640</ele>
        <time>2022-01-02T09:46:55.267Z</time>
      </trkpt>
      <trkpt lat="44.02639" lon="6.03245">
        <ele>640.59997558594</ele>
        <time>2022-01-02T09:47:01.072Z</time>
      </trkpt>
      <trkpt lat="44.02635" lon="6.03242">
        <ele>641.59997558594</ele>
        <time>2022-01-02T09:47:06.878Z</time>
      </trkpt>
      <trkpt lat="44.0263" lon="6.03239">
        <ele>642.40002441406</ele>
        <time>2022-01-02T09:47:12.686Z</time>
      </trkpt>
      <trkpt lat="44.02627" lon="6.03239">
        <ele>643.20001220703</ele>
        <time>2022-01-02T09:47:18.495Z</time>
      </trkpt>
      <trkpt lat="44.02619" lon="6.0324">
        <ele>644.59997558594</ele>
        <time>2022-01-02T09:47:24.307Z</time>
      </trkpt>
      <trkpt lat="44.02616" lon="6.03241">
        <ele>644.79998779297</ele>
        <time>2022-01-02T09:47:30.120Z</time>
      </trkpt>
      <trkpt lat="44.0261" lon="6.03242">
        <ele>645.59997558594</ele>
        <time>2022-01-02T09:47:35.935Z</time>
      </trkpt>
      <trkpt lat="44.02602" lon="6.03243">
        <ele>646.79998779297</ele>
        <time>2022-01-02T09:47:41.753Z</time>
      </trkpt>
      <trkpt lat="44.02597" lon="6.03245">
        <ele>647.79998779297</ele>
        <time>2022-01-02T09:47:47.573Z</time>
      </trkpt>
      <trkpt lat="44.02595" lon="6.03247">
        <ele>648</ele>
        <time>2022-01-02T09:47:53.394Z</time>
      </trkpt>
      <trkpt lat="44.02582" lon="6.03252">
        <ele>648.40002441406</ele>
        <time>2022-01-02T09:47:59.219Z</time>
      </trkpt>
      <trkpt lat="44.02573" lon="6.03253">
        <ele>648.40002441406</ele>
        <time>2022-01-02T09:48:05.048Z</time>
      </trkpt>
      <trkpt lat="44.02554" lon="6.0325">
        <ele>648.20001220703</ele>
        <time>2022-01-02T09:48:10.883Z</time>
      </trkpt>
      <trkpt lat="44.02538" lon="6.03249">
        <ele>647.59997558594</ele>
        <time>2022-01-02T09:48:16.724Z</time>
      </trkpt>
      <trkpt lat="44.02531" lon="6.0325">
        <ele>647</ele>
        <time>2022-01-02T09:48:22.567Z</time>
      </trkpt>
      <trkpt lat="44.02523" lon="6.03255">
        <ele>645.40002441406</ele>
        <time>2022-01-02T09:48:28.413Z</time>
      </trkpt>
      <trkpt lat="44.02519" lon="6.03264">
        <ele>643.59997558594</ele>
        <time>2022-01-02T09:48:34.262Z</time>
      </trkpt>
      <trkpt lat="44.0252" lon="6.03268">
        <ele>642.79998779297</ele>
        <time>2022-01-02T09:48:40.112Z</time>
      </trkpt>
      <trkpt lat="44.02522" lon="6.03272">
        <ele>641.79998779297</ele>
        <time>2022-01-02T09:48:45.963Z</time>
      </trkpt>
      <trkpt lat="44.02523" lon="6.03278">
        <ele>640.20001220703</ele>
        <time>2022-01-02T09:48:51.816Z</time>
      </trkpt>
      <trkpt lat="44.02525" lon="6.03288">
        <ele>638.20001220703</ele>
        <time>2022-01-02T09:48:57.671Z</time>
      </trkpt>
      <trkpt lat="44.02526" lon="6.03295">
        <ele>637</ele>
        <time>2022-01-02T09:49:03.528Z</time>
      </trkpt>
      <trkpt lat="44.02524" lon="6.03302">
        <ele>635.20001220703</ele>
        <time>2022-01-02T09:49:09.387Z</time>
      </trkpt>
      <trkpt lat="44.02522" lon="6.03309">
        <ele>634</ele>
        <time>2022-01-02T09:49:15.248Z</time>
      </trkpt>
      <trkpt lat="44.02521" lon="6.03315">
        <ele>633.20001220703</ele>
        <time>2022-01-02T09:49:21.110Z</time>
      </trkpt>
      <trkpt lat="44.0252" lon="6.03319">
        <ele>632.79998779297</ele>
        <time>2022-01-02T09:49:26.974Z</time>
      </trkpt>
      <trkpt lat="44.02518" lon="6.03329">
        <ele>632.59997558594</ele>
        <time>2022-01-02T09:49:32.840Z</time>
      </trkpt>
      <trkpt lat="44.02511" lon="6.03347">
        <ele>634</ele>
        <time>2022-01-02T09:49:38.711Z</time>
      </trkpt>
      <trkpt lat="44.02509" lon="6.03355">
        <ele>635.40002441406</ele>
        <time>2022-01-02T09:49:44.585Z</time>
      </trkpt>
      <trkpt lat="44.02507" lon="6.03359">
        <ele>635.79998779297</ele>
        <time>2022-01-02T09:49:50.460Z</time>
      </trkpt>
      <trkpt lat="44.02503" lon="6.03365">
        <ele>636.59997558594</ele>
        <time>2022-01-02T09:49:56.337Z</time>
      </trkpt>
      <trkpt lat="44.02497" lon="6.0337">
        <ele>637.79998779297</ele>
        <time>2022-01-02T09:50:02.216Z</time>
      </trkpt>
      <trkpt lat="44.02493" lon="6.03371">
        <ele>638.20001220703</ele>
        <time>2022-01-02T09:50:08.096Z</time>
      </trkpt>
      <trkpt lat="44.02487" lon="6.03373">
        <ele>639</ele>
        <time>2022-01-02T09:50:13.979Z</time>
      </trkpt>
      <trkpt lat="44.0247" lon="6.03373">
        <ele>639.79998779297</ele>
        <time>2022-01-02T09:50:19.868Z</time>
      </trkpt>
      <trkpt lat="44.02463" lon="6.03373">
        <ele>640</ele>
        <time>2022-01-02T09:50:25.759Z</time>
      </trkpt>
      <trkpt lat="44.02456" lon="6.03374">
        <ele>640.40002441406</ele>
        <time>2022-01-02T09:50:31.652Z</time>
      </trkpt>
      <trkpt lat="44.02453" lon="6.03373">
        <ele>640.59997558594</ele>
        <time>2022-01-02T09:50:37.546Z</time>
      </trkpt>
      <trkpt lat="44.02449" lon="6.03373">
        <ele>641</ele>
        <time>2022-01-02T09:50:43.442Z</time>
      </trkpt>
      <trkpt lat="44.02442" lon="6.03373">
        <ele>640.79998779297</ele>
        <time>2022-01-02T09:50:49.340Z</time>
      </trkpt>
      <trkpt lat="44.02434" lon="6.03373">
        <ele>640.40002441406</ele>
        <time>2022-01-02T09:50:55.241Z</time>
      </trkpt>
      <trkpt lat="44.0243" lon="6.03372">
        <ele>640.20001220703</ele>
        <time>2022-01-02T09:51:01.144Z</time>
      </trkpt>
      <trkpt lat="44.02426" lon="6.0337">
        <ele>639.79998779297</ele>
        <time>2022-01-02T09:51:07.048Z</time>
      </trkpt>
      <trkpt lat="44.02421" lon="6.03366">
        <ele>639.59997558594</ele>
        <time>2022-01-02T09:51:12.954Z</time>
      </trkpt>
      <trkpt lat="44.02417" lon="6.03362">
        <ele>639.20001220703</ele>
        <time>2022-01-02T09:51:18.862Z</time>
      </trkpt>
      <trkpt lat="44.02413" lon="6.03358">
        <ele>638.79998779297</ele>
        <time>2022-01-02T09:51:24.772Z</time>
      </trkpt>
      <trkpt lat="44.02404" lon="6.03351">
        <ele>637.79998779297</ele>
        <time>2022-01-02T09:51:30.685Z</time>
      </trkpt>
      <trkpt lat="44.0239" lon="6.03341">
        <ele>636.59997558594</ele>
        <time>2022-01-02T09:51:36.604Z</time>
      </trkpt>
      <trkpt lat="44.02386" lon="6.03337">
        <ele>636.40002441406</ele>
        <time>2022-01-02T09:51:42.524Z</time>
      </trkpt>
      <trkpt lat="44.02382" lon="6.03334">
        <ele>636</ele>
        <time>2022-01-02T09:51:48.446Z</time>
      </trkpt>
      <trkpt lat="44.02374" lon="6.03327">
        <ele>635.59997558594</ele>
        <time>2022-01-02T09:51:54.371Z</time>
      </trkpt>
      <trkpt lat="44.02368" lon="6.0332">
        <ele>635.40002441406</ele>
        <time>2022-01-02T09:52:00.299Z</time>
      </trkpt>
      <trkpt lat="44.02363" lon="6.03318">
        <ele>635.40002441406</ele>
        <time>2022-01-02T09:52:06.229Z</time>
      </trkpt>
      <trkpt lat="44.02352" lon="6.03315">
        <ele>635.40002441406</ele>
        <time>2022-01-02T09:52:12.163Z</time>
      </trkpt>
      <trkpt lat="44.02348" lon="6.03315">
        <ele>635.40002441406</ele>
        <time>2022-01-02T09:52:18.098Z</time>
      </trkpt>
      <trkpt lat="44.0233" lon="6.0331">
        <ele>635.40002441406</ele>
        <time>2022-01-02T09:52:24.040Z</time>
      </trkpt>
      <trkpt lat="44.02311" lon="6.03308">
        <ele>635.20001220703</ele>
        <time>2022-01-02T09:52:29.988Z</time>
      </trkpt>
      <trkpt lat="44.02298" lon="6.03307">
        <ele>635.40002441406</ele>
        <time>2022-01-02T09:52:35.941Z</time>
      </trkpt>
      <trkpt lat="44.02293" lon="6.03307">
        <ele>635.40002441406</ele>
        <time>2022-01-02T09:52:41.895Z</time>
      </trkpt>
      <trkpt lat="44.02278" lon="6.0331">
        <ele>636</ele>
        <time>2022-01-02T09:52:47.855Z</time>
      </trkpt>
      <trkpt lat="44.02276" lon="6.03313">
        <ele>636</ele>
        <time>2022-01-02T09:52:53.816Z</time>
      </trkpt>
      <trkpt lat="44.02276" lon="6.03317">
        <ele>635.79998779297</ele>
        <time>2022-01-02T09:52:59.778Z</time>
      </trkpt>
      <trkpt lat="44.02274" lon="6.03322">
        <ele>635.20001220703</ele>
        <time>2022-01-02T09:53:05.741Z</time>
      </trkpt>
      <trkpt lat="44.02271" lon="6.03324">
        <ele>634.59997558594</ele>
        <time>2022-01-02T09:53:11.705Z</time>
      </trkpt>
      <trkpt lat="44.02268" lon="6.03326">
        <ele>634</ele>
        <time>2022-01-02T09:53:17.670Z</time>
      </trkpt>
      <trkpt lat="44.02259" lon="6.03323">
        <ele>633.20001220703</ele>
        <time>2022-01-02T09:53:23.639Z</time>
      </trkpt>
      <trkpt lat="44.02249" lon="6.03311">
        <ele>633.40002441406</ele>
        <time>2022-01-02T09:53:29.612Z</time>
      </trkpt>
      <trkpt lat="44.02234" lon="6.03298">
        <ele>634.20001220703</ele>
        <time>2022-01-02T09:53:35.592Z</time>
      </trkpt>
      <trkpt lat="44.02226" lon="6.03295">
        <ele>634.59997558594</ele>
        <time>2022-01-02T09:53:41.574Z</time>
      </trkpt>
      <trkpt lat="44.02217" lon="6.03294">
        <ele>634.79998779297</ele>
        <time>2022-01-02T09:53:47.560Z</time>
      </trkpt>
      <trkpt lat="44.02204" lon="6.03292">
        <ele>635.40002441406</ele>
        <time>2022-01-02T09:53:53.550Z</time>
      </trkpt>
      <trkpt lat="44.02192" lon="6.03289">
        <ele>635.79998779297</ele>
        <time>2022-01-02T09:53:59.544Z</time>
      </trkpt>
      <trkpt lat="44.02185" lon="6.03286">
        <ele>636.59997558594</ele>
        <time>2022-01-02T09:54:05.541Z</time>
      </trkpt>
      <trkpt lat="44.02175" lon="6.03279">
        <ele>637.59997558594</ele>
        <time>2022-01-02T09:54:11.542Z</time>
      </trkpt>
      <trkpt lat="44.02161" lon="6.03273">
        <ele>639</ele>
        <time>2022-01-02T09:54:17.548Z</time>
      </trkpt>
      <trkpt lat="44.02159" lon="6.03272">
        <ele>639.79998779297</ele>
        <time>2022-01-02T09:54:23.555Z</time>
      </trkpt>
      <trkpt lat="44.02157" lon="6.0327">
        <ele>640.40002441406</ele>
        <time>2022-01-02T09:54:29.563Z</time>
      </trkpt>
      <trkpt lat="44.02153" lon="6.03267">
        <ele>641.59997558594</ele>
        <time>2022-01-02T09:54:35.572Z</time>
      </trkpt>
      <trkpt lat="44.02149" lon="6.03262">
        <ele>642.40002441406</ele>
        <time>2022-01-02T09:54:41.583Z</time>
      </trkpt>
      <trkpt lat="44.02146" lon="6.0326">
        <ele>643</ele>
        <time>2022-01-02T09:54:47.595Z</time>
      </trkpt>
      <trkpt lat="44.02141" lon="6.03255">
        <ele>644.20001220703</ele>
        <time>2022-01-02T09:54:53.609Z</time>
      </trkpt>
      <trkpt lat="44.02137" lon="6.0325">
        <ele>645</ele>
        <time>2022-01-02T09:54:59.625Z</time>
      </trkpt>
      <trkpt lat="44.02135" lon="6.03248">
        <ele>645.20001220703</ele>
        <time>2022-01-02T09:55:05.642Z</time>
      </trkpt>
      <trkpt lat="44.02129" lon="6.03241">
        <ele>646.59997558594</ele>
        <time>2022-01-02T09:55:11.662Z</time>
      </trkpt>
      <trkpt lat="44.02125" lon="6.03237">
        <ele>647.40002441406</ele>
        <time>2022-01-02T09:55:17.684Z</time>
      </trkpt>
      <trkpt lat="44.02123" lon="6.03235">
        <ele>647.79998779297</ele>
        <time>2022-01-02T09:55:23.707Z</time>
      </trkpt>
      <trkpt lat="44.02117" lon="6.0323">
        <ele>648.79998779297</ele>
        <time>2022-01-02T09:55:29.732Z</time>
      </trkpt>
      <trkpt lat="44.02112" lon="6.03227">
        <ele>649.59997558594</ele>
        <time>2022-01-02T09:55:35.759Z</time>
      </trkpt>
      <trkpt lat="44.02109" lon="6.03227">
        <ele>650</ele>
        <time>2022-01-02T09:55:41.787Z</time>
      </trkpt>
      <trkpt lat="44.02101" lon="6.03227">
        <ele>651.40002441406</ele>
        <time>2022-01-02T09:55:47.818Z</time>
      </trkpt>
      <trkpt lat="44.02093" lon="6.03226">
        <ele>653</ele>
        <time>2022-01-02T09:55:53.851Z</time>
      </trkpt>
      <trkpt lat="44.02091" lon="6.03226">
        <ele>653.20001220703</ele>
        <time>2022-01-02T09:55:59.885Z</time>
      </trkpt>
      <trkpt lat="44.02078" lon="6.0322">
        <ele>654.20001220703</ele>
        <time>2022-01-02T09:56:05.924Z</time>
      </trkpt>
      <trkpt lat="44.02074" lon="6.03216">
        <ele>654.59997558594</ele>
        <time>2022-01-02T09:56:11.965Z</time>
      </trkpt>
      <trkpt lat="44.0207" lon="6.03214">
        <ele>655.59997558594</ele>
        <time>2022-01-02T09:56:18.007Z</time>
      </trkpt>
      <trkpt lat="44.02064" lon="6.03215">
        <ele>656.59997558594</ele>
        <time>2022-01-02T09:56:24.051Z</time>
      </trkpt>
      <trkpt lat="44.02061" lon="6.03216">
        <ele>657</ele>
        <time>2022-01-02T09:56:30.096Z</time>
      </trkpt>
      <trkpt lat="44.0206" lon="6.03221">
        <ele>657.20001220703</ele>
        <time>2022-01-02T09:56:36.142Z</time>
      </trkpt>
      <trkpt lat="44.0206" lon="6.03223">
        <ele>657.20001220703</ele>
        <time>2022-01-02T09:56:42.189Z</time>
      </trkpt>
      <trkpt lat="44.02061" lon="6.03227">
        <ele>657</ele>
        <time>2022-01-02T09:56:48.237Z</time>
      </trkpt>
      <trkpt lat="44.02062" lon="6.03238">
        <ele>656.20001220703</ele>
        <time>2022-01-02T09:56:54.288Z</time>
      </trkpt>
      <trkpt lat="44.02062" lon="6.03252">
        <ele>655.79998779297</ele>
        <time>2022-01-02T09:57:00.342Z</time>
      </trkpt>
      <trkpt lat="44.0206" lon="6.0326">
        <ele>655.40002441406</ele>
        <time>2022-01-02T09:57:06.399Z</time>
      </trkpt>
      <trkpt lat="44.02064" lon="6.03277">
        <ele>654.79998779297</ele>
        <time>2022-01-02T09:57:12.460Z</time>
      </trkpt>
      <trkpt lat="44.02066" lon="6.03282">
        <ele>654.20001220703</ele>
        <time>2022-01-02T09:57:18.523Z</time>
      </trkpt>
      <trkpt lat="44.0207" lon="6.03286">
        <ele>653.59997558594</ele>
        <time>2022-01-02T09:57:24.587Z</time>
      </trkpt>
      <trkpt lat="44.02078" lon="6.03294">
        <ele>652.40002441406</ele>
        <time>2022-01-02T09:57:30.655Z</time>
      </trkpt>
      <trkpt lat="44.02082" lon="6.03299">
        <ele>651.40002441406</ele>
        <time>2022-01-02T09:57:36.725Z</time>
      </trkpt>
      <trkpt lat="44.0209" lon="6.03312">
        <ele>650</ele>
        <time>2022-01-02T09:57:42.799Z</time>
      </trkpt>
      <trkpt lat="44.02095" lon="6.03318">
        <ele>649.20001220703</ele>
        <time>2022-01-02T09:57:48.875Z</time>
      </trkpt>
      <trkpt lat="44.021" lon="6.03324">
        <ele>648.40002441406</ele>
        <time>2022-01-02T09:57:54.953Z</time>
      </trkpt>
      <trkpt lat="44.02104" lon="6.0333">
        <ele>647.40002441406</ele>
        <time>2022-01-02T09:58:01.034Z</time>
      </trkpt>
      <trkpt lat="44.02114" lon="6.03342">
        <ele>645.79998779297</ele>
        <time>2022-01-02T09:58:07.119Z</time>
      </trkpt>
      <trkpt lat="44.02119" lon="6.03348">
        <ele>644.79998779297</ele>
        <time>2022-01-02T09:58:13.206Z</time>
      </trkpt>
      <trkpt lat="44.02123" lon="6.03354">
        <ele>644.20001220703</ele>
        <time>2022-01-02T09:58:19.296Z</time>
      </trkpt>
      <trkpt lat="44.02133" lon="6.03366">
        <ele>642.59997558594</ele>
        <time>2022-01-02T09:58:25.390Z</time>
      </trkpt>
      <trkpt lat="44.02143" lon="6.03378">
        <ele>641.20001220703</ele>
        <time>2022-01-02T09:58:31.489Z</time>
      </trkpt>
      <trkpt lat="44.02148" lon="6.03385">
        <ele>640.20001220703</ele>
        <time>2022-01-02T09:58:37.590Z</time>
      </trkpt>
      <trkpt lat="44.02154" lon="6.03391">
        <ele>638.79998779297</ele>
        <time>2022-01-02T09:58:43.694Z</time>
      </trkpt>
      <trkpt lat="44.02159" lon="6.03396">
        <ele>637.40002441406</ele>
        <time>2022-01-02T09:58:49.800Z</time>
      </trkpt>
      <trkpt lat="44.02165" lon="6.03401">
        <ele>636.20001220703</ele>
        <time>2022-01-02T09:58:55.908Z</time>
      </trkpt>
      <trkpt lat="44.02172" lon="6.03404">
        <ele>635.20001220703</ele>
        <time>2022-01-02T09:59:02.019Z</time>
      </trkpt>
      <trkpt lat="44.02178" lon="6.03406">
        <ele>634</ele>
        <time>2022-01-02T09:59:08.132Z</time>
      </trkpt>
      <trkpt lat="44.02184" lon="6.03407">
        <ele>633</ele>
        <time>2022-01-02T09:59:14.247Z</time>
      </trkpt>
      <trkpt lat="44.02196" lon="6.03413">
        <ele>631</ele>
        <time>2022-01-02T09:59:20.367Z</time>
      </trkpt>
      <trkpt lat="44.02207" lon="6.03421">
        <ele>628.59997558594</ele>
        <time>2022-01-02T09:59:26.491Z</time>
      </trkpt>
      <trkpt lat="44.0222" lon="6.0343">
        <ele>626.79998779297</ele>
        <time>2022-01-02T09:59:32.620Z</time>
      </trkpt>
      <trkpt lat="44.02225" lon="6.03435">
        <ele>626</ele>
        <time>2022-01-02T09:59:38.751Z</time>
      </trkpt>
      <trkpt lat="44.02231" lon="6.0344">
        <ele>625.20001220703</ele>
        <time>2022-01-02T09:59:44.885Z</time>
      </trkpt>
      <trkpt lat="44.02243" lon="6.03449">
        <ele>623.20001220703</ele>
        <time>2022-01-02T09:59:51.023Z</time>
      </trkpt>
      <trkpt lat="44.02247" lon="6.03456">
        <ele>621.79998779297</ele>
        <time>2022-01-02T09:59:57.164Z</time>
      </trkpt>
      <trkpt lat="44.02251" lon="6.03464">
        <ele>620.20001220703</ele>
        <time>2022-01-02T10:00:03.307Z</time>
      </trkpt>
      <trkpt lat="44.02256" lon="6.03472">
        <ele>619.20001220703</ele>
        <time>2022-01-02T10:00:09.453Z</time>
      </trkpt>
      <trkpt lat="44.02261" lon="6.0348">
        <ele>618.20001220703</ele>
        <time>2022-01-02T10:00:15.601Z</time>
      </trkpt>
      <trkpt lat="44.02267" lon="6.03486">
        <ele>617.40002441406</ele>
        <time>2022-01-02T10:00:21.752Z</time>
      </trkpt>
      <trkpt lat="44.02273" lon="6.03492">
        <ele>617</ele>
        <time>2022-01-02T10:00:27.905Z</time>
      </trkpt>
      <trkpt lat="44.02279" lon="6.03497">
        <ele>616.40002441406</ele>
        <time>2022-01-02T10:00:34.061Z</time>
      </trkpt>
      <trkpt lat="44.02285" lon="6.03502">
        <ele>615.79998779297</ele>
        <time>2022-01-02T10:00:40.219Z</time>
      </trkpt>
      <trkpt lat="44.02298" lon="6.03512">
        <ele>613.79998779297</ele>
        <time>2022-01-02T10:00:46.383Z</time>
      </trkpt>
      <trkpt lat="44.02312" lon="6.03519">
        <ele>612</ele>
        <time>2022-01-02T10:00:52.552Z</time>
      </trkpt>
      <trkpt lat="44.02319" lon="6.03523">
        <ele>610.79998779297</ele>
        <time>2022-01-02T10:00:58.723Z</time>
      </trkpt>
      <trkpt lat="44.0233" lon="6.03532">
        <ele>609</ele>
        <time>2022-01-02T10:01:04.899Z</time>
      </trkpt>
      <trkpt lat="44.02335" lon="6.03536">
        <ele>608</ele>
        <time>2022-01-02T10:01:11.077Z</time>
      </trkpt>
      <trkpt lat="44.02339" lon="6.03538">
        <ele>606.79998779297</ele>
        <time>2022-01-02T10:01:17.256Z</time>
      </trkpt>
      <trkpt lat="44.02343" lon="6.03537">
        <ele>606</ele>
        <time>2022-01-02T10:01:23.437Z</time>
      </trkpt>
      <trkpt lat="44.02347" lon="6.03535">
        <ele>605.20001220703</ele>
        <time>2022-01-02T10:01:29.619Z</time>
      </trkpt>
      <trkpt lat="44.02352" lon="6.03529">
        <ele>604.20001220703</ele>
        <time>2022-01-02T10:01:35.804Z</time>
      </trkpt>
      <trkpt lat="44.02363" lon="6.03516">
        <ele>603.20001220703</ele>
        <time>2022-01-02T10:01:41.994Z</time>
      </trkpt>
      <trkpt lat="44.02366" lon="6.03514">
        <ele>602.79998779297</ele>
        <time>2022-01-02T10:01:48.185Z</time>
      </trkpt>
      <trkpt lat="44.02387" lon="6.03513">
        <ele>602.20001220703</ele>
        <time>2022-01-02T10:01:54.383Z</time>
      </trkpt>
      <trkpt lat="44.02408" lon="6.03515">
        <ele>601</ele>
        <time>2022-01-02T10:02:00.589Z</time>
      </trkpt>
      <trkpt lat="44.0242" lon="6.03515">
        <ele>600.20001220703</ele>
        <time>2022-01-02T10:02:06.799Z</time>
      </trkpt>
      <trkpt lat="44.02427" lon="6.03514">
        <ele>599.79998779297</ele>
        <time>2022-01-02T10:02:13.011Z</time>
      </trkpt>
      <trkpt lat="44.02444" lon="6.03506">
        <ele>599</ele>
        <time>2022-01-02T10:02:19.230Z</time>
      </trkpt>
      <trkpt lat="44.02449" lon="6.03505">
        <ele>598.40002441406</ele>
        <time>2022-01-02T10:02:25.450Z</time>
      </trkpt>
      <trkpt lat="44.02451" lon="6.03506">
        <ele>598</ele>
        <time>2022-01-02T10:02:31.671Z</time>
      </trkpt>
      <trkpt lat="44.02453" lon="6.03509">
        <ele>597.79998779297</ele>
        <time>2022-01-02T10:02:37.893Z</time>
      </trkpt>
      <trkpt lat="44.02457" lon="6.03518">
        <ele>596.79998779297</ele>
        <time>2022-01-02T10:02:44.118Z</time>
      </trkpt>
      <trkpt lat="44.02459" lon="6.03522">
        <ele>595.79998779297</ele>
        <time>2022-01-02T10:02:50.344Z</time>
      </trkpt>
      <trkpt lat="44.02461" lon="6.03523">
        <ele>594.79998779297</ele>
        <time>2022-01-02T10:02:56.570Z</time>
      </trkpt>
      <trkpt lat="44.02463" lon="6.03524">
        <ele>594.20001220703</ele>
        <time>2022-01-02T10:03:02.797Z</time>
      </trkpt>
      <trkpt lat="44.02466" lon="6.03524">
        <ele>593</ele>
        <time>2022-01-02T10:03:09.025Z</time>
      </trkpt>
      <trkpt lat="44.0247" lon="6.03527">
        <ele>592.59997558594</ele>
        <time>2022-01-02T10:03:15.255Z</time>
      </trkpt>
      <trkpt lat="44.02473" lon="6.03531">
        <ele>591.79998779297</ele>
        <time>2022-01-02T10:03:21.486Z</time>
      </trkpt>
      <trkpt lat="44.02478" lon="6.03535">
        <ele>591.20001220703</ele>
        <time>2022-01-02T10:03:27.719Z</time>
      </trkpt>
      <trkpt lat="44.02483" lon="6.03538">
        <ele>590.40002441406</ele>
        <time>2022-01-02T10:03:33.954Z</time>
      </trkpt>
      <trkpt lat="44.02488" lon="6.03539">
        <ele>589.40002441406</ele>
        <time>2022-01-02T10:03:40.191Z</time>
      </trkpt>
      <trkpt lat="44.025" lon="6.03539">
        <ele>588</ele>
        <time>2022-01-02T10:03:46.432Z</time>
      </trkpt>
      <trkpt lat="44.02506" lon="6.03539">
        <ele>587.20001220703</ele>
        <time>2022-01-02T10:03:52.675Z</time>
      </trkpt>
      <trkpt lat="44.02512" lon="6.03541">
        <ele>586.79998779297</ele>
        <time>2022-01-02T10:03:58.920Z</time>
      </trkpt>
      <trkpt lat="44.02523" lon="6.03543">
        <ele>585.59997558594</ele>
        <time>2022-01-02T10:04:05.169Z</time>
      </trkpt>
      <trkpt lat="44.02535" lon="6.0354">
        <ele>584.40002441406</ele>
        <time>2022-01-02T10:04:11.423Z</time>
      </trkpt>
      <trkpt lat="44.0254" lon="6.03543">
        <ele>583.59997558594</ele>
        <time>2022-01-02T10:04:17.679Z</time>
      </trkpt>
      <trkpt lat="44.02545" lon="6.03546">
        <ele>583</ele>
        <time>2022-01-02T10:04:23.936Z</time>
      </trkpt>
      <trkpt lat="44.0256" lon="6.03554">
        <ele>581.79998779297</ele>
        <time>2022-01-02T10:04:30.199Z</time>
      </trkpt>
      <trkpt lat="44.02571" lon="6.0356">
        <ele>580.59997558594</ele>
        <time>2022-01-02T10:04:36.466Z</time>
      </trkpt>
      <trkpt lat="44.02575" lon="6.03563">
        <ele>580</ele>
        <time>2022-01-02T10:04:42.735Z</time>
      </trkpt>
      <trkpt lat="44.0258" lon="6.03567">
        <ele>579.40002441406</ele>
        <time>2022-01-02T10:04:49.006Z</time>
      </trkpt>
      <trkpt lat="44.02597" lon="6.03575">
        <ele>578</ele>
        <time>2022-01-02T10:04:55.283Z</time>
      </trkpt>
      <trkpt lat="44.02603" lon="6.03578">
        <ele>577.40002441406</ele>
        <time>2022-01-02T10:05:01.562Z</time>
      </trkpt>
      <trkpt lat="44.02608" lon="6.03581">
        <ele>576.79998779297</ele>
        <time>2022-01-02T10:05:07.843Z</time>
      </trkpt>
      <trkpt lat="44.02615" lon="6.03585">
        <ele>575.59997558594</ele>
        <time>2022-01-02T10:05:14.127Z</time>
      </trkpt>
      <trkpt lat="44.02618" lon="6.03586">
        <ele>575</ele>
        <time>2022-01-02T10:05:20.412Z</time>
      </trkpt>
      <trkpt lat="44.02624" lon="6.03592">
        <ele>574.40002441406</ele>
        <time>2022-01-02T10:05:26.699Z</time>
      </trkpt>
      <trkpt lat="44.02628" lon="6.03596">
        <ele>573.59997558594</ele>
        <time>2022-01-02T10:05:32.988Z</time>
      </trkpt>
      <trkpt lat="44.02631" lon="6.03597">
        <ele>573.20001220703</ele>
        <time>2022-01-02T10:05:39.278Z</time>
      </trkpt>
      <trkpt lat="44.02636" lon="6.03595">
        <ele>571.79998779297</ele>
        <time>2022-01-02T10:05:45.570Z</time>
      </trkpt>
      <trkpt lat="44.02638" lon="6.03595">
        <ele>571.59997558594</ele>
        <time>2022-01-02T10:05:51.863Z</time>
      </trkpt>
      <trkpt lat="44.02652" lon="6.03593">
        <ele>572.59997558594</ele>
        <time>2022-01-02T10:05:58.160Z</time>
      </trkpt>
      <trkpt lat="44.02667" lon="6.03592">
        <ele>572.40002441406</ele>
        <time>2022-01-02T10:06:04.463Z</time>
      </trkpt>
      <trkpt lat="44.02684" lon="6.03589">
        <ele>572.79998779297</ele>
        <time>2022-01-02T10:06:10.772Z</time>
      </trkpt>
      <trkpt lat="44.02706" lon="6.03583">
        <ele>572.20001220703</ele>
        <time>2022-01-02T10:06:17.089Z</time>
      </trkpt>
      <trkpt lat="44.02714" lon="6.03584">
        <ele>571.79998779297</ele>
        <time>2022-01-02T10:06:23.409Z</time>
      </trkpt>
      <trkpt lat="44.02724" lon="6.03588">
        <ele>571</ele>
        <time>2022-01-02T10:06:29.732Z</time>
      </trkpt>
      <trkpt lat="44.02729" lon="6.03592">
        <ele>570.40002441406</ele>
        <time>2022-01-02T10:06:36.057Z</time>
      </trkpt>
      <trkpt lat="44.02738" lon="6.03601">
        <ele>569</ele>
        <time>2022-01-02T10:06:42.386Z</time>
      </trkpt>
      <trkpt lat="44.02741" lon="6.03605">
        <ele>568.40002441406</ele>
        <time>2022-01-02T10:06:48.716Z</time>
      </trkpt>
      <trkpt lat="44.02745" lon="6.03607">
        <ele>567.59997558594</ele>
        <time>2022-01-02T10:06:55.048Z</time>
      </trkpt>
      <trkpt lat="44.02753" lon="6.03611">
        <ele>566.20001220703</ele>
        <time>2022-01-02T10:07:01.383Z</time>
      </trkpt>
      <trkpt lat="44.02757" lon="6.03614">
        <ele>565.79998779297</ele>
        <time>2022-01-02T10:07:07.720Z</time>
      </trkpt>
      <trkpt lat="44.02767" lon="6.03621">
        <ele>565.20001220703</ele>
        <time>2022-01-02T10:07:14.060Z</time>
      </trkpt>
      <trkpt lat="44.02772" lon="6.03625">
        <ele>564.79998779297</ele>
        <time>2022-01-02T10:07:20.402Z</time>
      </trkpt>
      <trkpt lat="44.02783" lon="6.03634">
        <ele>563.79998779297</ele>
        <time>2022-01-02T10:07:26.749Z</time>
      </trkpt>
      <trkpt lat="44.02788" lon="6.03638">
        <ele>562.59997558594</ele>
        <time>2022-01-02T10:07:33.098Z</time>
      </trkpt>
      <trkpt lat="44.02796" lon="6.03645">
        <ele>561.40002441406</ele>
        <time>2022-01-02T10:07:39.450Z</time>
      </trkpt>
      <trkpt lat="44.028" lon="6.03649">
        <ele>560.59997558594</ele>
        <time>2022-01-02T10:07:45.804Z</time>
      </trkpt>
      <trkpt lat="44.02803" lon="6.03655">
        <ele>560.20001220703</ele>
        <time>2022-01-02T10:07:52.160Z</time>
      </trkpt>
      <trkpt lat="44.02805" lon="6.03661">
        <ele>559.59997558594</ele>
        <time>2022-01-02T10:07:58.518Z</time>
      </trkpt>
      <trkpt lat="44.02808" lon="6.03667">
        <ele>559</ele>
        <time>2022-01-02T10:08:04.877Z</time>
      </trkpt>
      <trkpt lat="44.02814" lon="6.03679">
        <ele>557.79998779297</ele>
        <time>2022-01-02T10:08:11.240Z</time>
      </trkpt>
      <trkpt lat="44.02817" lon="6.03694">
        <ele>556.59997558594</ele>
        <time>2022-01-02T10:08:17.607Z</time>
      </trkpt>
      <trkpt lat="44.02817" lon="6.037">
        <ele>556.20001220703</ele>
        <time>2022-01-02T10:08:23.975Z</time>
      </trkpt>
      <trkpt lat="44.02818" lon="6.0371">
        <ele>555.40002441406</ele>
        <time>2022-01-02T10:08:30.346Z</time>
      </trkpt>
      <trkpt lat="44.02819" lon="6.03727">
        <ele>554.20001220703</ele>
        <time>2022-01-02T10:08:36.721Z</time>
      </trkpt>
      <trkpt lat="44.02821" lon="6.03733">
        <ele>554</ele>
        <time>2022-01-02T10:08:43.098Z</time>
      </trkpt>
      <trkpt lat="44.0283" lon="6.03751">
        <ele>553</ele>
        <time>2022-01-02T10:08:49.480Z</time>
      </trkpt>
      <trkpt lat="44.02833" lon="6.03757">
        <ele>552.59997558594</ele>
        <time>2022-01-02T10:08:55.864Z</time>
      </trkpt>
      <trkpt lat="44.0284" lon="6.0377">
        <ele>551.79998779297</ele>
        <time>2022-01-02T10:09:02.252Z</time>
      </trkpt>
      <trkpt lat="44.02848" lon="6.03783">
        <ele>551</ele>
        <time>2022-01-02T10:09:08.644Z</time>
      </trkpt>
      <trkpt lat="44.02852" lon="6.03789">
        <ele>550.40002441406</ele>
        <time>2022-01-02T10:09:15.039Z</time>
      </trkpt>
      <trkpt lat="44.02864" lon="6.03798">
        <ele>549.40002441406</ele>
        <time>2022-01-02T10:09:21.438Z</time>
      </trkpt>
      <trkpt lat="44.02876" lon="6.03809">
        <ele>548.20001220703</ele>
        <time>2022-01-02T10:09:27.842Z</time>
      </trkpt>
      <trkpt lat="44.02886" lon="6.03821">
        <ele>547.20001220703</ele>
        <time>2022-01-02T10:09:34.251Z</time>
      </trkpt>
      <trkpt lat="44.02892" lon="6.03825">
        <ele>546.59997558594</ele>
        <time>2022-01-02T10:09:40.662Z</time>
      </trkpt>
      <trkpt lat="44.02905" lon="6.03828">
        <ele>545</ele>
        <time>2022-01-02T10:09:47.078Z</time>
      </trkpt>
      <trkpt lat="44.02922" lon="6.03827">
        <ele>543.79998779297</ele>
        <time>2022-01-02T10:09:53.500Z</time>
      </trkpt>
      <trkpt lat="44.02926" lon="6.03826">
        <ele>543.59997558594</ele>
        <time>2022-01-02T10:09:59.923Z</time>
      </trkpt>
      <trkpt lat="44.02931" lon="6.03818">
        <ele>543.59997558594</ele>
        <time>2022-01-02T10:10:06.349Z</time>
      </trkpt>
      <trkpt lat="44.02932" lon="6.03807">
        <ele>544.59997558594</ele>
        <time>2022-01-02T10:10:12.778Z</time>
      </trkpt>
      <trkpt lat="44.02933" lon="6.03804">
        <ele>544.79998779297</ele>
        <time>2022-01-02T10:10:19.208Z</time>
      </trkpt>
      <trkpt lat="44.02935" lon="6.03802">
        <ele>545</ele>
        <time>2022-01-02T10:10:25.638Z</time>
      </trkpt>
      <trkpt lat="44.02942" lon="6.03802">
        <ele>545</ele>
        <time>2022-01-02T10:10:32.071Z</time>
      </trkpt>
      <trkpt lat="44.02949" lon="6.03806">
        <ele>544.59997558594</ele>
        <time>2022-01-02T10:10:38.506Z</time>
      </trkpt>
      <trkpt lat="44.02957" lon="6.03806">
        <ele>544</ele>
        <time>2022-01-02T10:10:44.944Z</time>
      </trkpt>
      <trkpt lat="44.02959" lon="6.03807">
        <ele>544</ele>
        <time>2022-01-02T10:10:51.383Z</time>
      </trkpt>
      <trkpt lat="44.02963" lon="6.03809">
        <ele>543.79998779297</ele>
        <time>2022-01-02T10:10:57.823Z</time>
      </trkpt>
      <trkpt lat="44.02973" lon="6.03812">
        <ele>542.59997558594</ele>
        <time>2022-01-02T10:11:04.267Z</time>
      </trkpt>
      <trkpt lat="44.02983" lon="6.03814">
        <ele>541.40002441406</ele>
        <time>2022-01-02T10:11:10.714Z</time>
      </trkpt>
      <trkpt lat="44.02988" lon="6.03815">
        <ele>541</ele>
        <time>2022-01-02T10:11:17.163Z</time>
      </trkpt>
      <trkpt lat="44.02998" lon="6.03816">
        <ele>539.79998779297</ele>
        <time>2022-01-02T10:11:23.616Z</time>
      </trkpt>
      <trkpt lat="44.0301" lon="6.03817">
        <ele>539</ele>
        <time>2022-01-02T10:11:30.073Z</time>
      </trkpt>
      <trkpt lat="44.03018" lon="6.03817">
        <ele>538.40002441406</ele>
        <time>2022-01-02T10:11:36.533Z</time>
      </trkpt>
      <trkpt lat="44.03025" lon="6.03821">
        <ele>537.79998779297</ele>
        <time>2022-01-02T10:11:42.995Z</time>
      </trkpt>
      <trkpt lat="44.03036" lon="6.03831">
        <ele>536.20001220703</ele>
        <time>2022-01-02T10:11:49.462Z</time>
      </trkpt>
      <trkpt lat="44.0304" lon="6.03833">
        <ele>534.79998779297</ele>
        <time>2022-01-02T10:11:55.931Z</time>
      </trkpt>
      <trkpt lat="44.03047" lon="6.03832">
        <ele>533.40002441406</ele>
        <time>2022-01-02T10:12:02.402Z</time>
      </trkpt>
      <trkpt lat="44.03049" lon="6.0383">
        <ele>533</ele>
        <time>2022-01-02T10:12:08.874Z</time>
      </trkpt>
      <trkpt lat="44.03059" lon="6.03824">
        <ele>532.59997558594</ele>
        <time>2022-01-02T10:12:15.349Z</time>
      </trkpt>
      <trkpt lat="44.03062" lon="6.03823">
        <ele>532.40002441406</ele>
        <time>2022-01-02T10:12:21.825Z</time>
      </trkpt>
      <trkpt lat="44.03072" lon="6.03821">
        <ele>532.20001220703</ele>
        <time>2022-01-02T10:12:28.305Z</time>
      </trkpt>
      <trkpt lat="44.03083" lon="6.03819">
        <ele>531.79998779297</ele>
        <time>2022-01-02T10:12:34.789Z</time>
      </trkpt>
      <trkpt lat="44.03092" lon="6.03818">
        <ele>532.20001220703</ele>
        <time>2022-01-02T10:12:41.276Z</time>
      </trkpt>
      <trkpt lat="44.03095" lon="6.0382">
        <ele>532.40002441406</ele>
        <time>2022-01-02T10:12:47.764Z</time>
      </trkpt>
      <trkpt lat="44.03113" lon="6.03828">
        <ele>532</ele>
        <time>2022-01-02T10:12:54.259Z</time>
      </trkpt>
      <trkpt lat="44.03118" lon="6.03831">
        <ele>531.59997558594</ele>
        <time>2022-01-02T10:13:00.756Z</time>
      </trkpt>
      <trkpt lat="44.03122" lon="6.03832">
        <ele>531.40002441406</ele>
        <time>2022-01-02T10:13:07.254Z</time>
      </trkpt>
      <trkpt lat="44.03137" lon="6.03835">
        <ele>530.40002441406</ele>
        <time>2022-01-02T10:13:13.757Z</time>
      </trkpt>
      <trkpt lat="44.03146" lon="6.03838">
        <ele>529.40002441406</ele>
        <time>2022-01-02T10:13:20.263Z</time>
      </trkpt>
      <trkpt lat="44.03149" lon="6.03838">
        <ele>528.59997558594</ele>
        <time>2022-01-02T10:13:26.771Z</time>
      </trkpt>
      <trkpt lat="44.03151" lon="6.03839">
        <ele>527.40002441406</ele>
        <time>2022-01-02T10:13:33.280Z</time>
      </trkpt>
      <trkpt lat="44.03147" lon="6.03841">
        <ele>526</ele>
        <time>2022-01-02T10:13:39.790Z</time>
      </trkpt>
      <trkpt lat="44.03144" lon="6.03844">
        <ele>524.59997558594</ele>
        <time>2022-01-02T10:13:46.301Z</time>
      </trkpt>
      <trkpt lat="44.03141" lon="6.03847">
        <ele>524.20001220703</ele>
        <time>2022-01-02T10:13:52.814Z</time>
      </trkpt>
      <trkpt lat="44.03135" lon="6.0387">
        <ele>525.20001220703</ele>
        <time>2022-01-02T10:13:59.333Z</time>
      </trkpt>
      <trkpt lat="44.03136" lon="6.03879">
        <ele>525.79998779297</ele>
        <time>2022-01-02T10:14:05.854Z</time>
      </trkpt>
      <trkpt lat="44.03139" lon="6.03886">
        <ele>526</ele>
        <time>2022-01-02T10:14:12.377Z</time>
      </trkpt>
      <trkpt lat="44.03144" lon="6.03896">
        <ele>526.20001220703</ele>
        <time>2022-01-02T10:14:18.903Z</time>
      </trkpt>
      <trkpt lat="44.03149" lon="6.03903">
        <ele>526.20001220703</ele>
        <time>2022-01-02T10:14:25.432Z</time>
      </trkpt>
      <trkpt lat="44.03164" lon="6.03923">
        <ele>526.79998779297</ele>
        <time>2022-01-02T10:14:31.968Z</time>
      </trkpt>
      <trkpt lat="44.03174" lon="6.0393">
        <ele>527.59997558594</ele>
        <time>2022-01-02T10:14:38.508Z</time>
      </trkpt>
      <trkpt lat="44.03183" lon="6.03938">
        <ele>528.40002441406</ele>
        <time>2022-01-02T10:14:45.052Z</time>
      </trkpt>
      <trkpt lat="44.03188" lon="6.03941">
        <ele>529</ele>
        <time>2022-01-02T10:14:51.597Z</time>
      </trkpt>
      <trkpt lat="44.03199" lon="6.03952">
        <ele>530.20001220703</ele>
        <time>2022-01-02T10:14:58.147Z</time>
      </trkpt>
      <trkpt lat="44.03204" lon="6.03958">
        <ele>530.59997558594</ele>
        <time>2022-01-02T10:15:04.699Z</time>
      </trkpt>
      <trkpt lat="44.03216" lon="6.03964">
        <ele>531.20001220703</ele>
        <time>2022-01-02T10:15:11.256Z</time>
      </trkpt>
      <trkpt lat="44.03224" lon="6.03964">
        <ele>532.59997558594</ele>
        <time>2022-01-02T10:15:17.816Z</time>
      </trkpt>
      <trkpt lat="44.03229" lon="6.03965">
        <ele>533.59997558594</ele>
        <time>2022-01-02T10:15:24.377Z</time>
      </trkpt>
      <trkpt lat="44.03232" lon="6.03966">
        <ele>534</ele>
        <time>2022-01-02T10:15:30.939Z</time>
      </trkpt>
      <trkpt lat="44.03238" lon="6.0397">
        <ele>535.20001220703</ele>
        <time>2022-01-02T10:15:37.504Z</time>
      </trkpt>
      <trkpt lat="44.03243" lon="6.03975">
        <ele>536.20001220703</ele>
        <time>2022-01-02T10:15:44.071Z</time>
      </trkpt>
      <trkpt lat="44.03252" lon="6.03982">
        <ele>537.59997558594</ele>
        <time>2022-01-02T10:15:50.641Z</time>
      </trkpt>
      <trkpt lat="44.03259" lon="6.03987">
        <ele>539</ele>
        <time>2022-01-02T10:15:57.214Z</time>
      </trkpt>
      <trkpt lat="44.03267" lon="6.0399">
        <ele>540</ele>
        <time>2022-01-02T10:16:03.790Z</time>
      </trkpt>
      <trkpt lat="44.03276" lon="6.03995">
        <ele>540.79998779297</ele>
        <time>2022-01-02T10:16:10.369Z</time>
      </trkpt>
      <trkpt lat="44.03281" lon="6.04">
        <ele>541</ele>
        <time>2022-01-02T10:16:16.951Z</time>
      </trkpt>
      <trkpt lat="44.03289" lon="6.04012">
        <ele>542</ele>
        <time>2022-01-02T10:16:23.537Z</time>
      </trkpt>
      <trkpt lat="44.03291" lon="6.04015">
        <ele>542.40002441406</ele>
        <time>2022-01-02T10:16:30.124Z</time>
      </trkpt>
      <trkpt lat="44.03297" lon="6.04028">
        <ele>542.79998779297</ele>
        <time>2022-01-02T10:16:36.715Z</time>
      </trkpt>
      <trkpt lat="44.03304" lon="6.04041">
        <ele>543.40002441406</ele>
        <time>2022-01-02T10:16:43.310Z</time>
      </trkpt>
      <trkpt lat="44.0331" lon="6.04054">
        <ele>544.79998779297</ele>
        <time>2022-01-02T10:16:49.909Z</time>
      </trkpt>
      <trkpt lat="44.03312" lon="6.04057">
        <ele>545.40002441406</ele>
        <time>2022-01-02T10:16:56.509Z</time>
      </trkpt>
      <trkpt lat="44.03314" lon="6.0406">
        <ele>545.79998779297</ele>
        <time>2022-01-02T10:17:03.110Z</time>
      </trkpt>
      <trkpt lat="44.03322" lon="6.04069">
        <ele>547.20001220703</ele>
        <time>2022-01-02T10:17:09.714Z</time>
      </trkpt>
      <trkpt lat="44.03324" lon="6.04072">
        <ele>547.59997558594</ele>
        <time>2022-01-02T10:17:16.319Z</time>
      </trkpt>
      <trkpt lat="44.03328" lon="6.04078">
        <ele>548.20001220703</ele>
        <time>2022-01-02T10:17:22.926Z</time>
      </trkpt>
      <trkpt lat="44.03336" lon="6.0409">
        <ele>548.79998779297</ele>
        <time>2022-01-02T10:17:29.538Z</time>
      </trkpt>
      <trkpt lat="44.03341" lon="6.04099">
        <ele>549.59997558594</ele>
        <time>2022-01-02T10:17:36.152Z</time>
      </trkpt>
      <trkpt lat="44.03345" lon="6.04104">
        <ele>550.40002441406</ele>
        <time>2022-01-02T10:17:42.768Z</time>
      </trkpt>
      <trkpt lat="44.03347" lon="6.04106">
        <ele>550.79998779297</ele>
        <time>2022-01-02T10:17:49.385Z</time>
      </trkpt>
      <trkpt lat="44.03354" lon="6.04116">
        <ele>552</ele>
        <time>2022-01-02T10:17:56.006Z</time>
      </trkpt>
      <trkpt lat="44.03357" lon="6.04122">
        <ele>552.59997558594</ele>
        <time>2022-01-02T10:18:02.629Z</time>
      </trkpt>
      <trkpt lat="44.03359" lon="6.04129">
        <ele>553.40002441406</ele>
        <time>2022-01-02T10:18:09.253Z</time>
      </trkpt>
      <trkpt lat="44.03358" lon="6.04132">
        <ele>553.79998779297</ele>
        <time>2022-01-02T10:18:15.878Z</time>
      </trkpt>
      <trkpt lat="44.03356" lon="6.04136">
        <ele>554.40002441406</ele>
        <time>2022-01-02T10:18:22.505Z</time>
      </trkpt>
      <trkpt lat="44.03354" lon="6.04137">
        <ele>554.59997558594</ele>
        <time>2022-01-02T10:18:29.132Z</time>
      </trkpt>
      <trkpt lat="44.03349" lon="6.04139">
        <ele>555.79998779297</ele>
        <time>2022-01-02T10:18:35.761Z</time>
      </trkpt>
      <trkpt lat="44.03347" lon="6.0414">
        <ele>556</ele>
        <time>2022-01-02T10:18:42.391Z</time>
      </trkpt>
      <trkpt lat="44.03343" lon="6.04146">
        <ele>556.79998779297</ele>
        <time>2022-01-02T10:18:49.023Z</time>
      </trkpt>
      <trkpt lat="44.03343" lon="6.0415">
        <ele>556.79998779297</ele>
        <time>2022-01-02T10:18:55.656Z</time>
      </trkpt>
      <trkpt lat="44.03344" lon="6.04157">
        <ele>557.40002441406</ele>
        <time>2022-01-02T10:19:02.290Z</time>
      </trkpt>
      <trkpt lat="44.03344" lon="6.0416">
        <ele>557.79998779297</ele>
        <time>2022-01-02T10:19:08.925Z</time>
      </trkpt>
      <trkpt lat="44.03344" lon="6.0417">
        <ele>558.59997558594</ele>
        <time>2022-01-02T10:19:15.563Z</time>
      </trkpt>
      <trkpt lat="44.03344" lon="6.04173">
        <ele>559</ele>
        <time>2022-01-02T10:19:22.202Z</time>
      </trkpt>
      <trkpt lat="44.0334" lon="6.04182">
        <ele>560.20001220703</ele>
        <time>2022-01-02T10:19:28.843Z</time>
      </trkpt>
      <trkpt lat="44.03336" lon="6.04186">
        <ele>560.79998779297</ele>
        <time>2022-01-02T10:19:35.486Z</time>
      </trkpt>
      <trkpt lat="44.03332" lon="6.0419">
        <ele>561.20001220703</ele>
        <time>2022-01-02T10:19:42.131Z</time>
      </trkpt>
      <trkpt lat="44.03324" lon="6.04196">
        <ele>562.59997558594</ele>
        <time>2022-01-02T10:19:48.779Z</time>
      </trkpt>
      <trkpt lat="44.03321" lon="6.04198">
        <ele>563.20001220703</ele>
        <time>2022-01-02T10:19:55.428Z</time>
      </trkpt>
      <trkpt lat="44.03315" lon="6.04201">
        <ele>564</ele>
        <time>2022-01-02T10:20:02.079Z</time>
      </trkpt>
      <trkpt lat="44.0331" lon="6.04205">
        <ele>565</ele>
        <time>2022-01-02T10:20:08.732Z</time>
      </trkpt>
      <trkpt lat="44.03308" lon="6.04206">
        <ele>565.40002441406</ele>
        <time>2022-01-02T10:20:15.386Z</time>
      </trkpt>
      <trkpt lat="44.033" lon="6.04213">
        <ele>566.40002441406</ele>
        <time>2022-01-02T10:20:22.043Z</time>
      </trkpt>
      <trkpt lat="44.03291" lon="6.04221">
        <ele>567.59997558594</ele>
        <time>2022-01-02T10:20:28.704Z</time>
      </trkpt>
      <trkpt lat="44.03289" lon="6.04224">
        <ele>568</ele>
        <time>2022-01-02T10:20:35.366Z</time>
      </trkpt>
      <trkpt lat="44.03287" lon="6.04226">
        <ele>568.20001220703</ele>
        <time>2022-01-02T10:20:42.029Z</time>
      </trkpt>
      <trkpt lat="44.03284" lon="6.04231">
        <ele>568.79998779297</ele>
        <time>2022-01-02T10:20:48.693Z</time>
      </trkpt>
      <trkpt lat="44.03283" lon="6.04233">
        <ele>569</ele>
        <time>2022-01-02T10:20:55.358Z</time>
      </trkpt>
      <trkpt lat="44.03276" lon="6.04245">
        <ele>569</ele>
        <time>2022-01-02T10:21:02.027Z</time>
      </trkpt>
      <trkpt lat="44.03281" lon="6.04259">
        <ele>569.79998779297</ele>
        <time>2022-01-02T10:21:08.700Z</time>
      </trkpt>
      <trkpt lat="44.03283" lon="6.04261">
        <ele>570.20001220703</ele>
        <time>2022-01-02T10:21:15.374Z</time>
      </trkpt>
      <trkpt lat="44.03285" lon="6.04269">
        <ele>571.20001220703</ele>
        <time>2022-01-02T10:21:22.050Z</time>
      </trkpt>
      <trkpt lat="44.03286" lon="6.04273">
        <ele>571.40002441406</ele>
        <time>2022-01-02T10:21:28.727Z</time>
      </trkpt>
      <trkpt lat="44.03289" lon="6.04284">
        <ele>572.59997558594</ele>
        <time>2022-01-02T10:21:35.407Z</time>
      </trkpt>
      <trkpt lat="44.0329" lon="6.04289">
        <ele>573.20001220703</ele>
        <time>2022-01-02T10:21:42.088Z</time>
      </trkpt>
      <trkpt lat="44.0329" lon="6.04292">
        <ele>573.79998779297</ele>
        <time>2022-01-02T10:21:48.770Z</time>
      </trkpt>
      <trkpt lat="44.03293" lon="6.04299">
        <ele>575</ele>
        <time>2022-01-02T10:21:55.454Z</time>
      </trkpt>
      <trkpt lat="44.03295" lon="6.04301">
        <ele>575.59997558594</ele>
        <time>2022-01-02T10:22:02.139Z</time>
      </trkpt>
      <trkpt lat="44.03296" lon="6.04303">
        <ele>576.20001220703</ele>
        <time>2022-01-02T10:22:08.824Z</time>
      </trkpt>
      <trkpt lat="44.033" lon="6.04312">
        <ele>577</ele>
        <time>2022-01-02T10:22:15.512Z</time>
      </trkpt>
      <trkpt lat="44.03301" lon="6.04314">
        <ele>577.40002441406</ele>
        <time>2022-01-02T10:22:22.201Z</time>
      </trkpt>
      <trkpt lat="44.03306" lon="6.04322">
        <ele>578.40002441406</ele>
        <time>2022-01-02T10:22:28.892Z</time>
      </trkpt>
      <trkpt lat="44.03308" lon="6.04327">
        <ele>579</ele>
        <time>2022-01-02T10:22:35.585Z</time>
      </trkpt>
      <trkpt lat="44.03309" lon="6.04329">
        <ele>579.20001220703</ele>
        <time>2022-01-02T10:22:42.278Z</time>
      </trkpt>
      <trkpt lat="44.0331" lon="6.04331">
        <ele>579.79998779297</ele>
        <time>2022-01-02T10:22:48.972Z</time>
      </trkpt>
      <trkpt lat="44.03312" lon="6.04332">
        <ele>579.79998779297</ele>
        <time>2022-01-02T10:22:55.667Z</time>
      </trkpt>
      <trkpt lat="44.03326" lon="6.04341">
        <ele>580</ele>
        <time>2022-01-02T10:23:02.367Z</time>
      </trkpt>
      <trkpt lat="44.03335" lon="6.04352">
        <ele>579.79998779297</ele>
        <time>2022-01-02T10:23:09.071Z</time>
      </trkpt>
      <trkpt lat="44.0334" lon="6.04362">
        <ele>579.59997558594</ele>
        <time>2022-01-02T10:23:15.778Z</time>
      </trkpt>
      <trkpt lat="44.03343" lon="6.04364">
        <ele>579.79998779297</ele>
        <time>2022-01-02T10:23:22.486Z</time>
      </trkpt>
      <trkpt lat="44.03356" lon="6.04371">
        <ele>580.79998779297</ele>
        <time>2022-01-02T10:23:29.199Z</time>
      </trkpt>
      <trkpt lat="44.03377" lon="6.04379">
        <ele>582</ele>
        <time>2022-01-02T10:23:35.920Z</time>
      </trkpt>
      <trkpt lat="44.03385" lon="6.04382">
        <ele>583.20001220703</ele>
        <time>2022-01-02T10:23:42.644Z</time>
      </trkpt>
      <trkpt lat="44.03396" lon="6.04386">
        <ele>584</ele>
        <time>2022-01-02T10:23:49.372Z</time>
      </trkpt>
      <trkpt lat="44.03399" lon="6.04387">
        <ele>584.40002441406</ele>
        <time>2022-01-02T10:23:56.101Z</time>
      </trkpt>
      <trkpt lat="44.03409" lon="6.04395">
        <ele>585.40002441406</ele>
        <time>2022-01-02T10:24:02.834Z</time>
      </trkpt>
      <trkpt lat="44.03415" lon="6.04403">
        <ele>586.79998779297</ele>
        <time>2022-01-02T10:24:09.570Z</time>
      </trkpt>
      <trkpt lat="44.03421" lon="6.04411">
        <ele>588.20001220703</ele>
        <time>2022-01-02T10:24:16.309Z</time>
      </trkpt>
      <trkpt lat="44.03425" lon="6.04416">
        <ele>589.59997558594</ele>
        <time>2022-01-02T10:24:23.049Z</time>
      </trkpt>
      <trkpt lat="44.03431" lon="6.04423">
        <ele>591</ele>
        <time>2022-01-02T10:24:29.792Z</time>
      </trkpt>
      <trkpt lat="44.03437" lon="6.04429">
        <ele>592.40002441406</ele>
        <time>2022-01-02T10:24:36.538Z</time>
      </trkpt>
      <trkpt lat="44.03441" lon="6.04433">
        <ele>593.79998779297</ele>
        <time>2022-01-02T10:24:43.286Z</time>
      </trkpt>
      <trkpt lat="44.03448" lon="6.04438">
        <ele>595</ele>
        <time>2022-01-02T10:24:50.036Z</time>
      </trkpt>
      <trkpt lat="44.03454" lon="6.04447">
        <ele>596.40002441406</ele>
        <time>2022-01-02T10:24:56.789Z</time>
      </trkpt>
      <trkpt lat="44.03456" lon="6.04452">
        <ele>596.79998779297</ele>
        <time>2022-01-02T10:25:03.544Z</time>
      </trkpt>
      <trkpt lat="44.03456" lon="6.04455">
        <ele>597.40002441406</ele>
        <time>2022-01-02T10:25:10.300Z</time>
      </trkpt>
      <trkpt lat="44.03457" lon="6.04468">
        <ele>598.59997558594</ele>
        <time>2022-01-02T10:25:17.059Z</time>
      </trkpt>
      <trkpt lat="44.03457" lon="6.04477">
        <ele>599.20001220703</ele>
        <time>2022-01-02T10:25:23.820Z</time>
      </trkpt>
      <trkpt lat="44.03457" lon="6.04479">
        <ele>599.40002441406</ele>
        <time>2022-01-02T10:25:30.582Z</time>
      </trkpt>
      <trkpt lat="44.03454" lon="6.04483">
        <ele>599.79998779297</ele>
        <time>2022-01-02T10:25:37.345Z</time>
      </trkpt>
      <trkpt lat="44.03452" lon="6.04484">
        <ele>600</ele>
        <time>2022-01-02T10:25:44.109Z</time>
      </trkpt>
      <trkpt lat="44.03447" lon="6.04486">
        <ele>601</ele>
        <time>2022-01-02T10:25:50.875Z</time>
      </trkpt>
      <trkpt lat="44.03442" lon="6.04488">
        <ele>602</ele>
        <time>2022-01-02T10:25:57.642Z</time>
      </trkpt>
      <trkpt lat="44.0344" lon="6.04488">
        <ele>602.40002441406</ele>
        <time>2022-01-02T10:26:04.410Z</time>
      </trkpt>
      <trkpt lat="44.03434" lon="6.04488">
        <ele>603.59997558594</ele>
        <time>2022-01-02T10:26:11.180Z</time>
      </trkpt>
      <trkpt lat="44.03428" lon="6.0449">
        <ele>605</ele>
        <time>2022-01-02T10:26:17.953Z</time>
      </trkpt>
      <trkpt lat="44.03421" lon="6.04492">
        <ele>606.40002441406</ele>
        <time>2022-01-02T10:26:24.728Z</time>
      </trkpt>
      <trkpt lat="44.03414" lon="6.04495">
        <ele>607.59997558594</ele>
        <time>2022-01-02T10:26:31.505Z</time>
      </trkpt>
      <trkpt lat="44.03409" lon="6.04499">
        <ele>608.79998779297</ele>
        <time>2022-01-02T10:26:38.285Z</time>
      </trkpt>
      <trkpt lat="44.03407" lon="6.04501">
        <ele>609.20001220703</ele>
        <time>2022-01-02T10:26:45.065Z</time>
      </trkpt>
      <trkpt lat="44.03405" lon="6.04506">
        <ele>610</ele>
        <time>2022-01-02T10:26:51.847Z</time>
      </trkpt>
      <trkpt lat="44.03402" lon="6.04514">
        <ele>611.40002441406</ele>
        <time>2022-01-02T10:26:58.631Z</time>
      </trkpt>
      <trkpt lat="44.03401" lon="6.04517">
        <ele>611.79998779297</ele>
        <time>2022-01-02T10:27:05.416Z</time>
      </trkpt>
      <trkpt lat="44.034" lon="6.04523">
        <ele>612.79998779297</ele>
        <time>2022-01-02T10:27:12.202Z</time>
      </trkpt>
      <trkpt lat="44.034" lon="6.04529">
        <ele>613.79998779297</ele>
        <time>2022-01-02T10:27:18.990Z</time>
      </trkpt>
      <trkpt lat="44.03398" lon="6.04538">
        <ele>615.20001220703</ele>
        <time>2022-01-02T10:27:25.780Z</time>
      </trkpt>
      <trkpt lat="44.03397" lon="6.04541">
        <ele>615.59997558594</ele>
        <time>2022-01-02T10:27:32.571Z</time>
      </trkpt>
      <trkpt lat="44.03395" lon="6.04549">
        <ele>616.20001220703</ele>
        <time>2022-01-02T10:27:39.364Z</time>
      </trkpt>
      <trkpt lat="44.03391" lon="6.04559">
        <ele>617.59997558594</ele>
        <time>2022-01-02T10:27:46.160Z</time>
      </trkpt>
      <trkpt lat="44.03389" lon="6.04564">
        <ele>618</ele>
        <time>2022-01-02T10:27:52.958Z</time>
      </trkpt>
      <trkpt lat="44.03387" lon="6.04569">
        <ele>619</ele>
        <time>2022-01-02T10:27:59.757Z</time>
      </trkpt>
      <trkpt lat="44.03382" lon="6.04578">
        <ele>619.79998779297</ele>
        <time>2022-01-02T10:28:06.559Z</time>
      </trkpt>
      <trkpt lat="44.03381" lon="6.04581">
        <ele>620</ele>
        <time>2022-01-02T10:28:13.362Z</time>
      </trkpt>
      <trkpt lat="44.03374" lon="6.04589">
        <ele>621</ele>
        <time>2022-01-02T10:28:20.168Z</time>
      </trkpt>
      <trkpt lat="44.03366" lon="6.04598">
        <ele>621.79998779297</ele>
        <time>2022-01-02T10:28:26.978Z</time>
      </trkpt>
      <trkpt lat="44.03364" lon="6.046">
        <ele>622.20001220703</ele>
        <time>2022-01-02T10:28:33.788Z</time>
      </trkpt>
      <trkpt lat="44.03356" lon="6.04605">
        <ele>623.20001220703</ele>
        <time>2022-01-02T10:28:40.601Z</time>
      </trkpt>
      <trkpt lat="44.03352" lon="6.04607">
        <ele>623.79998779297</ele>
        <time>2022-01-02T10:28:47.416Z</time>
      </trkpt>
      <trkpt lat="44.03347" lon="6.04609">
        <ele>624.59997558594</ele>
        <time>2022-01-02T10:28:54.233Z</time>
      </trkpt>
      <trkpt lat="44.03338" lon="6.04611">
        <ele>625.20001220703</ele>
        <time>2022-01-02T10:29:01.053Z</time>
      </trkpt>
      <trkpt lat="44.03332" lon="6.04613">
        <ele>625.59997558594</ele>
        <time>2022-01-02T10:29:07.875Z</time>
      </trkpt>
      <trkpt lat="44.03324" lon="6.04613">
        <ele>626</ele>
        <time>2022-01-02T10:29:14.700Z</time>
      </trkpt>
      <trkpt lat="44.03304" lon="6.0461">
        <ele>626.20001220703</ele>
        <time>2022-01-02T10:29:21.532Z</time>
      </trkpt>
      <trkpt lat="44.033" lon="6.04609">
        <ele>626.40002441406</ele>
        <time>2022-01-02T10:29:28.365Z</time>
      </trkpt>
      <trkpt lat="44.03284" lon="6.04607">
        <ele>627.40002441406</ele>
        <time>2022-01-02T10:29:35.204Z</time>
      </trkpt>
      <trkpt lat="44.03282" lon="6.04607">
        <ele>627.59997558594</ele>
        <time>2022-01-02T10:29:42.043Z</time>
      </trkpt>
      <trkpt lat="44.03272" lon="6.04604">
        <ele>628.40002441406</ele>
        <time>2022-01-02T10:29:48.886Z</time>
      </trkpt>
      <trkpt lat="44.0327" lon="6.04603">
        <ele>628.59997558594</ele>
        <time>2022-01-02T10:29:55.730Z</time>
      </trkpt>
      <trkpt lat="44.03258" lon="6.04598">
        <ele>629.40002441406</ele>
        <time>2022-01-02T10:30:02.578Z</time>
      </trkpt>
      <trkpt lat="44.03256" lon="6.04597">
        <ele>629.59997558594</ele>
        <time>2022-01-02T10:30:09.427Z</time>
      </trkpt>
      <trkpt lat="44.03244" lon="6.04591">
        <ele>630.59997558594</ele>
        <time>2022-01-02T10:30:16.281Z</time>
      </trkpt>
      <trkpt lat="44.03239" lon="6.04587">
        <ele>631</ele>
        <time>2022-01-02T10:30:23.137Z</time>
      </trkpt>
      <trkpt lat="44.03232" lon="6.04583">
        <ele>631.79998779297</ele>
        <time>2022-01-02T10:30:29.995Z</time>
      </trkpt>
      <trkpt lat="44.0323" lon="6.04582">
        <ele>632</ele>
        <time>2022-01-02T10:30:36.854Z</time>
      </trkpt>
      <trkpt lat="44.03224" lon="6.04579">
        <ele>633</ele>
        <time>2022-01-02T10:30:43.715Z</time>
      </trkpt>
      <trkpt lat="44.03217" lon="6.04577">
        <ele>634.20001220703</ele>
        <time>2022-01-02T10:30:50.579Z</time>
      </trkpt>
      <trkpt lat="44.03213" lon="6.04576">
        <ele>634.59997558594</ele>
        <time>2022-01-02T10:30:57.444Z</time>
      </trkpt>
      <trkpt lat="44.03205" lon="6.04576">
        <ele>635.40002441406</ele>
        <time>2022-01-02T10:31:04.312Z</time>
      </trkpt>
      <trkpt lat="44.03203" lon="6.04577">
        <ele>635.59997558594</ele>
        <time>2022-01-02T10:31:11.180Z</time>
      </trkpt>
      <trkpt lat="44.03198" lon="6.04578">
        <ele>636.40002441406</ele>
        <time>2022-01-02T10:31:18.050Z</time>
      </trkpt>
      <trkpt lat="44.03197" lon="6.04578">
        <ele>636.59997558594</ele>
        <time>2022-01-02T10:31:24.921Z</time>
      </trkpt>
      <trkpt lat="44.03189" lon="6.04581">
        <ele>637.59997558594</ele>
        <time>2022-01-02T10:31:31.794Z</time>
      </trkpt>
      <trkpt lat="44.03188" lon="6.04581">
        <ele>637.59997558594</ele>
        <time>2022-01-02T10:31:38.668Z</time>
      </trkpt>
      <trkpt lat="44.0318" lon="6.04586">
        <ele>638.59997558594</ele>
        <time>2022-01-02T10:31:45.545Z</time>
      </trkpt>
      <trkpt lat="44.03167" lon="6.04594">
        <ele>639.79998779297</ele>
        <time>2022-01-02T10:31:52.427Z</time>
      </trkpt>
      <trkpt lat="44.0316" lon="6.04599">
        <ele>640.79998779297</ele>
        <time>2022-01-02T10:31:59.312Z</time>
      </trkpt>
      <trkpt lat="44.0315" lon="6.04602">
        <ele>642</ele>
        <time>2022-01-02T10:32:06.200Z</time>
      </trkpt>
      <trkpt lat="44.03139" lon="6.04609">
        <ele>643.20001220703</ele>
        <time>2022-01-02T10:32:13.092Z</time>
      </trkpt>
      <trkpt lat="44.03133" lon="6.04611">
        <ele>643.79998779297</ele>
        <time>2022-01-02T10:32:19.987Z</time>
      </trkpt>
      <trkpt lat="44.03128" lon="6.04617">
        <ele>644.40002441406</ele>
        <time>2022-01-02T10:32:26.884Z</time>
      </trkpt>
      <trkpt lat="44.03128" lon="6.0462">
        <ele>644.59997558594</ele>
        <time>2022-01-02T10:32:33.782Z</time>
      </trkpt>
      <trkpt lat="44.03132" lon="6.04622">
        <ele>645.59997558594</ele>
        <time>2022-01-02T10:32:40.681Z</time>
      </trkpt>
      <trkpt lat="44.03133" lon="6.04621">
        <ele>645.79998779297</ele>
        <time>2022-01-02T10:32:47.581Z</time>
      </trkpt>
      <trkpt lat="44.03144" lon="6.0462">
        <ele>646.59997558594</ele>
        <time>2022-01-02T10:32:54.484Z</time>
      </trkpt>
      <trkpt lat="44.03158" lon="6.04624">
        <ele>647.79998779297</ele>
        <time>2022-01-02T10:33:01.393Z</time>
      </trkpt>
      <trkpt lat="44.03167" lon="6.04636">
        <ele>648.79998779297</ele>
        <time>2022-01-02T10:33:08.306Z</time>
      </trkpt>
      <trkpt lat="44.03165" lon="6.04645">
        <ele>650</ele>
        <time>2022-01-02T10:33:15.221Z</time>
      </trkpt>
      <trkpt lat="44.03163" lon="6.04646">
        <ele>650.20001220703</ele>
        <time>2022-01-02T10:33:22.137Z</time>
      </trkpt>
      <trkpt lat="44.03161" lon="6.04647">
        <ele>650.40002441406</ele>
        <time>2022-01-02T10:33:29.054Z</time>
      </trkpt>
      <trkpt lat="44.03158" lon="6.04649">
        <ele>651</ele>
        <time>2022-01-02T10:33:35.972Z</time>
      </trkpt>
      <trkpt lat="44.03149" lon="6.04654">
        <ele>652</ele>
        <time>2022-01-02T10:33:42.893Z</time>
      </trkpt>
      <trkpt lat="44.03147" lon="6.04654">
        <ele>652.20001220703</ele>
        <time>2022-01-02T10:33:49.815Z</time>
      </trkpt>
      <trkpt lat="44.03135" lon="6.04653">
        <ele>652.79998779297</ele>
        <time>2022-01-02T10:33:56.741Z</time>
      </trkpt>
      <trkpt lat="44.03117" lon="6.04653">
        <ele>653.20001220703</ele>
        <time>2022-01-02T10:34:03.674Z</time>
      </trkpt>
      <trkpt lat="44.03115" lon="6.04652">
        <ele>653.20001220703</ele>
        <time>2022-01-02T10:34:10.607Z</time>
      </trkpt>
      <trkpt lat="44.03099" lon="6.04648">
        <ele>653.79998779297</ele>
        <time>2022-01-02T10:34:17.546Z</time>
      </trkpt>
      <trkpt lat="44.03094" lon="6.04647">
        <ele>654</ele>
        <time>2022-01-02T10:34:24.487Z</time>
      </trkpt>
      <trkpt lat="44.03077" lon="6.04645">
        <ele>655</ele>
        <time>2022-01-02T10:34:31.434Z</time>
      </trkpt>
      <trkpt lat="44.03075" lon="6.04646">
        <ele>655</ele>
        <time>2022-01-02T10:34:38.381Z</time>
      </trkpt>
      <trkpt lat="44.03054" lon="6.04647">
        <ele>655.79998779297</ele>
        <time>2022-01-02T10:34:45.336Z</time>
      </trkpt>
      <trkpt lat="44.03045" lon="6.04647">
        <ele>656.20001220703</ele>
        <time>2022-01-02T10:34:52.294Z</time>
      </trkpt>
      <trkpt lat="44.03038" lon="6.04647">
        <ele>656.59997558594</ele>
        <time>2022-01-02T10:34:59.254Z</time>
      </trkpt>
      <trkpt lat="44.03028" lon="6.04647">
        <ele>657.20001220703</ele>
        <time>2022-01-02T10:35:06.218Z</time>
      </trkpt>
      <trkpt lat="44.03026" lon="6.04647">
        <ele>657.20001220703</ele>
        <time>2022-01-02T10:35:13.182Z</time>
      </trkpt>
      <trkpt lat="44.03012" lon="6.04647">
        <ele>658.20001220703</ele>
        <time>2022-01-02T10:35:20.151Z</time>
      </trkpt>
      <trkpt lat="44.03001" lon="6.04649">
        <ele>659.40002441406</ele>
        <time>2022-01-02T10:35:27.124Z</time>
      </trkpt>
      <trkpt lat="44.02993" lon="6.0465">
        <ele>659.59997558594</ele>
        <time>2022-01-02T10:35:34.100Z</time>
      </trkpt>
      <trkpt lat="44.02983" lon="6.04651">
        <ele>660.20001220703</ele>
        <time>2022-01-02T10:35:41.079Z</time>
      </trkpt>
      <trkpt lat="44.0297" lon="6.04654">
        <ele>661.20001220703</ele>
        <time>2022-01-02T10:35:48.063Z</time>
      </trkpt>
      <trkpt lat="44.02956" lon="6.04656">
        <ele>662.40002441406</ele>
        <time>2022-01-02T10:35:55.052Z</time>
      </trkpt>
      <trkpt lat="44.02944" lon="6.04658">
        <ele>663.59997558594</ele>
        <time>2022-01-02T10:36:02.045Z</time>
      </trkpt>
      <trkpt lat="44.02934" lon="6.04658">
        <ele>664.59997558594</ele>
        <time>2022-01-02T10:36:09.042Z</time>
      </trkpt>
      <trkpt lat="44.02931" lon="6.04657">
        <ele>664.79998779297</ele>
        <time>2022-01-02T10:36:16.040Z</time>
      </trkpt>
      <trkpt lat="44.02921" lon="6.04646">
        <ele>665.20001220703</ele>
        <time>2022-01-02T10:36:23.042Z</time>
      </trkpt>
      <trkpt lat="44.02901" lon="6.04628">
        <ele>665.59997558594</ele>
        <time>2022-01-02T10:36:30.053Z</time>
      </trkpt>
      <trkpt lat="44.02891" lon="6.04621">
        <ele>665.79998779297</ele>
        <time>2022-01-02T10:36:37.067Z</time>
      </trkpt>
      <trkpt lat="44.02876" lon="6.04609">
        <ele>666.40002441406</ele>
        <time>2022-01-02T10:36:44.087Z</time>
      </trkpt>
      <trkpt lat="44.02866" lon="6.04601">
        <ele>666.79998779297</ele>
        <time>2022-01-02T10:36:51.111Z</time>
      </trkpt>
      <trkpt lat="44.02853" lon="6.0459">
        <ele>667.40002441406</ele>
        <time>2022-01-02T10:36:58.141Z</time>
      </trkpt>
      <trkpt lat="44.02849" lon="6.04586">
        <ele>667.59997558594</ele>
        <time>2022-01-02T10:37:05.173Z</time>
      </trkpt>
      <trkpt lat="44.02842" lon="6.04578">
        <ele>668</ele>
        <time>2022-01-02T10:37:12.208Z</time>
      </trkpt>
      <trkpt lat="44.02836" lon="6.04572">
        <ele>668.40002441406</ele>
        <time>2022-01-02T10:37:19.245Z</time>
      </trkpt>
      <trkpt lat="44.02818" lon="6.04557">
        <ele>669.20001220703</ele>
        <time>2022-01-02T10:37:26.290Z</time>
      </trkpt>
      <trkpt lat="44.02811" lon="6.04552">
        <ele>669.59997558594</ele>
        <time>2022-01-02T10:37:33.338Z</time>
      </trkpt>
      <trkpt lat="44.02804" lon="6.04548">
        <ele>670.20001220703</ele>
        <time>2022-01-02T10:37:40.388Z</time>
      </trkpt>
      <trkpt lat="44.02789" lon="6.04539">
        <ele>671.20001220703</ele>
        <time>2022-01-02T10:37:47.444Z</time>
      </trkpt>
      <trkpt lat="44.02783" lon="6.04536">
        <ele>671.40002441406</ele>
        <time>2022-01-02T10:37:54.502Z</time>
      </trkpt>
      <trkpt lat="44.02771" lon="6.04531">
        <ele>671.79998779297</ele>
        <time>2022-01-02T10:38:01.564Z</time>
      </trkpt>
      <trkpt lat="44.02754" lon="6.04525">
        <ele>672</ele>
        <time>2022-01-02T10:38:08.633Z</time>
      </trkpt>
      <trkpt lat="44.02741" lon="6.04521">
        <ele>672.40002441406</ele>
        <time>2022-01-02T10:38:15.706Z</time>
      </trkpt>
      <trkpt lat="44.02735" lon="6.04519">
        <ele>672.40002441406</ele>
        <time>2022-01-02T10:38:22.781Z</time>
      </trkpt>
      <trkpt lat="44.02715" lon="6.04513">
        <ele>673</ele>
        <time>2022-01-02T10:38:29.863Z</time>
      </trkpt>
      <trkpt lat="44.02712" lon="6.04513">
        <ele>673.40002441406</ele>
        <time>2022-01-02T10:38:36.947Z</time>
      </trkpt>
      <trkpt lat="44.02707" lon="6.04514">
        <ele>673.79998779297</ele>
        <time>2022-01-02T10:38:44.032Z</time>
      </trkpt>
      <trkpt lat="44.02706" lon="6.04517">
        <ele>674</ele>
        <time>2022-01-02T10:38:51.118Z</time>
      </trkpt>
      <trkpt lat="44.02704" lon="6.04523">
        <ele>674.40002441406</ele>
        <time>2022-01-02T10:38:58.206Z</time>
      </trkpt>
      <trkpt lat="44.027" lon="6.04529">
        <ele>674.59997558594</ele>
        <time>2022-01-02T10:39:05.296Z</time>
      </trkpt>
      <trkpt lat="44.02699" lon="6.04531">
        <ele>674.59997558594</ele>
        <time>2022-01-02T10:39:12.386Z</time>
      </trkpt>
      <trkpt lat="44.02691" lon="6.04546">
        <ele>675.79998779297</ele>
        <time>2022-01-02T10:39:19.481Z</time>
      </trkpt>
      <trkpt lat="44.02689" lon="6.04549">
        <ele>676</ele>
        <time>2022-01-02T10:39:26.577Z</time>
      </trkpt>
      <trkpt lat="44.02685" lon="6.04554">
        <ele>676.79998779297</ele>
        <time>2022-01-02T10:39:33.675Z</time>
      </trkpt>
      <trkpt lat="44.02672" lon="6.04563">
        <ele>677.59997558594</ele>
        <time>2022-01-02T10:39:40.778Z</time>
      </trkpt>
      <trkpt lat="44.02669" lon="6.04563">
        <ele>677.79998779297</ele>
        <time>2022-01-02T10:39:47.882Z</time>
      </trkpt>
      <trkpt lat="44.02655" lon="6.04561">
        <ele>678.20001220703</ele>
        <time>2022-01-02T10:39:54.991Z</time>
      </trkpt>
      <trkpt lat="44.02645" lon="6.04552">
        <ele>678.79998779297</ele>
        <time>2022-01-02T10:40:02.104Z</time>
      </trkpt>
      <trkpt lat="44.02641" lon="6.04548">
        <ele>679.40002441406</ele>
        <time>2022-01-02T10:40:09.219Z</time>
      </trkpt>
      <trkpt lat="44.02636" lon="6.04546">
        <ele>679.79998779297</ele>
        <time>2022-01-02T10:40:16.335Z</time>
      </trkpt>
      <trkpt lat="44.02634" lon="6.04546">
        <ele>680.20001220703</ele>
        <time>2022-01-02T10:40:23.452Z</time>
      </trkpt>
      <trkpt lat="44.02632" lon="6.04547">
        <ele>680.59997558594</ele>
        <time>2022-01-02T10:40:30.570Z</time>
      </trkpt>
      <trkpt lat="44.02625" lon="6.04547">
        <ele>681.40002441406</ele>
        <time>2022-01-02T10:40:37.691Z</time>
      </trkpt>
      <trkpt lat="44.02618" lon="6.04545">
        <ele>682.59997558594</ele>
        <time>2022-01-02T10:40:44.814Z</time>
      </trkpt>
      <trkpt lat="44.02612" lon="6.04543">
        <ele>683.79998779297</ele>
        <time>2022-01-02T10:40:51.939Z</time>
      </trkpt>
      <trkpt lat="44.02606" lon="6.0454">
        <ele>684.20001220703</ele>
        <time>2022-01-02T10:40:59.066Z</time>
      </trkpt>
      <trkpt lat="44.02601" lon="6.04538">
        <ele>684.79998779297</ele>
        <time>2022-01-02T10:41:06.195Z</time>
      </trkpt>
      <trkpt lat="44.0259" lon="6.04534">
        <ele>685.79998779297</ele>
        <time>2022-01-02T10:41:13.328Z</time>
      </trkpt>
      <trkpt lat="44.02576" lon="6.04533">
        <ele>687</ele>
        <time>2022-01-02T10:41:20.466Z</time>
      </trkpt>
      <trkpt lat="44.02574" lon="6.04533">
        <ele>687.59997558594</ele>
        <time>2022-01-02T10:41:27.605Z</time>
      </trkpt>
      <trkpt lat="44.0257" lon="6.04535">
        <ele>688.20001220703</ele>
        <time>2022-01-02T10:41:34.745Z</time>
      </trkpt>
      <trkpt lat="44.02564" lon="6.04539">
        <ele>689.59997558594</ele>
        <time>2022-01-02T10:41:41.888Z</time>
      </trkpt>
      <trkpt lat="44.02561" lon="6.04541">
        <ele>690</ele>
        <time>2022-01-02T10:41:49.031Z</time>
      </trkpt>
      <trkpt lat="44.02559" lon="6.04542">
        <ele>690.59997558594</ele>
        <time>2022-01-02T10:41:56.175Z</time>
      </trkpt>
      <trkpt lat="44.02553" lon="6.04546">
        <ele>691.59997558594</ele>
        <time>2022-01-02T10:42:03.322Z</time>
      </trkpt>
      <trkpt lat="44.02544" lon="6.04551">
        <ele>692.59997558594</ele>
        <time>2022-01-02T10:42:10.472Z</time>
      </trkpt>
      <trkpt lat="44.02542" lon="6.04552">
        <ele>692.79998779297</ele>
        <time>2022-01-02T10:42:17.623Z</time>
      </trkpt>
      <trkpt lat="44.02534" lon="6.04557">
        <ele>693.79998779297</ele>
        <time>2022-01-02T10:42:24.777Z</time>
      </trkpt>
      <trkpt lat="44.02532" lon="6.04558">
        <ele>694</ele>
        <time>2022-01-02T10:42:31.932Z</time>
      </trkpt>
      <trkpt lat="44.02521" lon="6.04564">
        <ele>695.20001220703</ele>
        <time>2022-01-02T10:42:39.091Z</time>
      </trkpt>
      <trkpt lat="44.02513" lon="6.04569">
        <ele>696.40002441406</ele>
        <time>2022-01-02T10:42:46.253Z</time>
      </trkpt>
      <trkpt lat="44.02505" lon="6.04576">
        <ele>697.59997558594</ele>
        <time>2022-01-02T10:42:53.418Z</time>
      </trkpt>
      <trkpt lat="44.02498" lon="6.04584">
        <ele>698.79998779297</ele>
        <time>2022-01-02T10:43:00.586Z</time>
      </trkpt>
      <trkpt lat="44.02493" lon="6.0459">
        <ele>699.79998779297</ele>
        <time>2022-01-02T10:43:07.757Z</time>
      </trkpt>
      <trkpt lat="44.02491" lon="6.04593">
        <ele>700</ele>
        <time>2022-01-02T10:43:14.928Z</time>
      </trkpt>
      <trkpt lat="44.02485" lon="6.04602">
        <ele>701.20001220703</ele>
        <time>2022-01-02T10:43:22.103Z</time>
      </trkpt>
      <trkpt lat="44.02481" lon="6.0461">
        <ele>702</ele>
        <time>2022-01-02T10:43:29.280Z</time>
      </trkpt>
      <trkpt lat="44.02478" lon="6.04614">
        <ele>702.40002441406</ele>
        <time>2022-01-02T10:43:36.459Z</time>
      </trkpt>
      <trkpt lat="44.02473" lon="6.04622">
        <ele>703.40002441406</ele>
        <time>2022-01-02T10:43:43.640Z</time>
      </trkpt>
      <trkpt lat="44.0247" lon="6.04626">
        <ele>704</ele>
        <time>2022-01-02T10:43:50.823Z</time>
      </trkpt>
      <trkpt lat="44.02463" lon="6.0463">
        <ele>704.59997558594</ele>
        <time>2022-01-02T10:43:58.008Z</time>
      </trkpt>
      <trkpt lat="44.02457" lon="6.04631">
        <ele>705.40002441406</ele>
        <time>2022-01-02T10:44:05.196Z</time>
      </trkpt>
      <trkpt lat="44.02453" lon="6.0463">
        <ele>705.79998779297</ele>
        <time>2022-01-02T10:44:12.385Z</time>
      </trkpt>
      <trkpt lat="44.02447" lon="6.04626">
        <ele>706.40002441406</ele>
        <time>2022-01-02T10:44:19.576Z</time>
      </trkpt>
      <trkpt lat="44.02444" lon="6.04624">
        <ele>706.79998779297</ele>
        <time>2022-01-02T10:44:26.768Z</time>
      </trkpt>
      <trkpt lat="44.02436" lon="6.04617">
        <ele>707.20001220703</ele>
        <time>2022-01-02T10:44:33.964Z</time>
      </trkpt>
      <trkpt lat="44.0242" lon="6.04603">
        <ele>707.79998779297</ele>
        <time>2022-01-02T10:44:41.166Z</time>
      </trkpt>
      <trkpt lat="44.02417" lon="6.04601">
        <ele>708</ele>
        <time>2022-01-02T10:44:48.369Z</time>
      </trkpt>
      <trkpt lat="44.02398" lon="6.04587">
        <ele>708</ele>
        <time>2022-01-02T10:44:55.580Z</time>
      </trkpt>
      <trkpt lat="44.02378" lon="6.04576">
        <ele>708.40002441406</ele>
        <time>2022-01-02T10:45:02.798Z</time>
      </trkpt>
      <trkpt lat="44.02356" lon="6.04569">
        <ele>707.79998779297</ele>
        <time>2022-01-02T10:45:10.024Z</time>
      </trkpt>
      <trkpt lat="44.02344" lon="6.04572">
        <ele>708.40002441406</ele>
        <time>2022-01-02T10:45:17.255Z</time>
      </trkpt>
      <trkpt lat="44.02339" lon="6.04574">
        <ele>709</ele>
        <time>2022-01-02T10:45:24.487Z</time>
      </trkpt>
      <trkpt lat="44.02334" lon="6.04576">
        <ele>710</ele>
        <time>2022-01-02T10:45:31.721Z</time>
      </trkpt>
      <trkpt lat="44.02328" lon="6.04577">
        <ele>711.40002441406</ele>
        <time>2022-01-02T10:45:38.957Z</time>
      </trkpt>
      <trkpt lat="44.02322" lon="6.04577">
        <ele>713</ele>
        <time>2022-01-02T10:45:46.195Z</time>
      </trkpt>
      <trkpt lat="44.02319" lon="6.04577">
        <ele>714</ele>
        <time>2022-01-02T10:45:53.435Z</time>
      </trkpt>
      <trkpt lat="44.02313" lon="6.04578">
        <ele>715.40002441406</ele>
        <time>2022-01-02T10:46:00.677Z</time>
      </trkpt>
      <trkpt lat="44.02308" lon="6.04578">
        <ele>716.40002441406</ele>
        <time>2022-01-02T10:46:07.920Z</time>
      </trkpt>
      <trkpt lat="44.02302" lon="6.0458">
        <ele>717.79998779297</ele>
        <time>2022-01-02T10:46:15.165Z</time>
      </trkpt>
      <trkpt lat="44.02298" lon="6.0458">
        <ele>718.79998779297</ele>
        <time>2022-01-02T10:46:22.412Z</time>
      </trkpt>
      <trkpt lat="44.02296" lon="6.0458">
        <ele>719.40002441406</ele>
        <time>2022-01-02T10:46:29.660Z</time>
      </trkpt>
      <trkpt lat="44.02292" lon="6.04578">
        <ele>720.40002441406</ele>
        <time>2022-01-02T10:46:36.909Z</time>
      </trkpt>
      <trkpt lat="44.02288" lon="6.04577">
        <ele>721.40002441406</ele>
        <time>2022-01-02T10:46:44.159Z</time>
      </trkpt>
      <trkpt lat="44.02284" lon="6.04577">
        <ele>722.59997558594</ele>
        <time>2022-01-02T10:46:51.411Z</time>
      </trkpt>
      <trkpt lat="44.02278" lon="6.04576">
        <ele>723.40002441406</ele>
        <time>2022-01-02T10:46:58.665Z</time>
      </trkpt>
      <trkpt lat="44.02276" lon="6.04575">
        <ele>723.59997558594</ele>
        <time>2022-01-02T10:47:05.920Z</time>
      </trkpt>
      <trkpt lat="44.02267" lon="6.04567">
        <ele>724.40002441406</ele>
        <time>2022-01-02T10:47:13.178Z</time>
      </trkpt>
      <trkpt lat="44.0225" lon="6.04557">
        <ele>724</ele>
        <time>2022-01-02T10:47:20.443Z</time>
      </trkpt>
      <trkpt lat="44.02241" lon="6.04551">
        <ele>723</ele>
        <time>2022-01-02T10:47:27.711Z</time>
      </trkpt>
      <trkpt lat="44.0224" lon="6.0455">
        <ele>722.79998779297</ele>
        <time>2022-01-02T10:47:34.980Z</time>
      </trkpt>
      <trkpt lat="44.02236" lon="6.04545">
        <ele>722.59997558594</ele>
        <time>2022-01-02T10:47:42.251Z</time>
      </trkpt>
      <trkpt lat="44.02235" lon="6.04543">
        <ele>722.59997558594</ele>
        <time>2022-01-02T10:47:49.522Z</time>
      </trkpt>
      <trkpt lat="44.02232" lon="6.0454">
        <ele>722.40002441406</ele>
        <time>2022-01-02T10:47:56.794Z</time>
      </trkpt>
      <trkpt lat="44.0222" lon="6.0453">
        <ele>721.20001220703</ele>
        <time>2022-01-02T10:48:04.071Z</time>
      </trkpt>
      <trkpt lat="44.02202" lon="6.04521">
        <ele>720.20001220703</ele>
        <time>2022-01-02T10:48:11.355Z</time>
      </trkpt>
      <trkpt lat="44.02196" lon="6.04515">
        <ele>719.79998779297</ele>
        <time>2022-01-02T10:48:18.642Z</time>
      </trkpt>
      <trkpt lat="44.02181" lon="6.04495">
        <ele>720.59997558594</ele>
        <time>2022-01-02T10:48:25.936Z</time>
      </trkpt>
      <trkpt lat="44.02176" lon="6.0449">
        <ele>721.40002441406</ele>
        <time>2022-01-02T10:48:33.232Z</time>
      </trkpt>
      <trkpt lat="44.02163" lon="6.0448">
        <ele>722</ele>
        <time>2022-01-02T10:48:40.533Z</time>
      </trkpt>
      <trkpt lat="44.02147" lon="6.04466">
        <ele>721.59997558594</ele>
        <time>2022-01-02T10:48:47.841Z</time>
      </trkpt>
      <trkpt lat="44.02138" lon="6.04458">
        <ele>721.59997558594</ele>
        <time>2022-01-02T10:48:55.153Z</time>
      </trkpt>
      <trkpt lat="44.02135" lon="6.04453">
        <ele>721.79998779297</ele>
        <time>2022-01-02T10:49:02.466Z</time>
      </trkpt>
      <trkpt lat="44.02126" lon="6.04441">
        <ele>722.40002441406</ele>
        <time>2022-01-02T10:49:09.784Z</time>
      </trkpt>
      <trkpt lat="44.02123" lon="6.04437">
        <ele>722.40002441406</ele>
        <time>2022-01-02T10:49:17.103Z</time>
      </trkpt>
      <trkpt lat="44.02116" lon="6.04428">
        <ele>723.20001220703</ele>
        <time>2022-01-02T10:49:24.425Z</time>
      </trkpt>
      <trkpt lat="44.02115" lon="6.04426">
        <ele>723.59997558594</ele>
        <time>2022-01-02T10:49:31.748Z</time>
      </trkpt>
      <trkpt lat="44.02109" lon="6.04419">
        <ele>724.40002441406</ele>
        <time>2022-01-02T10:49:39.074Z</time>
      </trkpt>
      <trkpt lat="44.021" lon="6.04408">
        <ele>725.40002441406</ele>
        <time>2022-01-02T10:49:46.404Z</time>
      </trkpt>
      <trkpt lat="44.02099" lon="6.04406">
        <ele>725.59997558594</ele>
        <time>2022-01-02T10:49:53.735Z</time>
      </trkpt>
      <trkpt lat="44.02092" lon="6.04398">
        <ele>726.40002441406</ele>
        <time>2022-01-02T10:50:01.069Z</time>
      </trkpt>
      <trkpt lat="44.0209" lon="6.04394">
        <ele>726.79998779297</ele>
        <time>2022-01-02T10:50:08.404Z</time>
      </trkpt>
      <trkpt lat="44.02085" lon="6.04387">
        <ele>727.59997558594</ele>
        <time>2022-01-02T10:50:15.741Z</time>
      </trkpt>
      <trkpt lat="44.02082" lon="6.04381">
        <ele>728.20001220703</ele>
        <time>2022-01-02T10:50:23.080Z</time>
      </trkpt>
      <trkpt lat="44.02079" lon="6.04377">
        <ele>728.79998779297</ele>
        <time>2022-01-02T10:50:30.421Z</time>
      </trkpt>
      <trkpt lat="44.02074" lon="6.04368">
        <ele>729.79998779297</ele>
        <time>2022-01-02T10:50:37.765Z</time>
      </trkpt>
      <trkpt lat="44.02071" lon="6.04363">
        <ele>730.40002441406</ele>
        <time>2022-01-02T10:50:45.110Z</time>
      </trkpt>
      <trkpt lat="44.02067" lon="6.04357">
        <ele>730.79998779297</ele>
        <time>2022-01-02T10:50:52.457Z</time>
      </trkpt>
      <trkpt lat="44.02061" lon="6.04347">
        <ele>732</ele>
        <time>2022-01-02T10:50:59.808Z</time>
      </trkpt>
      <trkpt lat="44.02059" lon="6.04345">
        <ele>732.20001220703</ele>
        <time>2022-01-02T10:51:07.159Z</time>
      </trkpt>
      <trkpt lat="44.02046" lon="6.04329">
        <ele>733</ele>
        <time>2022-01-02T10:51:14.516Z</time>
      </trkpt>
      <trkpt lat="44.02036" lon="6.04313">
        <ele>732.79998779297</ele>
        <time>2022-01-02T10:51:21.879Z</time>
      </trkpt>
      <trkpt lat="44.02034" lon="6.04295">
        <ele>733</ele>
        <time>2022-01-02T10:51:29.246Z</time>
      </trkpt>
      <trkpt lat="44.02034" lon="6.04287">
        <ele>733.40002441406</ele>
        <time>2022-01-02T10:51:36.615Z</time>
      </trkpt>
      <trkpt lat="44.02034" lon="6.04276">
        <ele>734.20001220703</ele>
        <time>2022-01-02T10:51:43.987Z</time>
      </trkpt>
      <trkpt lat="44.02036" lon="6.04266">
        <ele>735.20001220703</ele>
        <time>2022-01-02T10:51:51.362Z</time>
      </trkpt>
      <trkpt lat="44.02039" lon="6.04257">
        <ele>736.20001220703</ele>
        <time>2022-01-02T10:51:58.739Z</time>
      </trkpt>
      <trkpt lat="44.02042" lon="6.04249">
        <ele>737.59997558594</ele>
        <time>2022-01-02T10:52:06.119Z</time>
      </trkpt>
      <trkpt lat="44.02044" lon="6.04246">
        <ele>738</ele>
        <time>2022-01-02T10:52:13.500Z</time>
      </trkpt>
      <trkpt lat="44.02046" lon="6.04242">
        <ele>738.59997558594</ele>
        <time>2022-01-02T10:52:20.882Z</time>
      </trkpt>
      <trkpt lat="44.0205" lon="6.04235">
        <ele>739.79998779297</ele>
        <time>2022-01-02T10:52:28.266Z</time>
      </trkpt>
      <trkpt lat="44.02052" lon="6.04233">
        <ele>740</ele>
        <time>2022-01-02T10:52:35.651Z</time>
      </trkpt>
      <trkpt lat="44.0206" lon="6.04224">
        <ele>741</ele>
        <time>2022-01-02T10:52:43.040Z</time>
      </trkpt>
      <trkpt lat="44.02063" lon="6.04221">
        <ele>741.59997558594</ele>
        <time>2022-01-02T10:52:50.430Z</time>
      </trkpt>
      <trkpt lat="44.02064" lon="6.04219">
        <ele>742</ele>
        <time>2022-01-02T10:52:57.821Z</time>
      </trkpt>
      <trkpt lat="44.02071" lon="6.04212">
        <ele>743.20001220703</ele>
        <time>2022-01-02T10:53:05.214Z</time>
      </trkpt>
      <trkpt lat="44.02077" lon="6.04204">
        <ele>744.40002441406</ele>
        <time>2022-01-02T10:53:12.611Z</time>
      </trkpt>
      <trkpt lat="44.02084" lon="6.04197">
        <ele>745.59997558594</ele>
        <time>2022-01-02T10:53:20.011Z</time>
      </trkpt>
      <trkpt lat="44.02092" lon="6.04187">
        <ele>746.79998779297</ele>
        <time>2022-01-02T10:53:27.414Z</time>
      </trkpt>
      <trkpt lat="44.02094" lon="6.04179">
        <ele>747.79998779297</ele>
        <time>2022-01-02T10:53:34.819Z</time>
      </trkpt>
      <trkpt lat="44.02094" lon="6.04174">
        <ele>748.40002441406</ele>
        <time>2022-01-02T10:53:42.225Z</time>
      </trkpt>
      <trkpt lat="44.02094" lon="6.04169">
        <ele>749.20001220703</ele>
        <time>2022-01-02T10:53:49.633Z</time>
      </trkpt>
      <trkpt lat="44.02091" lon="6.04163">
        <ele>750.40002441406</ele>
        <time>2022-01-02T10:53:57.042Z</time>
      </trkpt>
      <trkpt lat="44.0209" lon="6.04161">
        <ele>750.59997558594</ele>
        <time>2022-01-02T10:54:04.452Z</time>
      </trkpt>
      <trkpt lat="44.02086" lon="6.04157">
        <ele>752</ele>
        <time>2022-01-02T10:54:11.864Z</time>
      </trkpt>
      <trkpt lat="44.0208" lon="6.04155">
        <ele>753</ele>
        <time>2022-01-02T10:54:19.278Z</time>
      </trkpt>
      <trkpt lat="44.02078" lon="6.04154">
        <ele>753.20001220703</ele>
        <time>2022-01-02T10:54:26.693Z</time>
      </trkpt>
      <trkpt lat="44.02073" lon="6.04153">
        <ele>754.20001220703</ele>
        <time>2022-01-02T10:54:34.109Z</time>
      </trkpt>
      <trkpt lat="44.02068" lon="6.04151">
        <ele>755.59997558594</ele>
        <time>2022-01-02T10:54:41.527Z</time>
      </trkpt>
      <trkpt lat="44.02063" lon="6.04149">
        <ele>756.40002441406</ele>
        <time>2022-01-02T10:54:48.947Z</time>
      </trkpt>
      <trkpt lat="44.02062" lon="6.04148">
        <ele>756.79998779297</ele>
        <time>2022-01-02T10:54:56.368Z</time>
      </trkpt>
      <trkpt lat="44.02057" lon="6.04147">
        <ele>757.79998779297</ele>
        <time>2022-01-02T10:55:03.790Z</time>
      </trkpt>
      <trkpt lat="44.02051" lon="6.04144">
        <ele>758.79998779297</ele>
        <time>2022-01-02T10:55:11.214Z</time>
      </trkpt>
      <trkpt lat="44.0205" lon="6.04144">
        <ele>759</ele>
        <time>2022-01-02T10:55:18.639Z</time>
      </trkpt>
      <trkpt lat="44.02045" lon="6.04141">
        <ele>759.79998779297</ele>
        <time>2022-01-02T10:55:26.066Z</time>
      </trkpt>
      <trkpt lat="44.02037" lon="6.04135">
        <ele>760.59997558594</ele>
        <time>2022-01-02T10:55:33.496Z</time>
      </trkpt>
      <trkpt lat="44.02035" lon="6.04134">
        <ele>761</ele>
        <time>2022-01-02T10:55:40.927Z</time>
      </trkpt>
      <trkpt lat="44.02029" lon="6.0413">
        <ele>761.79998779297</ele>
        <time>2022-01-02T10:55:48.360Z</time>
      </trkpt>
      <trkpt lat="44.02022" lon="6.04125">
        <ele>763</ele>
        <time>2022-01-02T10:55:55.796Z</time>
      </trkpt>
      <trkpt lat="44.02016" lon="6.04121">
        <ele>764.20001220703</ele>
        <time>2022-01-02T10:56:03.234Z</time>
      </trkpt>
      <trkpt lat="44.0201" lon="6.04117">
        <ele>765.40002441406</ele>
        <time>2022-01-02T10:56:10.674Z</time>
      </trkpt>
      <trkpt lat="44.02009" lon="6.04116">
        <ele>765.59997558594</ele>
        <time>2022-01-02T10:56:18.115Z</time>
      </trkpt>
      <trkpt lat="44.02004" lon="6.04113">
        <ele>766.59997558594</ele>
        <time>2022-01-02T10:56:25.558Z</time>
      </trkpt>
      <trkpt lat="44.01999" lon="6.04109">
        <ele>767.59997558594</ele>
        <time>2022-01-02T10:56:33.003Z</time>
      </trkpt>
      <trkpt lat="44.01993" lon="6.04105">
        <ele>769</ele>
        <time>2022-01-02T10:56:40.450Z</time>
      </trkpt>
      <trkpt lat="44.01984" lon="6.04101">
        <ele>770</ele>
        <time>2022-01-02T10:56:47.901Z</time>
      </trkpt>
      <trkpt lat="44.0198" lon="6.04099">
        <ele>770.59997558594</ele>
        <time>2022-01-02T10:56:55.353Z</time>
      </trkpt>
      <trkpt lat="44.01972" lon="6.04097">
        <ele>771.20001220703</ele>
        <time>2022-01-02T10:57:02.808Z</time>
      </trkpt>
      <trkpt lat="44.01964" lon="6.04097">
        <ele>771.79998779297</ele>
        <time>2022-01-02T10:57:10.266Z</time>
      </trkpt>
      <trkpt lat="44.01958" lon="6.04097">
        <ele>772.20001220703</ele>
        <time>2022-01-02T10:57:17.725Z</time>
      </trkpt>
      <trkpt lat="44.01953" lon="6.04098">
        <ele>773</ele>
        <time>2022-01-02T10:57:25.186Z</time>
      </trkpt>
      <trkpt lat="44.0195" lon="6.04099">
        <ele>773.40002441406</ele>
        <time>2022-01-02T10:57:32.649Z</time>
      </trkpt>
      <trkpt lat="44.01942" lon="6.04099">
        <ele>774.40002441406</ele>
        <time>2022-01-02T10:57:40.114Z</time>
      </trkpt>
      <trkpt lat="44.0194" lon="6.04099">
        <ele>774.79998779297</ele>
        <time>2022-01-02T10:57:47.580Z</time>
      </trkpt>
      <trkpt lat="44.01933" lon="6.04099">
        <ele>775.40002441406</ele>
        <time>2022-01-02T10:57:55.048Z</time>
      </trkpt>
      <trkpt lat="44.01922" lon="6.04096">
        <ele>776.40002441406</ele>
        <time>2022-01-02T10:58:02.520Z</time>
      </trkpt>
      <trkpt lat="44.01918" lon="6.04094">
        <ele>776.59997558594</ele>
        <time>2022-01-02T10:58:09.994Z</time>
      </trkpt>
      <trkpt lat="44.01907" lon="6.04086">
        <ele>777.20001220703</ele>
        <time>2022-01-02T10:58:17.472Z</time>
      </trkpt>
      <trkpt lat="44.01906" lon="6.04084">
        <ele>777.59997558594</ele>
        <time>2022-01-02T10:58:24.951Z</time>
      </trkpt>
      <trkpt lat="44.01901" lon="6.04079">
        <ele>778.79998779297</ele>
        <time>2022-01-02T10:58:32.432Z</time>
      </trkpt>
      <trkpt lat="44.01896" lon="6.04074">
        <ele>780</ele>
        <time>2022-01-02T10:58:39.915Z</time>
      </trkpt>
      <trkpt lat="44.01891" lon="6.04069">
        <ele>781.40002441406</ele>
        <time>2022-01-02T10:58:47.400Z</time>
      </trkpt>
      <trkpt lat="44.01887" lon="6.04065">
        <ele>782.59997558594</ele>
        <time>2022-01-02T10:58:54.887Z</time>
      </trkpt>
      <trkpt lat="44.01882" lon="6.0406">
        <ele>783.79998779297</ele>
        <time>2022-01-02T10:59:02.376Z</time>
      </trkpt>
      <trkpt lat="44.01877" lon="6.04054">
        <ele>785</ele>
        <time>2022-01-02T10:59:09.867Z</time>
      </trkpt>
      <trkpt lat="44.01873" lon="6.04049">
        <ele>786.20001220703</ele>
        <time>2022-01-02T10:59:17.360Z</time>
      </trkpt>
      <trkpt lat="44.01871" lon="6.04048">
        <ele>786.59997558594</ele>
        <time>2022-01-02T10:59:24.854Z</time>
      </trkpt>
      <trkpt lat="44.0187" lon="6.04046">
        <ele>787.20001220703</ele>
        <time>2022-01-02T10:59:32.348Z</time>
      </trkpt>
      <trkpt lat="44.01866" lon="6.04042">
        <ele>788.20001220703</ele>
        <time>2022-01-02T10:59:39.844Z</time>
      </trkpt>
      <trkpt lat="44.01864" lon="6.0404">
        <ele>788.79998779297</ele>
        <time>2022-01-02T10:59:47.341Z</time>
      </trkpt>
      <trkpt lat="44.01859" lon="6.04037">
        <ele>789.59997558594</ele>
        <time>2022-01-02T10:59:54.840Z</time>
      </trkpt>
      <trkpt lat="44.01853" lon="6.04033">
        <ele>790.79998779297</ele>
        <time>2022-01-02T11:00:02.341Z</time>
      </trkpt>
      <trkpt lat="44.01851" lon="6.04032">
        <ele>791.20001220703</ele>
        <time>2022-01-02T11:00:09.843Z</time>
      </trkpt>
      <trkpt lat="44.01846" lon="6.0403">
        <ele>792</ele>
        <time>2022-01-02T11:00:17.347Z</time>
      </trkpt>
      <trkpt lat="44.01839" lon="6.04028">
        <ele>793.20001220703</ele>
        <time>2022-01-02T11:00:24.853Z</time>
      </trkpt>
      <trkpt lat="44.01838" lon="6.04028">
        <ele>793.59997558594</ele>
        <time>2022-01-02T11:00:32.360Z</time>
      </trkpt>
      <trkpt lat="44.01834" lon="6.04028">
        <ele>794.20001220703</ele>
        <time>2022-01-02T11:00:39.868Z</time>
      </trkpt>
      <trkpt lat="44.01827" lon="6.04026">
        <ele>795.59997558594</ele>
        <time>2022-01-02T11:00:47.379Z</time>
      </trkpt>
      <trkpt lat="44.01823" lon="6.04025">
        <ele>796.20001220703</ele>
        <time>2022-01-02T11:00:54.891Z</time>
      </trkpt>
      <trkpt lat="44.01818" lon="6.04022">
        <ele>796.79998779297</ele>
        <time>2022-01-02T11:01:02.405Z</time>
      </trkpt>
      <trkpt lat="44.01812" lon="6.0402">
        <ele>798</ele>
        <time>2022-01-02T11:01:09.921Z</time>
      </trkpt>
      <trkpt lat="44.01809" lon="6.04017">
        <ele>798.59997558594</ele>
        <time>2022-01-02T11:01:17.438Z</time>
      </trkpt>
      <trkpt lat="44.01805" lon="6.04016">
        <ele>799.20001220703</ele>
        <time>2022-01-02T11:01:24.957Z</time>
      </trkpt>
      <trkpt lat="44.01798" lon="6.04012">
        <ele>800.20001220703</ele>
        <time>2022-01-02T11:01:32.478Z</time>
      </trkpt>
      <trkpt lat="44.01794" lon="6.0401">
        <ele>800.79998779297</ele>
        <time>2022-01-02T11:01:40.001Z</time>
      </trkpt>
      <trkpt lat="44.01791" lon="6.04009">
        <ele>801.40002441406</ele>
        <time>2022-01-02T11:01:47.525Z</time>
      </trkpt>
      <trkpt lat="44.01785" lon="6.04005">
        <ele>802.40002441406</ele>
        <time>2022-01-02T11:01:55.051Z</time>
      </trkpt>
      <trkpt lat="44.01781" lon="6.04003">
        <ele>803.20001220703</ele>
        <time>2022-01-02T11:02:02.579Z</time>
      </trkpt>
      <trkpt lat="44.01778" lon="6.04001">
        <ele>803.59997558594</ele>
        <time>2022-01-02T11:02:10.108Z</time>
      </trkpt>
      <trkpt lat="44.01772" lon="6.03998">
        <ele>804.79998779297</ele>
        <time>2022-01-02T11:02:17.639Z</time>
      </trkpt>
      <trkpt lat="44.01765" lon="6.03994">
        <ele>805.79998779297</ele>
        <time>2022-01-02T11:02:25.173Z</time>
      </trkpt>
      <trkpt lat="44.01756" lon="6.0399">
        <ele>807</ele>
        <time>2022-01-02T11:02:32.710Z</time>
      </trkpt>
      <trkpt lat="44.01751" lon="6.03987">
        <ele>808</ele>
        <time>2022-01-02T11:02:40.249Z</time>
      </trkpt>
      <trkpt lat="44.01748" lon="6.03985">
        <ele>808.59997558594</ele>
        <time>2022-01-02T11:02:47.789Z</time>
      </trkpt>
      <trkpt lat="44.01744" lon="6.03983">
        <ele>809.20001220703</ele>
        <time>2022-01-02T11:02:55.331Z</time>
      </trkpt>
      <trkpt lat="44.01737" lon="6.03979">
        <ele>810.20001220703</ele>
        <time>2022-01-02T11:03:02.875Z</time>
      </trkpt>
      <trkpt lat="44.01731" lon="6.03976">
        <ele>810.79998779297</ele>
        <time>2022-01-02T11:03:10.421Z</time>
      </trkpt>
      <trkpt lat="44.01728" lon="6.03973">
        <ele>811.40002441406</ele>
        <time>2022-01-02T11:03:17.969Z</time>
      </trkpt>
      <trkpt lat="44.01714" lon="6.03963">
        <ele>812.40002441406</ele>
        <time>2022-01-02T11:03:25.522Z</time>
      </trkpt>
      <trkpt lat="44.01703" lon="6.03955">
        <ele>813.59997558594</ele>
        <time>2022-01-02T11:03:33.079Z</time>
      </trkpt>
      <trkpt lat="44.01696" lon="6.0395">
        <ele>814.20001220703</ele>
        <time>2022-01-02T11:03:40.639Z</time>
      </trkpt>
      <trkpt lat="44.01692" lon="6.03948">
        <ele>814.59997558594</ele>
        <time>2022-01-02T11:03:48.201Z</time>
      </trkpt>
      <trkpt lat="44.01682" lon="6.03938">
        <ele>815.79998779297</ele>
        <time>2022-01-02T11:03:55.767Z</time>
      </trkpt>
      <trkpt lat="44.01674" lon="6.03927">
        <ele>817</ele>
        <time>2022-01-02T11:04:03.337Z</time>
      </trkpt>
      <trkpt lat="44.01664" lon="6.03915">
        <ele>818.20001220703</ele>
        <time>2022-01-02T11:04:10.912Z</time>
      </trkpt>
      <trkpt lat="44.01653" lon="6.039">
        <ele>819.40002441406</ele>
        <time>2022-01-02T11:04:18.492Z</time>
      </trkpt>
      <trkpt lat="44.01645" lon="6.03889">
        <ele>820.59997558594</ele>
        <time>2022-01-02T11:04:26.076Z</time>
      </trkpt>
      <trkpt lat="44.01644" lon="6.03887">
        <ele>820.79998779297</ele>
        <time>2022-01-02T11:04:33.661Z</time>
      </trkpt>
      <trkpt lat="44.01642" lon="6.03885">
        <ele>821</ele>
        <time>2022-01-02T11:04:41.246Z</time>
      </trkpt>
      <trkpt lat="44.01639" lon="6.0388">
        <ele>821.59997558594</ele>
        <time>2022-01-02T11:04:48.833Z</time>
      </trkpt>
      <trkpt lat="44.01636" lon="6.03875">
        <ele>822.20001220703</ele>
        <time>2022-01-02T11:04:56.422Z</time>
      </trkpt>
      <trkpt lat="44.01632" lon="6.03868">
        <ele>822.79998779297</ele>
        <time>2022-01-02T11:05:04.013Z</time>
      </trkpt>
      <trkpt lat="44.01628" lon="6.03854">
        <ele>823.40002441406</ele>
        <time>2022-01-02T11:05:11.607Z</time>
      </trkpt>
      <trkpt lat="44.01626" lon="6.03846">
        <ele>823.79998779297</ele>
        <time>2022-01-02T11:05:19.204Z</time>
      </trkpt>
      <trkpt lat="44.01625" lon="6.03839">
        <ele>824.20001220703</ele>
        <time>2022-01-02T11:05:26.803Z</time>
      </trkpt>
      <trkpt lat="44.01626" lon="6.03821">
        <ele>825</ele>
        <time>2022-01-02T11:05:34.406Z</time>
      </trkpt>
      <trkpt lat="44.01627" lon="6.03817">
        <ele>825</ele>
        <time>2022-01-02T11:05:42.010Z</time>
      </trkpt>
      <trkpt lat="44.01631" lon="6.03799">
        <ele>825.59997558594</ele>
        <time>2022-01-02T11:05:49.619Z</time>
      </trkpt>
      <trkpt lat="44.01633" lon="6.03792">
        <ele>826</ele>
        <time>2022-01-02T11:05:57.230Z</time>
      </trkpt>
      <trkpt lat="44.01635" lon="6.03785">
        <ele>826.59997558594</ele>
        <time>2022-01-02T11:06:04.843Z</time>
      </trkpt>
      <trkpt lat="44.01636" lon="6.03778">
        <ele>827.20001220703</ele>
        <time>2022-01-02T11:06:12.457Z</time>
      </trkpt>
      <trkpt lat="44.01635" lon="6.03776">
        <ele>827.59997558594</ele>
        <time>2022-01-02T11:06:20.072Z</time>
      </trkpt>
      <trkpt lat="44.01638" lon="6.03767">
        <ele>828</ele>
        <time>2022-01-02T11:06:27.690Z</time>
      </trkpt>
      <trkpt lat="44.01639" lon="6.03761">
        <ele>828</ele>
        <time>2022-01-02T11:06:35.309Z</time>
      </trkpt>
      <trkpt lat="44.0164" lon="6.03758">
        <ele>828.20001220703</ele>
        <time>2022-01-02T11:06:42.929Z</time>
      </trkpt>
      <trkpt lat="44.01644" lon="6.03745">
        <ele>829.59997558594</ele>
        <time>2022-01-02T11:06:50.553Z</time>
      </trkpt>
      <trkpt lat="44.01645" lon="6.03742">
        <ele>829.79998779297</ele>
        <time>2022-01-02T11:06:58.177Z</time>
      </trkpt>
      <trkpt lat="44.01647" lon="6.03728">
        <ele>830.59997558594</ele>
        <time>2022-01-02T11:07:05.805Z</time>
      </trkpt>
      <trkpt lat="44.01647" lon="6.03719">
        <ele>831</ele>
        <time>2022-01-02T11:07:13.435Z</time>
      </trkpt>
      <trkpt lat="44.01648" lon="6.03705">
        <ele>831.40002441406</ele>
        <time>2022-01-02T11:07:21.069Z</time>
      </trkpt>
      <trkpt lat="44.01647" lon="6.03683">
        <ele>830.59997558594</ele>
        <time>2022-01-02T11:07:28.708Z</time>
      </trkpt>
      <trkpt lat="44.01646" lon="6.03679">
        <ele>830.40002441406</ele>
        <time>2022-01-02T11:07:36.348Z</time>
      </trkpt>
      <trkpt lat="44.0164" lon="6.03666">
        <ele>830</ele>
        <time>2022-01-02T11:07:43.992Z</time>
      </trkpt>
      <trkpt lat="44.01637" lon="6.03661">
        <ele>829.79998779297</ele>
        <time>2022-01-02T11:07:51.638Z</time>
      </trkpt>
      <trkpt lat="44.01628" lon="6.0365">
        <ele>828.79998779297</ele>
        <time>2022-01-02T11:07:59.288Z</time>
      </trkpt>
      <trkpt lat="44.01626" lon="6.03647">
        <ele>828.59997558594</ele>
        <time>2022-01-02T11:08:06.939Z</time>
      </trkpt>
      <trkpt lat="44.01616" lon="6.03633">
        <ele>827.59997558594</ele>
        <time>2022-01-02T11:08:14.595Z</time>
      </trkpt>
      <trkpt lat="44.01611" lon="6.03625">
        <ele>827</ele>
        <time>2022-01-02T11:08:22.254Z</time>
      </trkpt>
      <trkpt lat="44.01608" lon="6.0362">
        <ele>826.79998779297</ele>
        <time>2022-01-02T11:08:29.914Z</time>
      </trkpt>
      <trkpt lat="44.01607" lon="6.03615">
        <ele>826.40002441406</ele>
        <time>2022-01-02T11:08:37.576Z</time>
      </trkpt>
      <trkpt lat="44.01604" lon="6.03605">
        <ele>826</ele>
        <time>2022-01-02T11:08:45.241Z</time>
      </trkpt>
      <trkpt lat="44.01604" lon="6.036">
        <ele>825.40002441406</ele>
        <time>2022-01-02T11:08:52.907Z</time>
      </trkpt>
      <trkpt lat="44.01604" lon="6.03587">
        <ele>824</ele>
        <time>2022-01-02T11:09:00.576Z</time>
      </trkpt>
      <trkpt lat="44.01604" lon="6.03583">
        <ele>823.59997558594</ele>
        <time>2022-01-02T11:09:08.246Z</time>
      </trkpt>
      <trkpt lat="44.01599" lon="6.03575">
        <ele>823</ele>
        <time>2022-01-02T11:09:15.919Z</time>
      </trkpt>
      <trkpt lat="44.01597" lon="6.03572">
        <ele>823.20001220703</ele>
        <time>2022-01-02T11:09:23.593Z</time>
      </trkpt>
      <trkpt lat="44.01593" lon="6.03558">
        <ele>824.20001220703</ele>
        <time>2022-01-02T11:09:31.271Z</time>
      </trkpt>
      <trkpt lat="44.01592" lon="6.03554">
        <ele>824.59997558594</ele>
        <time>2022-01-02T11:09:38.949Z</time>
      </trkpt>
      <trkpt lat="44.01594" lon="6.03537">
        <ele>825.20001220703</ele>
        <time>2022-01-02T11:09:46.632Z</time>
      </trkpt>
      <trkpt lat="44.01602" lon="6.03506">
        <ele>824</ele>
        <time>2022-01-02T11:09:54.323Z</time>
      </trkpt>
      <trkpt lat="44.01612" lon="6.03474">
        <ele>823.20001220703</ele>
        <time>2022-01-02T11:10:02.023Z</time>
      </trkpt>
      <trkpt lat="44.01616" lon="6.03461">
        <ele>823.20001220703</ele>
        <time>2022-01-02T11:10:09.727Z</time>
      </trkpt>
      <trkpt lat="44.01622" lon="6.03447">
        <ele>823</ele>
        <time>2022-01-02T11:10:17.435Z</time>
      </trkpt>
      <trkpt lat="44.01626" lon="6.03435">
        <ele>822.59997558594</ele>
        <time>2022-01-02T11:10:25.146Z</time>
      </trkpt>
      <trkpt lat="44.01628" lon="6.03432">
        <ele>822.59997558594</ele>
        <time>2022-01-02T11:10:32.858Z</time>
      </trkpt>
      <trkpt lat="44.01641" lon="6.03423">
        <ele>821.79998779297</ele>
        <time>2022-01-02T11:10:40.575Z</time>
      </trkpt>
      <trkpt lat="44.01647" lon="6.03416">
        <ele>820.59997558594</ele>
        <time>2022-01-02T11:10:48.295Z</time>
      </trkpt>
      <trkpt lat="44.01655" lon="6.03407">
        <ele>820</ele>
        <time>2022-01-02T11:10:56.018Z</time>
      </trkpt>
      <trkpt lat="44.01659" lon="6.03398">
        <ele>820</ele>
        <time>2022-01-02T11:11:03.744Z</time>
      </trkpt>
      <trkpt lat="44.0166" lon="6.03389">
        <ele>819.79998779297</ele>
        <time>2022-01-02T11:11:11.472Z</time>
      </trkpt>
      <trkpt lat="44.01659" lon="6.03384">
        <ele>819.79998779297</ele>
        <time>2022-01-02T11:11:19.202Z</time>
      </trkpt>
      <trkpt lat="44.01655" lon="6.0337">
        <ele>820</ele>
        <time>2022-01-02T11:11:26.935Z</time>
      </trkpt>
      <trkpt lat="44.01652" lon="6.03361">
        <ele>820</ele>
        <time>2022-01-02T11:11:34.671Z</time>
      </trkpt>
      <trkpt lat="44.01648" lon="6.03349">
        <ele>819.79998779297</ele>
        <time>2022-01-02T11:11:42.410Z</time>
      </trkpt>
      <trkpt lat="44.01643" lon="6.03344">
        <ele>819.79998779297</ele>
        <time>2022-01-02T11:11:50.152Z</time>
      </trkpt>
      <trkpt lat="44.01636" lon="6.0334">
        <ele>819.59997558594</ele>
        <time>2022-01-02T11:11:57.896Z</time>
      </trkpt>
      <trkpt lat="44.01613" lon="6.03328">
        <ele>818.40002441406</ele>
        <time>2022-01-02T11:12:05.648Z</time>
      </trkpt>
      <trkpt lat="44.01601" lon="6.03314">
        <ele>816.79998779297</ele>
        <time>2022-01-02T11:12:13.406Z</time>
      </trkpt>
      <trkpt lat="44.01592" lon="6.03307">
        <ele>815.59997558594</ele>
        <time>2022-01-02T11:12:21.168Z</time>
      </trkpt>
      <trkpt lat="44.01585" lon="6.03302">
        <ele>815</ele>
        <time>2022-01-02T11:12:28.932Z</time>
      </trkpt>
      <trkpt lat="44.01577" lon="6.03299">
        <ele>814.79998779297</ele>
        <time>2022-01-02T11:12:36.699Z</time>
      </trkpt>
      <trkpt lat="44.01576" lon="6.03282">
        <ele>815</ele>
        <time>2022-01-02T11:12:44.470Z</time>
      </trkpt>
      <trkpt lat="44.01575" lon="6.03276">
        <ele>814.79998779297</ele>
        <time>2022-01-02T11:12:52.243Z</time>
      </trkpt>
      <trkpt lat="44.01571" lon="6.03269">
        <ele>814.59997558594</ele>
        <time>2022-01-02T11:13:00.018Z</time>
      </trkpt>
      <trkpt lat="44.0156" lon="6.03258">
        <ele>815.20001220703</ele>
        <time>2022-01-02T11:13:07.798Z</time>
      </trkpt>
      <trkpt lat="44.01557" lon="6.03254">
        <ele>815.40002441406</ele>
        <time>2022-01-02T11:13:15.579Z</time>
      </trkpt>
      <trkpt lat="44.01554" lon="6.03251">
        <ele>815.79998779297</ele>
        <time>2022-01-02T11:13:23.362Z</time>
      </trkpt>
      <trkpt lat="44.01543" lon="6.03234">
        <ele>816</ele>
        <time>2022-01-02T11:13:31.151Z</time>
      </trkpt>
      <trkpt lat="44.01531" lon="6.03224">
        <ele>815.59997558594</ele>
        <time>2022-01-02T11:13:38.944Z</time>
      </trkpt>
      <trkpt lat="44.01524" lon="6.03222">
        <ele>815.79998779297</ele>
        <time>2022-01-02T11:13:46.740Z</time>
      </trkpt>
      <trkpt lat="44.01522" lon="6.03222">
        <ele>816</ele>
        <time>2022-01-02T11:13:54.536Z</time>
      </trkpt>
      <trkpt lat="44.01515" lon="6.03227">
        <ele>817.20001220703</ele>
        <time>2022-01-02T11:14:02.335Z</time>
      </trkpt>
      <trkpt lat="44.0151" lon="6.03229">
        <ele>818.20001220703</ele>
        <time>2022-01-02T11:14:10.136Z</time>
      </trkpt>
      <trkpt lat="44.01508" lon="6.03229">
        <ele>818.79998779297</ele>
        <time>2022-01-02T11:14:17.938Z</time>
      </trkpt>
      <trkpt lat="44.01508" lon="6.03229">
        <ele>819</ele>
        <time>2022-01-02T11:14:25.740Z</time>
      </trkpt>
      <trkpt lat="44.01503" lon="6.03229">
        <ele>819.20001220703</ele>
        <time>2022-01-02T11:14:33.543Z</time>
      </trkpt>
      <trkpt lat="44.01501" lon="6.03228">
        <ele>819</ele>
        <time>2022-01-02T11:14:41.347Z</time>
      </trkpt>
      <trkpt lat="44.015" lon="6.03227">
        <ele>819</ele>
        <time>2022-01-02T11:14:49.152Z</time>
      </trkpt>
      <trkpt lat="44.01499" lon="6.03225">
        <ele>818.59997558594</ele>
        <time>2022-01-02T11:14:56.957Z</time>
      </trkpt>
      <trkpt lat="44.01496" lon="6.0322">
        <ele>818.59997558594</ele>
        <time>2022-01-02T11:15:04.764Z</time>
      </trkpt>
      <trkpt lat="44.01494" lon="6.03213">
        <ele>818.20001220703</ele>
        <time>2022-01-02T11:15:12.573Z</time>
      </trkpt>
      <trkpt lat="44.01491" lon="6.03202">
        <ele>817.59997558594</ele>
        <time>2022-01-02T11:15:20.385Z</time>
      </trkpt>
      <trkpt lat="44.0149" lon="6.03196">
        <ele>817</ele>
        <time>2022-01-02T11:15:28.198Z</time>
      </trkpt>
      <trkpt lat="44.01488" lon="6.03184">
        <ele>816.40002441406</ele>
        <time>2022-01-02T11:15:36.015Z</time>
      </trkpt>
      <trkpt lat="44.01487" lon="6.03177">
        <ele>816</ele>
        <time>2022-01-02T11:15:43.833Z</time>
      </trkpt>
      <trkpt lat="44.01486" lon="6.03171">
        <ele>815.59997558594</ele>
        <time>2022-01-02T11:15:51.653Z</time>
      </trkpt>
      <trkpt lat="44.01486" lon="6.03157">
        <ele>814.40002441406</ele>
        <time>2022-01-02T11:15:59.476Z</time>
      </trkpt>
      <trkpt lat="44.01486" lon="6.03149">
        <ele>814</ele>
        <time>2022-01-02T11:16:07.301Z</time>
      </trkpt>
      <trkpt lat="44.01486" lon="6.03133">
        <ele>813.40002441406</ele>
        <time>2022-01-02T11:16:15.130Z</time>
      </trkpt>
      <trkpt lat="44.01487" lon="6.03125">
        <ele>813.20001220703</ele>
        <time>2022-01-02T11:16:22.961Z</time>
      </trkpt>
      <trkpt lat="44.0149" lon="6.0311">
        <ele>812.59997558594</ele>
        <time>2022-01-02T11:16:30.796Z</time>
      </trkpt>
      <trkpt lat="44.01494" lon="6.03097">
        <ele>812</ele>
        <time>2022-01-02T11:16:38.635Z</time>
      </trkpt>
      <trkpt lat="44.01498" lon="6.03087">
        <ele>811.79998779297</ele>
        <time>2022-01-02T11:16:46.477Z</time>
      </trkpt>
      <trkpt lat="44.01503" lon="6.03078">
        <ele>812.20001220703</ele>
        <time>2022-01-02T11:16:54.321Z</time>
      </trkpt>
      <trkpt lat="44.01513" lon="6.03058">
        <ele>813</ele>
        <time>2022-01-02T11:17:02.172Z</time>
      </trkpt>
      <trkpt lat="44.01516" lon="6.03055">
        <ele>813.20001220703</ele>
        <time>2022-01-02T11:17:10.024Z</time>
      </trkpt>
      <trkpt lat="44.01527" lon="6.03039">
        <ele>814</ele>
        <time>2022-01-02T11:17:17.881Z</time>
      </trkpt>
      <trkpt lat="44.01529" lon="6.03037">
        <ele>814.40002441406</ele>
        <time>2022-01-02T11:17:25.740Z</time>
      </trkpt>
      <trkpt lat="44.01543" lon="6.03026">
        <ele>815.40002441406</ele>
        <time>2022-01-02T11:17:33.604Z</time>
      </trkpt>
      <trkpt lat="44.01546" lon="6.03024">
        <ele>815.40002441406</ele>
        <time>2022-01-02T11:17:41.469Z</time>
      </trkpt>
      <trkpt lat="44.01558" lon="6.0302">
        <ele>816.59997558594</ele>
        <time>2022-01-02T11:17:49.338Z</time>
      </trkpt>
      <trkpt lat="44.01569" lon="6.03014">
        <ele>817.20001220703</ele>
        <time>2022-01-02T11:17:57.212Z</time>
      </trkpt>
      <trkpt lat="44.01574" lon="6.03009">
        <ele>817.59997558594</ele>
        <time>2022-01-02T11:18:05.088Z</time>
      </trkpt>
      <trkpt lat="44.01589" lon="6.02992">
        <ele>818.20001220703</ele>
        <time>2022-01-02T11:18:12.971Z</time>
      </trkpt>
      <trkpt lat="44.01603" lon="6.02974">
        <ele>818.59997558594</ele>
        <time>2022-01-02T11:18:20.860Z</time>
      </trkpt>
      <trkpt lat="44.01605" lon="6.02971">
        <ele>818.59997558594</ele>
        <time>2022-01-02T11:18:28.750Z</time>
      </trkpt>
      <trkpt lat="44.01624" lon="6.02945">
        <ele>819.40002441406</ele>
        <time>2022-01-02T11:18:36.650Z</time>
      </trkpt>
      <trkpt lat="44.01629" lon="6.02938">
        <ele>819.59997558594</ele>
        <time>2022-01-02T11:18:44.552Z</time>
      </trkpt>
      <trkpt lat="44.01639" lon="6.02917">
        <ele>819.79998779297</ele>
        <time>2022-01-02T11:18:52.460Z</time>
      </trkpt>
      <trkpt lat="44.01656" lon="6.02882">
        <ele>818.79998779297</ele>
        <time>2022-01-02T11:19:00.379Z</time>
      </trkpt>
      <trkpt lat="44.01675" lon="6.02864">
        <ele>819.59997558594</ele>
        <time>2022-01-02T11:19:08.306Z</time>
      </trkpt>
      <trkpt lat="44.01699" lon="6.02849">
        <ele>820.59997558594</ele>
        <time>2022-01-02T11:19:16.242Z</time>
      </trkpt>
      <trkpt lat="44.01703" lon="6.02846">
        <ele>820.79998779297</ele>
        <time>2022-01-02T11:19:24.180Z</time>
      </trkpt>
      <trkpt lat="44.01723" lon="6.02834">
        <ele>820.79998779297</ele>
        <time>2022-01-02T11:19:32.125Z</time>
      </trkpt>
      <trkpt lat="44.01744" lon="6.02823">
        <ele>822</ele>
        <time>2022-01-02T11:19:40.078Z</time>
      </trkpt>
      <trkpt lat="44.01748" lon="6.02821">
        <ele>822.20001220703</ele>
        <time>2022-01-02T11:19:48.033Z</time>
      </trkpt>
      <trkpt lat="44.01754" lon="6.02816">
        <ele>823.20001220703</ele>
        <time>2022-01-02T11:19:55.990Z</time>
      </trkpt>
      <trkpt lat="44.01769" lon="6.028">
        <ele>823.79998779297</ele>
        <time>2022-01-02T11:20:03.954Z</time>
      </trkpt>
      <trkpt lat="44.01775" lon="6.02793">
        <ele>824.20001220703</ele>
        <time>2022-01-02T11:20:11.920Z</time>
      </trkpt>
      <trkpt lat="44.0179" lon="6.02779">
        <ele>824.59997558594</ele>
        <time>2022-01-02T11:20:19.893Z</time>
      </trkpt>
      <trkpt lat="44.01812" lon="6.0277">
        <ele>824.79998779297</ele>
        <time>2022-01-02T11:20:27.874Z</time>
      </trkpt>
      <trkpt lat="44.01843" lon="6.02769">
        <ele>825.20001220703</ele>
        <time>2022-01-02T11:20:35.866Z</time>
      </trkpt>
      <trkpt lat="44.01846" lon="6.02768">
        <ele>825.40002441406</ele>
        <time>2022-01-02T11:20:43.859Z</time>
      </trkpt>
      <trkpt lat="44.01868" lon="6.02763">
        <ele>825.79998779297</ele>
        <time>2022-01-02T11:20:51.860Z</time>
      </trkpt>
      <trkpt lat="44.01886" lon="6.02752">
        <ele>825.59997558594</ele>
        <time>2022-01-02T11:20:59.867Z</time>
      </trkpt>
      <trkpt lat="44.01905" lon="6.02738">
        <ele>825.79998779297</ele>
        <time>2022-01-02T11:21:07.882Z</time>
      </trkpt>
      <trkpt lat="44.01915" lon="6.0273">
        <ele>826</ele>
        <time>2022-01-02T11:21:15.901Z</time>
      </trkpt>
      <trkpt lat="44.0192" lon="6.02726">
        <ele>826.20001220703</ele>
        <time>2022-01-02T11:21:23.922Z</time>
      </trkpt>
      <trkpt lat="44.0192" lon="6.02725">
        <ele>826.40002441406</ele>
        <time>2022-01-02T11:21:31.943Z</time>
      </trkpt>
      <trkpt lat="44.01921" lon="6.02723">
        <ele>826.40002441406</ele>
        <time>2022-01-02T11:21:39.965Z</time>
      </trkpt>
      <trkpt lat="44.01925" lon="6.0272">
        <ele>826.20001220703</ele>
        <time>2022-01-02T11:21:47.988Z</time>
      </trkpt>
      <trkpt lat="44.01927" lon="6.02716">
        <ele>826.40002441406</ele>
        <time>2022-01-02T11:21:56.012Z</time>
      </trkpt>
      <trkpt lat="44.01939" lon="6.02692">
        <ele>827.40002441406</ele>
        <time>2022-01-02T11:22:04.044Z</time>
      </trkpt>
      <trkpt lat="44.01945" lon="6.02676">
        <ele>828.40002441406</ele>
        <time>2022-01-02T11:22:12.081Z</time>
      </trkpt>
      <trkpt lat="44.0195" lon="6.02664">
        <ele>829.20001220703</ele>
        <time>2022-01-02T11:22:20.121Z</time>
      </trkpt>
      <trkpt lat="44.01951" lon="6.0266">
        <ele>829.59997558594</ele>
        <time>2022-01-02T11:22:28.162Z</time>
      </trkpt>
      <trkpt lat="44.01958" lon="6.02643">
        <ele>830.79998779297</ele>
        <time>2022-01-02T11:22:36.208Z</time>
      </trkpt>
      <trkpt lat="44.01964" lon="6.02631">
        <ele>831.59997558594</ele>
        <time>2022-01-02T11:22:44.257Z</time>
      </trkpt>
      <trkpt lat="44.01969" lon="6.02618">
        <ele>832.79998779297</ele>
        <time>2022-01-02T11:22:52.310Z</time>
      </trkpt>
      <trkpt lat="44.01974" lon="6.02607">
        <ele>834</ele>
        <time>2022-01-02T11:23:00.366Z</time>
      </trkpt>
      <trkpt lat="44.01975" lon="6.02604">
        <ele>834.40002441406</ele>
        <time>2022-01-02T11:23:08.423Z</time>
      </trkpt>
      <trkpt lat="44.01979" lon="6.02595">
        <ele>835.20001220703</ele>
        <time>2022-01-02T11:23:16.483Z</time>
      </trkpt>
      <trkpt lat="44.01983" lon="6.02585">
        <ele>835.59997558594</ele>
        <time>2022-01-02T11:23:24.546Z</time>
      </trkpt>
      <trkpt lat="44.0199" lon="6.02569">
        <ele>836.20001220703</ele>
        <time>2022-01-02T11:23:32.613Z</time>
      </trkpt>
      <trkpt lat="44.01998" lon="6.02553">
        <ele>836</ele>
        <time>2022-01-02T11:23:40.685Z</time>
      </trkpt>
      <trkpt lat="44.01999" lon="6.0255">
        <ele>836</ele>
        <time>2022-01-02T11:23:48.758Z</time>
      </trkpt>
      <trkpt lat="44.02" lon="6.02543">
        <ele>835.59997558594</ele>
        <time>2022-01-02T11:23:56.833Z</time>
      </trkpt>
      <trkpt lat="44.02001" lon="6.02529">
        <ele>835.20001220703</ele>
        <time>2022-01-02T11:24:04.912Z</time>
      </trkpt>
      <trkpt lat="44.01996" lon="6.02526">
        <ele>835</ele>
        <time>2022-01-02T11:24:12.992Z</time>
      </trkpt>
      <trkpt lat="44.01996" lon="6.02527">
        <ele>835</ele>
        <time>2022-01-02T11:24:21.073Z</time>
      </trkpt>
      <trkpt lat="44.01999" lon="6.02535">
        <ele>835.20001220703</ele>
        <time>2022-01-02T11:24:29.156Z</time>
      </trkpt>
      <trkpt lat="44.01996" lon="6.02553">
        <ele>835.59997558594</ele>
        <time>2022-01-02T11:24:37.244Z</time>
      </trkpt>
      <trkpt lat="44.0199" lon="6.02563">
        <ele>835.79998779297</ele>
        <time>2022-01-02T11:24:45.335Z</time>
      </trkpt>
      <trkpt lat="44.0199" lon="6.02566">
        <ele>836</ele>
        <time>2022-01-02T11:24:53.427Z</time>
      </trkpt>
      <trkpt lat="44.01983" lon="6.02584">
        <ele>836.40002441406</ele>
        <time>2022-01-02T11:25:01.524Z</time>
      </trkpt>
      <trkpt lat="44.01975" lon="6.02602">
        <ele>836.20001220703</ele>
        <time>2022-01-02T11:25:09.626Z</time>
      </trkpt>
      <trkpt lat="44.01966" lon="6.02622">
        <ele>834.79998779297</ele>
        <time>2022-01-02T11:25:17.734Z</time>
      </trkpt>
      <trkpt lat="44.01961" lon="6.02633">
        <ele>833.79998779297</ele>
        <time>2022-01-02T11:25:25.845Z</time>
      </trkpt>
      <trkpt lat="44.01955" lon="6.02646">
        <ele>832.40002441406</ele>
        <time>2022-01-02T11:25:33.960Z</time>
      </trkpt>
      <trkpt lat="44.01952" lon="6.02655">
        <ele>831.79998779297</ele>
        <time>2022-01-02T11:25:42.078Z</time>
      </trkpt>
      <trkpt lat="44.0195" lon="6.0266">
        <ele>831.40002441406</ele>
        <time>2022-01-02T11:25:50.197Z</time>
      </trkpt>
      <trkpt lat="44.01944" lon="6.02676">
        <ele>830.20001220703</ele>
        <time>2022-01-02T11:25:58.321Z</time>
      </trkpt>
      <trkpt lat="44.01941" lon="6.02681">
        <ele>829.59997558594</ele>
        <time>2022-01-02T11:26:06.446Z</time>
      </trkpt>
      <trkpt lat="44.01936" lon="6.02695">
        <ele>829</ele>
        <time>2022-01-02T11:26:14.575Z</time>
      </trkpt>
      <trkpt lat="44.01926" lon="6.02714">
        <ele>827.79998779297</ele>
        <time>2022-01-02T11:26:22.710Z</time>
      </trkpt>
      <trkpt lat="44.01918" lon="6.02726">
        <ele>826.59997558594</ele>
        <time>2022-01-02T11:26:30.849Z</time>
      </trkpt>
      <trkpt lat="44.01918" lon="6.02727">
        <ele>826.59997558594</ele>
        <time>2022-01-02T11:26:38.988Z</time>
      </trkpt>
      <trkpt lat="44.01922" lon="6.02729">
        <ele>826.79998779297</ele>
        <time>2022-01-02T11:26:47.129Z</time>
      </trkpt>
      <trkpt lat="44.01924" lon="6.02729">
        <ele>826.79998779297</ele>
        <time>2022-01-02T11:26:55.271Z</time>
      </trkpt>
      <trkpt lat="44.01942" lon="6.02729">
        <ele>826.40002441406</ele>
        <time>2022-01-02T11:27:03.419Z</time>
      </trkpt>
      <trkpt lat="44.01957" lon="6.02728">
        <ele>826.79998779297</ele>
        <time>2022-01-02T11:27:11.572Z</time>
      </trkpt>
      <trkpt lat="44.01975" lon="6.02726">
        <ele>827.79998779297</ele>
        <time>2022-01-02T11:27:19.731Z</time>
      </trkpt>
      <trkpt lat="44.01978" lon="6.02726">
        <ele>828.40002441406</ele>
        <time>2022-01-02T11:27:27.891Z</time>
      </trkpt>
      <trkpt lat="44.01986" lon="6.02725">
        <ele>829.20001220703</ele>
        <time>2022-01-02T11:27:36.054Z</time>
      </trkpt>
      <trkpt lat="44.01996" lon="6.02724">
        <ele>829.59997558594</ele>
        <time>2022-01-02T11:27:44.221Z</time>
      </trkpt>
      <trkpt lat="44.02016" lon="6.0272">
        <ele>829.59997558594</ele>
        <time>2022-01-02T11:27:52.395Z</time>
      </trkpt>
      <trkpt lat="44.02032" lon="6.02717">
        <ele>829.79998779297</ele>
        <time>2022-01-02T11:28:00.575Z</time>
      </trkpt>
      <trkpt lat="44.02038" lon="6.02714">
        <ele>830.40002441406</ele>
        <time>2022-01-02T11:28:08.756Z</time>
      </trkpt>
      <trkpt lat="44.0204" lon="6.02715">
        <ele>830.59997558594</ele>
        <time>2022-01-02T11:28:16.938Z</time>
      </trkpt>
      <trkpt lat="44.02043" lon="6.02717">
        <ele>830.59997558594</ele>
        <time>2022-01-02T11:28:25.121Z</time>
      </trkpt>
      <trkpt lat="44.02051" lon="6.02716">
        <ele>830</ele>
        <time>2022-01-02T11:28:33.307Z</time>
      </trkpt>
      <trkpt lat="44.02055" lon="6.02714">
        <ele>829.40002441406</ele>
        <time>2022-01-02T11:28:41.495Z</time>
      </trkpt>
      <trkpt lat="44.02059" lon="6.02712">
        <ele>829</ele>
        <time>2022-01-02T11:28:49.684Z</time>
      </trkpt>
      <trkpt lat="44.0207" lon="6.02705">
        <ele>827.79998779297</ele>
        <time>2022-01-02T11:28:57.877Z</time>
      </trkpt>
      <trkpt lat="44.02079" lon="6.02699">
        <ele>826.20001220703</ele>
        <time>2022-01-02T11:29:06.074Z</time>
      </trkpt>
      <trkpt lat="44.02084" lon="6.02696">
        <ele>825</ele>
        <time>2022-01-02T11:29:14.273Z</time>
      </trkpt>
      <trkpt lat="44.02093" lon="6.0269">
        <ele>823.59997558594</ele>
        <time>2022-01-02T11:29:22.475Z</time>
      </trkpt>
      <trkpt lat="44.02099" lon="6.02687">
        <ele>823</ele>
        <time>2022-01-02T11:29:30.679Z</time>
      </trkpt>
      <trkpt lat="44.02104" lon="6.02684">
        <ele>822.40002441406</ele>
        <time>2022-01-02T11:29:38.885Z</time>
      </trkpt>
      <trkpt lat="44.02114" lon="6.02679">
        <ele>821.40002441406</ele>
        <time>2022-01-02T11:29:47.095Z</time>
      </trkpt>
      <trkpt lat="44.0212" lon="6.02677">
        <ele>820.59997558594</ele>
        <time>2022-01-02T11:29:55.307Z</time>
      </trkpt>
      <trkpt lat="44.02126" lon="6.02675">
        <ele>820.20001220703</ele>
        <time>2022-01-02T11:30:03.521Z</time>
      </trkpt>
      <trkpt lat="44.02137" lon="6.02672">
        <ele>820</ele>
        <time>2022-01-02T11:30:11.739Z</time>
      </trkpt>
      <trkpt lat="44.02142" lon="6.02672">
        <ele>819.79998779297</ele>
        <time>2022-01-02T11:30:19.959Z</time>
      </trkpt>
      <trkpt lat="44.02162" lon="6.02677">
        <ele>819.20001220703</ele>
        <time>2022-01-02T11:30:28.186Z</time>
      </trkpt>
      <trkpt lat="44.02167" lon="6.02679">
        <ele>819</ele>
        <time>2022-01-02T11:30:36.415Z</time>
      </trkpt>
      <trkpt lat="44.02172" lon="6.0268">
        <ele>818.79998779297</ele>
        <time>2022-01-02T11:30:44.646Z</time>
      </trkpt>
      <trkpt lat="44.02188" lon="6.0268">
        <ele>818.40002441406</ele>
        <time>2022-01-02T11:30:52.882Z</time>
      </trkpt>
      <trkpt lat="44.02201" lon="6.0268">
        <ele>818.20001220703</ele>
        <time>2022-01-02T11:31:01.123Z</time>
      </trkpt>
      <trkpt lat="44.02216" lon="6.02679">
        <ele>816.20001220703</ele>
        <time>2022-01-02T11:31:09.369Z</time>
      </trkpt>
      <trkpt lat="44.0223" lon="6.02677">
        <ele>814.40002441406</ele>
        <time>2022-01-02T11:31:17.620Z</time>
      </trkpt>
      <trkpt lat="44.02242" lon="6.02681">
        <ele>813.20001220703</ele>
        <time>2022-01-02T11:31:25.875Z</time>
      </trkpt>
      <trkpt lat="44.02259" lon="6.02691">
        <ele>811.59997558594</ele>
        <time>2022-01-02T11:31:34.137Z</time>
      </trkpt>
      <trkpt lat="44.02264" lon="6.02695">
        <ele>810.79998779297</ele>
        <time>2022-01-02T11:31:42.401Z</time>
      </trkpt>
      <trkpt lat="44.02269" lon="6.02701">
        <ele>810.40002441406</ele>
        <time>2022-01-02T11:31:50.667Z</time>
      </trkpt>
      <trkpt lat="44.02279" lon="6.02711">
        <ele>808.79998779297</ele>
        <time>2022-01-02T11:31:58.937Z</time>
      </trkpt>
      <trkpt lat="44.02287" lon="6.0272">
        <ele>807.79998779297</ele>
        <time>2022-01-02T11:32:07.211Z</time>
      </trkpt>
      <trkpt lat="44.02296" lon="6.0273">
        <ele>806.40002441406</ele>
        <time>2022-01-02T11:32:15.489Z</time>
      </trkpt>
      <trkpt lat="44.02306" lon="6.0274">
        <ele>805</ele>
        <time>2022-01-02T11:32:23.771Z</time>
      </trkpt>
      <trkpt lat="44.02311" lon="6.02744">
        <ele>804.59997558594</ele>
        <time>2022-01-02T11:32:32.055Z</time>
      </trkpt>
      <trkpt lat="44.0232" lon="6.02751">
        <ele>804.20001220703</ele>
        <time>2022-01-02T11:32:40.343Z</time>
      </trkpt>
      <trkpt lat="44.02323" lon="6.02755">
        <ele>804</ele>
        <time>2022-01-02T11:32:48.632Z</time>
      </trkpt>
      <trkpt lat="44.02326" lon="6.0276">
        <ele>803.79998779297</ele>
        <time>2022-01-02T11:32:56.923Z</time>
      </trkpt>
      <trkpt lat="44.02335" lon="6.02779">
        <ele>802.79998779297</ele>
        <time>2022-01-02T11:33:05.220Z</time>
      </trkpt>
      <trkpt lat="44.02338" lon="6.02785">
        <ele>802.59997558594</ele>
        <time>2022-01-02T11:33:13.519Z</time>
      </trkpt>
      <trkpt lat="44.02344" lon="6.0281">
        <ele>802.40002441406</ele>
        <time>2022-01-02T11:33:21.824Z</time>
      </trkpt>
      <trkpt lat="44.02345" lon="6.02816">
        <ele>802.40002441406</ele>
        <time>2022-01-02T11:33:30.131Z</time>
      </trkpt>
      <trkpt lat="44.02349" lon="6.02838">
        <ele>802</ele>
        <time>2022-01-02T11:33:38.443Z</time>
      </trkpt>
      <trkpt lat="44.02352" lon="6.02844">
        <ele>801.79998779297</ele>
        <time>2022-01-02T11:33:46.757Z</time>
      </trkpt>
      <trkpt lat="44.02365" lon="6.02858">
        <ele>800.59997558594</ele>
        <time>2022-01-02T11:33:55.077Z</time>
      </trkpt>
      <trkpt lat="44.0237" lon="6.02861">
        <ele>799.79998779297</ele>
        <time>2022-01-02T11:34:03.399Z</time>
      </trkpt>
      <trkpt lat="44.02376" lon="6.02864">
        <ele>798.79998779297</ele>
        <time>2022-01-02T11:34:11.723Z</time>
      </trkpt>
      <trkpt lat="44.02382" lon="6.02868">
        <ele>798.40002441406</ele>
        <time>2022-01-02T11:34:20.050Z</time>
      </trkpt>
      <trkpt lat="44.02388" lon="6.02874">
        <ele>797.59997558594</ele>
        <time>2022-01-02T11:34:28.379Z</time>
      </trkpt>
      <trkpt lat="44.02393" lon="6.02879">
        <ele>796.79998779297</ele>
        <time>2022-01-02T11:34:36.710Z</time>
      </trkpt>
      <trkpt lat="44.02398" lon="6.02885">
        <ele>796</ele>
        <time>2022-01-02T11:34:45.044Z</time>
      </trkpt>
      <trkpt lat="44.02407" lon="6.02893">
        <ele>794.59997558594</ele>
        <time>2022-01-02T11:34:53.381Z</time>
      </trkpt>
      <trkpt lat="44.02411" lon="6.02895">
        <ele>794.20001220703</ele>
        <time>2022-01-02T11:35:01.720Z</time>
      </trkpt>
      <trkpt lat="44.02418" lon="6.02899">
        <ele>794.40002441406</ele>
        <time>2022-01-02T11:35:10.061Z</time>
      </trkpt>
      <trkpt lat="44.02422" lon="6.02906">
        <ele>794.59997558594</ele>
        <time>2022-01-02T11:35:18.405Z</time>
      </trkpt>
      <trkpt lat="44.02426" lon="6.0291">
        <ele>794.20001220703</ele>
        <time>2022-01-02T11:35:26.751Z</time>
      </trkpt>
      <trkpt lat="44.02431" lon="6.02913">
        <ele>793.40002441406</ele>
        <time>2022-01-02T11:35:35.098Z</time>
      </trkpt>
      <trkpt lat="44.02436" lon="6.02915">
        <ele>792</ele>
        <time>2022-01-02T11:35:43.447Z</time>
      </trkpt>
      <trkpt lat="44.0244" lon="6.02915">
        <ele>791.20001220703</ele>
        <time>2022-01-02T11:35:51.798Z</time>
      </trkpt>
      <trkpt lat="44.02444" lon="6.02912">
        <ele>790.79998779297</ele>
        <time>2022-01-02T11:36:00.150Z</time>
      </trkpt>
      <trkpt lat="44.02451" lon="6.02903">
        <ele>789.40002441406</ele>
        <time>2022-01-02T11:36:08.505Z</time>
      </trkpt>
      <trkpt lat="44.0246" lon="6.02892">
        <ele>787.79998779297</ele>
        <time>2022-01-02T11:36:16.865Z</time>
      </trkpt>
      <trkpt lat="44.02465" lon="6.02886">
        <ele>787.20001220703</ele>
        <time>2022-01-02T11:36:25.227Z</time>
      </trkpt>
      <trkpt lat="44.02469" lon="6.02881">
        <ele>786.20001220703</ele>
        <time>2022-01-02T11:36:33.591Z</time>
      </trkpt>
      <trkpt lat="44.02473" lon="6.02876">
        <ele>785</ele>
        <time>2022-01-02T11:36:41.957Z</time>
      </trkpt>
      <trkpt lat="44.02477" lon="6.0287">
        <ele>784</ele>
        <time>2022-01-02T11:36:50.325Z</time>
      </trkpt>
      <trkpt lat="44.02486" lon="6.0286">
        <ele>783.20001220703</ele>
        <time>2022-01-02T11:36:58.697Z</time>
      </trkpt>
      <trkpt lat="44.02491" lon="6.02857">
        <ele>782.79998779297</ele>
        <time>2022-01-02T11:37:07.070Z</time>
      </trkpt>
      <trkpt lat="44.02504" lon="6.02848">
        <ele>782.40002441406</ele>
        <time>2022-01-02T11:37:15.449Z</time>
      </trkpt>
      <trkpt lat="44.02514" lon="6.02844">
        <ele>782.20001220703</ele>
        <time>2022-01-02T11:37:23.832Z</time>
      </trkpt>
      <trkpt lat="44.02526" lon="6.02839">
        <ele>782.20001220703</ele>
        <time>2022-01-02T11:37:32.219Z</time>
      </trkpt>
      <trkpt lat="44.02537" lon="6.02836">
        <ele>782.20001220703</ele>
        <time>2022-01-02T11:37:40.610Z</time>
      </trkpt>
      <trkpt lat="44.02543" lon="6.02835">
        <ele>782.20001220703</ele>
        <time>2022-01-02T11:37:49.003Z</time>
      </trkpt>
      <trkpt lat="44.02566" lon="6.02832">
        <ele>782.59997558594</ele>
        <time>2022-01-02T11:37:57.404Z</time>
      </trkpt>
      <trkpt lat="44.02577" lon="6.02832">
        <ele>782.59997558594</ele>
        <time>2022-01-02T11:38:05.809Z</time>
      </trkpt>
      <trkpt lat="44.02588" lon="6.02836">
        <ele>782.40002441406</ele>
        <time>2022-01-02T11:38:14.218Z</time>
      </trkpt>
      <trkpt lat="44.02599" lon="6.02841">
        <ele>781.79998779297</ele>
        <time>2022-01-02T11:38:22.631Z</time>
      </trkpt>
      <trkpt lat="44.02607" lon="6.02844">
        <ele>780.40002441406</ele>
        <time>2022-01-02T11:38:31.047Z</time>
      </trkpt>
      <trkpt lat="44.02608" lon="6.02848">
        <ele>779.40002441406</ele>
        <time>2022-01-02T11:38:39.464Z</time>
      </trkpt>
      <trkpt lat="44.02607" lon="6.02848">
        <ele>778.79998779297</ele>
        <time>2022-01-02T11:38:47.881Z</time>
      </trkpt>
      <trkpt lat="44.02605" lon="6.02848">
        <ele>778.20001220703</ele>
        <time>2022-01-02T11:38:56.299Z</time>
      </trkpt>
      <trkpt lat="44.02602" lon="6.02847">
        <ele>777.40002441406</ele>
        <time>2022-01-02T11:39:04.718Z</time>
      </trkpt>
      <trkpt lat="44.02599" lon="6.02848">
        <ele>777</ele>
        <time>2022-01-02T11:39:13.138Z</time>
      </trkpt>
      <trkpt lat="44.02602" lon="6.02852">
        <ele>776</ele>
        <time>2022-01-02T11:39:21.559Z</time>
      </trkpt>
      <trkpt lat="44.0261" lon="6.02858">
        <ele>774.59997558594</ele>
        <time>2022-01-02T11:39:29.983Z</time>
      </trkpt>
      <trkpt lat="44.02613" lon="6.02862">
        <ele>773.79998779297</ele>
        <time>2022-01-02T11:39:38.409Z</time>
      </trkpt>
      <trkpt lat="44.02617" lon="6.02865">
        <ele>772.79998779297</ele>
        <time>2022-01-02T11:39:46.836Z</time>
      </trkpt>
      <trkpt lat="44.0262" lon="6.02868">
        <ele>771.59997558594</ele>
        <time>2022-01-02T11:39:55.265Z</time>
      </trkpt>
      <trkpt lat="44.02623" lon="6.0287">
        <ele>770.40002441406</ele>
        <time>2022-01-02T11:40:03.695Z</time>
      </trkpt>
      <trkpt lat="44.02625" lon="6.02874">
        <ele>769.40002441406</ele>
        <time>2022-01-02T11:40:12.126Z</time>
      </trkpt>
      <trkpt lat="44.02627" lon="6.02878">
        <ele>768.59997558594</ele>
        <time>2022-01-02T11:40:20.559Z</time>
      </trkpt>
      <trkpt lat="44.0263" lon="6.02882">
        <ele>767.59997558594</ele>
        <time>2022-01-02T11:40:28.993Z</time>
      </trkpt>
      <trkpt lat="44.02636" lon="6.02889">
        <ele>765.59997558594</ele>
        <time>2022-01-02T11:40:37.430Z</time>
      </trkpt>
      <trkpt lat="44.0264" lon="6.02892">
        <ele>764.59997558594</ele>
        <time>2022-01-02T11:40:45.868Z</time>
      </trkpt>
      <trkpt lat="44.02643" lon="6.02895">
        <ele>762.79998779297</ele>
        <time>2022-01-02T11:40:54.308Z</time>
      </trkpt>
      <trkpt lat="44.02648" lon="6.02898">
        <ele>761.59997558594</ele>
        <time>2022-01-02T11:41:02.749Z</time>
      </trkpt>
      <trkpt lat="44.02652" lon="6.02901">
        <ele>760.59997558594</ele>
        <time>2022-01-02T11:41:11.192Z</time>
      </trkpt>
      <trkpt lat="44.02661" lon="6.02907">
        <ele>758.59997558594</ele>
        <time>2022-01-02T11:41:19.638Z</time>
      </trkpt>
      <trkpt lat="44.02666" lon="6.0291">
        <ele>757.59997558594</ele>
        <time>2022-01-02T11:41:28.086Z</time>
      </trkpt>
      <trkpt lat="44.02675" lon="6.02911">
        <ele>755.79998779297</ele>
        <time>2022-01-02T11:41:36.538Z</time>
      </trkpt>
      <trkpt lat="44.02679" lon="6.0291">
        <ele>755</ele>
        <time>2022-01-02T11:41:44.991Z</time>
      </trkpt>
      <trkpt lat="44.02683" lon="6.02907">
        <ele>753.79998779297</ele>
        <time>2022-01-02T11:41:53.446Z</time>
      </trkpt>
      <trkpt lat="44.02687" lon="6.02904">
        <ele>753</ele>
        <time>2022-01-02T11:42:01.902Z</time>
      </trkpt>
      <trkpt lat="44.02692" lon="6.02901">
        <ele>752.20001220703</ele>
        <time>2022-01-02T11:42:10.360Z</time>
      </trkpt>
      <trkpt lat="44.02696" lon="6.02896">
        <ele>751.40002441406</ele>
        <time>2022-01-02T11:42:18.820Z</time>
      </trkpt>
      <trkpt lat="44.02702" lon="6.02891">
        <ele>750.59997558594</ele>
        <time>2022-01-02T11:42:27.282Z</time>
      </trkpt>
      <trkpt lat="44.02712" lon="6.02884">
        <ele>748.59997558594</ele>
        <time>2022-01-02T11:42:35.748Z</time>
      </trkpt>
      <trkpt lat="44.02717" lon="6.02881">
        <ele>747.59997558594</ele>
        <time>2022-01-02T11:42:44.216Z</time>
      </trkpt>
      <trkpt lat="44.02726" lon="6.02875">
        <ele>746.20001220703</ele>
        <time>2022-01-02T11:42:52.688Z</time>
      </trkpt>
      <trkpt lat="44.02737" lon="6.02868">
        <ele>744.40002441406</ele>
        <time>2022-01-02T11:43:01.164Z</time>
      </trkpt>
      <trkpt lat="44.02747" lon="6.02863">
        <ele>742.79998779297</ele>
        <time>2022-01-02T11:43:09.644Z</time>
      </trkpt>
      <trkpt lat="44.02758" lon="6.02858">
        <ele>740.79998779297</ele>
        <time>2022-01-02T11:43:18.128Z</time>
      </trkpt>
      <trkpt lat="44.02763" lon="6.02855">
        <ele>739.79998779297</ele>
        <time>2022-01-02T11:43:26.614Z</time>
      </trkpt>
      <trkpt lat="44.02768" lon="6.02853">
        <ele>738.59997558594</ele>
        <time>2022-01-02T11:43:35.101Z</time>
      </trkpt>
      <trkpt lat="44.02773" lon="6.0285">
        <ele>737.79998779297</ele>
        <time>2022-01-02T11:43:43.590Z</time>
      </trkpt>
      <trkpt lat="44.02778" lon="6.02847">
        <ele>737.20001220703</ele>
        <time>2022-01-02T11:43:52.081Z</time>
      </trkpt>
      <trkpt lat="44.02784" lon="6.02845">
        <ele>735.79998779297</ele>
        <time>2022-01-02T11:44:00.574Z</time>
      </trkpt>
      <trkpt lat="44.02795" lon="6.02839">
        <ele>734</ele>
        <time>2022-01-02T11:44:09.071Z</time>
      </trkpt>
      <trkpt lat="44.02801" lon="6.02836">
        <ele>732.40002441406</ele>
        <time>2022-01-02T11:44:17.571Z</time>
      </trkpt>
      <trkpt lat="44.02807" lon="6.02833">
        <ele>731</ele>
        <time>2022-01-02T11:44:26.073Z</time>
      </trkpt>
      <trkpt lat="44.02812" lon="6.02829">
        <ele>730</ele>
        <time>2022-01-02T11:44:34.577Z</time>
      </trkpt>
      <trkpt lat="44.02818" lon="6.02825">
        <ele>729</ele>
        <time>2022-01-02T11:44:43.083Z</time>
      </trkpt>
      <trkpt lat="44.02829" lon="6.02815">
        <ele>727.20001220703</ele>
        <time>2022-01-02T11:44:51.594Z</time>
      </trkpt>
      <trkpt lat="44.0284" lon="6.02805">
        <ele>725.79998779297</ele>
        <time>2022-01-02T11:45:00.109Z</time>
      </trkpt>
      <trkpt lat="44.02851" lon="6.02798">
        <ele>724.79998779297</ele>
        <time>2022-01-02T11:45:08.628Z</time>
      </trkpt>
      <trkpt lat="44.02857" lon="6.02794">
        <ele>724</ele>
        <time>2022-01-02T11:45:17.150Z</time>
      </trkpt>
      <trkpt lat="44.02863" lon="6.02791">
        <ele>723.20001220703</ele>
        <time>2022-01-02T11:45:25.674Z</time>
      </trkpt>
      <trkpt lat="44.02875" lon="6.02784">
        <ele>721.40002441406</ele>
        <time>2022-01-02T11:45:34.203Z</time>
      </trkpt>
      <trkpt lat="44.0288" lon="6.02779">
        <ele>720.20001220703</ele>
        <time>2022-01-02T11:45:42.734Z</time>
      </trkpt>
      <trkpt lat="44.02885" lon="6.02775">
        <ele>719.20001220703</ele>
        <time>2022-01-02T11:45:51.267Z</time>
      </trkpt>
      <trkpt lat="44.02891" lon="6.0277">
        <ele>718</ele>
        <time>2022-01-02T11:45:59.802Z</time>
      </trkpt>
      <trkpt lat="44.02897" lon="6.02766">
        <ele>717.59997558594</ele>
        <time>2022-01-02T11:46:08.340Z</time>
      </trkpt>
      <trkpt lat="44.02901" lon="6.02761">
        <ele>717</ele>
        <time>2022-01-02T11:46:16.879Z</time>
      </trkpt>
      <trkpt lat="44.02906" lon="6.02757">
        <ele>716.59997558594</ele>
        <time>2022-01-02T11:46:25.420Z</time>
      </trkpt>
      <trkpt lat="44.02911" lon="6.02755">
        <ele>716</ele>
        <time>2022-01-02T11:46:33.963Z</time>
      </trkpt>
      <trkpt lat="44.02917" lon="6.02753">
        <ele>715.59997558594</ele>
        <time>2022-01-02T11:46:42.508Z</time>
      </trkpt>
      <trkpt lat="44.02923" lon="6.02751">
        <ele>714.79998779297</ele>
        <time>2022-01-02T11:46:51.056Z</time>
      </trkpt>
      <trkpt lat="44.0293" lon="6.02749">
        <ele>713.79998779297</ele>
        <time>2022-01-02T11:46:59.606Z</time>
      </trkpt>
      <trkpt lat="44.02937" lon="6.02747">
        <ele>712.20001220703</ele>
        <time>2022-01-02T11:47:08.158Z</time>
      </trkpt>
      <trkpt lat="44.02944" lon="6.02745">
        <ele>710.79998779297</ele>
        <time>2022-01-02T11:47:16.713Z</time>
      </trkpt>
      <trkpt lat="44.0295" lon="6.02743">
        <ele>709.40002441406</ele>
        <time>2022-01-02T11:47:25.270Z</time>
      </trkpt>
      <trkpt lat="44.02956" lon="6.02741">
        <ele>708.40002441406</ele>
        <time>2022-01-02T11:47:33.829Z</time>
      </trkpt>
      <trkpt lat="44.02961" lon="6.0274">
        <ele>707.59997558594</ele>
        <time>2022-01-02T11:47:42.390Z</time>
      </trkpt>
      <trkpt lat="44.02969" lon="6.02737">
        <ele>706.20001220703</ele>
        <time>2022-01-02T11:47:50.954Z</time>
      </trkpt>
      <trkpt lat="44.02975" lon="6.02735">
        <ele>705.20001220703</ele>
        <time>2022-01-02T11:47:59.520Z</time>
      </trkpt>
      <trkpt lat="44.02977" lon="6.02734">
        <ele>704.59997558594</ele>
        <time>2022-01-02T11:48:08.087Z</time>
      </trkpt>
      <trkpt lat="44.02982" lon="6.02734">
        <ele>704</ele>
        <time>2022-01-02T11:48:16.656Z</time>
      </trkpt>
      <trkpt lat="44.02985" lon="6.02732">
        <ele>704</ele>
        <time>2022-01-02T11:48:25.226Z</time>
      </trkpt>
      <trkpt lat="44.02987" lon="6.0273">
        <ele>703.79998779297</ele>
        <time>2022-01-02T11:48:33.797Z</time>
      </trkpt>
      <trkpt lat="44.0299" lon="6.02724">
        <ele>703.59997558594</ele>
        <time>2022-01-02T11:48:42.369Z</time>
      </trkpt>
      <trkpt lat="44.02996" lon="6.02721">
        <ele>702.79998779297</ele>
        <time>2022-01-02T11:48:50.944Z</time>
      </trkpt>
      <trkpt lat="44.02999" lon="6.02721">
        <ele>702.59997558594</ele>
        <time>2022-01-02T11:48:59.520Z</time>
      </trkpt>
      <trkpt lat="44.03004" lon="6.02721">
        <ele>702.40002441406</ele>
        <time>2022-01-02T11:49:08.097Z</time>
      </trkpt>
      <trkpt lat="44.03017" lon="6.02719">
        <ele>702.20001220703</ele>
        <time>2022-01-02T11:49:16.679Z</time>
      </trkpt>
      <trkpt lat="44.03021" lon="6.02718">
        <ele>702.20001220703</ele>
        <time>2022-01-02T11:49:25.263Z</time>
      </trkpt>
      <trkpt lat="44.03026" lon="6.02717">
        <ele>702</ele>
        <time>2022-01-02T11:49:33.848Z</time>
      </trkpt>
      <trkpt lat="44.0304" lon="6.02712">
        <ele>701.40002441406</ele>
        <time>2022-01-02T11:49:42.438Z</time>
      </trkpt>
      <trkpt lat="44.03045" lon="6.0271">
        <ele>701</ele>
        <time>2022-01-02T11:49:51.030Z</time>
      </trkpt>
      <trkpt lat="44.03051" lon="6.02707">
        <ele>700.59997558594</ele>
        <time>2022-01-02T11:49:59.624Z</time>
      </trkpt>
      <trkpt lat="44.03057" lon="6.02706">
        <ele>700.20001220703</ele>
        <time>2022-01-02T11:50:08.220Z</time>
      </trkpt>
      <trkpt lat="44.0307" lon="6.02702">
        <ele>699</ele>
        <time>2022-01-02T11:50:16.821Z</time>
      </trkpt>
      <trkpt lat="44.03077" lon="6.027">
        <ele>698.59997558594</ele>
        <time>2022-01-02T11:50:25.424Z</time>
      </trkpt>
      <trkpt lat="44.0309" lon="6.02695">
        <ele>697</ele>
        <time>2022-01-02T11:50:34.032Z</time>
      </trkpt>
      <trkpt lat="44.03109" lon="6.02687">
        <ele>695.79998779297</ele>
        <time>2022-01-02T11:50:42.647Z</time>
      </trkpt>
      <trkpt lat="44.03114" lon="6.02684">
        <ele>695.20001220703</ele>
        <time>2022-01-02T11:50:51.264Z</time>
      </trkpt>
      <trkpt lat="44.03119" lon="6.02682">
        <ele>694.59997558594</ele>
        <time>2022-01-02T11:50:59.883Z</time>
      </trkpt>
      <trkpt lat="44.03131" lon="6.02678">
        <ele>694.20001220703</ele>
        <time>2022-01-02T11:51:08.506Z</time>
      </trkpt>
      <trkpt lat="44.03149" lon="6.02668">
        <ele>695.79998779297</ele>
        <time>2022-01-02T11:51:17.136Z</time>
      </trkpt>
      <trkpt lat="44.03159" lon="6.02665">
        <ele>696.40002441406</ele>
        <time>2022-01-02T11:51:25.770Z</time>
      </trkpt>
      <trkpt lat="44.03174" lon="6.02663">
        <ele>696</ele>
        <time>2022-01-02T11:51:34.409Z</time>
      </trkpt>
      <trkpt lat="44.03184" lon="6.02658">
        <ele>694.79998779297</ele>
        <time>2022-01-02T11:51:43.052Z</time>
      </trkpt>
      <trkpt lat="44.03189" lon="6.02655">
        <ele>693.40002441406</ele>
        <time>2022-01-02T11:51:51.697Z</time>
      </trkpt>
      <trkpt lat="44.03194" lon="6.02652">
        <ele>692.20001220703</ele>
        <time>2022-01-02T11:52:00.343Z</time>
      </trkpt>
      <trkpt lat="44.03198" lon="6.02649">
        <ele>691.20001220703</ele>
        <time>2022-01-02T11:52:08.991Z</time>
      </trkpt>
      <trkpt lat="44.03203" lon="6.02648">
        <ele>690.59997558594</ele>
        <time>2022-01-02T11:52:17.641Z</time>
      </trkpt>
      <trkpt lat="44.03213" lon="6.02644">
        <ele>689</ele>
        <time>2022-01-02T11:52:26.294Z</time>
      </trkpt>
      <trkpt lat="44.03218" lon="6.0264">
        <ele>688</ele>
        <time>2022-01-02T11:52:34.949Z</time>
      </trkpt>
      <trkpt lat="44.03224" lon="6.02636">
        <ele>686.40002441406</ele>
        <time>2022-01-02T11:52:43.607Z</time>
      </trkpt>
      <trkpt lat="44.0323" lon="6.02634">
        <ele>685.20001220703</ele>
        <time>2022-01-02T11:52:52.267Z</time>
      </trkpt>
      <trkpt lat="44.03241" lon="6.02633">
        <ele>684</ele>
        <time>2022-01-02T11:53:00.931Z</time>
      </trkpt>
      <trkpt lat="44.03252" lon="6.02631">
        <ele>683.20001220703</ele>
        <time>2022-01-02T11:53:09.599Z</time>
      </trkpt>
      <trkpt lat="44.03257" lon="6.02629">
        <ele>683</ele>
        <time>2022-01-02T11:53:18.268Z</time>
      </trkpt>
      <trkpt lat="44.0327" lon="6.02625">
        <ele>682.40002441406</ele>
        <time>2022-01-02T11:53:26.942Z</time>
      </trkpt>
      <trkpt lat="44.03278" lon="6.02628">
        <ele>682</ele>
        <time>2022-01-02T11:53:35.619Z</time>
      </trkpt>
      <trkpt lat="44.03283" lon="6.02629">
        <ele>681.59997558594</ele>
        <time>2022-01-02T11:53:44.298Z</time>
      </trkpt>
      <trkpt lat="44.03287" lon="6.02628">
        <ele>681.20001220703</ele>
        <time>2022-01-02T11:53:52.978Z</time>
      </trkpt>
      <trkpt lat="44.03291" lon="6.02627">
        <ele>680.40002441406</ele>
        <time>2022-01-02T11:54:01.660Z</time>
      </trkpt>
      <trkpt lat="44.03298" lon="6.02628">
        <ele>678.79998779297</ele>
        <time>2022-01-02T11:54:10.344Z</time>
      </trkpt>
      <trkpt lat="44.03302" lon="6.02628">
        <ele>678.20001220703</ele>
        <time>2022-01-02T11:54:19.029Z</time>
      </trkpt>
      <trkpt lat="44.03305" lon="6.02628">
        <ele>677.20001220703</ele>
        <time>2022-01-02T11:54:27.715Z</time>
      </trkpt>
      <trkpt lat="44.03313" lon="6.02624">
        <ele>675.40002441406</ele>
        <time>2022-01-02T11:54:36.404Z</time>
      </trkpt>
      <trkpt lat="44.03317" lon="6.0262">
        <ele>674.40002441406</ele>
        <time>2022-01-02T11:54:45.095Z</time>
      </trkpt>
      <trkpt lat="44.03321" lon="6.02617">
        <ele>673</ele>
        <time>2022-01-02T11:54:53.788Z</time>
      </trkpt>
      <trkpt lat="44.03325" lon="6.02614">
        <ele>671.79998779297</ele>
        <time>2022-01-02T11:55:02.482Z</time>
      </trkpt>
      <trkpt lat="44.03329" lon="6.02613">
        <ele>669.40002441406</ele>
        <time>2022-01-02T11:55:11.178Z</time>
      </trkpt>
      <trkpt lat="44.03333" lon="6.02613">
        <ele>668.20001220703</ele>
        <time>2022-01-02T11:55:19.875Z</time>
      </trkpt>
      <trkpt lat="44.0334" lon="6.0262">
        <ele>666</ele>
        <time>2022-01-02T11:55:28.575Z</time>
      </trkpt>
      <trkpt lat="44.03346" lon="6.02624">
        <ele>664.20001220703</ele>
        <time>2022-01-02T11:55:37.277Z</time>
      </trkpt>
      <trkpt lat="44.0335" lon="6.02625">
        <ele>663</ele>
        <time>2022-01-02T11:55:45.981Z</time>
      </trkpt>
      <trkpt lat="44.03355" lon="6.02626">
        <ele>662.20001220703</ele>
        <time>2022-01-02T11:55:54.687Z</time>
      </trkpt>
      <trkpt lat="44.0336" lon="6.02626">
        <ele>660.59997558594</ele>
        <time>2022-01-02T11:56:03.394Z</time>
      </trkpt>
      <trkpt lat="44.03365" lon="6.02626">
        <ele>659.40002441406</ele>
        <time>2022-01-02T11:56:12.103Z</time>
      </trkpt>
      <trkpt lat="44.03369" lon="6.02626">
        <ele>658</ele>
        <time>2022-01-02T11:56:20.813Z</time>
      </trkpt>
      <trkpt lat="44.03374" lon="6.02626">
        <ele>656.59997558594</ele>
        <time>2022-01-02T11:56:29.525Z</time>
      </trkpt>
      <trkpt lat="44.0338" lon="6.02626">
        <ele>655</ele>
        <time>2022-01-02T11:56:38.239Z</time>
      </trkpt>
      <trkpt lat="44.03385" lon="6.02624">
        <ele>653.79998779297</ele>
        <time>2022-01-02T11:56:46.955Z</time>
      </trkpt>
      <trkpt lat="44.03391" lon="6.02623">
        <ele>651.40002441406</ele>
        <time>2022-01-02T11:56:55.673Z</time>
      </trkpt>
      <trkpt lat="44.03398" lon="6.02624">
        <ele>649.20001220703</ele>
        <time>2022-01-02T11:57:04.394Z</time>
      </trkpt>
      <trkpt lat="44.03399" lon="6.02626">
        <ele>648.20001220703</ele>
        <time>2022-01-02T11:57:13.115Z</time>
      </trkpt>
      <trkpt lat="44.03399" lon="6.02628">
        <ele>647.20001220703</ele>
        <time>2022-01-02T11:57:21.837Z</time>
      </trkpt>
      <trkpt lat="44.034" lon="6.02628">
        <ele>646.79998779297</ele>
        <time>2022-01-02T11:57:30.559Z</time>
      </trkpt>
      <trkpt lat="44.03399" lon="6.02631">
        <ele>646.40002441406</ele>
        <time>2022-01-02T11:57:39.282Z</time>
      </trkpt>
      <trkpt lat="44.03397" lon="6.02636">
        <ele>646.20001220703</ele>
        <time>2022-01-02T11:57:48.006Z</time>
      </trkpt>
      <trkpt lat="44.03395" lon="6.02648">
        <ele>645</ele>
        <time>2022-01-02T11:57:56.733Z</time>
      </trkpt>
      <trkpt lat="44.03394" lon="6.02652">
        <ele>644.40002441406</ele>
        <time>2022-01-02T11:58:05.461Z</time>
      </trkpt>
      <trkpt lat="44.03393" lon="6.02656">
        <ele>643.79998779297</ele>
        <time>2022-01-02T11:58:14.191Z</time>
      </trkpt>
      <trkpt lat="44.03389" lon="6.02667">
        <ele>642.79998779297</ele>
        <time>2022-01-02T11:58:22.924Z</time>
      </trkpt>
      <trkpt lat="44.03388" lon="6.02671">
        <ele>642.20001220703</ele>
        <time>2022-01-02T11:58:31.658Z</time>
      </trkpt>
      <trkpt lat="44.03386" lon="6.02675">
        <ele>641.40002441406</ele>
        <time>2022-01-02T11:58:40.393Z</time>
      </trkpt>
      <trkpt lat="44.03387" lon="6.02678">
        <ele>641</ele>
        <time>2022-01-02T11:58:49.129Z</time>
      </trkpt>
      <trkpt lat="44.0339" lon="6.02681">
        <ele>640.40002441406</ele>
        <time>2022-01-02T11:58:57.866Z</time>
      </trkpt>
      <trkpt lat="44.03394" lon="6.02683">
        <ele>638.20001220703</ele>
        <time>2022-01-02T11:59:06.604Z</time>
      </trkpt>
      <trkpt lat="44.03396" lon="6.02683">
        <ele>637.20001220703</ele>
        <time>2022-01-02T11:59:15.343Z</time>
      </trkpt>
      <trkpt lat="44.03398" lon="6.02683">
        <ele>635.40002441406</ele>
        <time>2022-01-02T11:59:24.083Z</time>
      </trkpt>
      <trkpt lat="44.03399" lon="6.02683">
        <ele>634.40002441406</ele>
        <time>2022-01-02T11:59:32.823Z</time>
      </trkpt>
      <trkpt lat="44.03401" lon="6.02684">
        <ele>633.20001220703</ele>
        <time>2022-01-02T11:59:41.564Z</time>
      </trkpt>
      <trkpt lat="44.03403" lon="6.02684">
        <ele>632.20001220703</ele>
        <time>2022-01-02T11:59:50.305Z</time>
      </trkpt>
      <trkpt lat="44.03407" lon="6.02686">
        <ele>629.79998779297</ele>
        <time>2022-01-02T11:59:59.048Z</time>
      </trkpt>
      <trkpt lat="44.0341" lon="6.02687">
        <ele>628.20001220703</ele>
        <time>2022-01-02T12:00:07.792Z</time>
      </trkpt>
      <trkpt lat="44.03413" lon="6.02688">
        <ele>627.40002441406</ele>
        <time>2022-01-02T12:00:16.537Z</time>
      </trkpt>
      <trkpt lat="44.03416" lon="6.02688">
        <ele>625.79998779297</ele>
        <time>2022-01-02T12:00:25.283Z</time>
      </trkpt>
      <trkpt lat="44.03419" lon="6.0269">
        <ele>624.59997558594</ele>
        <time>2022-01-02T12:00:34.030Z</time>
      </trkpt>
      <trkpt lat="44.03422" lon="6.02691">
        <ele>623.20001220703</ele>
        <time>2022-01-02T12:00:42.779Z</time>
      </trkpt>
      <trkpt lat="44.03426" lon="6.02692">
        <ele>622.20001220703</ele>
        <time>2022-01-02T12:00:51.529Z</time>
      </trkpt>
      <trkpt lat="44.03429" lon="6.02694">
        <ele>620.79998779297</ele>
        <time>2022-01-02T12:01:00.280Z</time>
      </trkpt>
      <trkpt lat="44.03432" lon="6.02696">
        <ele>619.20001220703</ele>
        <time>2022-01-02T12:01:09.032Z</time>
      </trkpt>
      <trkpt lat="44.03436" lon="6.02699">
        <ele>617.59997558594</ele>
        <time>2022-01-02T12:01:17.786Z</time>
      </trkpt>
      <trkpt lat="44.03439" lon="6.02701">
        <ele>616.79998779297</ele>
        <time>2022-01-02T12:01:26.541Z</time>
      </trkpt>
      <trkpt lat="44.03443" lon="6.02703">
        <ele>615.59997558594</ele>
        <time>2022-01-02T12:01:35.298Z</time>
      </trkpt>
      <trkpt lat="44.0345" lon="6.02708">
        <ele>613.59997558594</ele>
        <time>2022-01-02T12:01:44.057Z</time>
      </trkpt>
      <trkpt lat="44.03452" lon="6.02711">
        <ele>612.79998779297</ele>
        <time>2022-01-02T12:01:52.817Z</time>
      </trkpt>
      <trkpt lat="44.03456" lon="6.02713">
        <ele>612</ele>
        <time>2022-01-02T12:02:01.579Z</time>
      </trkpt>
      <trkpt lat="44.03459" lon="6.02716">
        <ele>611</ele>
        <time>2022-01-02T12:02:10.342Z</time>
      </trkpt>
      <trkpt lat="44.03464" lon="6.02718">
        <ele>609.59997558594</ele>
        <time>2022-01-02T12:02:19.107Z</time>
      </trkpt>
      <trkpt lat="44.03468" lon="6.02722">
        <ele>608.40002441406</ele>
        <time>2022-01-02T12:02:27.873Z</time>
      </trkpt>
      <trkpt lat="44.03472" lon="6.02725">
        <ele>606.79998779297</ele>
        <time>2022-01-02T12:02:36.641Z</time>
      </trkpt>
      <trkpt lat="44.03477" lon="6.02727">
        <ele>605.20001220703</ele>
        <time>2022-01-02T12:02:45.411Z</time>
      </trkpt>
      <trkpt lat="44.03481" lon="6.0273">
        <ele>603.59997558594</ele>
        <time>2022-01-02T12:02:54.183Z</time>
      </trkpt>
      <trkpt lat="44.03487" lon="6.02733">
        <ele>602</ele>
        <time>2022-01-02T12:03:02.957Z</time>
      </trkpt>
      <trkpt lat="44.03493" lon="6.02735">
        <ele>600.20001220703</ele>
        <time>2022-01-02T12:03:11.733Z</time>
      </trkpt>
      <trkpt lat="44.03499" lon="6.02737">
        <ele>598.79998779297</ele>
        <time>2022-01-02T12:03:20.511Z</time>
      </trkpt>
      <trkpt lat="44.03504" lon="6.02738">
        <ele>596.59997558594</ele>
        <time>2022-01-02T12:03:29.291Z</time>
      </trkpt>
      <trkpt lat="44.03513" lon="6.02739">
        <ele>594</ele>
        <time>2022-01-02T12:03:38.074Z</time>
      </trkpt>
      <trkpt lat="44.03517" lon="6.02741">
        <ele>592.79998779297</ele>
        <time>2022-01-02T12:03:46.858Z</time>
      </trkpt>
      <trkpt lat="44.03522" lon="6.02743">
        <ele>591.40002441406</ele>
        <time>2022-01-02T12:03:55.644Z</time>
      </trkpt>
      <trkpt lat="44.03526" lon="6.02745">
        <ele>590.20001220703</ele>
        <time>2022-01-02T12:04:04.432Z</time>
      </trkpt>
      <trkpt lat="44.03532" lon="6.02746">
        <ele>588.79998779297</ele>
        <time>2022-01-02T12:04:13.222Z</time>
      </trkpt>
      <trkpt lat="44.03538" lon="6.02746">
        <ele>587.59997558594</ele>
        <time>2022-01-02T12:04:22.014Z</time>
      </trkpt>
      <trkpt lat="44.03544" lon="6.02746">
        <ele>585.79998779297</ele>
        <time>2022-01-02T12:04:30.808Z</time>
      </trkpt>
      <trkpt lat="44.03556" lon="6.02746">
        <ele>584.20001220703</ele>
        <time>2022-01-02T12:04:39.606Z</time>
      </trkpt>
      <trkpt lat="44.03563" lon="6.02745">
        <ele>583.40002441406</ele>
        <time>2022-01-02T12:04:48.406Z</time>
      </trkpt>
      <trkpt lat="44.03569" lon="6.02745">
        <ele>582.59997558594</ele>
        <time>2022-01-02T12:04:57.209Z</time>
      </trkpt>
      <trkpt lat="44.03575" lon="6.02743">
        <ele>581.59997558594</ele>
        <time>2022-01-02T12:05:06.014Z</time>
      </trkpt>
      <trkpt lat="44.0358" lon="6.02742">
        <ele>581</ele>
        <time>2022-01-02T12:05:14.821Z</time>
      </trkpt>
      <trkpt lat="44.03585" lon="6.02742">
        <ele>580</ele>
        <time>2022-01-02T12:05:23.629Z</time>
      </trkpt>
      <trkpt lat="44.03593" lon="6.02743">
        <ele>577.79998779297</ele>
        <time>2022-01-02T12:05:32.440Z</time>
      </trkpt>
      <trkpt lat="44.03597" lon="6.02743">
        <ele>577</ele>
        <time>2022-01-02T12:05:41.252Z</time>
      </trkpt>
      <trkpt lat="44.03602" lon="6.02743">
        <ele>576.40002441406</ele>
        <time>2022-01-02T12:05:50.066Z</time>
      </trkpt>
      <trkpt lat="44.03607" lon="6.02742">
        <ele>575.40002441406</ele>
        <time>2022-01-02T12:05:58.882Z</time>
      </trkpt>
      <trkpt lat="44.03613" lon="6.0274">
        <ele>574.40002441406</ele>
        <time>2022-01-02T12:06:07.700Z</time>
      </trkpt>
      <trkpt lat="44.03626" lon="6.02738">
        <ele>572.59997558594</ele>
        <time>2022-01-02T12:06:16.523Z</time>
      </trkpt>
      <trkpt lat="44.03633" lon="6.02737">
        <ele>571.59997558594</ele>
        <time>2022-01-02T12:06:25.348Z</time>
      </trkpt>
      <trkpt lat="44.03639" lon="6.02736">
        <ele>571</ele>
        <time>2022-01-02T12:06:34.175Z</time>
      </trkpt>
      <trkpt lat="44.03643" lon="6.02735">
        <ele>570.40002441406</ele>
        <time>2022-01-02T12:06:43.004Z</time>
      </trkpt>
      <trkpt lat="44.03654" lon="6.02734">
        <ele>569.20001220703</ele>
        <time>2022-01-02T12:06:51.837Z</time>
      </trkpt>
      <trkpt lat="44.0366" lon="6.02734">
        <ele>568.79998779297</ele>
        <time>2022-01-02T12:07:00.672Z</time>
      </trkpt>
      <trkpt lat="44.03674" lon="6.02733">
        <ele>568</ele>
        <time>2022-01-02T12:07:09.512Z</time>
      </trkpt>
      <trkpt lat="44.03686" lon="6.02732">
        <ele>567</ele>
        <time>2022-01-02T12:07:18.356Z</time>
      </trkpt>
      <trkpt lat="44.03691" lon="6.02732">
        <ele>566</ele>
        <time>2022-01-02T12:07:27.202Z</time>
      </trkpt>
      <trkpt lat="44.03701" lon="6.02729">
        <ele>564.40002441406</ele>
        <time>2022-01-02T12:07:36.051Z</time>
      </trkpt>
      <trkpt lat="44.03704" lon="6.02725">
        <ele>563.40002441406</ele>
        <time>2022-01-02T12:07:44.901Z</time>
      </trkpt>
      <trkpt lat="44.03707" lon="6.02721">
        <ele>562.40002441406</ele>
        <time>2022-01-02T12:07:53.753Z</time>
      </trkpt>
      <trkpt lat="44.03711" lon="6.02718">
        <ele>561.20001220703</ele>
        <time>2022-01-02T12:08:02.607Z</time>
      </trkpt>
      <trkpt lat="44.03715" lon="6.02716">
        <ele>559.79998779297</ele>
        <time>2022-01-02T12:08:11.462Z</time>
      </trkpt>
      <trkpt lat="44.03718" lon="6.02714">
        <ele>558.59997558594</ele>
        <time>2022-01-02T12:08:20.318Z</time>
      </trkpt>
      <trkpt lat="44.03721" lon="6.02714">
        <ele>557</ele>
        <time>2022-01-02T12:08:29.175Z</time>
      </trkpt>
      <trkpt lat="44.03725" lon="6.02715">
        <ele>555.79998779297</ele>
        <time>2022-01-02T12:08:38.034Z</time>
      </trkpt>
      <trkpt lat="44.03736" lon="6.02718">
        <ele>554.20001220703</ele>
        <time>2022-01-02T12:08:46.897Z</time>
      </trkpt>
      <trkpt lat="44.03742" lon="6.02721">
        <ele>553.59997558594</ele>
        <time>2022-01-02T12:08:55.762Z</time>
      </trkpt>
      <trkpt lat="44.03747" lon="6.02724">
        <ele>553.20001220703</ele>
        <time>2022-01-02T12:09:04.629Z</time>
      </trkpt>
      <trkpt lat="44.03757" lon="6.02733">
        <ele>551.59997558594</ele>
        <time>2022-01-02T12:09:13.500Z</time>
      </trkpt>
      <trkpt lat="44.03761" lon="6.02737">
        <ele>550.59997558594</ele>
        <time>2022-01-02T12:09:22.373Z</time>
      </trkpt>
      <trkpt lat="44.03765" lon="6.02742">
        <ele>550</ele>
        <time>2022-01-02T12:09:31.248Z</time>
      </trkpt>
      <trkpt lat="44.0377" lon="6.02747">
        <ele>549.59997558594</ele>
        <time>2022-01-02T12:09:40.125Z</time>
      </trkpt>
      <trkpt lat="44.03777" lon="6.02756">
        <ele>548.59997558594</ele>
        <time>2022-01-02T12:09:49.005Z</time>
      </trkpt>
      <trkpt lat="44.03783" lon="6.02759">
        <ele>547.40002441406</ele>
        <time>2022-01-02T12:09:57.887Z</time>
      </trkpt>
      <trkpt lat="44.03787" lon="6.02762">
        <ele>546.79998779297</ele>
        <time>2022-01-02T12:10:06.771Z</time>
      </trkpt>
      <trkpt lat="44.03791" lon="6.02766">
        <ele>546.20001220703</ele>
        <time>2022-01-02T12:10:15.656Z</time>
      </trkpt>
      <trkpt lat="44.03804" lon="6.02781">
        <ele>544.59997558594</ele>
        <time>2022-01-02T12:10:24.547Z</time>
      </trkpt>
      <trkpt lat="44.03815" lon="6.02792">
        <ele>543.59997558594</ele>
        <time>2022-01-02T12:10:33.443Z</time>
      </trkpt>
      <trkpt lat="44.03827" lon="6.02805">
        <ele>542</ele>
        <time>2022-01-02T12:10:42.345Z</time>
      </trkpt>
      <trkpt lat="44.03833" lon="6.02811">
        <ele>541.20001220703</ele>
        <time>2022-01-02T12:10:51.249Z</time>
      </trkpt>
      <trkpt lat="44.03838" lon="6.02817">
        <ele>540.20001220703</ele>
        <time>2022-01-02T12:11:00.155Z</time>
      </trkpt>
      <trkpt lat="44.03847" lon="6.02828">
        <ele>539.20001220703</ele>
        <time>2022-01-02T12:11:09.065Z</time>
      </trkpt>
      <trkpt lat="44.03855" lon="6.02838">
        <ele>538.40002441406</ele>
        <time>2022-01-02T12:11:17.979Z</time>
      </trkpt>
      <trkpt lat="44.03859" lon="6.02842">
        <ele>538.40002441406</ele>
        <time>2022-01-02T12:11:26.895Z</time>
      </trkpt>
      <trkpt lat="44.03874" lon="6.02856">
        <ele>537.59997558594</ele>
        <time>2022-01-02T12:11:35.817Z</time>
      </trkpt>
      <trkpt lat="44.03883" lon="6.02861">
        <ele>537.40002441406</ele>
        <time>2022-01-02T12:11:44.743Z</time>
      </trkpt>
      <trkpt lat="44.03892" lon="6.02864">
        <ele>537.59997558594</ele>
        <time>2022-01-02T12:11:53.672Z</time>
      </trkpt>
      <trkpt lat="44.03898" lon="6.02865">
        <ele>537.40002441406</ele>
        <time>2022-01-02T12:12:02.603Z</time>
      </trkpt>
      <trkpt lat="44.03914" lon="6.02865">
        <ele>536.40002441406</ele>
        <time>2022-01-02T12:12:11.540Z</time>
      </trkpt>
      <trkpt lat="44.03919" lon="6.02864">
        <ele>536</ele>
        <time>2022-01-02T12:12:20.478Z</time>
      </trkpt>
      <trkpt lat="44.03931" lon="6.02865">
        <ele>535.59997558594</ele>
        <time>2022-01-02T12:12:29.421Z</time>
      </trkpt>
      <trkpt lat="44.03939" lon="6.02867">
        <ele>535.20001220703</ele>
        <time>2022-01-02T12:12:38.366Z</time>
      </trkpt>
      <trkpt lat="44.03943" lon="6.02869">
        <ele>535</ele>
        <time>2022-01-02T12:12:47.313Z</time>
      </trkpt>
      <trkpt lat="44.03948" lon="6.02871">
        <ele>534.40002441406</ele>
        <time>2022-01-02T12:12:56.262Z</time>
      </trkpt>
      <trkpt lat="44.03959" lon="6.02872">
        <ele>533.59997558594</ele>
        <time>2022-01-02T12:13:05.214Z</time>
      </trkpt>
      <trkpt lat="44.03963" lon="6.02873">
        <ele>532.59997558594</ele>
        <time>2022-01-02T12:13:14.168Z</time>
      </trkpt>
      <trkpt lat="44.03974" lon="6.02873">
        <ele>531.20001220703</ele>
        <time>2022-01-02T12:13:23.126Z</time>
      </trkpt>
      <trkpt lat="44.03979" lon="6.02873">
        <ele>530.79998779297</ele>
        <time>2022-01-02T12:13:32.086Z</time>
      </trkpt>
      <trkpt lat="44.03984" lon="6.02874">
        <ele>530</ele>
        <time>2022-01-02T12:13:41.047Z</time>
      </trkpt>
      <trkpt lat="44.03993" lon="6.02877">
        <ele>528.79998779297</ele>
        <time>2022-01-02T12:13:50.011Z</time>
      </trkpt>
      <trkpt lat="44.03997" lon="6.02878">
        <ele>528.20001220703</ele>
        <time>2022-01-02T12:13:58.977Z</time>
      </trkpt>
      <trkpt lat="44.04001" lon="6.02877">
        <ele>527.59997558594</ele>
        <time>2022-01-02T12:14:07.944Z</time>
      </trkpt>
      <trkpt lat="44.04008" lon="6.02878">
        <ele>526.79998779297</ele>
        <time>2022-01-02T12:14:16.914Z</time>
      </trkpt>
      <trkpt lat="44.04011" lon="6.02878">
        <ele>526.20001220703</ele>
        <time>2022-01-02T12:14:25.885Z</time>
      </trkpt>
      <trkpt lat="44.0402" lon="6.02877">
        <ele>525.79998779297</ele>
        <time>2022-01-02T12:14:34.859Z</time>
      </trkpt>
      <trkpt lat="44.04025" lon="6.02877">
        <ele>525.40002441406</ele>
        <time>2022-01-02T12:14:43.835Z</time>
      </trkpt>
      <trkpt lat="44.04036" lon="6.02875">
        <ele>524</ele>
        <time>2022-01-02T12:14:52.815Z</time>
      </trkpt>
      <trkpt lat="44.0404" lon="6.02876">
        <ele>523.20001220703</ele>
        <time>2022-01-02T12:15:01.796Z</time>
      </trkpt>
      <trkpt lat="44.04045" lon="6.02876">
        <ele>522.79998779297</ele>
        <time>2022-01-02T12:15:10.779Z</time>
      </trkpt>
      <trkpt lat="44.04055" lon="6.02878">
        <ele>521.40002441406</ele>
        <time>2022-01-02T12:15:19.765Z</time>
      </trkpt>
      <trkpt lat="44.04062" lon="6.0288">
        <ele>520</ele>
        <time>2022-01-02T12:15:28.754Z</time>
      </trkpt>
      <trkpt lat="44.04069" lon="6.02882">
        <ele>518.40002441406</ele>
        <time>2022-01-02T12:15:37.745Z</time>
      </trkpt>
      <trkpt lat="44.04077" lon="6.02885">
        <ele>516.40002441406</ele>
        <time>2022-01-02T12:15:46.739Z</time>
      </trkpt>
      <trkpt lat="44.04083" lon="6.02891">
        <ele>514.59997558594</ele>
        <time>2022-01-02T12:15:55.736Z</time>
      </trkpt>
      <trkpt lat="44.04088" lon="6.02897">
        <ele>513.20001220703</ele>
        <time>2022-01-02T12:16:04.735Z</time>
      </trkpt>
      <trkpt lat="44.04094" lon="6.02899">
        <ele>511.60000610352</ele>
        <time>2022-01-02T12:16:13.736Z</time>
      </trkpt>
      <trkpt lat="44.041" lon="6.02903">
        <ele>510</ele>
        <time>2022-01-02T12:16:22.739Z</time>
      </trkpt>
      <trkpt lat="44.04105" lon="6.02904">
        <ele>508.79998779297</ele>
        <time>2022-01-02T12:16:31.744Z</time>
      </trkpt>
      <trkpt lat="44.04112" lon="6.02906">
        <ele>507.20001220703</ele>
        <time>2022-01-02T12:16:40.752Z</time>
      </trkpt>
      <trkpt lat="44.04115" lon="6.02906">
        <ele>506.60000610352</ele>
        <time>2022-01-02T12:16:49.761Z</time>
      </trkpt>
      <trkpt lat="44.0412" lon="6.02903">
        <ele>506.20001220703</ele>
        <time>2022-01-02T12:16:58.772Z</time>
      </trkpt>
      <trkpt lat="44.04121" lon="6.029">
        <ele>506.20001220703</ele>
        <time>2022-01-02T12:17:07.783Z</time>
      </trkpt>
      <trkpt lat="44.04123" lon="6.02898">
        <ele>506.39999389648</ele>
        <time>2022-01-02T12:17:16.795Z</time>
      </trkpt>
      <trkpt lat="44.04127" lon="6.02892">
        <ele>507.60000610352</ele>
        <time>2022-01-02T12:17:25.809Z</time>
      </trkpt>
      <trkpt lat="44.04137" lon="6.02879">
        <ele>508.39999389648</ele>
        <time>2022-01-02T12:17:34.828Z</time>
      </trkpt>
      <trkpt lat="44.04145" lon="6.02868">
        <ele>508.60000610352</ele>
        <time>2022-01-02T12:17:43.851Z</time>
      </trkpt>
      <trkpt lat="44.0415" lon="6.02861">
        <ele>508.79998779297</ele>
        <time>2022-01-02T12:17:52.877Z</time>
      </trkpt>
      <trkpt lat="44.04168" lon="6.02836">
        <ele>509.39999389648</ele>
        <time>2022-01-02T12:18:01.912Z</time>
      </trkpt>
      <trkpt lat="44.04183" lon="6.02825">
        <ele>507.79998779297</ele>
        <time>2022-01-02T12:18:10.952Z</time>
      </trkpt>
      <trkpt lat="44.04189" lon="6.02822">
        <ele>506.79998779297</ele>
        <time>2022-01-02T12:18:19.995Z</time>
      </trkpt>
      <trkpt lat="44.04195" lon="6.02819">
        <ele>505.79998779297</ele>
        <time>2022-01-02T12:18:29.040Z</time>
      </trkpt>
      <trkpt lat="44.042" lon="6.02816">
        <ele>504.60000610352</ele>
        <time>2022-01-02T12:18:38.087Z</time>
      </trkpt>
      <trkpt lat="44.04205" lon="6.02812">
        <ele>503</ele>
        <time>2022-01-02T12:18:47.136Z</time>
      </trkpt>
      <trkpt lat="44.04213" lon="6.02803">
        <ele>501</ele>
        <time>2022-01-02T12:18:56.188Z</time>
      </trkpt>
      <trkpt lat="44.04221" lon="6.02794">
        <ele>499</ele>
        <time>2022-01-02T12:19:05.244Z</time>
      </trkpt>
      <trkpt lat="44.04224" lon="6.02789">
        <ele>498</ele>
        <time>2022-01-02T12:19:14.302Z</time>
      </trkpt>
      <trkpt lat="44.04227" lon="6.02784">
        <ele>496.60000610352</ele>
        <time>2022-01-02T12:19:23.361Z</time>
      </trkpt>
      <trkpt lat="44.04234" lon="6.02775">
        <ele>494.79998779297</ele>
        <time>2022-01-02T12:19:32.424Z</time>
      </trkpt>
      <trkpt lat="44.04238" lon="6.0277">
        <ele>494</ele>
        <time>2022-01-02T12:19:41.488Z</time>
      </trkpt>
      <trkpt lat="44.04242" lon="6.02766">
        <ele>492.79998779297</ele>
        <time>2022-01-02T12:19:50.554Z</time>
      </trkpt>
      <trkpt lat="44.04245" lon="6.02762">
        <ele>492</ele>
        <time>2022-01-02T12:19:59.622Z</time>
      </trkpt>
      <trkpt lat="44.04249" lon="6.02757">
        <ele>491.39999389648</ele>
        <time>2022-01-02T12:20:08.691Z</time>
      </trkpt>
      <trkpt lat="44.04252" lon="6.02753">
        <ele>490.20001220703</ele>
        <time>2022-01-02T12:20:17.762Z</time>
      </trkpt>
      <trkpt lat="44.04256" lon="6.02747">
        <ele>489.20001220703</ele>
        <time>2022-01-02T12:20:26.835Z</time>
      </trkpt>
      <trkpt lat="44.04259" lon="6.02742">
        <ele>487.60000610352</ele>
        <time>2022-01-02T12:20:35.910Z</time>
      </trkpt>
      <trkpt lat="44.04262" lon="6.02736">
        <ele>486.20001220703</ele>
        <time>2022-01-02T12:20:44.987Z</time>
      </trkpt>
      <trkpt lat="44.04265" lon="6.02729">
        <ele>484.60000610352</ele>
        <time>2022-01-02T12:20:54.066Z</time>
      </trkpt>
      <trkpt lat="44.04267" lon="6.02721">
        <ele>483.20001220703</ele>
        <time>2022-01-02T12:21:03.147Z</time>
      </trkpt>
      <trkpt lat="44.04269" lon="6.02713">
        <ele>482.39999389648</ele>
        <time>2022-01-02T12:21:12.230Z</time>
      </trkpt>
      <trkpt lat="44.0427" lon="6.02705">
        <ele>481.20001220703</ele>
        <time>2022-01-02T12:21:21.315Z</time>
      </trkpt>
      <trkpt lat="44.04271" lon="6.02698">
        <ele>480</ele>
        <time>2022-01-02T12:21:30.402Z</time>
      </trkpt>
      <trkpt lat="44.04274" lon="6.02698">
        <ele>478.79998779297</ele>
        <time>2022-01-02T12:21:39.490Z</time>
      </trkpt>
      <trkpt lat="44.04276" lon="6.02701">
        <ele>478.39999389648</ele>
        <time>2022-01-02T12:21:48.579Z</time>
      </trkpt>
      <trkpt lat="44.04277" lon="6.02708">
        <ele>477.20001220703</ele>
        <time>2022-01-02T12:21:57.670Z</time>
      </trkpt>
      <trkpt lat="44.04278" lon="6.0271">
        <ele>476.60000610352</ele>
        <time>2022-01-02T12:22:06.761Z</time>
      </trkpt>
      <trkpt lat="44.0428" lon="6.02711">
        <ele>476</ele>
        <time>2022-01-02T12:22:15.853Z</time>
      </trkpt>
      <trkpt lat="44.04283" lon="6.02707">
        <ele>474.79998779297</ele>
        <time>2022-01-02T12:22:24.946Z</time>
      </trkpt>
      <trkpt lat="44.04283" lon="6.02702">
        <ele>474.20001220703</ele>
        <time>2022-01-02T12:22:34.041Z</time>
      </trkpt>
      <trkpt lat="44.04284" lon="6.02695">
        <ele>473.60000610352</ele>
        <time>2022-01-02T12:22:43.137Z</time>
      </trkpt>
      <trkpt lat="44.04284" lon="6.02681">
        <ele>471.39999389648</ele>
        <time>2022-01-02T12:22:52.237Z</time>
      </trkpt>
      <trkpt lat="44.04285" lon="6.02675">
        <ele>470.39999389648</ele>
        <time>2022-01-02T12:23:01.338Z</time>
      </trkpt>
      <trkpt lat="44.04288" lon="6.02672">
        <ele>469.39999389648</ele>
        <time>2022-01-02T12:23:10.441Z</time>
      </trkpt>
      <trkpt lat="44.04291" lon="6.02671">
        <ele>468.39999389648</ele>
        <time>2022-01-02T12:23:19.545Z</time>
      </trkpt>
      <trkpt lat="44.04295" lon="6.02672">
        <ele>467.79998779297</ele>
        <time>2022-01-02T12:23:28.650Z</time>
      </trkpt>
      <trkpt lat="44.04297" lon="6.02675">
        <ele>467.20001220703</ele>
        <time>2022-01-02T12:23:37.756Z</time>
      </trkpt>
      <trkpt lat="44.043" lon="6.02678">
        <ele>466.60000610352</ele>
        <time>2022-01-02T12:23:46.863Z</time>
      </trkpt>
      <trkpt lat="44.04303" lon="6.02682">
        <ele>466</ele>
        <time>2022-01-02T12:23:55.972Z</time>
      </trkpt>
      <trkpt lat="44.04305" lon="6.02687">
        <ele>465.39999389648</ele>
        <time>2022-01-02T12:24:05.082Z</time>
      </trkpt>
      <trkpt lat="44.04305" lon="6.02693">
        <ele>465</ele>
        <time>2022-01-02T12:24:14.194Z</time>
      </trkpt>
      <trkpt lat="44.04303" lon="6.02705">
        <ele>464.39999389648</ele>
        <time>2022-01-02T12:24:23.309Z</time>
      </trkpt>
      <trkpt lat="44.04301" lon="6.02711">
        <ele>464.20001220703</ele>
        <time>2022-01-02T12:24:32.426Z</time>
      </trkpt>
      <trkpt lat="44.04293" lon="6.02744">
        <ele>463</ele>
        <time>2022-01-02T12:24:41.551Z</time>
      </trkpt>
      <trkpt lat="44.04291" lon="6.02755">
        <ele>462.60000610352</ele>
        <time>2022-01-02T12:24:50.679Z</time>
      </trkpt>
      <trkpt lat="44.04287" lon="6.02774">
        <ele>462</ele>
        <time>2022-01-02T12:24:59.812Z</time>
      </trkpt>
      <trkpt lat="44.04286" lon="6.02795">
        <ele>461.20001220703</ele>
        <time>2022-01-02T12:25:08.950Z</time>
      </trkpt>
      <trkpt lat="44.04285" lon="6.02808">
        <ele>460.39999389648</ele>
        <time>2022-01-02T12:25:18.092Z</time>
      </trkpt>
      <trkpt lat="44.04284" lon="6.02821">
        <ele>460</ele>
        <time>2022-01-02T12:25:27.237Z</time>
      </trkpt>
      <trkpt lat="44.04283" lon="6.02828">
        <ele>459.79998779297</ele>
        <time>2022-01-02T12:25:36.384Z</time>
      </trkpt>
      <trkpt lat="44.04286" lon="6.0285">
        <ele>459.20001220703</ele>
        <time>2022-01-02T12:25:45.536Z</time>
      </trkpt>
      <trkpt lat="44.04296" lon="6.02875">
        <ele>458</ele>
        <time>2022-01-02T12:25:54.695Z</time>
      </trkpt>
      <trkpt lat="44.043" lon="6.02883">
        <ele>457.39999389648</ele>
        <time>2022-01-02T12:26:03.857Z</time>
      </trkpt>
      <trkpt lat="44.04305" lon="6.02891">
        <ele>456.79998779297</ele>
        <time>2022-01-02T12:26:13.022Z</time>
      </trkpt>
      <trkpt lat="44.04313" lon="6.02905">
        <ele>455.60000610352</ele>
        <time>2022-01-02T12:26:22.191Z</time>
      </trkpt>
      <trkpt lat="44.04315" lon="6.02913">
        <ele>455.20001220703</ele>
        <time>2022-01-02T12:26:31.362Z</time>
      </trkpt>
      <trkpt lat="44.04315" lon="6.02921">
        <ele>454.39999389648</ele>
        <time>2022-01-02T12:26:40.535Z</time>
      </trkpt>
      <trkpt lat="44.04312" lon="6.02938">
        <ele>452.79998779297</ele>
        <time>2022-01-02T12:26:49.713Z</time>
      </trkpt>
      <trkpt lat="44.04304" lon="6.0297">
        <ele>452</ele>
        <time>2022-01-02T12:26:58.899Z</time>
      </trkpt>
      <trkpt lat="44.04303" lon="6.02976">
        <ele>452</ele>
        <time>2022-01-02T12:27:08.087Z</time>
      </trkpt>
      <trkpt lat="44.04306" lon="6.02989">
        <ele>451.79998779297</ele>
        <time>2022-01-02T12:27:17.278Z</time>
      </trkpt>
      <trkpt lat="44.04312" lon="6.02994">
        <ele>451.79998779297</ele>
        <time>2022-01-02T12:27:26.472Z</time>
      </trkpt>
      <trkpt lat="44.04322" lon="6.02997">
        <ele>451.79998779297</ele>
        <time>2022-01-02T12:27:35.669Z</time>
      </trkpt>
      <trkpt lat="44.04329" lon="6.02991">
        <ele>451.79998779297</ele>
        <time>2022-01-02T12:27:44.869Z</time>
      </trkpt>
      <trkpt lat="44.04335" lon="6.02981">
        <ele>451.60000610352</ele>
        <time>2022-01-02T12:27:54.072Z</time>
      </trkpt>
      <trkpt lat="44.04341" lon="6.0297">
        <ele>451.60000610352</ele>
        <time>2022-01-02T12:28:03.279Z</time>
      </trkpt>
      <trkpt lat="44.04345" lon="6.02951">
        <ele>450.79998779297</ele>
        <time>2022-01-02T12:28:12.491Z</time>
      </trkpt>
      <trkpt lat="44.04358" lon="6.0293">
        <ele>450.20001220703</ele>
        <time>2022-01-02T12:28:21.710Z</time>
      </trkpt>
      <trkpt lat="44.04361" lon="6.02928">
        <ele>450.20001220703</ele>
        <time>2022-01-02T12:28:30.930Z</time>
      </trkpt>
      <trkpt lat="44.04376" lon="6.02922">
        <ele>450.20001220703</ele>
        <time>2022-01-02T12:28:40.155Z</time>
      </trkpt>
      <trkpt lat="44.04379" lon="6.02921">
        <ele>450</ele>
        <time>2022-01-02T12:28:49.382Z</time>
      </trkpt>
      <trkpt lat="44.04383" lon="6.02919">
        <ele>449.60000610352</ele>
        <time>2022-01-02T12:28:58.610Z</time>
      </trkpt>
    </trkseg>
  </trk>
</gpx>